<?xml version="1.0" encoding="utf-8"?>
<gpx xsi:schemaLocation="http://www.topografix.com/GPX/1/1 http://www.topografix.com/GPX/1/1/gpx.xsd http://www.garmin.com/xmlschemas/GpxExtensions/v3 http://www.garmin.com/xmlschemas/GpxExtensionsv3.xsd http://www.garmin.com/xmlschemas/TrackPointExtension/v1 http://www.garmin.com/xmlschemas/TrackPointExtensionv1.xsd" version="1.1" creator="Sports Tracker" xmlns="http://www.topografix.com/GPX/1/1" xmlns:xsi="http://www.w3.org/2001/XMLSchema-instance" xmlns:gpxtpx="http://www.garmin.com/xmlschemas/TrackPointExtension/v1" xmlns:gpxx="http://www.garmin.com/xmlschemas/GpxExtensions/v3">
  <metadata>
    <name>Cycling 2/05/2013/18:11:22.36</name>
    <desc></desc>
    <author>
      <name>alberto gonzalez hernandez</name>
    </author>
    <link href="www.sports-tracker.com">
      <text>Sports Tracker</text>
    </link>
  </metadata>
  <trk>
    <trkseg>
      <trkpt lat="37.213585" lon="-7.404546666666667">
        <ele>63.2</ele>
        <time>2013-05-02T18:11:22.36</time>
      </trkpt>
      <trkpt lat="37.213585" lon="-7.404546666666667">
        <ele>63.2</ele>
        <time>2013-05-02T18:15:37.17</time>
      </trkpt>
      <trkpt lat="37.213566666666665" lon="-7.404598333333333">
        <ele>62.800000000000004</ele>
        <time>2013-05-02T18:15:38.17</time>
      </trkpt>
      <trkpt lat="37.213585" lon="-7.4046666666666665">
        <ele>61.1</ele>
        <time>2013-05-02T18:15:39.17</time>
      </trkpt>
      <trkpt lat="37.213568333333335" lon="-7.4047">
        <ele>59.5</ele>
        <time>2013-05-02T18:15:40.18</time>
      </trkpt>
      <trkpt lat="37.21353166666667" lon="-7.40471">
        <ele>59</ele>
        <time>2013-05-02T18:15:41.17</time>
      </trkpt>
      <trkpt lat="37.21348166666667" lon="-7.40472">
        <ele>58.3</ele>
        <time>2013-05-02T18:15:42.17</time>
      </trkpt>
      <trkpt lat="37.213411666666666" lon="-7.404711666666667">
        <ele>58.099999999999994</ele>
        <time>2013-05-02T18:15:43.17</time>
      </trkpt>
      <trkpt lat="37.21334" lon="-7.40471">
        <ele>57.99999999999999</ele>
        <time>2013-05-02T18:15:44.17</time>
      </trkpt>
      <trkpt lat="37.21328" lon="-7.4046916666666664">
        <ele>56.99999999999999</ele>
        <time>2013-05-02T18:15:45.16</time>
      </trkpt>
      <trkpt lat="37.21322" lon="-7.404671666666666">
        <ele>57.099999999999994</ele>
        <time>2013-05-02T18:15:46.17</time>
      </trkpt>
      <trkpt lat="37.21317" lon="-7.4046666666666665">
        <ele>57.39999999999999</ele>
        <time>2013-05-02T18:15:47.17</time>
      </trkpt>
      <trkpt lat="37.213136666666664" lon="-7.404678333333333">
        <ele>57.89999999999999</ele>
        <time>2013-05-02T18:15:48.17</time>
      </trkpt>
      <trkpt lat="37.213085" lon="-7.4046883333333335">
        <ele>58.79999999999999</ele>
        <time>2013-05-02T18:15:49.17</time>
      </trkpt>
      <trkpt lat="37.213071666666664" lon="-7.404716666666666">
        <ele>59.09999999999999</ele>
        <time>2013-05-02T18:15:50.17</time>
      </trkpt>
      <trkpt lat="37.213073333333334" lon="-7.404756666666667">
        <ele>59.399999999999984</ele>
        <time>2013-05-02T18:15:51.21</time>
      </trkpt>
      <trkpt lat="37.21305666666667" lon="-7.40476">
        <ele>59.999999999999986</ele>
        <time>2013-05-02T18:15:52.19</time>
      </trkpt>
      <trkpt lat="37.21301666666667" lon="-7.40479">
        <ele>59.69999999999999</ele>
        <time>2013-05-02T18:15:53.17</time>
      </trkpt>
      <trkpt lat="37.212961666666665" lon="-7.404816666666667">
        <ele>59.29999999999999</ele>
        <time>2013-05-02T18:15:54.17</time>
      </trkpt>
      <trkpt lat="37.212925" lon="-7.404801666666667">
        <ele>59.79999999999999</ele>
        <time>2013-05-02T18:15:55.17</time>
      </trkpt>
      <trkpt lat="37.212878333333336" lon="-7.404805">
        <ele>59.99999999999999</ele>
        <time>2013-05-02T18:15:56.18</time>
      </trkpt>
      <trkpt lat="37.21282333333333" lon="-7.404798333333333">
        <ele>59.89999999999999</ele>
        <time>2013-05-02T18:15:57.17</time>
      </trkpt>
      <trkpt lat="37.212783333333334" lon="-7.404756666666667">
        <ele>60.29999999999999</ele>
        <time>2013-05-02T18:15:58.17</time>
      </trkpt>
      <trkpt lat="37.21275" lon="-7.404705">
        <ele>60.49999999999999</ele>
        <time>2013-05-02T18:15:59.17</time>
      </trkpt>
      <trkpt lat="37.212725" lon="-7.404631666666667">
        <ele>60.699999999999996</ele>
        <time>2013-05-02T18:16:00.14</time>
      </trkpt>
      <trkpt lat="37.21268666666667" lon="-7.40457">
        <ele>60.9</ele>
        <time>2013-05-02T18:16:01.17</time>
      </trkpt>
      <trkpt lat="37.21264166666667" lon="-7.404503333333333">
        <ele>61.199999999999996</ele>
        <time>2013-05-02T18:16:02.17</time>
      </trkpt>
      <trkpt lat="37.212635" lon="-7.404421666666667">
        <ele>61.199999999999996</ele>
        <time>2013-05-02T18:16:03.17</time>
      </trkpt>
      <trkpt lat="37.212606666666666" lon="-7.404353333333333">
        <ele>60.99999999999999</ele>
        <time>2013-05-02T18:16:04.17</time>
      </trkpt>
      <trkpt lat="37.212588333333336" lon="-7.404288333333334">
        <ele>60.79999999999999</ele>
        <time>2013-05-02T18:16:05.17</time>
      </trkpt>
      <trkpt lat="37.212565" lon="-7.404218333333334">
        <ele>59.79999999999999</ele>
        <time>2013-05-02T18:16:06.17</time>
      </trkpt>
      <trkpt lat="37.21251" lon="-7.404198333333333">
        <ele>59.29999999999999</ele>
        <time>2013-05-02T18:16:07.17</time>
      </trkpt>
      <trkpt lat="37.21246333333333" lon="-7.4041483333333336">
        <ele>58.49999999999999</ele>
        <time>2013-05-02T18:16:08.18</time>
      </trkpt>
      <trkpt lat="37.21241833333333" lon="-7.404096666666667">
        <ele>58.49999999999999</ele>
        <time>2013-05-02T18:16:09.17</time>
      </trkpt>
      <trkpt lat="37.21236833333333" lon="-7.404036666666666">
        <ele>58.79999999999999</ele>
        <time>2013-05-02T18:16:10.16</time>
      </trkpt>
      <trkpt lat="37.21232166666667" lon="-7.403998333333333">
        <ele>58.69999999999999</ele>
        <time>2013-05-02T18:16:11.17</time>
      </trkpt>
      <trkpt lat="37.21229" lon="-7.403955">
        <ele>58.39999999999999</ele>
        <time>2013-05-02T18:16:12.15</time>
      </trkpt>
      <trkpt lat="37.212271666666666" lon="-7.40394">
        <ele>58.69999999999999</ele>
        <time>2013-05-02T18:16:13.15</time>
      </trkpt>
      <trkpt lat="37.21224333333333" lon="-7.403915">
        <ele>58.69999999999999</ele>
        <time>2013-05-02T18:16:14.16</time>
      </trkpt>
      <trkpt lat="37.212221666666665" lon="-7.403861666666667">
        <ele>59.29999999999999</ele>
        <time>2013-05-02T18:16:15.17</time>
      </trkpt>
      <trkpt lat="37.21218833333333" lon="-7.40383">
        <ele>59.99999999999999</ele>
        <time>2013-05-02T18:16:16.17</time>
      </trkpt>
      <trkpt lat="37.212155" lon="-7.403785">
        <ele>60.39999999999999</ele>
        <time>2013-05-02T18:16:17.23</time>
      </trkpt>
      <trkpt lat="37.21212166666667" lon="-7.403685">
        <ele>58.099999999999994</ele>
        <time>2013-05-02T18:16:18.17</time>
      </trkpt>
      <trkpt lat="37.212095" lon="-7.403641666666666">
        <ele>58.3</ele>
        <time>2013-05-02T18:16:19.18</time>
      </trkpt>
      <trkpt lat="37.21203333333333" lon="-7.403623333333333">
        <ele>58.9</ele>
        <time>2013-05-02T18:16:20.23</time>
      </trkpt>
      <trkpt lat="37.21201" lon="-7.4036">
        <ele>59.199999999999996</ele>
        <time>2013-05-02T18:16:21.15</time>
      </trkpt>
      <trkpt lat="37.211905" lon="-7.403505">
        <ele>61.4</ele>
        <time>2013-05-02T18:16:23.17</time>
      </trkpt>
      <trkpt lat="37.21187666666667" lon="-7.403461666666667">
        <ele>62</ele>
        <time>2013-05-02T18:16:24.14</time>
      </trkpt>
      <trkpt lat="37.21184" lon="-7.403393333333334">
        <ele>61.6</ele>
        <time>2013-05-02T18:16:25.17</time>
      </trkpt>
      <trkpt lat="37.211461666666665" lon="-7.40361">
        <ele>60.6</ele>
        <time>2013-05-02T18:16:27.16</time>
      </trkpt>
      <trkpt lat="37.211301666666664" lon="-7.40364">
        <ele>60.300000000000004</ele>
        <time>2013-05-02T18:16:29.17</time>
      </trkpt>
      <trkpt lat="37.211256666666664" lon="-7.403636666666666">
        <ele>61.2</ele>
        <time>2013-05-02T18:16:30.17</time>
      </trkpt>
      <trkpt lat="37.21121333333333" lon="-7.40364">
        <ele>61.800000000000004</ele>
        <time>2013-05-02T18:16:31.21</time>
      </trkpt>
      <trkpt lat="37.21117666666667" lon="-7.403645">
        <ele>61.6</ele>
        <time>2013-05-02T18:16:32.17</time>
      </trkpt>
      <trkpt lat="37.211145" lon="-7.403635">
        <ele>61.5</ele>
        <time>2013-05-02T18:16:33.20</time>
      </trkpt>
      <trkpt lat="37.210813333333334" lon="-7.40384">
        <ele>59.5</ele>
        <time>2013-05-02T18:16:35.17</time>
      </trkpt>
      <trkpt lat="37.21069" lon="-7.403895">
        <ele>59</ele>
        <time>2013-05-02T18:16:36.15</time>
      </trkpt>
      <trkpt lat="37.21062166666667" lon="-7.4039166666666665">
        <ele>59.4</ele>
        <time>2013-05-02T18:16:37.17</time>
      </trkpt>
      <trkpt lat="37.21055833333333" lon="-7.4039383333333335">
        <ele>59.4</ele>
        <time>2013-05-02T18:16:38.17</time>
      </trkpt>
      <trkpt lat="37.21051166666667" lon="-7.403955">
        <ele>59.1</ele>
        <time>2013-05-02T18:16:39.19</time>
      </trkpt>
      <trkpt lat="37.210458333333335" lon="-7.403983333333334">
        <ele>58.4</ele>
        <time>2013-05-02T18:16:40.19</time>
      </trkpt>
      <trkpt lat="37.21039666666667" lon="-7.403995">
        <ele>58.6</ele>
        <time>2013-05-02T18:16:41.15</time>
      </trkpt>
      <trkpt lat="37.21034" lon="-7.40402">
        <ele>59.4</ele>
        <time>2013-05-02T18:16:42.16</time>
      </trkpt>
      <trkpt lat="37.21027" lon="-7.404043333333333">
        <ele>58.699999999999996</ele>
        <time>2013-05-02T18:16:43.17</time>
      </trkpt>
      <trkpt lat="37.210215" lon="-7.404053333333334">
        <ele>59.3</ele>
        <time>2013-05-02T18:16:44.17</time>
      </trkpt>
      <trkpt lat="37.21015666666667" lon="-7.404048333333333">
        <ele>60.5</ele>
        <time>2013-05-02T18:16:45.15</time>
      </trkpt>
      <trkpt lat="37.210125" lon="-7.404031666666667">
        <ele>61.3</ele>
        <time>2013-05-02T18:16:46.16</time>
      </trkpt>
      <trkpt lat="37.21008666666667" lon="-7.4040333333333335">
        <ele>61.3</ele>
        <time>2013-05-02T18:16:47.17</time>
      </trkpt>
      <trkpt lat="37.210103333333336" lon="-7.403993333333333">
        <ele>62.199999999999996</ele>
        <time>2013-05-02T18:16:48.16</time>
      </trkpt>
      <trkpt lat="37.21006666666667" lon="-7.403978333333334">
        <ele>62.699999999999996</ele>
        <time>2013-05-02T18:16:49.15</time>
      </trkpt>
      <trkpt lat="37.210105" lon="-7.403933333333334">
        <ele>62.699999999999996</ele>
        <time>2013-05-02T18:16:50.15</time>
      </trkpt>
      <trkpt lat="37.210078333333335" lon="-7.403918333333333">
        <ele>63.4</ele>
        <time>2013-05-02T18:16:51.18</time>
      </trkpt>
      <trkpt lat="37.21004666666666" lon="-7.403888333333334">
        <ele>63.6</ele>
        <time>2013-05-02T18:16:52.15</time>
      </trkpt>
      <trkpt lat="37.21003833333333" lon="-7.403875">
        <ele>63.9</ele>
        <time>2013-05-02T18:16:53.16</time>
      </trkpt>
      <trkpt lat="37.210028333333334" lon="-7.40385">
        <ele>64.3</ele>
        <time>2013-05-02T18:16:54.15</time>
      </trkpt>
      <trkpt lat="37.20999833333333" lon="-7.403833333333333">
        <ele>65</ele>
        <time>2013-05-02T18:16:55.20</time>
      </trkpt>
      <trkpt lat="37.209975" lon="-7.403818333333334">
        <ele>65.6</ele>
        <time>2013-05-02T18:16:56.20</time>
      </trkpt>
      <trkpt lat="37.209801666666664" lon="-7.403873333333333">
        <ele>66</ele>
        <time>2013-05-02T18:16:58.16</time>
      </trkpt>
      <trkpt lat="37.209651666666666" lon="-7.40396">
        <ele>65.3</ele>
        <time>2013-05-02T18:16:59.16</time>
      </trkpt>
      <trkpt lat="37.2095" lon="-7.403998333333333">
        <ele>65.7</ele>
        <time>2013-05-02T18:17:01.15</time>
      </trkpt>
      <trkpt lat="37.20943166666667" lon="-7.404031666666667">
        <ele>65.10000000000001</ele>
        <time>2013-05-02T18:17:02.15</time>
      </trkpt>
      <trkpt lat="37.20937833333333" lon="-7.404046666666667">
        <ele>64.80000000000001</ele>
        <time>2013-05-02T18:17:03.16</time>
      </trkpt>
      <trkpt lat="37.20931" lon="-7.404043333333333">
        <ele>64.50000000000001</ele>
        <time>2013-05-02T18:17:04.15</time>
      </trkpt>
      <trkpt lat="37.209246666666665" lon="-7.404043333333333">
        <ele>64.20000000000002</ele>
        <time>2013-05-02T18:17:05.15</time>
      </trkpt>
      <trkpt lat="37.209196666666664" lon="-7.404043333333333">
        <ele>63.90000000000002</ele>
        <time>2013-05-02T18:17:06.15</time>
      </trkpt>
      <trkpt lat="37.20912" lon="-7.404065">
        <ele>63.50000000000002</ele>
        <time>2013-05-02T18:17:07.16</time>
      </trkpt>
      <trkpt lat="37.20905" lon="-7.404086666666666">
        <ele>62.90000000000002</ele>
        <time>2013-05-02T18:17:08.15</time>
      </trkpt>
      <trkpt lat="37.208975" lon="-7.404106666666666">
        <ele>62.80000000000002</ele>
        <time>2013-05-02T18:17:09.15</time>
      </trkpt>
      <trkpt lat="37.20891666666667" lon="-7.404123333333334">
        <ele>62.600000000000016</ele>
        <time>2013-05-02T18:17:10.15</time>
      </trkpt>
      <trkpt lat="37.20885" lon="-7.404128333333333">
        <ele>63.100000000000016</ele>
        <time>2013-05-02T18:17:11.21</time>
      </trkpt>
      <trkpt lat="37.208795" lon="-7.40413">
        <ele>63.30000000000002</ele>
        <time>2013-05-02T18:17:12.25</time>
      </trkpt>
      <trkpt lat="37.208731666666665" lon="-7.404135">
        <ele>63.100000000000016</ele>
        <time>2013-05-02T18:17:13.16</time>
      </trkpt>
      <trkpt lat="37.20865333333333" lon="-7.404135">
        <ele>62.90000000000001</ele>
        <time>2013-05-02T18:17:14.16</time>
      </trkpt>
      <trkpt lat="37.20860666666667" lon="-7.404133333333333">
        <ele>63.100000000000016</ele>
        <time>2013-05-02T18:17:15.16</time>
      </trkpt>
      <trkpt lat="37.20854666666666" lon="-7.404111666666667">
        <ele>63.20000000000002</ele>
        <time>2013-05-02T18:17:16.15</time>
      </trkpt>
      <trkpt lat="37.20849666666667" lon="-7.40409">
        <ele>63.20000000000002</ele>
        <time>2013-05-02T18:17:17.15</time>
      </trkpt>
      <trkpt lat="37.208465" lon="-7.4040783333333335">
        <ele>63.30000000000002</ele>
        <time>2013-05-02T18:17:18.15</time>
      </trkpt>
      <trkpt lat="37.208436666666664" lon="-7.404043333333333">
        <ele>63.80000000000002</ele>
        <time>2013-05-02T18:17:19.15</time>
      </trkpt>
      <trkpt lat="37.2084" lon="-7.404028333333334">
        <ele>64.50000000000001</ele>
        <time>2013-05-02T18:17:20.16</time>
      </trkpt>
      <trkpt lat="37.20838666666667" lon="-7.403983333333334">
        <ele>64.60000000000001</ele>
        <time>2013-05-02T18:17:21.16</time>
      </trkpt>
      <trkpt lat="37.20833" lon="-7.4039633333333335">
        <ele>65.00000000000001</ele>
        <time>2013-05-02T18:17:22.15</time>
      </trkpt>
      <trkpt lat="37.20829166666667" lon="-7.403926666666667">
        <ele>65.40000000000002</ele>
        <time>2013-05-02T18:17:23.16</time>
      </trkpt>
      <trkpt lat="37.208243333333336" lon="-7.4038916666666665">
        <ele>66.00000000000001</ele>
        <time>2013-05-02T18:17:24.19</time>
      </trkpt>
      <trkpt lat="37.20818333333333" lon="-7.403888333333334">
        <ele>66.60000000000001</ele>
        <time>2013-05-02T18:17:25.17</time>
      </trkpt>
      <trkpt lat="37.20812166666666" lon="-7.403893333333333">
        <ele>67.4</ele>
        <time>2013-05-02T18:17:26.15</time>
      </trkpt>
      <trkpt lat="37.20807" lon="-7.403865">
        <ele>68.2</ele>
        <time>2013-05-02T18:17:27.15</time>
      </trkpt>
      <trkpt lat="37.20800333333333" lon="-7.403833333333333">
        <ele>69</ele>
        <time>2013-05-02T18:17:28.15</time>
      </trkpt>
      <trkpt lat="37.207966666666664" lon="-7.403796666666667">
        <ele>71.3</ele>
        <time>2013-05-02T18:17:29.17</time>
      </trkpt>
      <trkpt lat="37.207705" lon="-7.403968333333333">
        <ele>68.39999999999999</ele>
        <time>2013-05-02T18:17:31.15</time>
      </trkpt>
      <trkpt lat="37.207618333333336" lon="-7.403998333333333">
        <ele>68.49999999999999</ele>
        <time>2013-05-02T18:17:33.15</time>
      </trkpt>
      <trkpt lat="37.20756333333333" lon="-7.404041666666667">
        <ele>68.29999999999998</ele>
        <time>2013-05-02T18:17:34.15</time>
      </trkpt>
      <trkpt lat="37.207476666666665" lon="-7.404095">
        <ele>68.59999999999998</ele>
        <time>2013-05-02T18:17:35.15</time>
      </trkpt>
      <trkpt lat="37.207438333333336" lon="-7.404125">
        <ele>69.09999999999998</ele>
        <time>2013-05-02T18:17:36.17</time>
      </trkpt>
      <trkpt lat="37.20744166666667" lon="-7.404146666666667">
        <ele>69.69999999999997</ele>
        <time>2013-05-02T18:17:37.15</time>
      </trkpt>
      <trkpt lat="37.20742333333333" lon="-7.404171666666667">
        <ele>70.69999999999997</ele>
        <time>2013-05-02T18:17:38.16</time>
      </trkpt>
      <trkpt lat="37.20737" lon="-7.40417">
        <ele>71.99999999999997</ele>
        <time>2013-05-02T18:17:39.15</time>
      </trkpt>
      <trkpt lat="37.20731333333333" lon="-7.404145">
        <ele>72.49999999999997</ele>
        <time>2013-05-02T18:17:40.19</time>
      </trkpt>
      <trkpt lat="37.20727333333333" lon="-7.404123333333334">
        <ele>72.89999999999998</ele>
        <time>2013-05-02T18:17:41.17</time>
      </trkpt>
      <trkpt lat="37.20723666666667" lon="-7.404128333333333">
        <ele>73.29999999999998</ele>
        <time>2013-05-02T18:17:42.15</time>
      </trkpt>
      <trkpt lat="37.207186666666665" lon="-7.4041033333333335">
        <ele>73.59999999999998</ele>
        <time>2013-05-02T18:17:43.15</time>
      </trkpt>
      <trkpt lat="37.207118333333334" lon="-7.404061666666666">
        <ele>74.59999999999998</ele>
        <time>2013-05-02T18:17:44.15</time>
      </trkpt>
      <trkpt lat="37.20708" lon="-7.404">
        <ele>75.79999999999998</ele>
        <time>2013-05-02T18:17:45.16</time>
      </trkpt>
      <trkpt lat="37.20702" lon="-7.403971666666667">
        <ele>76.79999999999998</ele>
        <time>2013-05-02T18:17:46.15</time>
      </trkpt>
      <trkpt lat="37.20691166666667" lon="-7.403661666666666">
        <ele>68.69999999999999</ele>
        <time>2013-05-02T18:17:48.16</time>
      </trkpt>
      <trkpt lat="37.206846666666664" lon="-7.403653333333334">
        <ele>68.19999999999999</ele>
        <time>2013-05-02T18:17:49.15</time>
      </trkpt>
      <trkpt lat="37.206756666666664" lon="-7.403665">
        <ele>68.39999999999999</ele>
        <time>2013-05-02T18:17:50.16</time>
      </trkpt>
      <trkpt lat="37.20666833333333" lon="-7.403698333333334">
        <ele>68.6</ele>
        <time>2013-05-02T18:17:51.15</time>
      </trkpt>
      <trkpt lat="37.20662166666666" lon="-7.403696666666667">
        <ele>69.39999999999999</ele>
        <time>2013-05-02T18:17:52.16</time>
      </trkpt>
      <trkpt lat="37.20654666666667" lon="-7.403676666666667">
        <ele>71.6</ele>
        <time>2013-05-02T18:17:53.15</time>
      </trkpt>
      <trkpt lat="37.206505" lon="-7.403636666666666">
        <ele>72.3</ele>
        <time>2013-05-02T18:17:54.16</time>
      </trkpt>
      <trkpt lat="37.20644333333333" lon="-7.403573333333333">
        <ele>71.39999999999999</ele>
        <time>2013-05-02T18:17:55.15</time>
      </trkpt>
      <trkpt lat="37.20639" lon="-7.4035166666666665">
        <ele>70.8</ele>
        <time>2013-05-02T18:17:56.17</time>
      </trkpt>
      <trkpt lat="37.206356666666665" lon="-7.40351">
        <ele>70.8</ele>
        <time>2013-05-02T18:17:57.15</time>
      </trkpt>
      <trkpt lat="37.206311666666664" lon="-7.40351">
        <ele>71.3</ele>
        <time>2013-05-02T18:17:58.15</time>
      </trkpt>
      <trkpt lat="37.20626166666667" lon="-7.403521666666666">
        <ele>70.89999999999999</ele>
        <time>2013-05-02T18:17:59.16</time>
      </trkpt>
      <trkpt lat="37.20623166666667" lon="-7.40349">
        <ele>71.99999999999999</ele>
        <time>2013-05-02T18:18:00.14</time>
      </trkpt>
      <trkpt lat="37.206181666666666" lon="-7.4034933333333335">
        <ele>72.49999999999999</ele>
        <time>2013-05-02T18:18:01.16</time>
      </trkpt>
      <trkpt lat="37.206163333333336" lon="-7.403476666666666">
        <ele>73.59999999999998</ele>
        <time>2013-05-02T18:18:02.16</time>
      </trkpt>
      <trkpt lat="37.20614833333333" lon="-7.403461666666667">
        <ele>74.19999999999997</ele>
        <time>2013-05-02T18:18:03.16</time>
      </trkpt>
      <trkpt lat="37.20568166666666" lon="-7.4037033333333335">
        <ele>76</ele>
        <time>2013-05-02T18:18:06.16</time>
      </trkpt>
      <trkpt lat="37.205553333333334" lon="-7.403608333333334">
        <ele>78.5</ele>
        <time>2013-05-02T18:18:08.16</time>
      </trkpt>
      <trkpt lat="37.20547833333333" lon="-7.403555">
        <ele>80.1</ele>
        <time>2013-05-02T18:18:09.16</time>
      </trkpt>
      <trkpt lat="37.205425" lon="-7.4035383333333336">
        <ele>80.3</ele>
        <time>2013-05-02T18:18:10.15</time>
      </trkpt>
      <trkpt lat="37.205396666666665" lon="-7.403496666666666">
        <ele>80.3</ele>
        <time>2013-05-02T18:18:11.16</time>
      </trkpt>
      <trkpt lat="37.205371666666665" lon="-7.40345">
        <ele>81.1</ele>
        <time>2013-05-02T18:18:12.16</time>
      </trkpt>
      <trkpt lat="37.20529666666667" lon="-7.403368333333334">
        <ele>82.69999999999999</ele>
        <time>2013-05-02T18:18:13.15</time>
      </trkpt>
      <trkpt lat="37.205195" lon="-7.403246666666667">
        <ele>85.1</ele>
        <time>2013-05-02T18:18:14.16</time>
      </trkpt>
      <trkpt lat="37.20513666666667" lon="-7.403205">
        <ele>86.3</ele>
        <time>2013-05-02T18:18:15.16</time>
      </trkpt>
      <trkpt lat="37.205128333333334" lon="-7.40317">
        <ele>85.6</ele>
        <time>2013-05-02T18:18:16.16</time>
      </trkpt>
      <trkpt lat="37.20507166666667" lon="-7.403105">
        <ele>85</ele>
        <time>2013-05-02T18:18:17.15</time>
      </trkpt>
      <trkpt lat="37.205038333333334" lon="-7.403018333333334">
        <ele>81.8</ele>
        <time>2013-05-02T18:18:18.15</time>
      </trkpt>
      <trkpt lat="37.20499" lon="-7.40289">
        <ele>76.5</ele>
        <time>2013-05-02T18:18:19.15</time>
      </trkpt>
      <trkpt lat="37.204948333333334" lon="-7.402815">
        <ele>76</ele>
        <time>2013-05-02T18:18:20.16</time>
      </trkpt>
      <trkpt lat="37.204926666666665" lon="-7.402725">
        <ele>74.6</ele>
        <time>2013-05-02T18:18:21.16</time>
      </trkpt>
      <trkpt lat="37.20489166666667" lon="-7.402641666666667">
        <ele>73.3</ele>
        <time>2013-05-02T18:18:22.16</time>
      </trkpt>
      <trkpt lat="37.204856666666664" lon="-7.402591666666667">
        <ele>72.39999999999999</ele>
        <time>2013-05-02T18:18:23.16</time>
      </trkpt>
      <trkpt lat="37.204805" lon="-7.4025316666666665">
        <ele>72.19999999999999</ele>
        <time>2013-05-02T18:18:24.15</time>
      </trkpt>
      <trkpt lat="37.20476" lon="-7.402481666666667">
        <ele>71.79999999999998</ele>
        <time>2013-05-02T18:18:25.16</time>
      </trkpt>
      <trkpt lat="37.204735" lon="-7.402415">
        <ele>71.09999999999998</ele>
        <time>2013-05-02T18:18:26.16</time>
      </trkpt>
      <trkpt lat="37.204723333333334" lon="-7.402373333333333">
        <ele>69.69999999999997</ele>
        <time>2013-05-02T18:18:27.16</time>
      </trkpt>
      <trkpt lat="37.204705" lon="-7.402356666666667">
        <ele>69.19999999999997</ele>
        <time>2013-05-02T18:18:28.16</time>
      </trkpt>
      <trkpt lat="37.20467333333333" lon="-7.40235">
        <ele>70.69999999999997</ele>
        <time>2013-05-02T18:18:29.16</time>
      </trkpt>
      <trkpt lat="37.204101666666666" lon="-7.40268">
        <ele>64.1</ele>
        <time>2013-05-02T18:18:32.16</time>
      </trkpt>
      <trkpt lat="37.20400166666667" lon="-7.40263">
        <ele>63.99999999999999</ele>
        <time>2013-05-02T18:18:34.15</time>
      </trkpt>
      <trkpt lat="37.20397166666667" lon="-7.40262">
        <ele>63.99999999999999</ele>
        <time>2013-05-02T18:18:35.15</time>
      </trkpt>
      <trkpt lat="37.20393833333333" lon="-7.402581666666666">
        <ele>63.89999999999999</ele>
        <time>2013-05-02T18:18:36.16</time>
      </trkpt>
      <trkpt lat="37.20389" lon="-7.402521666666667">
        <ele>64.49999999999999</ele>
        <time>2013-05-02T18:18:37.16</time>
      </trkpt>
      <trkpt lat="37.20384833333333" lon="-7.402451666666667">
        <ele>63.899999999999984</ele>
        <time>2013-05-02T18:18:38.15</time>
      </trkpt>
      <trkpt lat="37.2038" lon="-7.402368333333333">
        <ele>63.09999999999999</ele>
        <time>2013-05-02T18:18:39.16</time>
      </trkpt>
      <trkpt lat="37.203741666666666" lon="-7.402316666666667">
        <ele>62.899999999999984</ele>
        <time>2013-05-02T18:18:40.16</time>
      </trkpt>
      <trkpt lat="37.203696666666666" lon="-7.402275">
        <ele>62.899999999999984</ele>
        <time>2013-05-02T18:18:41.16</time>
      </trkpt>
      <trkpt lat="37.203673333333334" lon="-7.4022483333333335">
        <ele>63.09999999999999</ele>
        <time>2013-05-02T18:18:42.16</time>
      </trkpt>
      <trkpt lat="37.203648333333334" lon="-7.40223">
        <ele>63.19999999999999</ele>
        <time>2013-05-02T18:18:43.16</time>
      </trkpt>
      <trkpt lat="37.20363" lon="-7.402233333333333">
        <ele>63.79999999999999</ele>
        <time>2013-05-02T18:18:44.16</time>
      </trkpt>
      <trkpt lat="37.20359666666667" lon="-7.402216666666667">
        <ele>64.69999999999999</ele>
        <time>2013-05-02T18:18:45.15</time>
      </trkpt>
      <trkpt lat="37.203516666666665" lon="-7.402161666666666">
        <ele>66.29999999999998</ele>
        <time>2013-05-02T18:18:46.16</time>
      </trkpt>
      <trkpt lat="37.203485" lon="-7.402118333333333">
        <ele>67.29999999999998</ele>
        <time>2013-05-02T18:18:47.16</time>
      </trkpt>
      <trkpt lat="37.20343166666667" lon="-7.402058333333334">
        <ele>67.69999999999999</ele>
        <time>2013-05-02T18:18:48.16</time>
      </trkpt>
      <trkpt lat="37.20338" lon="-7.402008333333334">
        <ele>67.89999999999999</ele>
        <time>2013-05-02T18:18:49.15</time>
      </trkpt>
      <trkpt lat="37.20330166666667" lon="-7.401928333333333">
        <ele>65.6</ele>
        <time>2013-05-02T18:18:50.15</time>
      </trkpt>
      <trkpt lat="37.203226666666666" lon="-7.401868333333334">
        <ele>64.19999999999999</ele>
        <time>2013-05-02T18:18:51.15</time>
      </trkpt>
      <trkpt lat="37.203195" lon="-7.401813333333333">
        <ele>63.59999999999999</ele>
        <time>2013-05-02T18:18:52.16</time>
      </trkpt>
      <trkpt lat="37.203135" lon="-7.401768333333333">
        <ele>62.79999999999999</ele>
        <time>2013-05-02T18:18:53.16</time>
      </trkpt>
      <trkpt lat="37.202985" lon="-7.401808333333333">
        <ele>62.19999999999999</ele>
        <time>2013-05-02T18:18:54.15</time>
      </trkpt>
      <trkpt lat="37.202918333333336" lon="-7.401801666666667">
        <ele>62.29999999999999</ele>
        <time>2013-05-02T18:18:55.15</time>
      </trkpt>
      <trkpt lat="37.20283666666667" lon="-7.401771666666667">
        <ele>62.09999999999999</ele>
        <time>2013-05-02T18:18:56.16</time>
      </trkpt>
      <trkpt lat="37.202783333333336" lon="-7.40174">
        <ele>61.999999999999986</ele>
        <time>2013-05-02T18:18:57.17</time>
      </trkpt>
      <trkpt lat="37.202731666666665" lon="-7.401716666666666">
        <ele>61.899999999999984</ele>
        <time>2013-05-02T18:18:58.16</time>
      </trkpt>
      <trkpt lat="37.20267333333334" lon="-7.401675">
        <ele>61.899999999999984</ele>
        <time>2013-05-02T18:18:59.15</time>
      </trkpt>
      <trkpt lat="37.20262833333334" lon="-7.401646666666666">
        <ele>60.79999999999998</ele>
        <time>2013-05-02T18:19:00.14</time>
      </trkpt>
      <trkpt lat="37.202585" lon="-7.401613333333334">
        <ele>60.59999999999998</ele>
        <time>2013-05-02T18:19:01.15</time>
      </trkpt>
      <trkpt lat="37.20251833333333" lon="-7.40155">
        <ele>60.19999999999998</ele>
        <time>2013-05-02T18:19:02.16</time>
      </trkpt>
      <trkpt lat="37.20250166666667" lon="-7.4015466666666665">
        <ele>59.899999999999984</ele>
        <time>2013-05-02T18:19:03.16</time>
      </trkpt>
      <trkpt lat="37.202461666666665" lon="-7.401513333333333">
        <ele>59.69999999999998</ele>
        <time>2013-05-02T18:19:04.16</time>
      </trkpt>
      <trkpt lat="37.20242" lon="-7.401488333333333">
        <ele>59.49999999999998</ele>
        <time>2013-05-02T18:19:05.16</time>
      </trkpt>
      <trkpt lat="37.202376666666666" lon="-7.401448333333334">
        <ele>59.39999999999998</ele>
        <time>2013-05-02T18:19:06.16</time>
      </trkpt>
      <trkpt lat="37.202325" lon="-7.401415">
        <ele>58.699999999999974</ele>
        <time>2013-05-02T18:19:07.16</time>
      </trkpt>
      <trkpt lat="37.202283333333334" lon="-7.40136">
        <ele>57.799999999999976</ele>
        <time>2013-05-02T18:19:08.15</time>
      </trkpt>
      <trkpt lat="37.202238333333334" lon="-7.4013116666666665">
        <ele>57.49999999999998</ele>
        <time>2013-05-02T18:19:09.16</time>
      </trkpt>
      <trkpt lat="37.20218166666667" lon="-7.401251666666667">
        <ele>58.09999999999998</ele>
        <time>2013-05-02T18:19:10.15</time>
      </trkpt>
      <trkpt lat="37.202146666666664" lon="-7.401205">
        <ele>57.89999999999998</ele>
        <time>2013-05-02T18:19:11.16</time>
      </trkpt>
      <trkpt lat="37.20211833333333" lon="-7.401163333333334">
        <ele>57.99999999999998</ele>
        <time>2013-05-02T18:19:12.15</time>
      </trkpt>
      <trkpt lat="37.20206666666667" lon="-7.40113">
        <ele>57.99999999999998</ele>
        <time>2013-05-02T18:19:13.16</time>
      </trkpt>
      <trkpt lat="37.20203333333333" lon="-7.401088333333333">
        <ele>57.99999999999998</ele>
        <time>2013-05-02T18:19:14.16</time>
      </trkpt>
      <trkpt lat="37.20198833333333" lon="-7.401043333333333">
        <ele>57.99999999999998</ele>
        <time>2013-05-02T18:19:15.15</time>
      </trkpt>
      <trkpt lat="37.20195" lon="-7.401">
        <ele>58.19999999999998</ele>
        <time>2013-05-02T18:19:16.15</time>
      </trkpt>
      <trkpt lat="37.20193" lon="-7.400971666666667">
        <ele>58.399999999999984</ele>
        <time>2013-05-02T18:19:17.16</time>
      </trkpt>
      <trkpt lat="37.201888333333336" lon="-7.40094">
        <ele>58.59999999999999</ele>
        <time>2013-05-02T18:19:18.16</time>
      </trkpt>
      <trkpt lat="37.20187" lon="-7.400906666666667">
        <ele>58.79999999999999</ele>
        <time>2013-05-02T18:19:19.16</time>
      </trkpt>
      <trkpt lat="37.20184666666667" lon="-7.4008666666666665">
        <ele>58.29999999999999</ele>
        <time>2013-05-02T18:19:20.14</time>
      </trkpt>
      <trkpt lat="37.20183" lon="-7.400828333333333">
        <ele>58.69999999999999</ele>
        <time>2013-05-02T18:19:21.16</time>
      </trkpt>
      <trkpt lat="37.20177833333333" lon="-7.400805">
        <ele>58.69999999999999</ele>
        <time>2013-05-02T18:19:22.16</time>
      </trkpt>
      <trkpt lat="37.201735" lon="-7.40079">
        <ele>58.59999999999999</ele>
        <time>2013-05-02T18:19:23.22</time>
      </trkpt>
      <trkpt lat="37.20171166666667" lon="-7.40078">
        <ele>57.899999999999984</ele>
        <time>2013-05-02T18:19:24.16</time>
      </trkpt>
      <trkpt lat="37.201678333333334" lon="-7.400766666666667">
        <ele>57.79999999999998</ele>
        <time>2013-05-02T18:19:25.16</time>
      </trkpt>
      <trkpt lat="37.201615" lon="-7.400763333333333">
        <ele>57.59999999999998</ele>
        <time>2013-05-02T18:19:26.15</time>
      </trkpt>
      <trkpt lat="37.20151166666667" lon="-7.400775">
        <ele>57.29999999999998</ele>
        <time>2013-05-02T18:19:27.16</time>
      </trkpt>
      <trkpt lat="37.201436666666666" lon="-7.400781666666667">
        <ele>57.09999999999998</ele>
        <time>2013-05-02T18:19:28.16</time>
      </trkpt>
      <trkpt lat="37.20139666666667" lon="-7.400778333333333">
        <ele>56.59999999999998</ele>
        <time>2013-05-02T18:19:29.17</time>
      </trkpt>
      <trkpt lat="37.20133833333333" lon="-7.400765">
        <ele>57.19999999999998</ele>
        <time>2013-05-02T18:19:30.17</time>
      </trkpt>
      <trkpt lat="37.20128666666667" lon="-7.400766666666667">
        <ele>57.29999999999998</ele>
        <time>2013-05-02T18:19:31.16</time>
      </trkpt>
      <trkpt lat="37.20123666666667" lon="-7.400765">
        <ele>57.399999999999984</ele>
        <time>2013-05-02T18:19:32.16</time>
      </trkpt>
      <trkpt lat="37.201188333333334" lon="-7.4007716666666665">
        <ele>57.19999999999998</ele>
        <time>2013-05-02T18:19:33.16</time>
      </trkpt>
      <trkpt lat="37.201143333333334" lon="-7.400781666666667">
        <ele>57.59999999999998</ele>
        <time>2013-05-02T18:19:34.16</time>
      </trkpt>
      <trkpt lat="37.20109" lon="-7.40079">
        <ele>57.89999999999998</ele>
        <time>2013-05-02T18:19:35.16</time>
      </trkpt>
      <trkpt lat="37.20101833333333" lon="-7.400786666666667">
        <ele>59.09999999999998</ele>
        <time>2013-05-02T18:19:36.16</time>
      </trkpt>
      <trkpt lat="37.20095666666667" lon="-7.400805">
        <ele>58.99999999999998</ele>
        <time>2013-05-02T18:19:37.16</time>
      </trkpt>
      <trkpt lat="37.200903333333336" lon="-7.400815">
        <ele>58.99999999999998</ele>
        <time>2013-05-02T18:19:38.15</time>
      </trkpt>
      <trkpt lat="37.200853333333335" lon="-7.40082">
        <ele>58.799999999999976</ele>
        <time>2013-05-02T18:19:39.17</time>
      </trkpt>
      <trkpt lat="37.200806666666665" lon="-7.400838333333334">
        <ele>58.199999999999974</ele>
        <time>2013-05-02T18:19:40.15</time>
      </trkpt>
      <trkpt lat="37.20075333333333" lon="-7.400848333333333">
        <ele>58.09999999999997</ele>
        <time>2013-05-02T18:19:41.16</time>
      </trkpt>
      <trkpt lat="37.20068333333333" lon="-7.400856666666667">
        <ele>58.199999999999974</ele>
        <time>2013-05-02T18:19:42.16</time>
      </trkpt>
      <trkpt lat="37.200631666666666" lon="-7.400875">
        <ele>57.99999999999997</ele>
        <time>2013-05-02T18:19:43.15</time>
      </trkpt>
      <trkpt lat="37.200565" lon="-7.40089">
        <ele>58.199999999999974</ele>
        <time>2013-05-02T18:19:44.16</time>
      </trkpt>
      <trkpt lat="37.20050166666667" lon="-7.40089">
        <ele>58.39999999999998</ele>
        <time>2013-05-02T18:19:45.17</time>
      </trkpt>
      <trkpt lat="37.200446666666664" lon="-7.400908333333334">
        <ele>58.299999999999976</ele>
        <time>2013-05-02T18:19:46.17</time>
      </trkpt>
      <trkpt lat="37.20038" lon="-7.400915">
        <ele>59.199999999999974</ele>
        <time>2013-05-02T18:19:47.15</time>
      </trkpt>
      <trkpt lat="37.20032666666667" lon="-7.400933333333334">
        <ele>58.99999999999997</ele>
        <time>2013-05-02T18:19:48.15</time>
      </trkpt>
      <trkpt lat="37.20027666666667" lon="-7.400946666666667">
        <ele>59.09999999999997</ele>
        <time>2013-05-02T18:19:49.16</time>
      </trkpt>
      <trkpt lat="37.20024166666666" lon="-7.400953333333334">
        <ele>58.699999999999974</ele>
        <time>2013-05-02T18:19:50.15</time>
      </trkpt>
      <trkpt lat="37.20018833333334" lon="-7.400953333333334">
        <ele>58.99999999999997</ele>
        <time>2013-05-02T18:19:51.15</time>
      </trkpt>
      <trkpt lat="37.20013" lon="-7.400965">
        <ele>58.99999999999997</ele>
        <time>2013-05-02T18:19:52.15</time>
      </trkpt>
      <trkpt lat="37.20008333333333" lon="-7.400975">
        <ele>58.99999999999997</ele>
        <time>2013-05-02T18:19:53.16</time>
      </trkpt>
      <trkpt lat="37.20003333333333" lon="-7.400978333333334">
        <ele>59.09999999999997</ele>
        <time>2013-05-02T18:19:54.15</time>
      </trkpt>
      <trkpt lat="37.19993" lon="-7.400978333333334">
        <ele>59.39999999999997</ele>
        <time>2013-05-02T18:19:55.16</time>
      </trkpt>
      <trkpt lat="37.19986333333333" lon="-7.400968333333333">
        <ele>60.19999999999997</ele>
        <time>2013-05-02T18:19:56.16</time>
      </trkpt>
      <trkpt lat="37.199805" lon="-7.400978333333334">
        <ele>59.79999999999997</ele>
        <time>2013-05-02T18:19:57.16</time>
      </trkpt>
      <trkpt lat="37.19973" lon="-7.400991666666667">
        <ele>59.69999999999997</ele>
        <time>2013-05-02T18:19:58.15</time>
      </trkpt>
      <trkpt lat="37.19966" lon="-7.400998333333333">
        <ele>59.499999999999964</ele>
        <time>2013-05-02T18:19:59.16</time>
      </trkpt>
      <trkpt lat="37.199605" lon="-7.401016666666667">
        <ele>59.89999999999996</ele>
        <time>2013-05-02T18:20:00.14</time>
      </trkpt>
      <trkpt lat="37.19954333333333" lon="-7.401025">
        <ele>60.599999999999966</ele>
        <time>2013-05-02T18:20:01.17</time>
      </trkpt>
      <trkpt lat="37.199485" lon="-7.401036666666666">
        <ele>60.099999999999966</ele>
        <time>2013-05-02T18:20:02.17</time>
      </trkpt>
      <trkpt lat="37.199405" lon="-7.401045">
        <ele>59.79999999999997</ele>
        <time>2013-05-02T18:20:03.16</time>
      </trkpt>
      <trkpt lat="37.19933833333333" lon="-7.401048333333334">
        <ele>59.599999999999966</ele>
        <time>2013-05-02T18:20:04.16</time>
      </trkpt>
      <trkpt lat="37.199265" lon="-7.40106">
        <ele>59.19999999999997</ele>
        <time>2013-05-02T18:20:05.16</time>
      </trkpt>
      <trkpt lat="37.19921" lon="-7.401073333333334">
        <ele>59.39999999999997</ele>
        <time>2013-05-02T18:20:06.16</time>
      </trkpt>
      <trkpt lat="37.19915" lon="-7.4011016666666665">
        <ele>59.39999999999997</ele>
        <time>2013-05-02T18:20:07.16</time>
      </trkpt>
      <trkpt lat="37.199101666666664" lon="-7.4011466666666665">
        <ele>59.59999999999997</ele>
        <time>2013-05-02T18:20:08.22</time>
      </trkpt>
      <trkpt lat="37.19912166666667" lon="-7.401261666666667">
        <ele>59.299999999999976</ele>
        <time>2013-05-02T18:20:09.15</time>
      </trkpt>
      <trkpt lat="37.19911333333334" lon="-7.401335">
        <ele>59.09999999999997</ele>
        <time>2013-05-02T18:20:10.16</time>
      </trkpt>
      <trkpt lat="37.199088333333336" lon="-7.401388333333333">
        <ele>59.49999999999997</ele>
        <time>2013-05-02T18:20:11.16</time>
      </trkpt>
      <trkpt lat="37.199061666666665" lon="-7.401441666666667">
        <ele>58.89999999999997</ele>
        <time>2013-05-02T18:20:12.16</time>
      </trkpt>
      <trkpt lat="37.199036666666665" lon="-7.401496666666667">
        <ele>59.49999999999997</ele>
        <time>2013-05-02T18:20:13.16</time>
      </trkpt>
      <trkpt lat="37.19901" lon="-7.40154">
        <ele>59.29999999999997</ele>
        <time>2013-05-02T18:20:14.16</time>
      </trkpt>
      <trkpt lat="37.19899" lon="-7.401553333333333">
        <ele>58.79999999999997</ele>
        <time>2013-05-02T18:20:15.16</time>
      </trkpt>
      <trkpt lat="37.198978333333336" lon="-7.401551666666666">
        <ele>58.29999999999997</ele>
        <time>2013-05-02T18:20:16.16</time>
      </trkpt>
      <trkpt lat="37.19894333333333" lon="-7.40154">
        <ele>57.49999999999997</ele>
        <time>2013-05-02T18:20:17.16</time>
      </trkpt>
      <trkpt lat="37.19889666666667" lon="-7.401513333333333">
        <ele>56.89999999999997</ele>
        <time>2013-05-02T18:20:18.16</time>
      </trkpt>
      <trkpt lat="37.19886666666667" lon="-7.4014766666666665">
        <ele>56.79999999999997</ele>
        <time>2013-05-02T18:20:19.16</time>
      </trkpt>
      <trkpt lat="37.19882166666667" lon="-7.401448333333334">
        <ele>56.69999999999997</ele>
        <time>2013-05-02T18:20:20.16</time>
      </trkpt>
      <trkpt lat="37.198771666666666" lon="-7.401426666666667">
        <ele>57.79999999999997</ele>
        <time>2013-05-02T18:20:21.16</time>
      </trkpt>
      <trkpt lat="37.19872" lon="-7.401401666666667">
        <ele>57.99999999999997</ele>
        <time>2013-05-02T18:20:22.16</time>
      </trkpt>
      <trkpt lat="37.198675" lon="-7.401378333333334">
        <ele>57.99999999999997</ele>
        <time>2013-05-02T18:20:23.18</time>
      </trkpt>
      <trkpt lat="37.198656666666665" lon="-7.401338333333333">
        <ele>58.199999999999974</ele>
        <time>2013-05-02T18:20:24.17</time>
      </trkpt>
      <trkpt lat="37.198665" lon="-7.40132">
        <ele>58.09999999999997</ele>
        <time>2013-05-02T18:20:25.16</time>
      </trkpt>
      <trkpt lat="37.19864666666667" lon="-7.40129">
        <ele>58.59999999999997</ele>
        <time>2013-05-02T18:20:26.16</time>
      </trkpt>
      <trkpt lat="37.19866" lon="-7.401286666666667">
        <ele>58.199999999999974</ele>
        <time>2013-05-02T18:20:27.16</time>
      </trkpt>
      <trkpt lat="37.19862333333333" lon="-7.401306666666667">
        <ele>58.199999999999974</ele>
        <time>2013-05-02T18:20:28.16</time>
      </trkpt>
      <trkpt lat="37.19858333333333" lon="-7.401321666666667">
        <ele>58.49999999999997</ele>
        <time>2013-05-02T18:20:29.16</time>
      </trkpt>
      <trkpt lat="37.19856" lon="-7.401325">
        <ele>58.199999999999974</ele>
        <time>2013-05-02T18:20:30.16</time>
      </trkpt>
      <trkpt lat="37.198455" lon="-7.401351666666667">
        <ele>58.199999999999974</ele>
        <time>2013-05-02T18:20:31.16</time>
      </trkpt>
      <trkpt lat="37.19840166666667" lon="-7.4013583333333335">
        <ele>58.199999999999974</ele>
        <time>2013-05-02T18:20:32.16</time>
      </trkpt>
      <trkpt lat="37.198355" lon="-7.401365">
        <ele>58.299999999999976</ele>
        <time>2013-05-02T18:20:33.16</time>
      </trkpt>
      <trkpt lat="37.1983" lon="-7.40137">
        <ele>58.59999999999997</ele>
        <time>2013-05-02T18:20:34.16</time>
      </trkpt>
      <trkpt lat="37.198245" lon="-7.4013816666666665">
        <ele>59.199999999999974</ele>
        <time>2013-05-02T18:20:35.16</time>
      </trkpt>
      <trkpt lat="37.19819666666667" lon="-7.401413333333333">
        <ele>58.49999999999997</ele>
        <time>2013-05-02T18:20:36.16</time>
      </trkpt>
      <trkpt lat="37.198141666666665" lon="-7.401418333333333">
        <ele>58.39999999999997</ele>
        <time>2013-05-02T18:20:37.16</time>
      </trkpt>
      <trkpt lat="37.19809166666667" lon="-7.401413333333333">
        <ele>58.69999999999997</ele>
        <time>2013-05-02T18:20:38.16</time>
      </trkpt>
      <trkpt lat="37.19804166666667" lon="-7.401403333333334">
        <ele>58.69999999999997</ele>
        <time>2013-05-02T18:20:39.16</time>
      </trkpt>
      <trkpt lat="37.19799666666667" lon="-7.4014">
        <ele>57.79999999999997</ele>
        <time>2013-05-02T18:20:40.17</time>
      </trkpt>
      <trkpt lat="37.197948333333336" lon="-7.401398333333334">
        <ele>56.89999999999997</ele>
        <time>2013-05-02T18:20:41.16</time>
      </trkpt>
      <trkpt lat="37.197898333333335" lon="-7.401403333333334">
        <ele>56.89999999999997</ele>
        <time>2013-05-02T18:20:42.16</time>
      </trkpt>
      <trkpt lat="37.197851666666665" lon="-7.401403333333334">
        <ele>56.99999999999997</ele>
        <time>2013-05-02T18:20:43.16</time>
      </trkpt>
      <trkpt lat="37.19779333333334" lon="-7.401395">
        <ele>56.79999999999997</ele>
        <time>2013-05-02T18:20:44.16</time>
      </trkpt>
      <trkpt lat="37.197741666666666" lon="-7.40139">
        <ele>55.99999999999997</ele>
        <time>2013-05-02T18:20:45.16</time>
      </trkpt>
      <trkpt lat="37.197685" lon="-7.401383333333333">
        <ele>56.29999999999997</ele>
        <time>2013-05-02T18:20:46.16</time>
      </trkpt>
      <trkpt lat="37.197628333333334" lon="-7.401376666666667">
        <ele>55.599999999999966</ele>
        <time>2013-05-02T18:20:47.16</time>
      </trkpt>
      <trkpt lat="37.19757166666667" lon="-7.401365">
        <ele>55.29999999999997</ele>
        <time>2013-05-02T18:20:48.15</time>
      </trkpt>
      <trkpt lat="37.19751333333333" lon="-7.401345">
        <ele>55.599999999999966</ele>
        <time>2013-05-02T18:20:49.16</time>
      </trkpt>
      <trkpt lat="37.197455" lon="-7.401326666666667">
        <ele>55.19999999999997</ele>
        <time>2013-05-02T18:20:50.16</time>
      </trkpt>
      <trkpt lat="37.197401666666664" lon="-7.40131">
        <ele>54.89999999999997</ele>
        <time>2013-05-02T18:20:51.16</time>
      </trkpt>
      <trkpt lat="37.19735333333333" lon="-7.401286666666667">
        <ele>54.89999999999997</ele>
        <time>2013-05-02T18:20:52.15</time>
      </trkpt>
      <trkpt lat="37.197305" lon="-7.401266666666666">
        <ele>54.59999999999997</ele>
        <time>2013-05-02T18:20:53.15</time>
      </trkpt>
      <trkpt lat="37.19724" lon="-7.40125">
        <ele>55.09999999999997</ele>
        <time>2013-05-02T18:20:54.16</time>
      </trkpt>
      <trkpt lat="37.19718666666667" lon="-7.401228333333333">
        <ele>54.699999999999974</ele>
        <time>2013-05-02T18:20:55.17</time>
      </trkpt>
      <trkpt lat="37.19713" lon="-7.401203333333333">
        <ele>54.39999999999998</ele>
        <time>2013-05-02T18:20:56.17</time>
      </trkpt>
      <trkpt lat="37.197075" lon="-7.401178333333333">
        <ele>53.99999999999998</ele>
        <time>2013-05-02T18:20:57.15</time>
      </trkpt>
      <trkpt lat="37.197026666666666" lon="-7.401145">
        <ele>54.39999999999998</ele>
        <time>2013-05-02T18:20:58.16</time>
      </trkpt>
      <trkpt lat="37.19698" lon="-7.401116666666667">
        <ele>53.99999999999998</ele>
        <time>2013-05-02T18:20:59.16</time>
      </trkpt>
      <trkpt lat="37.196925" lon="-7.4010766666666665">
        <ele>53.39999999999998</ele>
        <time>2013-05-02T18:21:00.14</time>
      </trkpt>
      <trkpt lat="37.196873333333336" lon="-7.40104">
        <ele>53.699999999999974</ele>
        <time>2013-05-02T18:21:01.15</time>
      </trkpt>
      <trkpt lat="37.196821666666665" lon="-7.401003333333334">
        <ele>53.99999999999997</ele>
        <time>2013-05-02T18:21:02.16</time>
      </trkpt>
      <trkpt lat="37.19677166666666" lon="-7.400968333333333">
        <ele>54.29999999999997</ele>
        <time>2013-05-02T18:21:03.16</time>
      </trkpt>
      <trkpt lat="37.19672333333333" lon="-7.400925">
        <ele>53.99999999999997</ele>
        <time>2013-05-02T18:21:04.16</time>
      </trkpt>
      <trkpt lat="37.19667333333334" lon="-7.400881666666667">
        <ele>54.39999999999997</ele>
        <time>2013-05-02T18:21:05.16</time>
      </trkpt>
      <trkpt lat="37.19662833333334" lon="-7.400838333333334">
        <ele>54.69999999999997</ele>
        <time>2013-05-02T18:21:06.16</time>
      </trkpt>
      <trkpt lat="37.196576666666665" lon="-7.400788333333334">
        <ele>54.69999999999997</ele>
        <time>2013-05-02T18:21:07.16</time>
      </trkpt>
      <trkpt lat="37.19653" lon="-7.400741666666667">
        <ele>54.79999999999997</ele>
        <time>2013-05-02T18:21:08.16</time>
      </trkpt>
      <trkpt lat="37.196486666666665" lon="-7.400691666666667">
        <ele>54.89999999999997</ele>
        <time>2013-05-02T18:21:09.16</time>
      </trkpt>
      <trkpt lat="37.196445" lon="-7.400643333333333">
        <ele>54.79999999999997</ele>
        <time>2013-05-02T18:21:10.16</time>
      </trkpt>
      <trkpt lat="37.196405" lon="-7.400596666666667">
        <ele>54.79999999999997</ele>
        <time>2013-05-02T18:21:11.16</time>
      </trkpt>
      <trkpt lat="37.196358333333336" lon="-7.400553333333334">
        <ele>54.89999999999997</ele>
        <time>2013-05-02T18:21:12.16</time>
      </trkpt>
      <trkpt lat="37.196308333333334" lon="-7.40053">
        <ele>54.99999999999997</ele>
        <time>2013-05-02T18:21:13.15</time>
      </trkpt>
      <trkpt lat="37.196255" lon="-7.40054">
        <ele>55.29999999999997</ele>
        <time>2013-05-02T18:21:14.16</time>
      </trkpt>
      <trkpt lat="37.19620166666667" lon="-7.400551666666667">
        <ele>55.19999999999997</ele>
        <time>2013-05-02T18:21:15.16</time>
      </trkpt>
      <trkpt lat="37.196155" lon="-7.400553333333334">
        <ele>55.29999999999997</ele>
        <time>2013-05-02T18:21:16.16</time>
      </trkpt>
      <trkpt lat="37.19613" lon="-7.400538333333333">
        <ele>55.29999999999997</ele>
        <time>2013-05-02T18:21:17.16</time>
      </trkpt>
      <trkpt lat="37.19612166666667" lon="-7.400463333333334">
        <ele>55.49999999999997</ele>
        <time>2013-05-02T18:21:18.16</time>
      </trkpt>
      <trkpt lat="37.19609666666667" lon="-7.400423333333333">
        <ele>55.699999999999974</ele>
        <time>2013-05-02T18:21:19.16</time>
      </trkpt>
      <trkpt lat="37.196068333333336" lon="-7.400353333333333">
        <ele>55.799999999999976</ele>
        <time>2013-05-02T18:21:20.16</time>
      </trkpt>
      <trkpt lat="37.196043333333336" lon="-7.400296666666667">
        <ele>56.39999999999998</ele>
        <time>2013-05-02T18:21:21.21</time>
      </trkpt>
      <trkpt lat="37.196035" lon="-7.400223333333333">
        <ele>56.799999999999976</ele>
        <time>2013-05-02T18:21:22.15</time>
      </trkpt>
      <trkpt lat="37.19603" lon="-7.400155">
        <ele>56.99999999999998</ele>
        <time>2013-05-02T18:21:23.16</time>
      </trkpt>
      <trkpt lat="37.196035" lon="-7.400076666666667">
        <ele>55.49999999999998</ele>
        <time>2013-05-02T18:21:24.16</time>
      </trkpt>
      <trkpt lat="37.19602833333333" lon="-7.400001666666666">
        <ele>55.09999999999998</ele>
        <time>2013-05-02T18:21:25.17</time>
      </trkpt>
      <trkpt lat="37.196018333333335" lon="-7.399923333333334">
        <ele>54.89999999999998</ele>
        <time>2013-05-02T18:21:26.16</time>
      </trkpt>
      <trkpt lat="37.195965" lon="-7.399838333333333">
        <ele>55.799999999999976</ele>
        <time>2013-05-02T18:21:27.16</time>
      </trkpt>
      <trkpt lat="37.195933333333336" lon="-7.399765">
        <ele>55.799999999999976</ele>
        <time>2013-05-02T18:21:28.21</time>
      </trkpt>
      <trkpt lat="37.195903333333334" lon="-7.399688333333334">
        <ele>55.799999999999976</ele>
        <time>2013-05-02T18:21:29.16</time>
      </trkpt>
      <trkpt lat="37.195875" lon="-7.39961">
        <ele>55.89999999999998</ele>
        <time>2013-05-02T18:21:30.16</time>
      </trkpt>
      <trkpt lat="37.19584166666667" lon="-7.399525">
        <ele>56.299999999999976</ele>
        <time>2013-05-02T18:21:31.16</time>
      </trkpt>
      <trkpt lat="37.195818333333335" lon="-7.399441666666666">
        <ele>55.89999999999998</ele>
        <time>2013-05-02T18:21:32.16</time>
      </trkpt>
      <trkpt lat="37.19578166666667" lon="-7.3993633333333335">
        <ele>56.299999999999976</ele>
        <time>2013-05-02T18:21:33.16</time>
      </trkpt>
      <trkpt lat="37.19575" lon="-7.399283333333333">
        <ele>56.39999999999998</ele>
        <time>2013-05-02T18:21:34.16</time>
      </trkpt>
      <trkpt lat="37.19571833333333" lon="-7.399205">
        <ele>56.199999999999974</ele>
        <time>2013-05-02T18:21:35.16</time>
      </trkpt>
      <trkpt lat="37.19569166666667" lon="-7.399126666666667">
        <ele>55.699999999999974</ele>
        <time>2013-05-02T18:21:36.16</time>
      </trkpt>
      <trkpt lat="37.195661666666666" lon="-7.399045">
        <ele>55.799999999999976</ele>
        <time>2013-05-02T18:21:37.16</time>
      </trkpt>
      <trkpt lat="37.19562666666667" lon="-7.3989666666666665">
        <ele>56.09999999999997</ele>
        <time>2013-05-02T18:21:38.16</time>
      </trkpt>
      <trkpt lat="37.195598333333336" lon="-7.398888333333334">
        <ele>56.199999999999974</ele>
        <time>2013-05-02T18:21:39.16</time>
      </trkpt>
      <trkpt lat="37.195566666666664" lon="-7.398816666666667">
        <ele>56.299999999999976</ele>
        <time>2013-05-02T18:21:40.16</time>
      </trkpt>
      <trkpt lat="37.195535" lon="-7.398741666666667">
        <ele>56.39999999999998</ele>
        <time>2013-05-02T18:21:41.16</time>
      </trkpt>
      <trkpt lat="37.19550666666667" lon="-7.398665">
        <ele>56.39999999999998</ele>
        <time>2013-05-02T18:21:42.16</time>
      </trkpt>
      <trkpt lat="37.195475" lon="-7.39859">
        <ele>56.299999999999976</ele>
        <time>2013-05-02T18:21:43.16</time>
      </trkpt>
      <trkpt lat="37.19545" lon="-7.3985183333333335">
        <ele>55.99999999999998</ele>
        <time>2013-05-02T18:21:44.16</time>
      </trkpt>
      <trkpt lat="37.19542" lon="-7.398443333333334">
        <ele>56.09999999999998</ele>
        <time>2013-05-02T18:21:45.16</time>
      </trkpt>
      <trkpt lat="37.19539" lon="-7.398368333333333">
        <ele>55.59999999999998</ele>
        <time>2013-05-02T18:21:46.16</time>
      </trkpt>
      <trkpt lat="37.19536" lon="-7.398295">
        <ele>55.59999999999998</ele>
        <time>2013-05-02T18:21:47.16</time>
      </trkpt>
      <trkpt lat="37.19533166666667" lon="-7.398221666666666">
        <ele>55.19999999999998</ele>
        <time>2013-05-02T18:21:48.16</time>
      </trkpt>
      <trkpt lat="37.19530666666667" lon="-7.398153333333333">
        <ele>54.99999999999998</ele>
        <time>2013-05-02T18:21:49.16</time>
      </trkpt>
      <trkpt lat="37.195283333333336" lon="-7.398081666666666">
        <ele>53.69999999999998</ele>
        <time>2013-05-02T18:21:50.16</time>
      </trkpt>
      <trkpt lat="37.195251666666664" lon="-7.398006666666666">
        <ele>53.79999999999998</ele>
        <time>2013-05-02T18:21:51.16</time>
      </trkpt>
      <trkpt lat="37.19522166666667" lon="-7.3979333333333335">
        <ele>53.69999999999998</ele>
        <time>2013-05-02T18:21:52.16</time>
      </trkpt>
      <trkpt lat="37.195191666666666" lon="-7.397856666666667">
        <ele>53.79999999999998</ele>
        <time>2013-05-02T18:21:53.17</time>
      </trkpt>
      <trkpt lat="37.19516333333333" lon="-7.397781666666667">
        <ele>53.79999999999998</ele>
        <time>2013-05-02T18:21:54.17</time>
      </trkpt>
      <trkpt lat="37.19512833333334" lon="-7.397708333333333">
        <ele>53.999999999999986</ele>
        <time>2013-05-02T18:21:55.16</time>
      </trkpt>
      <trkpt lat="37.195098333333334" lon="-7.397635">
        <ele>54.19999999999999</ele>
        <time>2013-05-02T18:21:56.16</time>
      </trkpt>
      <trkpt lat="37.195071666666664" lon="-7.397565">
        <ele>54.19999999999999</ele>
        <time>2013-05-02T18:21:57.16</time>
      </trkpt>
      <trkpt lat="37.19505" lon="-7.397493333333333">
        <ele>54.19999999999999</ele>
        <time>2013-05-02T18:21:58.16</time>
      </trkpt>
      <trkpt lat="37.195011666666666" lon="-7.3974166666666665">
        <ele>55.19999999999999</ele>
        <time>2013-05-02T18:21:59.16</time>
      </trkpt>
      <trkpt lat="37.194985" lon="-7.397345">
        <ele>55.29999999999999</ele>
        <time>2013-05-02T18:22:00.14</time>
      </trkpt>
      <trkpt lat="37.19495833333333" lon="-7.39727">
        <ele>55.19999999999999</ele>
        <time>2013-05-02T18:22:01.15</time>
      </trkpt>
      <trkpt lat="37.19493" lon="-7.397203333333334">
        <ele>54.79999999999999</ele>
        <time>2013-05-02T18:22:02.16</time>
      </trkpt>
      <trkpt lat="37.1949" lon="-7.39713">
        <ele>54.99999999999999</ele>
        <time>2013-05-02T18:22:03.16</time>
      </trkpt>
      <trkpt lat="37.19487" lon="-7.397055">
        <ele>55.199999999999996</ele>
        <time>2013-05-02T18:22:04.16</time>
      </trkpt>
      <trkpt lat="37.19485" lon="-7.396981666666667">
        <ele>55.49999999999999</ele>
        <time>2013-05-02T18:22:05.16</time>
      </trkpt>
      <trkpt lat="37.19482166666667" lon="-7.396915">
        <ele>54.89999999999999</ele>
        <time>2013-05-02T18:22:06.16</time>
      </trkpt>
      <trkpt lat="37.19478333333333" lon="-7.396845">
        <ele>54.79999999999999</ele>
        <time>2013-05-02T18:22:07.16</time>
      </trkpt>
      <trkpt lat="37.19474833333334" lon="-7.396781666666667">
        <ele>54.79999999999999</ele>
        <time>2013-05-02T18:22:08.16</time>
      </trkpt>
      <trkpt lat="37.19470833333333" lon="-7.396716666666666">
        <ele>54.99999999999999</ele>
        <time>2013-05-02T18:22:09.21</time>
      </trkpt>
      <trkpt lat="37.194675" lon="-7.396645">
        <ele>54.99999999999999</ele>
        <time>2013-05-02T18:22:10.17</time>
      </trkpt>
      <trkpt lat="37.19464166666667" lon="-7.3965733333333334">
        <ele>55.099999999999994</ele>
        <time>2013-05-02T18:22:11.15</time>
      </trkpt>
      <trkpt lat="37.19460333333333" lon="-7.3965">
        <ele>54.8</ele>
        <time>2013-05-02T18:22:12.16</time>
      </trkpt>
      <trkpt lat="37.19458" lon="-7.39643">
        <ele>54.699999999999996</ele>
        <time>2013-05-02T18:22:13.16</time>
      </trkpt>
      <trkpt lat="37.19455" lon="-7.396355">
        <ele>55.199999999999996</ele>
        <time>2013-05-02T18:22:14.16</time>
      </trkpt>
      <trkpt lat="37.194516666666665" lon="-7.396283333333334">
        <ele>55.099999999999994</ele>
        <time>2013-05-02T18:22:15.16</time>
      </trkpt>
      <trkpt lat="37.19448666666667" lon="-7.396208333333333">
        <ele>55.49999999999999</ele>
        <time>2013-05-02T18:22:16.16</time>
      </trkpt>
      <trkpt lat="37.194455" lon="-7.396141666666667">
        <ele>55.599999999999994</ele>
        <time>2013-05-02T18:22:17.16</time>
      </trkpt>
      <trkpt lat="37.194425" lon="-7.396073333333334">
        <ele>55.199999999999996</ele>
        <time>2013-05-02T18:22:18.16</time>
      </trkpt>
      <trkpt lat="37.194405" lon="-7.395996666666667">
        <ele>55.3</ele>
        <time>2013-05-02T18:22:19.16</time>
      </trkpt>
      <trkpt lat="37.19437666666666" lon="-7.395918333333333">
        <ele>55.599999999999994</ele>
        <time>2013-05-02T18:22:20.16</time>
      </trkpt>
      <trkpt lat="37.19435333333333" lon="-7.395845">
        <ele>55.49999999999999</ele>
        <time>2013-05-02T18:22:21.16</time>
      </trkpt>
      <trkpt lat="37.19432666666667" lon="-7.395771666666667">
        <ele>55.699999999999996</ele>
        <time>2013-05-02T18:22:22.16</time>
      </trkpt>
      <trkpt lat="37.19430333333333" lon="-7.395705">
        <ele>56.099999999999994</ele>
        <time>2013-05-02T18:22:23.16</time>
      </trkpt>
      <trkpt lat="37.194266666666664" lon="-7.395655">
        <ele>56.39999999999999</ele>
        <time>2013-05-02T18:22:24.16</time>
      </trkpt>
      <trkpt lat="37.19421" lon="-7.395621666666667">
        <ele>58.599999999999994</ele>
        <time>2013-05-02T18:22:25.22</time>
      </trkpt>
      <trkpt lat="37.194163333333336" lon="-7.39558">
        <ele>59.099999999999994</ele>
        <time>2013-05-02T18:22:26.16</time>
      </trkpt>
      <trkpt lat="37.19413333333333" lon="-7.39552">
        <ele>59.49999999999999</ele>
        <time>2013-05-02T18:22:27.16</time>
      </trkpt>
      <trkpt lat="37.194138333333335" lon="-7.395441666666667">
        <ele>59.39999999999999</ele>
        <time>2013-05-02T18:22:28.16</time>
      </trkpt>
      <trkpt lat="37.19412666666667" lon="-7.39537">
        <ele>59.69999999999999</ele>
        <time>2013-05-02T18:22:29.16</time>
      </trkpt>
      <trkpt lat="37.19412166666667" lon="-7.395298333333334">
        <ele>59.499999999999986</ele>
        <time>2013-05-02T18:22:30.22</time>
      </trkpt>
      <trkpt lat="37.194105" lon="-7.395221666666667">
        <ele>59.79999999999998</ele>
        <time>2013-05-02T18:22:31.17</time>
      </trkpt>
      <trkpt lat="37.19408" lon="-7.395156666666667">
        <ele>59.399999999999984</ele>
        <time>2013-05-02T18:22:32.22</time>
      </trkpt>
      <trkpt lat="37.19405" lon="-7.39508">
        <ele>59.19999999999998</ele>
        <time>2013-05-02T18:22:33.16</time>
      </trkpt>
      <trkpt lat="37.194028333333335" lon="-7.395006666666666">
        <ele>59.49999999999998</ele>
        <time>2013-05-02T18:22:34.16</time>
      </trkpt>
      <trkpt lat="37.194008333333336" lon="-7.394926666666667">
        <ele>59.59999999999998</ele>
        <time>2013-05-02T18:22:35.16</time>
      </trkpt>
      <trkpt lat="37.19399" lon="-7.394853333333334">
        <ele>59.19999999999998</ele>
        <time>2013-05-02T18:22:36.16</time>
      </trkpt>
      <trkpt lat="37.19396833333333" lon="-7.394771666666666">
        <ele>59.29999999999998</ele>
        <time>2013-05-02T18:22:37.16</time>
      </trkpt>
      <trkpt lat="37.19394333333333" lon="-7.394698333333333">
        <ele>59.19999999999998</ele>
        <time>2013-05-02T18:22:38.16</time>
      </trkpt>
      <trkpt lat="37.193918333333336" lon="-7.3946266666666665">
        <ele>59.09999999999998</ele>
        <time>2013-05-02T18:22:39.16</time>
      </trkpt>
      <trkpt lat="37.193895" lon="-7.394555">
        <ele>59.19999999999998</ele>
        <time>2013-05-02T18:22:40.16</time>
      </trkpt>
      <trkpt lat="37.19387" lon="-7.394481666666667">
        <ele>58.79999999999998</ele>
        <time>2013-05-02T18:22:41.16</time>
      </trkpt>
      <trkpt lat="37.193845" lon="-7.394406666666667">
        <ele>58.19999999999998</ele>
        <time>2013-05-02T18:22:42.16</time>
      </trkpt>
      <trkpt lat="37.193826666666666" lon="-7.394323333333333">
        <ele>56.49999999999998</ele>
        <time>2013-05-02T18:22:43.16</time>
      </trkpt>
      <trkpt lat="37.193803333333335" lon="-7.3942516666666664">
        <ele>56.39999999999998</ele>
        <time>2013-05-02T18:22:44.16</time>
      </trkpt>
      <trkpt lat="37.193776666666665" lon="-7.394186666666666">
        <ele>55.99999999999998</ele>
        <time>2013-05-02T18:22:45.16</time>
      </trkpt>
      <trkpt lat="37.19375" lon="-7.394115">
        <ele>55.69999999999998</ele>
        <time>2013-05-02T18:22:46.16</time>
      </trkpt>
      <trkpt lat="37.19372333333333" lon="-7.394045">
        <ele>55.49999999999998</ele>
        <time>2013-05-02T18:22:47.17</time>
      </trkpt>
      <trkpt lat="37.19369" lon="-7.393981666666667">
        <ele>55.39999999999998</ele>
        <time>2013-05-02T18:22:48.16</time>
      </trkpt>
      <trkpt lat="37.19366333333333" lon="-7.393906666666667">
        <ele>55.59999999999998</ele>
        <time>2013-05-02T18:22:49.16</time>
      </trkpt>
      <trkpt lat="37.19363166666667" lon="-7.393831666666666">
        <ele>55.99999999999998</ele>
        <time>2013-05-02T18:22:50.16</time>
      </trkpt>
      <trkpt lat="37.193595" lon="-7.393766666666667">
        <ele>55.69999999999998</ele>
        <time>2013-05-02T18:22:51.16</time>
      </trkpt>
      <trkpt lat="37.19356833333333" lon="-7.3937">
        <ele>55.19999999999998</ele>
        <time>2013-05-02T18:22:52.16</time>
      </trkpt>
      <trkpt lat="37.193535" lon="-7.393633333333334">
        <ele>55.19999999999998</ele>
        <time>2013-05-02T18:22:53.16</time>
      </trkpt>
      <trkpt lat="37.19349833333333" lon="-7.393556666666667">
        <ele>55.29999999999998</ele>
        <time>2013-05-02T18:22:54.16</time>
      </trkpt>
      <trkpt lat="37.193461666666664" lon="-7.393483333333333">
        <ele>55.499999999999986</ele>
        <time>2013-05-02T18:22:55.16</time>
      </trkpt>
      <trkpt lat="37.193425" lon="-7.39341">
        <ele>55.399999999999984</ele>
        <time>2013-05-02T18:22:56.16</time>
      </trkpt>
      <trkpt lat="37.19339" lon="-7.393343333333333">
        <ele>55.499999999999986</ele>
        <time>2013-05-02T18:22:57.16</time>
      </trkpt>
      <trkpt lat="37.193355" lon="-7.393266666666666">
        <ele>55.79999999999998</ele>
        <time>2013-05-02T18:22:58.16</time>
      </trkpt>
      <trkpt lat="37.19331666666667" lon="-7.393191666666667">
        <ele>56.29999999999998</ele>
        <time>2013-05-02T18:22:59.16</time>
      </trkpt>
      <trkpt lat="37.193288333333335" lon="-7.393136666666667">
        <ele>55.899999999999984</ele>
        <time>2013-05-02T18:23:00.14</time>
      </trkpt>
      <trkpt lat="37.19325666666667" lon="-7.393066666666667">
        <ele>55.59999999999999</ele>
        <time>2013-05-02T18:23:01.15</time>
      </trkpt>
      <trkpt lat="37.193223333333336" lon="-7.3930066666666665">
        <ele>55.79999999999999</ele>
        <time>2013-05-02T18:23:02.16</time>
      </trkpt>
      <trkpt lat="37.19318833333333" lon="-7.392948333333333">
        <ele>55.59999999999999</ele>
        <time>2013-05-02T18:23:03.18</time>
      </trkpt>
      <trkpt lat="37.19316166666667" lon="-7.39288">
        <ele>55.59999999999999</ele>
        <time>2013-05-02T18:23:04.18</time>
      </trkpt>
      <trkpt lat="37.19314166666667" lon="-7.392815">
        <ele>55.399999999999984</ele>
        <time>2013-05-02T18:23:05.16</time>
      </trkpt>
      <trkpt lat="37.19312333333333" lon="-7.39275">
        <ele>55.69999999999998</ele>
        <time>2013-05-02T18:23:06.16</time>
      </trkpt>
      <trkpt lat="37.19309833333333" lon="-7.392671666666667">
        <ele>55.29999999999998</ele>
        <time>2013-05-02T18:23:07.16</time>
      </trkpt>
      <trkpt lat="37.193063333333335" lon="-7.392596666666667">
        <ele>55.499999999999986</ele>
        <time>2013-05-02T18:23:08.16</time>
      </trkpt>
      <trkpt lat="37.19302833333333" lon="-7.39253">
        <ele>54.999999999999986</ele>
        <time>2013-05-02T18:23:09.16</time>
      </trkpt>
      <trkpt lat="37.193" lon="-7.392458333333333">
        <ele>54.79999999999998</ele>
        <time>2013-05-02T18:23:10.16</time>
      </trkpt>
      <trkpt lat="37.192975" lon="-7.392383333333333">
        <ele>54.899999999999984</ele>
        <time>2013-05-02T18:23:11.16</time>
      </trkpt>
      <trkpt lat="37.192955" lon="-7.392293333333333">
        <ele>54.899999999999984</ele>
        <time>2013-05-02T18:23:12.16</time>
      </trkpt>
      <trkpt lat="37.19293" lon="-7.392205">
        <ele>55.79999999999998</ele>
        <time>2013-05-02T18:23:13.16</time>
      </trkpt>
      <trkpt lat="37.192905" lon="-7.392126666666667">
        <ele>55.999999999999986</ele>
        <time>2013-05-02T18:23:14.16</time>
      </trkpt>
      <trkpt lat="37.19288" lon="-7.392045">
        <ele>55.59999999999999</ele>
        <time>2013-05-02T18:23:15.16</time>
      </trkpt>
      <trkpt lat="37.192863333333335" lon="-7.391966666666667">
        <ele>55.999999999999986</ele>
        <time>2013-05-02T18:23:16.16</time>
      </trkpt>
      <trkpt lat="37.192835" lon="-7.391885">
        <ele>56.399999999999984</ele>
        <time>2013-05-02T18:23:17.16</time>
      </trkpt>
      <trkpt lat="37.19280666666667" lon="-7.391806666666667">
        <ele>56.29999999999998</ele>
        <time>2013-05-02T18:23:18.16</time>
      </trkpt>
      <trkpt lat="37.1928" lon="-7.391741666666666">
        <ele>55.59999999999998</ele>
        <time>2013-05-02T18:23:19.16</time>
      </trkpt>
      <trkpt lat="37.19277" lon="-7.39166">
        <ele>56.39999999999998</ele>
        <time>2013-05-02T18:23:20.16</time>
      </trkpt>
      <trkpt lat="37.192745" lon="-7.391581666666666">
        <ele>56.699999999999974</ele>
        <time>2013-05-02T18:23:21.15</time>
      </trkpt>
      <trkpt lat="37.19271666666667" lon="-7.391511666666666">
        <ele>56.699999999999974</ele>
        <time>2013-05-02T18:23:22.16</time>
      </trkpt>
      <trkpt lat="37.19268666666667" lon="-7.391436666666666">
        <ele>56.699999999999974</ele>
        <time>2013-05-02T18:23:23.16</time>
      </trkpt>
      <trkpt lat="37.192661666666666" lon="-7.391356666666667">
        <ele>56.89999999999998</ele>
        <time>2013-05-02T18:23:24.16</time>
      </trkpt>
      <trkpt lat="37.192638333333335" lon="-7.391275">
        <ele>56.49999999999998</ele>
        <time>2013-05-02T18:23:25.16</time>
      </trkpt>
      <trkpt lat="37.192616666666666" lon="-7.391191666666667">
        <ele>56.59999999999998</ele>
        <time>2013-05-02T18:23:26.16</time>
      </trkpt>
      <trkpt lat="37.19259" lon="-7.39112">
        <ele>56.59999999999998</ele>
        <time>2013-05-02T18:23:27.16</time>
      </trkpt>
      <trkpt lat="37.19255833333333" lon="-7.391045">
        <ele>56.59999999999998</ele>
        <time>2013-05-02T18:23:28.16</time>
      </trkpt>
      <trkpt lat="37.192528333333335" lon="-7.390973333333333">
        <ele>56.89999999999998</ele>
        <time>2013-05-02T18:23:29.16</time>
      </trkpt>
      <trkpt lat="37.192495" lon="-7.390901666666666">
        <ele>56.99999999999998</ele>
        <time>2013-05-02T18:23:30.16</time>
      </trkpt>
      <trkpt lat="37.19246666666667" lon="-7.390825">
        <ele>57.59999999999998</ele>
        <time>2013-05-02T18:23:31.17</time>
      </trkpt>
      <trkpt lat="37.192438333333335" lon="-7.39075">
        <ele>57.39999999999998</ele>
        <time>2013-05-02T18:23:32.16</time>
      </trkpt>
      <trkpt lat="37.19240166666667" lon="-7.390675">
        <ele>58.09999999999998</ele>
        <time>2013-05-02T18:23:33.16</time>
      </trkpt>
      <trkpt lat="37.19236166666666" lon="-7.390603333333333">
        <ele>58.09999999999998</ele>
        <time>2013-05-02T18:23:34.16</time>
      </trkpt>
      <trkpt lat="37.19233666666667" lon="-7.390523333333333">
        <ele>58.09999999999998</ele>
        <time>2013-05-02T18:23:35.18</time>
      </trkpt>
      <trkpt lat="37.19231333333333" lon="-7.390443333333334">
        <ele>57.99999999999998</ele>
        <time>2013-05-02T18:23:36.17</time>
      </trkpt>
      <trkpt lat="37.192276666666665" lon="-7.39037">
        <ele>57.19999999999998</ele>
        <time>2013-05-02T18:23:37.16</time>
      </trkpt>
      <trkpt lat="37.19224666666667" lon="-7.3902866666666664">
        <ele>56.99999999999998</ele>
        <time>2013-05-02T18:23:38.16</time>
      </trkpt>
      <trkpt lat="37.19221666666667" lon="-7.390208333333334">
        <ele>56.49999999999998</ele>
        <time>2013-05-02T18:23:39.16</time>
      </trkpt>
      <trkpt lat="37.192186666666665" lon="-7.3901216666666665">
        <ele>56.299999999999976</ele>
        <time>2013-05-02T18:23:40.16</time>
      </trkpt>
      <trkpt lat="37.19215333333333" lon="-7.390053333333333">
        <ele>55.89999999999998</ele>
        <time>2013-05-02T18:23:41.16</time>
      </trkpt>
      <trkpt lat="37.192135" lon="-7.3899816666666664">
        <ele>55.99999999999998</ele>
        <time>2013-05-02T18:23:42.16</time>
      </trkpt>
      <trkpt lat="37.19210666666667" lon="-7.389913333333333">
        <ele>55.59999999999998</ele>
        <time>2013-05-02T18:23:43.16</time>
      </trkpt>
      <trkpt lat="37.19208666666667" lon="-7.389836666666667">
        <ele>55.49999999999998</ele>
        <time>2013-05-02T18:23:44.16</time>
      </trkpt>
      <trkpt lat="37.192053333333334" lon="-7.38975">
        <ele>55.49999999999998</ele>
        <time>2013-05-02T18:23:45.16</time>
      </trkpt>
      <trkpt lat="37.192025" lon="-7.38967">
        <ele>55.89999999999998</ele>
        <time>2013-05-02T18:23:46.16</time>
      </trkpt>
      <trkpt lat="37.191985" lon="-7.38959">
        <ele>56.799999999999976</ele>
        <time>2013-05-02T18:23:47.16</time>
      </trkpt>
      <trkpt lat="37.19195666666667" lon="-7.389515">
        <ele>56.59999999999997</ele>
        <time>2013-05-02T18:23:48.16</time>
      </trkpt>
      <trkpt lat="37.19193" lon="-7.389445">
        <ele>56.199999999999974</ele>
        <time>2013-05-02T18:23:49.16</time>
      </trkpt>
      <trkpt lat="37.191898333333334" lon="-7.389381666666667">
        <ele>56.699999999999974</ele>
        <time>2013-05-02T18:23:50.16</time>
      </trkpt>
      <trkpt lat="37.19187" lon="-7.38932">
        <ele>58.59999999999997</ele>
        <time>2013-05-02T18:23:51.17</time>
      </trkpt>
      <trkpt lat="37.19184" lon="-7.38926">
        <ele>58.699999999999974</ele>
        <time>2013-05-02T18:23:52.17</time>
      </trkpt>
      <trkpt lat="37.191815" lon="-7.389218333333333">
        <ele>58.799999999999976</ele>
        <time>2013-05-02T18:23:53.16</time>
      </trkpt>
      <trkpt lat="37.19179666666667" lon="-7.38919">
        <ele>58.99999999999998</ele>
        <time>2013-05-02T18:23:54.16</time>
      </trkpt>
      <trkpt lat="37.19177833333333" lon="-7.38916">
        <ele>58.799999999999976</ele>
        <time>2013-05-02T18:23:55.16</time>
      </trkpt>
      <trkpt lat="37.19175666666667" lon="-7.3891116666666665">
        <ele>58.49999999999998</ele>
        <time>2013-05-02T18:23:56.16</time>
      </trkpt>
      <trkpt lat="37.191735" lon="-7.389078333333333">
        <ele>58.799999999999976</ele>
        <time>2013-05-02T18:23:57.16</time>
      </trkpt>
      <trkpt lat="37.191715" lon="-7.38904">
        <ele>58.799999999999976</ele>
        <time>2013-05-02T18:23:58.16</time>
      </trkpt>
      <trkpt lat="37.19168833333333" lon="-7.388991666666667">
        <ele>59.799999999999976</ele>
        <time>2013-05-02T18:23:59.16</time>
      </trkpt>
      <trkpt lat="37.19166666666667" lon="-7.388941666666667">
        <ele>60.39999999999998</ele>
        <time>2013-05-02T18:24:00.14</time>
      </trkpt>
      <trkpt lat="37.19165" lon="-7.388866666666667">
        <ele>60.49999999999998</ele>
        <time>2013-05-02T18:24:01.15</time>
      </trkpt>
      <trkpt lat="37.191628333333334" lon="-7.388811666666666">
        <ele>60.299999999999976</ele>
        <time>2013-05-02T18:24:02.16</time>
      </trkpt>
      <trkpt lat="37.191605" lon="-7.388756666666667">
        <ele>60.09999999999997</ele>
        <time>2013-05-02T18:24:03.16</time>
      </trkpt>
      <trkpt lat="37.19159" lon="-7.388693333333333">
        <ele>59.99999999999997</ele>
        <time>2013-05-02T18:24:04.16</time>
      </trkpt>
      <trkpt lat="37.191565" lon="-7.388615">
        <ele>58.99999999999997</ele>
        <time>2013-05-02T18:24:05.16</time>
      </trkpt>
      <trkpt lat="37.191543333333335" lon="-7.388551666666666">
        <ele>58.89999999999997</ele>
        <time>2013-05-02T18:24:06.16</time>
      </trkpt>
      <trkpt lat="37.191525" lon="-7.388483333333333">
        <ele>58.89999999999997</ele>
        <time>2013-05-02T18:24:07.21</time>
      </trkpt>
      <trkpt lat="37.191485" lon="-7.388411666666666">
        <ele>59.49999999999997</ele>
        <time>2013-05-02T18:24:08.17</time>
      </trkpt>
      <trkpt lat="37.19145666666667" lon="-7.388343333333333">
        <ele>59.09999999999997</ele>
        <time>2013-05-02T18:24:09.16</time>
      </trkpt>
      <trkpt lat="37.19143" lon="-7.388275">
        <ele>59.699999999999974</ele>
        <time>2013-05-02T18:24:10.16</time>
      </trkpt>
      <trkpt lat="37.191401666666664" lon="-7.388201666666666">
        <ele>59.89999999999998</ele>
        <time>2013-05-02T18:24:11.16</time>
      </trkpt>
      <trkpt lat="37.19137166666667" lon="-7.388123333333334">
        <ele>59.59999999999998</ele>
        <time>2013-05-02T18:24:12.16</time>
      </trkpt>
      <trkpt lat="37.19134666666667" lon="-7.388046666666667">
        <ele>59.69999999999998</ele>
        <time>2013-05-02T18:24:13.16</time>
      </trkpt>
      <trkpt lat="37.191325" lon="-7.387975">
        <ele>59.899999999999984</ele>
        <time>2013-05-02T18:24:14.16</time>
      </trkpt>
      <trkpt lat="37.19131333333333" lon="-7.387908333333334">
        <ele>59.899999999999984</ele>
        <time>2013-05-02T18:24:15.16</time>
      </trkpt>
      <trkpt lat="37.191293333333334" lon="-7.387836666666667">
        <ele>59.899999999999984</ele>
        <time>2013-05-02T18:24:16.16</time>
      </trkpt>
      <trkpt lat="37.19126833333333" lon="-7.387771666666667">
        <ele>59.999999999999986</ele>
        <time>2013-05-02T18:24:17.16</time>
      </trkpt>
      <trkpt lat="37.19119333333333" lon="-7.387761666666667">
        <ele>58.09999999999999</ele>
        <time>2013-05-02T18:24:18.16</time>
      </trkpt>
      <trkpt lat="37.19115" lon="-7.38772">
        <ele>57.59999999999999</ele>
        <time>2013-05-02T18:24:19.16</time>
      </trkpt>
      <trkpt lat="37.191115" lon="-7.387673333333334">
        <ele>57.29999999999999</ele>
        <time>2013-05-02T18:24:20.19</time>
      </trkpt>
      <trkpt lat="37.1911" lon="-7.387626666666667">
        <ele>57.19999999999999</ele>
        <time>2013-05-02T18:24:21.16</time>
      </trkpt>
      <trkpt lat="37.19107833333333" lon="-7.38757">
        <ele>57.39999999999999</ele>
        <time>2013-05-02T18:24:22.16</time>
      </trkpt>
      <trkpt lat="37.19105166666667" lon="-7.387526666666667">
        <ele>57.29999999999999</ele>
        <time>2013-05-02T18:24:23.18</time>
      </trkpt>
      <trkpt lat="37.19103166666667" lon="-7.387435">
        <ele>56.39999999999999</ele>
        <time>2013-05-02T18:24:24.22</time>
      </trkpt>
      <trkpt lat="37.19101833333333" lon="-7.387331666666666">
        <ele>54.29999999999999</ele>
        <time>2013-05-02T18:24:25.16</time>
      </trkpt>
      <trkpt lat="37.191003333333335" lon="-7.38726">
        <ele>54.29999999999999</ele>
        <time>2013-05-02T18:24:26.16</time>
      </trkpt>
      <trkpt lat="37.19099166666667" lon="-7.387178333333333">
        <ele>53.59999999999999</ele>
        <time>2013-05-02T18:24:27.16</time>
      </trkpt>
      <trkpt lat="37.190958333333334" lon="-7.387095">
        <ele>53.29999999999999</ele>
        <time>2013-05-02T18:24:28.16</time>
      </trkpt>
      <trkpt lat="37.190936666666666" lon="-7.387005">
        <ele>54.29999999999999</ele>
        <time>2013-05-02T18:24:29.16</time>
      </trkpt>
      <trkpt lat="37.190925" lon="-7.386921666666667">
        <ele>54.29999999999999</ele>
        <time>2013-05-02T18:24:30.16</time>
      </trkpt>
      <trkpt lat="37.19089833333334" lon="-7.386851666666667">
        <ele>54.59999999999999</ele>
        <time>2013-05-02T18:24:31.16</time>
      </trkpt>
      <trkpt lat="37.190873333333336" lon="-7.386783333333334">
        <ele>54.999999999999986</ele>
        <time>2013-05-02T18:24:32.16</time>
      </trkpt>
      <trkpt lat="37.19085166666667" lon="-7.386713333333334">
        <ele>54.29999999999998</ele>
        <time>2013-05-02T18:24:33.16</time>
      </trkpt>
      <trkpt lat="37.190821666666665" lon="-7.386638333333333">
        <ele>54.399999999999984</ele>
        <time>2013-05-02T18:24:34.16</time>
      </trkpt>
      <trkpt lat="37.19079333333333" lon="-7.386573333333334">
        <ele>53.59999999999999</ele>
        <time>2013-05-02T18:24:35.16</time>
      </trkpt>
      <trkpt lat="37.19076833333333" lon="-7.386495">
        <ele>53.69999999999999</ele>
        <time>2013-05-02T18:24:36.16</time>
      </trkpt>
      <trkpt lat="37.19074166666667" lon="-7.386423333333333">
        <ele>52.999999999999986</ele>
        <time>2013-05-02T18:24:37.16</time>
      </trkpt>
      <trkpt lat="37.190713333333335" lon="-7.386353333333333">
        <ele>52.899999999999984</ele>
        <time>2013-05-02T18:24:38.16</time>
      </trkpt>
      <trkpt lat="37.190685" lon="-7.386283333333333">
        <ele>52.59999999999999</ele>
        <time>2013-05-02T18:24:39.18</time>
      </trkpt>
      <trkpt lat="37.190661666666664" lon="-7.386206666666666">
        <ele>52.59999999999999</ele>
        <time>2013-05-02T18:24:40.18</time>
      </trkpt>
      <trkpt lat="37.190625" lon="-7.386138333333333">
        <ele>52.399999999999984</ele>
        <time>2013-05-02T18:24:41.16</time>
      </trkpt>
      <trkpt lat="37.190601666666666" lon="-7.38607">
        <ele>51.999999999999986</ele>
        <time>2013-05-02T18:24:42.16</time>
      </trkpt>
      <trkpt lat="37.19057166666666" lon="-7.385998333333333">
        <ele>51.899999999999984</ele>
        <time>2013-05-02T18:24:43.16</time>
      </trkpt>
      <trkpt lat="37.19054833333333" lon="-7.385928333333333">
        <ele>51.79999999999998</ele>
        <time>2013-05-02T18:24:44.16</time>
      </trkpt>
      <trkpt lat="37.19053" lon="-7.3858516666666665">
        <ele>52.399999999999984</ele>
        <time>2013-05-02T18:24:45.16</time>
      </trkpt>
      <trkpt lat="37.190506666666664" lon="-7.38578">
        <ele>51.999999999999986</ele>
        <time>2013-05-02T18:24:46.16</time>
      </trkpt>
      <trkpt lat="37.19048" lon="-7.385715">
        <ele>51.59999999999999</ele>
        <time>2013-05-02T18:24:47.17</time>
      </trkpt>
      <trkpt lat="37.190455" lon="-7.385653333333333">
        <ele>51.69999999999999</ele>
        <time>2013-05-02T18:24:48.17</time>
      </trkpt>
      <trkpt lat="37.190423333333335" lon="-7.38559">
        <ele>51.89999999999999</ele>
        <time>2013-05-02T18:24:49.16</time>
      </trkpt>
      <trkpt lat="37.19039333333333" lon="-7.3855216666666665">
        <ele>51.99999999999999</ele>
        <time>2013-05-02T18:24:50.16</time>
      </trkpt>
      <trkpt lat="37.190358333333336" lon="-7.38545">
        <ele>52.39999999999999</ele>
        <time>2013-05-02T18:24:51.16</time>
      </trkpt>
      <trkpt lat="37.19032833333333" lon="-7.3853816666666665">
        <ele>52.79999999999999</ele>
        <time>2013-05-02T18:24:52.16</time>
      </trkpt>
      <trkpt lat="37.19029333333334" lon="-7.385308333333334">
        <ele>52.79999999999999</ele>
        <time>2013-05-02T18:24:53.18</time>
      </trkpt>
      <trkpt lat="37.19025833333333" lon="-7.3852416666666665">
        <ele>52.89999999999999</ele>
        <time>2013-05-02T18:24:54.16</time>
      </trkpt>
      <trkpt lat="37.19022833333333" lon="-7.3851716666666665">
        <ele>52.89999999999999</ele>
        <time>2013-05-02T18:24:55.16</time>
      </trkpt>
      <trkpt lat="37.190195" lon="-7.385103333333333">
        <ele>52.99999999999999</ele>
        <time>2013-05-02T18:24:56.17</time>
      </trkpt>
      <trkpt lat="37.190155" lon="-7.38504">
        <ele>53.199999999999996</ele>
        <time>2013-05-02T18:24:57.16</time>
      </trkpt>
      <trkpt lat="37.19009833333333" lon="-7.384986666666666">
        <ele>53.99999999999999</ele>
        <time>2013-05-02T18:24:58.16</time>
      </trkpt>
      <trkpt lat="37.19004833333333" lon="-7.384933333333334">
        <ele>54.699999999999996</ele>
        <time>2013-05-02T18:24:59.16</time>
      </trkpt>
      <trkpt lat="37.19" lon="-7.384878333333333">
        <ele>54.49999999999999</ele>
        <time>2013-05-02T18:25:00.14</time>
      </trkpt>
      <trkpt lat="37.18995" lon="-7.384825">
        <ele>54.89999999999999</ele>
        <time>2013-05-02T18:25:01.17</time>
      </trkpt>
      <trkpt lat="37.1899" lon="-7.38478">
        <ele>54.79999999999999</ele>
        <time>2013-05-02T18:25:02.16</time>
      </trkpt>
      <trkpt lat="37.189843333333336" lon="-7.384746666666667">
        <ele>55.09999999999999</ele>
        <time>2013-05-02T18:25:03.16</time>
      </trkpt>
      <trkpt lat="37.189795" lon="-7.38472">
        <ele>55.29999999999999</ele>
        <time>2013-05-02T18:25:04.16</time>
      </trkpt>
      <trkpt lat="37.189755" lon="-7.38467">
        <ele>55.49999999999999</ele>
        <time>2013-05-02T18:25:05.13</time>
      </trkpt>
      <trkpt lat="37.18971666666667" lon="-7.384615">
        <ele>55.89999999999999</ele>
        <time>2013-05-02T18:25:06.16</time>
      </trkpt>
      <trkpt lat="37.189688333333336" lon="-7.384553333333334">
        <ele>56.099999999999994</ele>
        <time>2013-05-02T18:25:07.16</time>
      </trkpt>
      <trkpt lat="37.189625" lon="-7.3845133333333335">
        <ele>55.49999999999999</ele>
        <time>2013-05-02T18:25:08.16</time>
      </trkpt>
      <trkpt lat="37.18958" lon="-7.384465">
        <ele>54.79999999999999</ele>
        <time>2013-05-02T18:25:09.16</time>
      </trkpt>
      <trkpt lat="37.189535" lon="-7.38442">
        <ele>54.49999999999999</ele>
        <time>2013-05-02T18:25:10.21</time>
      </trkpt>
      <trkpt lat="37.18946" lon="-7.38438">
        <ele>56.49999999999999</ele>
        <time>2013-05-02T18:25:11.16</time>
      </trkpt>
      <trkpt lat="37.18941" lon="-7.384351666666666">
        <ele>55.099999999999994</ele>
        <time>2013-05-02T18:25:12.16</time>
      </trkpt>
      <trkpt lat="37.18935333333334" lon="-7.384316666666667">
        <ele>54.8</ele>
        <time>2013-05-02T18:25:13.16</time>
      </trkpt>
      <trkpt lat="37.1893" lon="-7.384285">
        <ele>54.9</ele>
        <time>2013-05-02T18:25:14.16</time>
      </trkpt>
      <trkpt lat="37.18924833333333" lon="-7.384253333333334">
        <ele>54.5</ele>
        <time>2013-05-02T18:25:15.16</time>
      </trkpt>
      <trkpt lat="37.189193333333336" lon="-7.384236666666666">
        <ele>53.8</ele>
        <time>2013-05-02T18:25:16.16</time>
      </trkpt>
      <trkpt lat="37.18913666666667" lon="-7.384218333333333">
        <ele>53.699999999999996</ele>
        <time>2013-05-02T18:25:17.16</time>
      </trkpt>
      <trkpt lat="37.189078333333335" lon="-7.384198333333333">
        <ele>53.3</ele>
        <time>2013-05-02T18:25:18.16</time>
      </trkpt>
      <trkpt lat="37.18900333333333" lon="-7.38416">
        <ele>55.199999999999996</ele>
        <time>2013-05-02T18:25:19.16</time>
      </trkpt>
      <trkpt lat="37.188935" lon="-7.384146666666667">
        <ele>53.99999999999999</ele>
        <time>2013-05-02T18:25:20.16</time>
      </trkpt>
      <trkpt lat="37.188875" lon="-7.384116666666666">
        <ele>54.89999999999999</ele>
        <time>2013-05-02T18:25:21.15</time>
      </trkpt>
      <trkpt lat="37.18881833333333" lon="-7.384098333333333">
        <ele>55.49999999999999</ele>
        <time>2013-05-02T18:25:22.16</time>
      </trkpt>
      <trkpt lat="37.188748333333336" lon="-7.384075">
        <ele>57.199999999999996</ele>
        <time>2013-05-02T18:25:23.16</time>
      </trkpt>
      <trkpt lat="37.18868166666667" lon="-7.384053333333333">
        <ele>58.099999999999994</ele>
        <time>2013-05-02T18:25:24.16</time>
      </trkpt>
      <trkpt lat="37.188633333333335" lon="-7.38403">
        <ele>58.599999999999994</ele>
        <time>2013-05-02T18:25:25.16</time>
      </trkpt>
      <trkpt lat="37.188588333333335" lon="-7.384001666666666">
        <ele>58.89999999999999</ele>
        <time>2013-05-02T18:25:26.16</time>
      </trkpt>
      <trkpt lat="37.18853166666667" lon="-7.384023333333333">
        <ele>58.39999999999999</ele>
        <time>2013-05-02T18:25:27.22</time>
      </trkpt>
      <trkpt lat="37.188473333333334" lon="-7.384028333333333">
        <ele>58.599999999999994</ele>
        <time>2013-05-02T18:25:28.17</time>
      </trkpt>
      <trkpt lat="37.188415" lon="-7.384023333333333">
        <ele>58.99999999999999</ele>
        <time>2013-05-02T18:25:29.16</time>
      </trkpt>
      <trkpt lat="37.18835833333333" lon="-7.3840216666666665">
        <ele>59.199999999999996</ele>
        <time>2013-05-02T18:25:30.16</time>
      </trkpt>
      <trkpt lat="37.1883" lon="-7.384025">
        <ele>58.599999999999994</ele>
        <time>2013-05-02T18:25:31.16</time>
      </trkpt>
      <trkpt lat="37.188246666666664" lon="-7.384023333333333">
        <ele>58.8</ele>
        <time>2013-05-02T18:25:32.16</time>
      </trkpt>
      <trkpt lat="37.18819833333333" lon="-7.384015">
        <ele>58.4</ele>
        <time>2013-05-02T18:25:33.16</time>
      </trkpt>
      <trkpt lat="37.188145" lon="-7.384011666666667">
        <ele>57.9</ele>
        <time>2013-05-02T18:25:34.16</time>
      </trkpt>
      <trkpt lat="37.188093333333335" lon="-7.384011666666667">
        <ele>57.9</ele>
        <time>2013-05-02T18:25:35.16</time>
      </trkpt>
      <trkpt lat="37.18803833333333" lon="-7.384006666666667">
        <ele>57.6</ele>
        <time>2013-05-02T18:25:36.16</time>
      </trkpt>
      <trkpt lat="37.187983333333335" lon="-7.384">
        <ele>57.5</ele>
        <time>2013-05-02T18:25:37.16</time>
      </trkpt>
      <trkpt lat="37.18792166666667" lon="-7.383995">
        <ele>57.5</ele>
        <time>2013-05-02T18:25:38.16</time>
      </trkpt>
      <trkpt lat="37.187855" lon="-7.383985">
        <ele>57.5</ele>
        <time>2013-05-02T18:25:39.16</time>
      </trkpt>
      <trkpt lat="37.18779833333333" lon="-7.383963333333333">
        <ele>57.7</ele>
        <time>2013-05-02T18:25:40.16</time>
      </trkpt>
      <trkpt lat="37.18772833333333" lon="-7.383968333333334">
        <ele>57.7</ele>
        <time>2013-05-02T18:25:41.16</time>
      </trkpt>
      <trkpt lat="37.18766166666666" lon="-7.383976666666666">
        <ele>58.1</ele>
        <time>2013-05-02T18:25:42.16</time>
      </trkpt>
      <trkpt lat="37.1876" lon="-7.383983333333333">
        <ele>58</ele>
        <time>2013-05-02T18:25:43.16</time>
      </trkpt>
      <trkpt lat="37.18752666666666" lon="-7.383988333333333">
        <ele>59.2</ele>
        <time>2013-05-02T18:25:44.16</time>
      </trkpt>
      <trkpt lat="37.187461666666664" lon="-7.383985">
        <ele>59.2</ele>
        <time>2013-05-02T18:25:45.16</time>
      </trkpt>
      <trkpt lat="37.187403333333336" lon="-7.383985">
        <ele>58.1</ele>
        <time>2013-05-02T18:25:46.16</time>
      </trkpt>
      <trkpt lat="37.18734" lon="-7.383986666666667">
        <ele>57.800000000000004</ele>
        <time>2013-05-02T18:25:47.16</time>
      </trkpt>
      <trkpt lat="37.18727166666667" lon="-7.383988333333333">
        <ele>58.300000000000004</ele>
        <time>2013-05-02T18:25:48.16</time>
      </trkpt>
      <trkpt lat="37.18720833333333" lon="-7.383986666666667">
        <ele>58.7</ele>
        <time>2013-05-02T18:25:49.16</time>
      </trkpt>
      <trkpt lat="37.18715" lon="-7.38399">
        <ele>57.5</ele>
        <time>2013-05-02T18:25:50.16</time>
      </trkpt>
      <trkpt lat="37.18709" lon="-7.383988333333333">
        <ele>57.2</ele>
        <time>2013-05-02T18:25:51.16</time>
      </trkpt>
      <trkpt lat="37.18702666666667" lon="-7.383983333333333">
        <ele>56.900000000000006</ele>
        <time>2013-05-02T18:25:52.15</time>
      </trkpt>
      <trkpt lat="37.186973333333334" lon="-7.383978333333333">
        <ele>56.50000000000001</ele>
        <time>2013-05-02T18:25:53.17</time>
      </trkpt>
      <trkpt lat="37.18691333333334" lon="-7.383978333333333">
        <ele>56.300000000000004</ele>
        <time>2013-05-02T18:25:54.15</time>
      </trkpt>
      <trkpt lat="37.18685166666667" lon="-7.383981666666667">
        <ele>55.6</ele>
        <time>2013-05-02T18:25:55.16</time>
      </trkpt>
      <trkpt lat="37.186793333333334" lon="-7.383971666666667">
        <ele>55.9</ele>
        <time>2013-05-02T18:25:56.16</time>
      </trkpt>
      <trkpt lat="37.186733333333336" lon="-7.383965">
        <ele>55.699999999999996</ele>
        <time>2013-05-02T18:25:57.16</time>
      </trkpt>
      <trkpt lat="37.18666833333333" lon="-7.383965">
        <ele>55.699999999999996</ele>
        <time>2013-05-02T18:25:58.16</time>
      </trkpt>
      <trkpt lat="37.186605" lon="-7.383961666666667">
        <ele>55.8</ele>
        <time>2013-05-02T18:25:59.16</time>
      </trkpt>
      <trkpt lat="37.18653833333333" lon="-7.38396">
        <ele>55.8</ele>
        <time>2013-05-02T18:26:00.14</time>
      </trkpt>
      <trkpt lat="37.18647333333333" lon="-7.38396">
        <ele>55.599999999999994</ele>
        <time>2013-05-02T18:26:01.16</time>
      </trkpt>
      <trkpt lat="37.186413333333334" lon="-7.383958333333333">
        <ele>55.3</ele>
        <time>2013-05-02T18:26:02.16</time>
      </trkpt>
      <trkpt lat="37.186348333333335" lon="-7.383956666666666">
        <ele>54.4</ele>
        <time>2013-05-02T18:26:03.16</time>
      </trkpt>
      <trkpt lat="37.18628" lon="-7.383953333333333">
        <ele>53.9</ele>
        <time>2013-05-02T18:26:04.16</time>
      </trkpt>
      <trkpt lat="37.186215" lon="-7.383953333333333">
        <ele>53.8</ele>
        <time>2013-05-02T18:26:05.16</time>
      </trkpt>
      <trkpt lat="37.18615" lon="-7.383945">
        <ele>53.3</ele>
        <time>2013-05-02T18:26:06.16</time>
      </trkpt>
      <trkpt lat="37.186085" lon="-7.383933333333333">
        <ele>53.099999999999994</ele>
        <time>2013-05-02T18:26:07.16</time>
      </trkpt>
      <trkpt lat="37.18602166666667" lon="-7.383925">
        <ele>53.199999999999996</ele>
        <time>2013-05-02T18:26:08.16</time>
      </trkpt>
      <trkpt lat="37.185955" lon="-7.383925">
        <ele>52.9</ele>
        <time>2013-05-02T18:26:09.16</time>
      </trkpt>
      <trkpt lat="37.18588833333333" lon="-7.383933333333333">
        <ele>52.3</ele>
        <time>2013-05-02T18:26:10.16</time>
      </trkpt>
      <trkpt lat="37.18582166666667" lon="-7.383943333333334">
        <ele>52.699999999999996</ele>
        <time>2013-05-02T18:26:11.16</time>
      </trkpt>
      <trkpt lat="37.18575166666667" lon="-7.383953333333333">
        <ele>52.99999999999999</ele>
        <time>2013-05-02T18:26:12.16</time>
      </trkpt>
      <trkpt lat="37.18568666666667" lon="-7.38396">
        <ele>53.599999999999994</ele>
        <time>2013-05-02T18:26:13.16</time>
      </trkpt>
      <trkpt lat="37.18561833333333" lon="-7.383966666666667">
        <ele>53.8</ele>
        <time>2013-05-02T18:26:14.16</time>
      </trkpt>
      <trkpt lat="37.185555" lon="-7.3839733333333335">
        <ele>53.9</ele>
        <time>2013-05-02T18:26:15.16</time>
      </trkpt>
      <trkpt lat="37.18548833333333" lon="-7.38398">
        <ele>54.5</ele>
        <time>2013-05-02T18:26:16.16</time>
      </trkpt>
      <trkpt lat="37.18542166666667" lon="-7.38399">
        <ele>54.6</ele>
        <time>2013-05-02T18:26:17.16</time>
      </trkpt>
      <trkpt lat="37.185355" lon="-7.384">
        <ele>54.5</ele>
        <time>2013-05-02T18:26:18.16</time>
      </trkpt>
      <trkpt lat="37.18529" lon="-7.384005">
        <ele>54.3</ele>
        <time>2013-05-02T18:26:19.16</time>
      </trkpt>
      <trkpt lat="37.185226666666665" lon="-7.384011666666667">
        <ele>54.3</ele>
        <time>2013-05-02T18:26:20.16</time>
      </trkpt>
      <trkpt lat="37.18516" lon="-7.384016666666667">
        <ele>54.3</ele>
        <time>2013-05-02T18:26:21.16</time>
      </trkpt>
      <trkpt lat="37.1851" lon="-7.38401">
        <ele>54.3</ele>
        <time>2013-05-02T18:26:22.16</time>
      </trkpt>
      <trkpt lat="37.185035" lon="-7.384013333333334">
        <ele>54.4</ele>
        <time>2013-05-02T18:26:23.16</time>
      </trkpt>
      <trkpt lat="37.18493333333333" lon="-7.383991666666667">
        <ele>59.5</ele>
        <time>2013-05-02T18:26:24.21</time>
      </trkpt>
      <trkpt lat="37.18486166666667" lon="-7.383978333333333">
        <ele>60.6</ele>
        <time>2013-05-02T18:26:25.15</time>
      </trkpt>
      <trkpt lat="37.18463666666667" lon="-7.383885">
        <ele>63.8</ele>
        <time>2013-05-02T18:26:28.15</time>
      </trkpt>
      <trkpt lat="37.184595" lon="-7.38389">
        <ele>61.5</ele>
        <time>2013-05-02T18:26:29.16</time>
      </trkpt>
      <trkpt lat="37.184531666666665" lon="-7.383868333333333">
        <ele>61.6</ele>
        <time>2013-05-02T18:26:30.16</time>
      </trkpt>
      <trkpt lat="37.18447333333334" lon="-7.383838333333333">
        <ele>60.9</ele>
        <time>2013-05-02T18:26:31.16</time>
      </trkpt>
      <trkpt lat="37.18440666666667" lon="-7.383815">
        <ele>60.5</ele>
        <time>2013-05-02T18:26:32.16</time>
      </trkpt>
      <trkpt lat="37.184345" lon="-7.383783333333334">
        <ele>61</ele>
        <time>2013-05-02T18:26:33.16</time>
      </trkpt>
      <trkpt lat="37.184286666666665" lon="-7.383751666666667">
        <ele>61.3</ele>
        <time>2013-05-02T18:26:34.16</time>
      </trkpt>
      <trkpt lat="37.18422833333333" lon="-7.383723333333333">
        <ele>61.4</ele>
        <time>2013-05-02T18:26:35.16</time>
      </trkpt>
      <trkpt lat="37.184171666666664" lon="-7.383696666666666">
        <ele>60.9</ele>
        <time>2013-05-02T18:26:36.16</time>
      </trkpt>
      <trkpt lat="37.18411166666667" lon="-7.383656666666667">
        <ele>61.3</ele>
        <time>2013-05-02T18:26:37.16</time>
      </trkpt>
      <trkpt lat="37.184055" lon="-7.383613333333333">
        <ele>61.3</ele>
        <time>2013-05-02T18:26:38.16</time>
      </trkpt>
      <trkpt lat="37.183998333333335" lon="-7.383568333333334">
        <ele>61.099999999999994</ele>
        <time>2013-05-02T18:26:39.16</time>
      </trkpt>
      <trkpt lat="37.183945" lon="-7.383536666666667">
        <ele>60.599999999999994</ele>
        <time>2013-05-02T18:26:40.16</time>
      </trkpt>
      <trkpt lat="37.183888333333336" lon="-7.383496666666667">
        <ele>60.49999999999999</ele>
        <time>2013-05-02T18:26:41.16</time>
      </trkpt>
      <trkpt lat="37.18383" lon="-7.383455">
        <ele>60.599999999999994</ele>
        <time>2013-05-02T18:26:42.16</time>
      </trkpt>
      <trkpt lat="37.183773333333335" lon="-7.383413333333333">
        <ele>60.599999999999994</ele>
        <time>2013-05-02T18:26:43.16</time>
      </trkpt>
      <trkpt lat="37.18372166666666" lon="-7.383366666666666">
        <ele>61.199999999999996</ele>
        <time>2013-05-02T18:26:44.16</time>
      </trkpt>
      <trkpt lat="37.183675" lon="-7.383325">
        <ele>60.49999999999999</ele>
        <time>2013-05-02T18:26:45.16</time>
      </trkpt>
      <trkpt lat="37.18362333333334" lon="-7.383276666666666">
        <ele>60.699999999999996</ele>
        <time>2013-05-02T18:26:46.16</time>
      </trkpt>
      <trkpt lat="37.183575" lon="-7.383231666666667">
        <ele>60.49999999999999</ele>
        <time>2013-05-02T18:26:47.16</time>
      </trkpt>
      <trkpt lat="37.18352" lon="-7.383188333333333">
        <ele>60.49999999999999</ele>
        <time>2013-05-02T18:26:48.16</time>
      </trkpt>
      <trkpt lat="37.18347333333333" lon="-7.38314">
        <ele>60.49999999999999</ele>
        <time>2013-05-02T18:26:49.16</time>
      </trkpt>
      <trkpt lat="37.18342333333333" lon="-7.38309">
        <ele>60.79999999999999</ele>
        <time>2013-05-02T18:26:50.19</time>
      </trkpt>
      <trkpt lat="37.183375" lon="-7.383038333333333">
        <ele>60.89999999999999</ele>
        <time>2013-05-02T18:26:51.16</time>
      </trkpt>
      <trkpt lat="37.183321666666664" lon="-7.382993333333333">
        <ele>60.99999999999999</ele>
        <time>2013-05-02T18:26:52.16</time>
      </trkpt>
      <trkpt lat="37.18326833333333" lon="-7.382946666666666">
        <ele>60.599999999999994</ele>
        <time>2013-05-02T18:26:53.16</time>
      </trkpt>
      <trkpt lat="37.183213333333335" lon="-7.3829">
        <ele>60.49999999999999</ele>
        <time>2013-05-02T18:26:54.16</time>
      </trkpt>
      <trkpt lat="37.18315833333333" lon="-7.382851666666666">
        <ele>60.89999999999999</ele>
        <time>2013-05-02T18:26:55.16</time>
      </trkpt>
      <trkpt lat="37.1831" lon="-7.382805">
        <ele>60.89999999999999</ele>
        <time>2013-05-02T18:26:56.16</time>
      </trkpt>
      <trkpt lat="37.18304333333333" lon="-7.382763333333333">
        <ele>60.79999999999999</ele>
        <time>2013-05-02T18:26:57.16</time>
      </trkpt>
      <trkpt lat="37.182988333333334" lon="-7.38272">
        <ele>60.59999999999999</ele>
        <time>2013-05-02T18:26:58.16</time>
      </trkpt>
      <trkpt lat="37.18293333333333" lon="-7.382675">
        <ele>60.29999999999999</ele>
        <time>2013-05-02T18:26:59.16</time>
      </trkpt>
      <trkpt lat="37.182878333333335" lon="-7.382631666666667">
        <ele>60.19999999999999</ele>
        <time>2013-05-02T18:27:00.14</time>
      </trkpt>
      <trkpt lat="37.182826666666664" lon="-7.38258">
        <ele>59.999999999999986</ele>
        <time>2013-05-02T18:27:01.15</time>
      </trkpt>
      <trkpt lat="37.182768333333335" lon="-7.38254">
        <ele>60.09999999999999</ele>
        <time>2013-05-02T18:27:02.16</time>
      </trkpt>
      <trkpt lat="37.182716666666664" lon="-7.382486666666667">
        <ele>60.29999999999999</ele>
        <time>2013-05-02T18:27:03.16</time>
      </trkpt>
      <trkpt lat="37.18266333333333" lon="-7.382445">
        <ele>59.79999999999999</ele>
        <time>2013-05-02T18:27:04.16</time>
      </trkpt>
      <trkpt lat="37.182615" lon="-7.382396666666667">
        <ele>58.89999999999999</ele>
        <time>2013-05-02T18:27:05.16</time>
      </trkpt>
      <trkpt lat="37.182568333333336" lon="-7.382348333333334">
        <ele>58.29999999999999</ele>
        <time>2013-05-02T18:27:06.16</time>
      </trkpt>
      <trkpt lat="37.182518333333334" lon="-7.382288333333333">
        <ele>57.69999999999999</ele>
        <time>2013-05-02T18:27:07.16</time>
      </trkpt>
      <trkpt lat="37.182465" lon="-7.38224">
        <ele>57.69999999999999</ele>
        <time>2013-05-02T18:27:08.16</time>
      </trkpt>
      <trkpt lat="37.182415" lon="-7.382188333333334">
        <ele>57.69999999999999</ele>
        <time>2013-05-02T18:27:09.16</time>
      </trkpt>
      <trkpt lat="37.18236666666667" lon="-7.382138333333334">
        <ele>56.999999999999986</ele>
        <time>2013-05-02T18:27:10.16</time>
      </trkpt>
      <trkpt lat="37.182318333333335" lon="-7.382083333333333">
        <ele>56.69999999999999</ele>
        <time>2013-05-02T18:27:11.16</time>
      </trkpt>
      <trkpt lat="37.182273333333335" lon="-7.3820266666666665">
        <ele>57.09999999999999</ele>
        <time>2013-05-02T18:27:12.16</time>
      </trkpt>
      <trkpt lat="37.182228333333335" lon="-7.381973333333334">
        <ele>57.19999999999999</ele>
        <time>2013-05-02T18:27:13.16</time>
      </trkpt>
      <trkpt lat="37.18218666666667" lon="-7.381915">
        <ele>57.29999999999999</ele>
        <time>2013-05-02T18:27:14.16</time>
      </trkpt>
      <trkpt lat="37.182141666666666" lon="-7.381853333333333">
        <ele>56.99999999999999</ele>
        <time>2013-05-02T18:27:15.16</time>
      </trkpt>
      <trkpt lat="37.182098333333336" lon="-7.381795">
        <ele>56.79999999999999</ele>
        <time>2013-05-02T18:27:16.16</time>
      </trkpt>
      <trkpt lat="37.182055" lon="-7.38174">
        <ele>56.99999999999999</ele>
        <time>2013-05-02T18:27:17.16</time>
      </trkpt>
      <trkpt lat="37.18201166666667" lon="-7.381681666666666">
        <ele>57.099999999999994</ele>
        <time>2013-05-02T18:27:18.16</time>
      </trkpt>
      <trkpt lat="37.18197" lon="-7.381623333333334">
        <ele>57.099999999999994</ele>
        <time>2013-05-02T18:27:19.16</time>
      </trkpt>
      <trkpt lat="37.18192833333333" lon="-7.381566666666667">
        <ele>57.39999999999999</ele>
        <time>2013-05-02T18:27:20.21</time>
      </trkpt>
      <trkpt lat="37.181886666666664" lon="-7.381508333333334">
        <ele>57.79999999999999</ele>
        <time>2013-05-02T18:27:21.16</time>
      </trkpt>
      <trkpt lat="37.181845" lon="-7.381451666666667">
        <ele>57.89999999999999</ele>
        <time>2013-05-02T18:27:22.16</time>
      </trkpt>
      <trkpt lat="37.181803333333335" lon="-7.381391666666667">
        <ele>58.49999999999999</ele>
        <time>2013-05-02T18:27:23.16</time>
      </trkpt>
      <trkpt lat="37.18176666666667" lon="-7.381326666666666">
        <ele>58.49999999999999</ele>
        <time>2013-05-02T18:27:24.16</time>
      </trkpt>
      <trkpt lat="37.18172666666667" lon="-7.381266666666667">
        <ele>58.89999999999999</ele>
        <time>2013-05-02T18:27:25.16</time>
      </trkpt>
      <trkpt lat="37.181691666666666" lon="-7.38121">
        <ele>59.19999999999999</ele>
        <time>2013-05-02T18:27:26.16</time>
      </trkpt>
      <trkpt lat="37.18165333333334" lon="-7.381151666666667">
        <ele>59.19999999999999</ele>
        <time>2013-05-02T18:27:27.16</time>
      </trkpt>
      <trkpt lat="37.18163" lon="-7.3810883333333335">
        <ele>58.29999999999999</ele>
        <time>2013-05-02T18:27:28.16</time>
      </trkpt>
      <trkpt lat="37.18159333333333" lon="-7.381025">
        <ele>58.59999999999999</ele>
        <time>2013-05-02T18:27:29.16</time>
      </trkpt>
      <trkpt lat="37.181558333333335" lon="-7.380963333333334">
        <ele>58.59999999999999</ele>
        <time>2013-05-02T18:27:30.16</time>
      </trkpt>
      <trkpt lat="37.18152166666667" lon="-7.3809">
        <ele>58.29999999999999</ele>
        <time>2013-05-02T18:27:31.16</time>
      </trkpt>
      <trkpt lat="37.181488333333334" lon="-7.380835">
        <ele>58.69999999999999</ele>
        <time>2013-05-02T18:27:32.16</time>
      </trkpt>
      <trkpt lat="37.18145666666667" lon="-7.380771666666667">
        <ele>58.39999999999999</ele>
        <time>2013-05-02T18:27:33.16</time>
      </trkpt>
      <trkpt lat="37.18142" lon="-7.38071">
        <ele>58.79999999999999</ele>
        <time>2013-05-02T18:27:34.16</time>
      </trkpt>
      <trkpt lat="37.181383333333336" lon="-7.3806416666666665">
        <ele>58.89999999999999</ele>
        <time>2013-05-02T18:27:35.16</time>
      </trkpt>
      <trkpt lat="37.181353333333334" lon="-7.3805716666666665">
        <ele>58.99999999999999</ele>
        <time>2013-05-02T18:27:36.23</time>
      </trkpt>
      <trkpt lat="37.181325" lon="-7.380506666666666">
        <ele>59.49999999999999</ele>
        <time>2013-05-02T18:27:37.16</time>
      </trkpt>
      <trkpt lat="37.18129666666667" lon="-7.380441666666667">
        <ele>59.599999999999994</ele>
        <time>2013-05-02T18:27:38.16</time>
      </trkpt>
      <trkpt lat="37.181263333333334" lon="-7.380378333333334">
        <ele>59.199999999999996</ele>
        <time>2013-05-02T18:27:39.16</time>
      </trkpt>
      <trkpt lat="37.18123166666667" lon="-7.3803133333333335">
        <ele>58.699999999999996</ele>
        <time>2013-05-02T18:27:40.16</time>
      </trkpt>
      <trkpt lat="37.181203333333336" lon="-7.38025">
        <ele>58.199999999999996</ele>
        <time>2013-05-02T18:27:41.16</time>
      </trkpt>
      <trkpt lat="37.181175" lon="-7.380183333333333">
        <ele>58.599999999999994</ele>
        <time>2013-05-02T18:27:42.16</time>
      </trkpt>
      <trkpt lat="37.18114" lon="-7.380113333333333">
        <ele>58.39999999999999</ele>
        <time>2013-05-02T18:27:43.16</time>
      </trkpt>
      <trkpt lat="37.181105" lon="-7.380045">
        <ele>58.599999999999994</ele>
        <time>2013-05-02T18:27:44.16</time>
      </trkpt>
      <trkpt lat="37.181075" lon="-7.37998">
        <ele>57.8</ele>
        <time>2013-05-02T18:27:45.16</time>
      </trkpt>
      <trkpt lat="37.181043333333335" lon="-7.3799166666666665">
        <ele>57.8</ele>
        <time>2013-05-02T18:27:46.16</time>
      </trkpt>
      <trkpt lat="37.18100833333333" lon="-7.379848333333333">
        <ele>58.4</ele>
        <time>2013-05-02T18:27:47.16</time>
      </trkpt>
      <trkpt lat="37.180978333333336" lon="-7.379778333333333">
        <ele>58.1</ele>
        <time>2013-05-02T18:27:48.16</time>
      </trkpt>
      <trkpt lat="37.180945" lon="-7.379711666666666">
        <ele>57.6</ele>
        <time>2013-05-02T18:27:49.16</time>
      </trkpt>
      <trkpt lat="37.18091" lon="-7.379643333333333">
        <ele>57.9</ele>
        <time>2013-05-02T18:27:50.20</time>
      </trkpt>
      <trkpt lat="37.18087833333333" lon="-7.379576666666667">
        <ele>57.699999999999996</ele>
        <time>2013-05-02T18:27:51.16</time>
      </trkpt>
      <trkpt lat="37.180841666666666" lon="-7.379505">
        <ele>58.49999999999999</ele>
        <time>2013-05-02T18:27:52.16</time>
      </trkpt>
      <trkpt lat="37.18081166666666" lon="-7.37944">
        <ele>58.79999999999999</ele>
        <time>2013-05-02T18:27:53.16</time>
      </trkpt>
      <trkpt lat="37.18078" lon="-7.379373333333334">
        <ele>58.49999999999999</ele>
        <time>2013-05-02T18:27:54.16</time>
      </trkpt>
      <trkpt lat="37.180745" lon="-7.3793066666666665">
        <ele>58.599999999999994</ele>
        <time>2013-05-02T18:27:55.16</time>
      </trkpt>
      <trkpt lat="37.18071666666667" lon="-7.3792366666666664">
        <ele>58.39999999999999</ele>
        <time>2013-05-02T18:27:56.16</time>
      </trkpt>
      <trkpt lat="37.180681666666665" lon="-7.379168333333333">
        <ele>58.599999999999994</ele>
        <time>2013-05-02T18:27:57.16</time>
      </trkpt>
      <trkpt lat="37.18064666666667" lon="-7.379103333333333">
        <ele>58.8</ele>
        <time>2013-05-02T18:27:58.16</time>
      </trkpt>
      <trkpt lat="37.18062166666667" lon="-7.379031666666667">
        <ele>57.3</ele>
        <time>2013-05-02T18:27:59.16</time>
      </trkpt>
      <trkpt lat="37.180595" lon="-7.378961666666667">
        <ele>56.8</ele>
        <time>2013-05-02T18:28:00.14</time>
      </trkpt>
      <trkpt lat="37.18056" lon="-7.37889">
        <ele>56.8</ele>
        <time>2013-05-02T18:28:01.16</time>
      </trkpt>
      <trkpt lat="37.180528333333335" lon="-7.378823333333333">
        <ele>57.099999999999994</ele>
        <time>2013-05-02T18:28:02.16</time>
      </trkpt>
      <trkpt lat="37.180495" lon="-7.378755">
        <ele>57.099999999999994</ele>
        <time>2013-05-02T18:28:03.16</time>
      </trkpt>
      <trkpt lat="37.18046666666667" lon="-7.378683333333333">
        <ele>56.8</ele>
        <time>2013-05-02T18:28:04.16</time>
      </trkpt>
      <trkpt lat="37.18043333333333" lon="-7.378613333333333">
        <ele>56.8</ele>
        <time>2013-05-02T18:28:05.16</time>
      </trkpt>
      <trkpt lat="37.18039666666667" lon="-7.378546666666667">
        <ele>56.699999999999996</ele>
        <time>2013-05-02T18:28:06.16</time>
      </trkpt>
      <trkpt lat="37.180365" lon="-7.378478333333334">
        <ele>56.199999999999996</ele>
        <time>2013-05-02T18:28:07.16</time>
      </trkpt>
      <trkpt lat="37.18033" lon="-7.378408333333334">
        <ele>56.4</ele>
        <time>2013-05-02T18:28:08.16</time>
      </trkpt>
      <trkpt lat="37.18029333333333" lon="-7.378338333333334">
        <ele>56.4</ele>
        <time>2013-05-02T18:28:09.16</time>
      </trkpt>
      <trkpt lat="37.180263333333336" lon="-7.37827">
        <ele>56.6</ele>
        <time>2013-05-02T18:28:10.16</time>
      </trkpt>
      <trkpt lat="37.18022666666667" lon="-7.378198333333334">
        <ele>56.7</ele>
        <time>2013-05-02T18:28:11.16</time>
      </trkpt>
      <trkpt lat="37.18019" lon="-7.378128333333334">
        <ele>56.300000000000004</ele>
        <time>2013-05-02T18:28:12.16</time>
      </trkpt>
      <trkpt lat="37.18015666666667" lon="-7.378056666666667">
        <ele>56.2</ele>
        <time>2013-05-02T18:28:13.16</time>
      </trkpt>
      <trkpt lat="37.180121666666665" lon="-7.377985">
        <ele>56.400000000000006</ele>
        <time>2013-05-02T18:28:14.16</time>
      </trkpt>
      <trkpt lat="37.180083333333336" lon="-7.377908333333333">
        <ele>55.900000000000006</ele>
        <time>2013-05-02T18:28:15.16</time>
      </trkpt>
      <trkpt lat="37.18004666666667" lon="-7.377838333333333">
        <ele>55.7</ele>
        <time>2013-05-02T18:28:16.16</time>
      </trkpt>
      <trkpt lat="37.180013333333335" lon="-7.377768333333333">
        <ele>55.5</ele>
        <time>2013-05-02T18:28:17.16</time>
      </trkpt>
      <trkpt lat="37.17997833333333" lon="-7.377696666666667">
        <ele>55.7</ele>
        <time>2013-05-02T18:28:18.16</time>
      </trkpt>
      <trkpt lat="37.179948333333336" lon="-7.377628333333333">
        <ele>55.6</ele>
        <time>2013-05-02T18:28:19.16</time>
      </trkpt>
      <trkpt lat="37.17991833333333" lon="-7.377561666666667">
        <ele>55.4</ele>
        <time>2013-05-02T18:28:20.16</time>
      </trkpt>
      <trkpt lat="37.17988166666667" lon="-7.377488333333333">
        <ele>55.6</ele>
        <time>2013-05-02T18:28:21.16</time>
      </trkpt>
      <trkpt lat="37.17984333333333" lon="-7.37742">
        <ele>55.5</ele>
        <time>2013-05-02T18:28:22.16</time>
      </trkpt>
      <trkpt lat="37.179805" lon="-7.377346666666667">
        <ele>55.5</ele>
        <time>2013-05-02T18:28:23.16</time>
      </trkpt>
      <trkpt lat="37.179775" lon="-7.377285">
        <ele>55.6</ele>
        <time>2013-05-02T18:28:24.16</time>
      </trkpt>
      <trkpt lat="37.17973833333333" lon="-7.377221666666666">
        <ele>55.2</ele>
        <time>2013-05-02T18:28:25.16</time>
      </trkpt>
      <trkpt lat="37.179701666666666" lon="-7.377158333333333">
        <ele>55</ele>
        <time>2013-05-02T18:28:26.17</time>
      </trkpt>
      <trkpt lat="37.17966333333333" lon="-7.377088333333333">
        <ele>55.4</ele>
        <time>2013-05-02T18:28:27.16</time>
      </trkpt>
      <trkpt lat="37.179626666666664" lon="-7.377025">
        <ele>55.1</ele>
        <time>2013-05-02T18:28:28.16</time>
      </trkpt>
      <trkpt lat="37.179588333333335" lon="-7.376956666666667">
        <ele>55.300000000000004</ele>
        <time>2013-05-02T18:28:29.16</time>
      </trkpt>
      <trkpt lat="37.17955166666667" lon="-7.376891666666666">
        <ele>55.1</ele>
        <time>2013-05-02T18:28:30.16</time>
      </trkpt>
      <trkpt lat="37.179515" lon="-7.376821666666666">
        <ele>55.300000000000004</ele>
        <time>2013-05-02T18:28:31.16</time>
      </trkpt>
      <trkpt lat="37.179476666666666" lon="-7.376758333333333">
        <ele>55.2</ele>
        <time>2013-05-02T18:28:32.16</time>
      </trkpt>
      <trkpt lat="37.17943666666667" lon="-7.376693333333334">
        <ele>55.5</ele>
        <time>2013-05-02T18:28:33.16</time>
      </trkpt>
      <trkpt lat="37.179385" lon="-7.376635">
        <ele>55.7</ele>
        <time>2013-05-02T18:28:34.16</time>
      </trkpt>
      <trkpt lat="37.179336666666664" lon="-7.376575">
        <ele>56</ele>
        <time>2013-05-02T18:28:35.16</time>
      </trkpt>
      <trkpt lat="37.17928333333333" lon="-7.376523333333333">
        <ele>55.9</ele>
        <time>2013-05-02T18:28:36.16</time>
      </trkpt>
      <trkpt lat="37.179235" lon="-7.376483333333334">
        <ele>54.9</ele>
        <time>2013-05-02T18:28:37.16</time>
      </trkpt>
      <trkpt lat="37.179183333333334" lon="-7.376438333333334">
        <ele>54.5</ele>
        <time>2013-05-02T18:28:38.16</time>
      </trkpt>
      <trkpt lat="37.17913333333333" lon="-7.376398333333333">
        <ele>53.2</ele>
        <time>2013-05-02T18:28:39.16</time>
      </trkpt>
      <trkpt lat="37.17908166666667" lon="-7.376351666666666">
        <ele>53</ele>
        <time>2013-05-02T18:28:40.16</time>
      </trkpt>
      <trkpt lat="37.179025" lon="-7.376318333333334">
        <ele>53</ele>
        <time>2013-05-02T18:28:41.16</time>
      </trkpt>
      <trkpt lat="37.17896666666667" lon="-7.37628">
        <ele>52.8</ele>
        <time>2013-05-02T18:28:42.16</time>
      </trkpt>
      <trkpt lat="37.178905" lon="-7.376245">
        <ele>53</ele>
        <time>2013-05-02T18:28:43.16</time>
      </trkpt>
      <trkpt lat="37.178846666666665" lon="-7.376206666666667">
        <ele>53.3</ele>
        <time>2013-05-02T18:28:44.16</time>
      </trkpt>
      <trkpt lat="37.178783333333335" lon="-7.376173333333333">
        <ele>53.099999999999994</ele>
        <time>2013-05-02T18:28:45.16</time>
      </trkpt>
      <trkpt lat="37.178725" lon="-7.376146666666667">
        <ele>53.099999999999994</ele>
        <time>2013-05-02T18:28:46.16</time>
      </trkpt>
      <trkpt lat="37.178666666666665" lon="-7.37612">
        <ele>53.3</ele>
        <time>2013-05-02T18:28:47.16</time>
      </trkpt>
      <trkpt lat="37.17860833333334" lon="-7.376093333333333">
        <ele>53.199999999999996</ele>
        <time>2013-05-02T18:28:48.16</time>
      </trkpt>
      <trkpt lat="37.17854833333333" lon="-7.376061666666667">
        <ele>53.099999999999994</ele>
        <time>2013-05-02T18:28:49.16</time>
      </trkpt>
      <trkpt lat="37.17848166666667" lon="-7.37604">
        <ele>52.99999999999999</ele>
        <time>2013-05-02T18:28:50.16</time>
      </trkpt>
      <trkpt lat="37.17841833333333" lon="-7.3760216666666665">
        <ele>52.89999999999999</ele>
        <time>2013-05-02T18:28:51.16</time>
      </trkpt>
      <trkpt lat="37.178355" lon="-7.376015">
        <ele>52.79999999999999</ele>
        <time>2013-05-02T18:28:52.16</time>
      </trkpt>
      <trkpt lat="37.178295" lon="-7.376005">
        <ele>52.89999999999999</ele>
        <time>2013-05-02T18:28:53.16</time>
      </trkpt>
      <trkpt lat="37.17823166666667" lon="-7.375995">
        <ele>52.99999999999999</ele>
        <time>2013-05-02T18:28:54.16</time>
      </trkpt>
      <trkpt lat="37.17817" lon="-7.375986666666667">
        <ele>52.89999999999999</ele>
        <time>2013-05-02T18:28:55.16</time>
      </trkpt>
      <trkpt lat="37.178106666666665" lon="-7.375981666666667">
        <ele>52.79999999999999</ele>
        <time>2013-05-02T18:28:56.16</time>
      </trkpt>
      <trkpt lat="37.17804666666667" lon="-7.375991666666667">
        <ele>52.99999999999999</ele>
        <time>2013-05-02T18:28:57.16</time>
      </trkpt>
      <trkpt lat="37.17799" lon="-7.375995">
        <ele>52.89999999999999</ele>
        <time>2013-05-02T18:28:58.16</time>
      </trkpt>
      <trkpt lat="37.177931666666666" lon="-7.375988333333333">
        <ele>52.599999999999994</ele>
        <time>2013-05-02T18:28:59.16</time>
      </trkpt>
      <trkpt lat="37.17787666666667" lon="-7.3759966666666665">
        <ele>52.49999999999999</ele>
        <time>2013-05-02T18:29:00.14</time>
      </trkpt>
      <trkpt lat="37.17780833333333" lon="-7.376003333333333">
        <ele>51.89999999999999</ele>
        <time>2013-05-02T18:29:01.15</time>
      </trkpt>
      <trkpt lat="37.177748333333334" lon="-7.376011666666667">
        <ele>51.39999999999999</ele>
        <time>2013-05-02T18:29:02.16</time>
      </trkpt>
      <trkpt lat="37.17769" lon="-7.376018333333334">
        <ele>51.49999999999999</ele>
        <time>2013-05-02T18:29:03.16</time>
      </trkpt>
      <trkpt lat="37.17762666666667" lon="-7.376023333333333">
        <ele>51.99999999999999</ele>
        <time>2013-05-02T18:29:04.16</time>
      </trkpt>
      <trkpt lat="37.177565" lon="-7.376028333333333">
        <ele>51.89999999999999</ele>
        <time>2013-05-02T18:29:05.16</time>
      </trkpt>
      <trkpt lat="37.177501666666664" lon="-7.376033333333333">
        <ele>51.79999999999999</ele>
        <time>2013-05-02T18:29:06.16</time>
      </trkpt>
      <trkpt lat="37.177438333333335" lon="-7.376041666666667">
        <ele>51.39999999999999</ele>
        <time>2013-05-02T18:29:07.16</time>
      </trkpt>
      <trkpt lat="37.177375" lon="-7.376045">
        <ele>51.69999999999999</ele>
        <time>2013-05-02T18:29:08.16</time>
      </trkpt>
      <trkpt lat="37.17731333333333" lon="-7.376048333333333">
        <ele>51.89999999999999</ele>
        <time>2013-05-02T18:29:09.16</time>
      </trkpt>
      <trkpt lat="37.177255" lon="-7.376053333333333">
        <ele>52.29999999999999</ele>
        <time>2013-05-02T18:29:10.16</time>
      </trkpt>
      <trkpt lat="37.1772" lon="-7.376053333333333">
        <ele>52.49999999999999</ele>
        <time>2013-05-02T18:29:11.16</time>
      </trkpt>
      <trkpt lat="37.17714333333333" lon="-7.376058333333333">
        <ele>52.599999999999994</ele>
        <time>2013-05-02T18:29:12.16</time>
      </trkpt>
      <trkpt lat="37.177076666666665" lon="-7.376063333333334">
        <ele>52.89999999999999</ele>
        <time>2013-05-02T18:29:13.16</time>
      </trkpt>
      <trkpt lat="37.177015" lon="-7.376063333333334">
        <ele>52.89999999999999</ele>
        <time>2013-05-02T18:29:14.16</time>
      </trkpt>
      <trkpt lat="37.176946666666666" lon="-7.376058333333333">
        <ele>52.79999999999999</ele>
        <time>2013-05-02T18:29:15.23</time>
      </trkpt>
      <trkpt lat="37.17688166666667" lon="-7.376085">
        <ele>51.89999999999999</ele>
        <time>2013-05-02T18:29:16.16</time>
      </trkpt>
      <trkpt lat="37.17682166666667" lon="-7.3760916666666665">
        <ele>51.99999999999999</ele>
        <time>2013-05-02T18:29:17.16</time>
      </trkpt>
      <trkpt lat="37.17675833333333" lon="-7.376101666666667">
        <ele>51.99999999999999</ele>
        <time>2013-05-02T18:29:18.16</time>
      </trkpt>
      <trkpt lat="37.1767" lon="-7.37611">
        <ele>52.599999999999994</ele>
        <time>2013-05-02T18:29:19.16</time>
      </trkpt>
      <trkpt lat="37.17663666666667" lon="-7.376116666666666">
        <ele>53.599999999999994</ele>
        <time>2013-05-02T18:29:20.16</time>
      </trkpt>
      <trkpt lat="37.176566666666666" lon="-7.37611">
        <ele>53.8</ele>
        <time>2013-05-02T18:29:21.16</time>
      </trkpt>
      <trkpt lat="37.17651" lon="-7.37611">
        <ele>53.699999999999996</ele>
        <time>2013-05-02T18:29:22.16</time>
      </trkpt>
      <trkpt lat="37.176445" lon="-7.376126666666667">
        <ele>53.99999999999999</ele>
        <time>2013-05-02T18:29:23.16</time>
      </trkpt>
      <trkpt lat="37.17639" lon="-7.376145">
        <ele>53.79999999999999</ele>
        <time>2013-05-02T18:29:24.16</time>
      </trkpt>
      <trkpt lat="37.176335" lon="-7.37614">
        <ele>53.89999999999999</ele>
        <time>2013-05-02T18:29:25.16</time>
      </trkpt>
      <trkpt lat="37.176265" lon="-7.3761383333333335">
        <ele>54.29999999999999</ele>
        <time>2013-05-02T18:29:26.16</time>
      </trkpt>
      <trkpt lat="37.176195" lon="-7.376135">
        <ele>54.59999999999999</ele>
        <time>2013-05-02T18:29:27.16</time>
      </trkpt>
      <trkpt lat="37.17613333333333" lon="-7.376125">
        <ele>54.999999999999986</ele>
        <time>2013-05-02T18:29:28.16</time>
      </trkpt>
      <trkpt lat="37.176073333333335" lon="-7.376131666666667">
        <ele>55.59999999999999</ele>
        <time>2013-05-02T18:29:29.16</time>
      </trkpt>
      <trkpt lat="37.176005" lon="-7.376126666666667">
        <ele>55.899999999999984</ele>
        <time>2013-05-02T18:29:30.17</time>
      </trkpt>
      <trkpt lat="37.175936666666665" lon="-7.376131666666667">
        <ele>56.19999999999998</ele>
        <time>2013-05-02T18:29:31.16</time>
      </trkpt>
      <trkpt lat="37.17587" lon="-7.376146666666667">
        <ele>56.29999999999998</ele>
        <time>2013-05-02T18:29:32.16</time>
      </trkpt>
      <trkpt lat="37.17579833333333" lon="-7.376148333333333">
        <ele>55.69999999999998</ele>
        <time>2013-05-02T18:29:33.16</time>
      </trkpt>
      <trkpt lat="37.175738333333335" lon="-7.376145">
        <ele>56.19999999999998</ele>
        <time>2013-05-02T18:29:34.16</time>
      </trkpt>
      <trkpt lat="37.17568833333333" lon="-7.376158333333334">
        <ele>56.399999999999984</ele>
        <time>2013-05-02T18:29:35.16</time>
      </trkpt>
      <trkpt lat="37.17563666666667" lon="-7.376171666666667">
        <ele>56.79999999999998</ele>
        <time>2013-05-02T18:29:36.16</time>
      </trkpt>
      <trkpt lat="37.17558833333333" lon="-7.37618">
        <ele>56.999999999999986</ele>
        <time>2013-05-02T18:29:37.16</time>
      </trkpt>
      <trkpt lat="37.17554" lon="-7.376188333333333">
        <ele>56.79999999999998</ele>
        <time>2013-05-02T18:29:38.16</time>
      </trkpt>
      <trkpt lat="37.175491666666666" lon="-7.376195">
        <ele>56.999999999999986</ele>
        <time>2013-05-02T18:29:39.16</time>
      </trkpt>
      <trkpt lat="37.175446666666666" lon="-7.376203333333334">
        <ele>57.59999999999999</ele>
        <time>2013-05-02T18:29:40.16</time>
      </trkpt>
      <trkpt lat="37.175395" lon="-7.376206666666667">
        <ele>57.79999999999999</ele>
        <time>2013-05-02T18:29:41.16</time>
      </trkpt>
      <trkpt lat="37.175356666666666" lon="-7.376203333333334">
        <ele>58.19999999999999</ele>
        <time>2013-05-02T18:29:42.16</time>
      </trkpt>
      <trkpt lat="37.17529833333333" lon="-7.3762083333333335">
        <ele>58.19999999999999</ele>
        <time>2013-05-02T18:29:43.16</time>
      </trkpt>
      <trkpt lat="37.175243333333334" lon="-7.376201666666667">
        <ele>58.29999999999999</ele>
        <time>2013-05-02T18:29:44.16</time>
      </trkpt>
      <trkpt lat="37.17519333333333" lon="-7.3762">
        <ele>58.49999999999999</ele>
        <time>2013-05-02T18:29:45.16</time>
      </trkpt>
      <trkpt lat="37.175145" lon="-7.37622">
        <ele>55.89999999999999</ele>
        <time>2013-05-02T18:29:46.16</time>
      </trkpt>
      <trkpt lat="37.175088333333335" lon="-7.376225">
        <ele>55.89999999999999</ele>
        <time>2013-05-02T18:29:47.16</time>
      </trkpt>
      <trkpt lat="37.17505166666667" lon="-7.376246666666667">
        <ele>56.19999999999999</ele>
        <time>2013-05-02T18:29:48.16</time>
      </trkpt>
      <trkpt lat="37.17503833333333" lon="-7.376298333333334">
        <ele>56.69999999999999</ele>
        <time>2013-05-02T18:29:49.16</time>
      </trkpt>
      <trkpt lat="37.17504666666667" lon="-7.376365">
        <ele>56.999999999999986</ele>
        <time>2013-05-02T18:29:50.16</time>
      </trkpt>
      <trkpt lat="37.175045" lon="-7.376433333333333">
        <ele>57.499999999999986</ele>
        <time>2013-05-02T18:29:51.16</time>
      </trkpt>
      <trkpt lat="37.17505666666667" lon="-7.376508333333334">
        <ele>58.399999999999984</ele>
        <time>2013-05-02T18:29:52.16</time>
      </trkpt>
      <trkpt lat="37.17507333333333" lon="-7.376575">
        <ele>58.79999999999998</ele>
        <time>2013-05-02T18:29:53.16</time>
      </trkpt>
      <trkpt lat="37.175086666666665" lon="-7.376636666666666">
        <ele>58.499999999999986</ele>
        <time>2013-05-02T18:29:54.16</time>
      </trkpt>
      <trkpt lat="37.17508333333333" lon="-7.376695">
        <ele>59.399999999999984</ele>
        <time>2013-05-02T18:29:55.23</time>
      </trkpt>
      <trkpt lat="37.17509166666667" lon="-7.37676">
        <ele>59.29999999999998</ele>
        <time>2013-05-02T18:29:56.16</time>
      </trkpt>
      <trkpt lat="37.175081666666664" lon="-7.37683">
        <ele>59.79999999999998</ele>
        <time>2013-05-02T18:29:57.16</time>
      </trkpt>
      <trkpt lat="37.175095" lon="-7.376886666666667">
        <ele>59.999999999999986</ele>
        <time>2013-05-02T18:29:58.16</time>
      </trkpt>
      <trkpt lat="37.175115" lon="-7.3769833333333334">
        <ele>59.399999999999984</ele>
        <time>2013-05-02T18:29:59.16</time>
      </trkpt>
      <trkpt lat="37.17512833333333" lon="-7.3770283333333335">
        <ele>59.59999999999999</ele>
        <time>2013-05-02T18:30:00.14</time>
      </trkpt>
      <trkpt lat="37.17512833333333" lon="-7.377103333333333">
        <ele>59.59999999999999</ele>
        <time>2013-05-02T18:30:01.15</time>
      </trkpt>
      <trkpt lat="37.175135" lon="-7.37718">
        <ele>59.399999999999984</ele>
        <time>2013-05-02T18:30:02.16</time>
      </trkpt>
      <trkpt lat="37.17514333333333" lon="-7.377253333333333">
        <ele>59.899999999999984</ele>
        <time>2013-05-02T18:30:03.16</time>
      </trkpt>
      <trkpt lat="37.175158333333336" lon="-7.377315">
        <ele>59.899999999999984</ele>
        <time>2013-05-02T18:30:04.16</time>
      </trkpt>
      <trkpt lat="37.175165" lon="-7.3773816666666665">
        <ele>60.29999999999998</ele>
        <time>2013-05-02T18:30:05.16</time>
      </trkpt>
      <trkpt lat="37.17516166666667" lon="-7.37745">
        <ele>60.09999999999998</ele>
        <time>2013-05-02T18:30:06.13</time>
      </trkpt>
      <trkpt lat="37.175165" lon="-7.377525">
        <ele>59.99999999999998</ele>
        <time>2013-05-02T18:30:07.15</time>
      </trkpt>
      <trkpt lat="37.175151666666665" lon="-7.377606666666667">
        <ele>60.19999999999998</ele>
        <time>2013-05-02T18:30:08.16</time>
      </trkpt>
      <trkpt lat="37.175156666666666" lon="-7.377678333333333">
        <ele>59.19999999999998</ele>
        <time>2013-05-02T18:30:09.16</time>
      </trkpt>
      <trkpt lat="37.175158333333336" lon="-7.3777566666666665">
        <ele>58.79999999999998</ele>
        <time>2013-05-02T18:30:10.16</time>
      </trkpt>
      <trkpt lat="37.175165" lon="-7.37783">
        <ele>58.79999999999998</ele>
        <time>2013-05-02T18:30:11.16</time>
      </trkpt>
      <trkpt lat="37.17516833333333" lon="-7.377865">
        <ele>58.999999999999986</ele>
        <time>2013-05-02T18:30:12.16</time>
      </trkpt>
      <trkpt lat="37.17516833333333" lon="-7.377908333333333">
        <ele>58.899999999999984</ele>
        <time>2013-05-02T18:30:13.16</time>
      </trkpt>
      <trkpt lat="37.175151666666665" lon="-7.377946666666666">
        <ele>58.999999999999986</ele>
        <time>2013-05-02T18:30:14.16</time>
      </trkpt>
      <trkpt lat="37.17512" lon="-7.378">
        <ele>58.69999999999999</ele>
        <time>2013-05-02T18:30:15.16</time>
      </trkpt>
      <trkpt lat="37.175093333333336" lon="-7.3780166666666664">
        <ele>59.29999999999999</ele>
        <time>2013-05-02T18:30:16.16</time>
      </trkpt>
      <trkpt lat="37.175063333333334" lon="-7.378073333333333">
        <ele>58.99999999999999</ele>
        <time>2013-05-02T18:30:17.16</time>
      </trkpt>
      <trkpt lat="37.175043333333335" lon="-7.378121666666667">
        <ele>59.29999999999999</ele>
        <time>2013-05-02T18:30:18.16</time>
      </trkpt>
      <trkpt lat="37.175015" lon="-7.3781783333333335">
        <ele>59.39999999999999</ele>
        <time>2013-05-02T18:30:19.16</time>
      </trkpt>
      <trkpt lat="37.17500666666667" lon="-7.378253333333333">
        <ele>60.69999999999999</ele>
        <time>2013-05-02T18:30:20.16</time>
      </trkpt>
      <trkpt lat="37.17501333333333" lon="-7.378328333333333">
        <ele>60.69999999999999</ele>
        <time>2013-05-02T18:30:21.16</time>
      </trkpt>
      <trkpt lat="37.175016666666664" lon="-7.378398333333333">
        <ele>60.29999999999999</ele>
        <time>2013-05-02T18:30:22.16</time>
      </trkpt>
      <trkpt lat="37.175015" lon="-7.378466666666666">
        <ele>59.59999999999999</ele>
        <time>2013-05-02T18:30:23.16</time>
      </trkpt>
      <trkpt lat="37.17502" lon="-7.378528333333334">
        <ele>60.09999999999999</ele>
        <time>2013-05-02T18:30:24.16</time>
      </trkpt>
      <trkpt lat="37.175025" lon="-7.37859">
        <ele>60.399999999999984</ele>
        <time>2013-05-02T18:30:25.16</time>
      </trkpt>
      <trkpt lat="37.175015" lon="-7.378658333333333">
        <ele>60.499999999999986</ele>
        <time>2013-05-02T18:30:26.16</time>
      </trkpt>
      <trkpt lat="37.17501333333333" lon="-7.378725">
        <ele>60.59999999999999</ele>
        <time>2013-05-02T18:30:27.18</time>
      </trkpt>
      <trkpt lat="37.17502" lon="-7.378791666666666">
        <ele>60.19999999999999</ele>
        <time>2013-05-02T18:30:28.18</time>
      </trkpt>
      <trkpt lat="37.17501166666667" lon="-7.3788583333333335">
        <ele>59.89999999999999</ele>
        <time>2013-05-02T18:30:29.21</time>
      </trkpt>
      <trkpt lat="37.175005" lon="-7.378923333333334">
        <ele>59.49999999999999</ele>
        <time>2013-05-02T18:30:30.16</time>
      </trkpt>
      <trkpt lat="37.17501333333333" lon="-7.378991666666667">
        <ele>58.89999999999999</ele>
        <time>2013-05-02T18:30:31.16</time>
      </trkpt>
      <trkpt lat="37.175015" lon="-7.379085">
        <ele>57.29999999999999</ele>
        <time>2013-05-02T18:30:32.16</time>
      </trkpt>
      <trkpt lat="37.175003333333336" lon="-7.379148333333333">
        <ele>56.99999999999999</ele>
        <time>2013-05-02T18:30:33.16</time>
      </trkpt>
      <trkpt lat="37.175015" lon="-7.379228333333334">
        <ele>56.39999999999999</ele>
        <time>2013-05-02T18:30:34.17</time>
      </trkpt>
      <trkpt lat="37.17501166666667" lon="-7.379316666666667">
        <ele>56.39999999999999</ele>
        <time>2013-05-02T18:30:35.16</time>
      </trkpt>
      <trkpt lat="37.175023333333336" lon="-7.379393333333334">
        <ele>55.29999999999999</ele>
        <time>2013-05-02T18:30:36.15</time>
      </trkpt>
      <trkpt lat="37.17502666666667" lon="-7.379461666666667">
        <ele>54.99999999999999</ele>
        <time>2013-05-02T18:30:37.16</time>
      </trkpt>
      <trkpt lat="37.17502666666667" lon="-7.379531666666667">
        <ele>54.699999999999996</ele>
        <time>2013-05-02T18:30:38.16</time>
      </trkpt>
      <trkpt lat="37.17503" lon="-7.379595">
        <ele>54.599999999999994</ele>
        <time>2013-05-02T18:30:39.15</time>
      </trkpt>
      <trkpt lat="37.175018333333334" lon="-7.379663333333333">
        <ele>53.99999999999999</ele>
        <time>2013-05-02T18:30:40.15</time>
      </trkpt>
      <trkpt lat="37.175" lon="-7.379725">
        <ele>54.099999999999994</ele>
        <time>2013-05-02T18:30:41.16</time>
      </trkpt>
      <trkpt lat="37.17498666666667" lon="-7.379778333333333">
        <ele>53.99999999999999</ele>
        <time>2013-05-02T18:30:42.16</time>
      </trkpt>
      <trkpt lat="37.17496666666667" lon="-7.379816666666667">
        <ele>53.79999999999999</ele>
        <time>2013-05-02T18:30:43.16</time>
      </trkpt>
      <trkpt lat="37.17495" lon="-7.379838333333334">
        <ele>53.89999999999999</ele>
        <time>2013-05-02T18:30:44.16</time>
      </trkpt>
      <trkpt lat="37.17490333333333" lon="-7.379851666666666">
        <ele>53.99999999999999</ele>
        <time>2013-05-02T18:30:45.16</time>
      </trkpt>
      <trkpt lat="37.17482833333333" lon="-7.379845">
        <ele>53.099999999999994</ele>
        <time>2013-05-02T18:30:46.16</time>
      </trkpt>
      <trkpt lat="37.17477" lon="-7.379851666666666">
        <ele>53.3</ele>
        <time>2013-05-02T18:30:47.17</time>
      </trkpt>
      <trkpt lat="37.174708333333335" lon="-7.379851666666666">
        <ele>53.099999999999994</ele>
        <time>2013-05-02T18:30:48.17</time>
      </trkpt>
      <trkpt lat="37.17465333333333" lon="-7.379856666666667">
        <ele>52.599999999999994</ele>
        <time>2013-05-02T18:30:49.16</time>
      </trkpt>
      <trkpt lat="37.174596666666666" lon="-7.379863333333334">
        <ele>52.49999999999999</ele>
        <time>2013-05-02T18:30:50.16</time>
      </trkpt>
      <trkpt lat="37.17454166666667" lon="-7.379865">
        <ele>52.49999999999999</ele>
        <time>2013-05-02T18:30:51.16</time>
      </trkpt>
      <trkpt lat="37.174485" lon="-7.379866666666667">
        <ele>52.89999999999999</ele>
        <time>2013-05-02T18:30:52.16</time>
      </trkpt>
      <trkpt lat="37.17443333333333" lon="-7.379875">
        <ele>53.599999999999994</ele>
        <time>2013-05-02T18:30:53.16</time>
      </trkpt>
      <trkpt lat="37.17438166666667" lon="-7.379871666666666">
        <ele>53.199999999999996</ele>
        <time>2013-05-02T18:30:54.16</time>
      </trkpt>
      <trkpt lat="37.174326666666666" lon="-7.379875">
        <ele>53.199999999999996</ele>
        <time>2013-05-02T18:30:55.16</time>
      </trkpt>
      <trkpt lat="37.17426666666667" lon="-7.379883333333333">
        <ele>53.9</ele>
        <time>2013-05-02T18:30:56.16</time>
      </trkpt>
      <trkpt lat="37.174211666666665" lon="-7.379885">
        <ele>54.4</ele>
        <time>2013-05-02T18:30:57.16</time>
      </trkpt>
      <trkpt lat="37.17415666666667" lon="-7.379878333333333">
        <ele>55</ele>
        <time>2013-05-02T18:30:58.16</time>
      </trkpt>
      <trkpt lat="37.17409833333333" lon="-7.379886666666667">
        <ele>55.4</ele>
        <time>2013-05-02T18:30:59.16</time>
      </trkpt>
      <trkpt lat="37.174038333333336" lon="-7.379898333333333">
        <ele>56.8</ele>
        <time>2013-05-02T18:31:00.14</time>
      </trkpt>
      <trkpt lat="37.173986666666664" lon="-7.3799133333333335">
        <ele>56.3</ele>
        <time>2013-05-02T18:31:01.15</time>
      </trkpt>
      <trkpt lat="37.17393333333333" lon="-7.379923333333333">
        <ele>56.599999999999994</ele>
        <time>2013-05-02T18:31:02.16</time>
      </trkpt>
      <trkpt lat="37.173878333333334" lon="-7.379931666666667">
        <ele>57.8</ele>
        <time>2013-05-02T18:31:03.16</time>
      </trkpt>
      <trkpt lat="37.173825" lon="-7.379945">
        <ele>57.699999999999996</ele>
        <time>2013-05-02T18:31:04.17</time>
      </trkpt>
      <trkpt lat="37.17377166666667" lon="-7.37995">
        <ele>57.49999999999999</ele>
        <time>2013-05-02T18:31:05.16</time>
      </trkpt>
      <trkpt lat="37.173715" lon="-7.379965">
        <ele>57.599999999999994</ele>
        <time>2013-05-02T18:31:06.16</time>
      </trkpt>
      <trkpt lat="37.17366" lon="-7.379968333333333">
        <ele>57.8</ele>
        <time>2013-05-02T18:31:07.16</time>
      </trkpt>
      <trkpt lat="37.173595" lon="-7.379971666666667">
        <ele>58.9</ele>
        <time>2013-05-02T18:31:08.16</time>
      </trkpt>
      <trkpt lat="37.17353833333333" lon="-7.379981666666667">
        <ele>59.8</ele>
        <time>2013-05-02T18:31:09.16</time>
      </trkpt>
      <trkpt lat="37.173485" lon="-7.379991666666666">
        <ele>60.199999999999996</ele>
        <time>2013-05-02T18:31:10.16</time>
      </trkpt>
      <trkpt lat="37.17344166666667" lon="-7.380026666666667">
        <ele>60.099999999999994</ele>
        <time>2013-05-02T18:31:11.16</time>
      </trkpt>
      <trkpt lat="37.17342" lon="-7.380058333333333">
        <ele>59.199999999999996</ele>
        <time>2013-05-02T18:31:12.16</time>
      </trkpt>
      <trkpt lat="37.173408333333334" lon="-7.380118333333333">
        <ele>59.199999999999996</ele>
        <time>2013-05-02T18:31:13.16</time>
      </trkpt>
      <trkpt lat="37.173458333333336" lon="-7.380225">
        <ele>57.99999999999999</ele>
        <time>2013-05-02T18:31:14.16</time>
      </trkpt>
      <trkpt lat="37.17347" lon="-7.3802916666666665">
        <ele>57.79999999999999</ele>
        <time>2013-05-02T18:31:15.16</time>
      </trkpt>
      <trkpt lat="37.173473333333334" lon="-7.380353333333334">
        <ele>57.79999999999999</ele>
        <time>2013-05-02T18:31:16.15</time>
      </trkpt>
      <trkpt lat="37.173485" lon="-7.38042">
        <ele>57.39999999999999</ele>
        <time>2013-05-02T18:31:17.16</time>
      </trkpt>
      <trkpt lat="37.17348166666667" lon="-7.380503333333333">
        <ele>56.39999999999999</ele>
        <time>2013-05-02T18:31:18.16</time>
      </trkpt>
      <trkpt lat="37.173478333333335" lon="-7.38057">
        <ele>56.29999999999999</ele>
        <time>2013-05-02T18:31:19.17</time>
      </trkpt>
      <trkpt lat="37.173485" lon="-7.380638333333334">
        <ele>56.29999999999999</ele>
        <time>2013-05-02T18:31:20.17</time>
      </trkpt>
      <trkpt lat="37.17349333333333" lon="-7.380701666666667">
        <ele>56.29999999999999</ele>
        <time>2013-05-02T18:31:21.16</time>
      </trkpt>
      <trkpt lat="37.173498333333335" lon="-7.380775">
        <ele>56.29999999999999</ele>
        <time>2013-05-02T18:31:22.16</time>
      </trkpt>
      <trkpt lat="37.17350666666667" lon="-7.380843333333333">
        <ele>56.59999999999999</ele>
        <time>2013-05-02T18:31:23.15</time>
      </trkpt>
      <trkpt lat="37.173523333333335" lon="-7.38093">
        <ele>56.09999999999999</ele>
        <time>2013-05-02T18:31:24.16</time>
      </trkpt>
      <trkpt lat="37.173523333333335" lon="-7.380978333333333">
        <ele>56.69999999999999</ele>
        <time>2013-05-02T18:31:25.16</time>
      </trkpt>
      <trkpt lat="37.173518333333334" lon="-7.3810416666666665">
        <ele>57.999999999999986</ele>
        <time>2013-05-02T18:31:26.16</time>
      </trkpt>
      <trkpt lat="37.17353333333333" lon="-7.381113333333333">
        <ele>58.499999999999986</ele>
        <time>2013-05-02T18:31:27.16</time>
      </trkpt>
      <trkpt lat="37.17355333333333" lon="-7.381218333333333">
        <ele>57.79999999999998</ele>
        <time>2013-05-02T18:31:28.16</time>
      </trkpt>
      <trkpt lat="37.17355333333333" lon="-7.381295">
        <ele>57.59999999999998</ele>
        <time>2013-05-02T18:31:29.16</time>
      </trkpt>
      <trkpt lat="37.173548333333336" lon="-7.381375">
        <ele>57.59999999999998</ele>
        <time>2013-05-02T18:31:30.18</time>
      </trkpt>
      <trkpt lat="37.17355166666667" lon="-7.381451666666667">
        <ele>57.39999999999998</ele>
        <time>2013-05-02T18:31:31.17</time>
      </trkpt>
      <trkpt lat="37.173545" lon="-7.3815333333333335">
        <ele>57.299999999999976</ele>
        <time>2013-05-02T18:31:32.15</time>
      </trkpt>
      <trkpt lat="37.173566666666666" lon="-7.381615">
        <ele>56.59999999999997</ele>
        <time>2013-05-02T18:31:33.16</time>
      </trkpt>
      <trkpt lat="37.173568333333336" lon="-7.381686666666667">
        <ele>56.699999999999974</ele>
        <time>2013-05-02T18:31:34.16</time>
      </trkpt>
      <trkpt lat="37.17355833333333" lon="-7.381758333333333">
        <ele>55.799999999999976</ele>
        <time>2013-05-02T18:31:35.16</time>
      </trkpt>
      <trkpt lat="37.173548333333336" lon="-7.381828333333333">
        <ele>55.799999999999976</ele>
        <time>2013-05-02T18:31:36.16</time>
      </trkpt>
      <trkpt lat="37.173525" lon="-7.381885">
        <ele>55.799999999999976</ele>
        <time>2013-05-02T18:31:37.15</time>
      </trkpt>
      <trkpt lat="37.17348166666667" lon="-7.381918333333333">
        <ele>55.99999999999998</ele>
        <time>2013-05-02T18:31:38.16</time>
      </trkpt>
      <trkpt lat="37.173435" lon="-7.381931666666667">
        <ele>55.69999999999998</ele>
        <time>2013-05-02T18:31:39.16</time>
      </trkpt>
      <trkpt lat="37.173361666666665" lon="-7.381928333333334">
        <ele>56.99999999999998</ele>
        <time>2013-05-02T18:31:40.16</time>
      </trkpt>
      <trkpt lat="37.17331" lon="-7.3819333333333335">
        <ele>57.299999999999976</ele>
        <time>2013-05-02T18:31:41.16</time>
      </trkpt>
      <trkpt lat="37.17325666666667" lon="-7.381938333333333">
        <ele>57.59999999999997</ele>
        <time>2013-05-02T18:31:42.16</time>
      </trkpt>
      <trkpt lat="37.173208333333335" lon="-7.381946666666667">
        <ele>57.89999999999997</ele>
        <time>2013-05-02T18:31:43.16</time>
      </trkpt>
      <trkpt lat="37.173156666666664" lon="-7.381948333333333">
        <ele>58.29999999999997</ele>
        <time>2013-05-02T18:31:44.16</time>
      </trkpt>
      <trkpt lat="37.173105" lon="-7.381955">
        <ele>58.89999999999997</ele>
        <time>2013-05-02T18:31:45.16</time>
      </trkpt>
      <trkpt lat="37.17306833333333" lon="-7.381953333333334">
        <ele>59.29999999999997</ele>
        <time>2013-05-02T18:31:46.16</time>
      </trkpt>
      <trkpt lat="37.17306166666667" lon="-7.381968333333333">
        <ele>59.39999999999997</ele>
        <time>2013-05-02T18:31:47.16</time>
      </trkpt>
      <trkpt lat="37.17305" lon="-7.381983333333333">
        <ele>59.59999999999997</ele>
        <time>2013-05-02T18:31:48.16</time>
      </trkpt>
      <trkpt lat="37.173005" lon="-7.3820033333333335">
        <ele>60.09999999999997</ele>
        <time>2013-05-02T18:31:49.16</time>
      </trkpt>
      <trkpt lat="37.17297833333333" lon="-7.382018333333333">
        <ele>60.09999999999997</ele>
        <time>2013-05-02T18:31:50.16</time>
      </trkpt>
      <trkpt lat="37.172965" lon="-7.382033333333333">
        <ele>60.299999999999976</ele>
        <time>2013-05-02T18:31:51.16</time>
      </trkpt>
      <trkpt lat="37.17292666666667" lon="-7.382058333333333">
        <ele>61.59999999999997</ele>
        <time>2013-05-02T18:31:52.17</time>
      </trkpt>
      <trkpt lat="37.172885" lon="-7.382071666666667">
        <ele>62.89999999999997</ele>
        <time>2013-05-02T18:31:53.16</time>
      </trkpt>
      <trkpt lat="37.172803333333334" lon="-7.382081666666667">
        <ele>64.59999999999997</ele>
        <time>2013-05-02T18:31:54.16</time>
      </trkpt>
      <trkpt lat="37.17274" lon="-7.382105">
        <ele>65.09999999999997</ele>
        <time>2013-05-02T18:31:55.16</time>
      </trkpt>
      <trkpt lat="37.172695" lon="-7.382098333333333">
        <ele>64.29999999999997</ele>
        <time>2013-05-02T18:31:56.16</time>
      </trkpt>
      <trkpt lat="37.17267833333333" lon="-7.382091666666667">
        <ele>62.99999999999997</ele>
        <time>2013-05-02T18:31:57.16</time>
      </trkpt>
      <trkpt lat="37.17267" lon="-7.382063333333333">
        <ele>61.99999999999997</ele>
        <time>2013-05-02T18:31:58.16</time>
      </trkpt>
      <trkpt lat="37.17265" lon="-7.38206">
        <ele>61.29999999999997</ele>
        <time>2013-05-02T18:31:59.16</time>
      </trkpt>
      <trkpt lat="37.172646666666665" lon="-7.382021666666667">
        <ele>60.79999999999997</ele>
        <time>2013-05-02T18:32:00.14</time>
      </trkpt>
      <trkpt lat="37.17263" lon="-7.381983333333333">
        <ele>60.69999999999997</ele>
        <time>2013-05-02T18:32:01.16</time>
      </trkpt>
      <trkpt lat="37.17261333333333" lon="-7.381943333333333">
        <ele>59.999999999999964</ele>
        <time>2013-05-02T18:32:02.16</time>
      </trkpt>
      <trkpt lat="37.172608333333336" lon="-7.38193">
        <ele>59.69999999999997</ele>
        <time>2013-05-02T18:32:03.16</time>
      </trkpt>
      <trkpt lat="37.17260666666667" lon="-7.381875">
        <ele>59.39999999999997</ele>
        <time>2013-05-02T18:32:05.20</time>
      </trkpt>
      <trkpt lat="37.172595" lon="-7.38184">
        <ele>59.49999999999997</ele>
        <time>2013-05-02T18:32:06.15</time>
      </trkpt>
      <trkpt lat="37.17259" lon="-7.381808333333334">
        <ele>58.59999999999997</ele>
        <time>2013-05-02T18:32:07.16</time>
      </trkpt>
      <trkpt lat="37.17259166666667" lon="-7.381773333333333">
        <ele>58.09999999999997</ele>
        <time>2013-05-02T18:32:08.16</time>
      </trkpt>
      <trkpt lat="37.172576666666664" lon="-7.381731666666667">
        <ele>57.49999999999997</ele>
        <time>2013-05-02T18:32:09.16</time>
      </trkpt>
      <trkpt lat="37.17256" lon="-7.381696666666667">
        <ele>56.79999999999997</ele>
        <time>2013-05-02T18:32:10.16</time>
      </trkpt>
      <trkpt lat="37.17255" lon="-7.381643333333333">
        <ele>56.89999999999997</ele>
        <time>2013-05-02T18:32:11.16</time>
      </trkpt>
      <trkpt lat="37.172531666666664" lon="-7.381598333333334">
        <ele>56.39999999999997</ele>
        <time>2013-05-02T18:32:12.15</time>
      </trkpt>
      <trkpt lat="37.17251666666667" lon="-7.381553333333334">
        <ele>55.79999999999997</ele>
        <time>2013-05-02T18:32:13.16</time>
      </trkpt>
      <trkpt lat="37.172538333333335" lon="-7.3814416666666665">
        <ele>55.39999999999997</ele>
        <time>2013-05-02T18:32:14.16</time>
      </trkpt>
      <trkpt lat="37.17253" lon="-7.381375">
        <ele>55.99999999999997</ele>
        <time>2013-05-02T18:32:15.16</time>
      </trkpt>
      <trkpt lat="37.172525" lon="-7.3812983333333335">
        <ele>55.59999999999997</ele>
        <time>2013-05-02T18:32:16.22</time>
      </trkpt>
      <trkpt lat="37.17252166666667" lon="-7.381223333333334">
        <ele>54.89999999999997</ele>
        <time>2013-05-02T18:32:17.16</time>
      </trkpt>
      <trkpt lat="37.17252" lon="-7.381146666666667">
        <ele>54.39999999999997</ele>
        <time>2013-05-02T18:32:18.16</time>
      </trkpt>
      <trkpt lat="37.17251" lon="-7.381081666666667">
        <ele>54.09999999999997</ele>
        <time>2013-05-02T18:32:19.16</time>
      </trkpt>
      <trkpt lat="37.1725" lon="-7.381013333333334">
        <ele>53.799999999999976</ele>
        <time>2013-05-02T18:32:20.16</time>
      </trkpt>
      <trkpt lat="37.17249" lon="-7.380938333333333">
        <ele>53.09999999999997</ele>
        <time>2013-05-02T18:32:21.16</time>
      </trkpt>
      <trkpt lat="37.172473333333336" lon="-7.380863333333333">
        <ele>53.09999999999997</ele>
        <time>2013-05-02T18:32:22.16</time>
      </trkpt>
      <trkpt lat="37.172465" lon="-7.380791666666667">
        <ele>52.49999999999997</ele>
        <time>2013-05-02T18:32:23.17</time>
      </trkpt>
      <trkpt lat="37.17246166666666" lon="-7.380706666666667">
        <ele>52.199999999999974</ele>
        <time>2013-05-02T18:32:24.18</time>
      </trkpt>
      <trkpt lat="37.17246333333333" lon="-7.38063">
        <ele>51.299999999999976</ele>
        <time>2013-05-02T18:32:25.16</time>
      </trkpt>
      <trkpt lat="37.17245833333333" lon="-7.380566666666667">
        <ele>50.59999999999997</ele>
        <time>2013-05-02T18:32:26.16</time>
      </trkpt>
      <trkpt lat="37.172446666666666" lon="-7.3805016666666665">
        <ele>50.59999999999997</ele>
        <time>2013-05-02T18:32:27.15</time>
      </trkpt>
      <trkpt lat="37.172445" lon="-7.380423333333333">
        <ele>50.39999999999997</ele>
        <time>2013-05-02T18:32:28.16</time>
      </trkpt>
      <trkpt lat="37.17243333333333" lon="-7.380343333333333">
        <ele>50.29999999999997</ele>
        <time>2013-05-02T18:32:29.16</time>
      </trkpt>
      <trkpt lat="37.172415" lon="-7.380261666666667">
        <ele>49.89999999999997</ele>
        <time>2013-05-02T18:32:30.16</time>
      </trkpt>
      <trkpt lat="37.1724" lon="-7.38019">
        <ele>49.09999999999997</ele>
        <time>2013-05-02T18:32:31.16</time>
      </trkpt>
      <trkpt lat="37.172403333333335" lon="-7.3801">
        <ele>48.99999999999997</ele>
        <time>2013-05-02T18:32:32.16</time>
      </trkpt>
      <trkpt lat="37.1724" lon="-7.380018333333333">
        <ele>48.79999999999997</ele>
        <time>2013-05-02T18:32:33.16</time>
      </trkpt>
      <trkpt lat="37.172396666666664" lon="-7.379935">
        <ele>48.39999999999997</ele>
        <time>2013-05-02T18:32:34.16</time>
      </trkpt>
      <trkpt lat="37.17239" lon="-7.379855">
        <ele>48.39999999999997</ele>
        <time>2013-05-02T18:32:35.16</time>
      </trkpt>
      <trkpt lat="37.172385" lon="-7.379775">
        <ele>48.59999999999997</ele>
        <time>2013-05-02T18:32:36.16</time>
      </trkpt>
      <trkpt lat="37.17238666666667" lon="-7.379696666666667">
        <ele>48.299999999999976</ele>
        <time>2013-05-02T18:32:37.16</time>
      </trkpt>
      <trkpt lat="37.1724" lon="-7.379601666666667">
        <ele>48.199999999999974</ele>
        <time>2013-05-02T18:32:38.16</time>
      </trkpt>
      <trkpt lat="37.17241166666667" lon="-7.379508333333333">
        <ele>47.99999999999997</ele>
        <time>2013-05-02T18:32:39.17</time>
      </trkpt>
      <trkpt lat="37.172415" lon="-7.379428333333333">
        <ele>47.89999999999997</ele>
        <time>2013-05-02T18:32:40.16</time>
      </trkpt>
      <trkpt lat="37.17241666666666" lon="-7.37934">
        <ele>47.99999999999997</ele>
        <time>2013-05-02T18:32:41.16</time>
      </trkpt>
      <trkpt lat="37.17241166666667" lon="-7.379263333333333">
        <ele>48.59999999999997</ele>
        <time>2013-05-02T18:32:42.16</time>
      </trkpt>
      <trkpt lat="37.172396666666664" lon="-7.37918">
        <ele>48.59999999999997</ele>
        <time>2013-05-02T18:32:43.16</time>
      </trkpt>
      <trkpt lat="37.17239333333333" lon="-7.3790933333333335">
        <ele>48.49999999999997</ele>
        <time>2013-05-02T18:32:44.16</time>
      </trkpt>
      <trkpt lat="37.17240666666667" lon="-7.378993333333334">
        <ele>48.79999999999997</ele>
        <time>2013-05-02T18:32:45.16</time>
      </trkpt>
      <trkpt lat="37.17241166666667" lon="-7.3789066666666665">
        <ele>48.599999999999966</ele>
        <time>2013-05-02T18:32:46.16</time>
      </trkpt>
      <trkpt lat="37.172415" lon="-7.3788116666666665">
        <ele>48.499999999999964</ele>
        <time>2013-05-02T18:32:47.16</time>
      </trkpt>
      <trkpt lat="37.172423333333334" lon="-7.378735">
        <ele>48.89999999999996</ele>
        <time>2013-05-02T18:32:48.16</time>
      </trkpt>
      <trkpt lat="37.17243333333333" lon="-7.378653333333333">
        <ele>48.999999999999964</ele>
        <time>2013-05-02T18:32:49.16</time>
      </trkpt>
      <trkpt lat="37.17244" lon="-7.378588333333333">
        <ele>49.099999999999966</ele>
        <time>2013-05-02T18:32:50.16</time>
      </trkpt>
      <trkpt lat="37.17245833333333" lon="-7.378488333333333">
        <ele>48.999999999999964</ele>
        <time>2013-05-02T18:32:51.16</time>
      </trkpt>
      <trkpt lat="37.172473333333336" lon="-7.3784">
        <ele>48.999999999999964</ele>
        <time>2013-05-02T18:32:52.16</time>
      </trkpt>
      <trkpt lat="37.17247" lon="-7.378311666666667">
        <ele>48.999999999999964</ele>
        <time>2013-05-02T18:32:53.16</time>
      </trkpt>
      <trkpt lat="37.172473333333336" lon="-7.378251666666666">
        <ele>49.89999999999996</ele>
        <time>2013-05-02T18:32:54.16</time>
      </trkpt>
      <trkpt lat="37.17249" lon="-7.378175">
        <ele>50.099999999999966</ele>
        <time>2013-05-02T18:32:55.16</time>
      </trkpt>
      <trkpt lat="37.172493333333335" lon="-7.378076666666667">
        <ele>49.69999999999997</ele>
        <time>2013-05-02T18:32:56.16</time>
      </trkpt>
      <trkpt lat="37.1725" lon="-7.377995">
        <ele>49.499999999999964</ele>
        <time>2013-05-02T18:32:57.16</time>
      </trkpt>
      <trkpt lat="37.172513333333335" lon="-7.377915">
        <ele>49.69999999999997</ele>
        <time>2013-05-02T18:32:58.16</time>
      </trkpt>
      <trkpt lat="37.17251666666667" lon="-7.37783">
        <ele>50.599999999999966</ele>
        <time>2013-05-02T18:32:59.16</time>
      </trkpt>
      <trkpt lat="37.172525" lon="-7.3777566666666665">
        <ele>50.39999999999996</ele>
        <time>2013-05-02T18:33:00.15</time>
      </trkpt>
      <trkpt lat="37.172531666666664" lon="-7.377681666666667">
        <ele>50.499999999999964</ele>
        <time>2013-05-02T18:33:01.15</time>
      </trkpt>
      <trkpt lat="37.172531666666664" lon="-7.377635">
        <ele>50.89999999999996</ele>
        <time>2013-05-02T18:33:02.16</time>
      </trkpt>
      <trkpt lat="37.17253" lon="-7.377573333333333">
        <ele>50.89999999999996</ele>
        <time>2013-05-02T18:33:03.16</time>
      </trkpt>
      <trkpt lat="37.172525" lon="-7.37749">
        <ele>50.79999999999996</ele>
        <time>2013-05-02T18:33:04.16</time>
      </trkpt>
      <trkpt lat="37.17252" lon="-7.377411666666666">
        <ele>51.39999999999996</ele>
        <time>2013-05-02T18:33:05.16</time>
      </trkpt>
      <trkpt lat="37.172511666666665" lon="-7.377335">
        <ele>50.89999999999996</ele>
        <time>2013-05-02T18:33:06.16</time>
      </trkpt>
      <trkpt lat="37.17250833333333" lon="-7.377255">
        <ele>50.099999999999966</ele>
        <time>2013-05-02T18:33:07.16</time>
      </trkpt>
      <trkpt lat="37.1725" lon="-7.377176666666666">
        <ele>48.999999999999964</ele>
        <time>2013-05-02T18:33:08.16</time>
      </trkpt>
      <trkpt lat="37.17248" lon="-7.377093333333334">
        <ele>48.89999999999996</ele>
        <time>2013-05-02T18:33:09.16</time>
      </trkpt>
      <trkpt lat="37.17245666666667" lon="-7.377005">
        <ele>48.19999999999996</ele>
        <time>2013-05-02T18:33:10.16</time>
      </trkpt>
      <trkpt lat="37.17243666666667" lon="-7.376921666666667">
        <ele>47.89999999999996</ele>
        <time>2013-05-02T18:33:11.16</time>
      </trkpt>
      <trkpt lat="37.17242" lon="-7.376823333333333">
        <ele>48.69999999999996</ele>
        <time>2013-05-02T18:33:12.16</time>
      </trkpt>
      <trkpt lat="37.17241333333333" lon="-7.376743333333334">
        <ele>49.79999999999996</ele>
        <time>2013-05-02T18:33:13.16</time>
      </trkpt>
      <trkpt lat="37.172396666666664" lon="-7.376661666666666">
        <ele>50.09999999999996</ele>
        <time>2013-05-02T18:33:14.16</time>
      </trkpt>
      <trkpt lat="37.17238666666667" lon="-7.376575">
        <ele>50.09999999999996</ele>
        <time>2013-05-02T18:33:15.16</time>
      </trkpt>
      <trkpt lat="37.17237" lon="-7.3764916666666664">
        <ele>49.49999999999996</ele>
        <time>2013-05-02T18:33:16.16</time>
      </trkpt>
      <trkpt lat="37.172381666666666" lon="-7.376416666666667">
        <ele>49.99999999999996</ele>
        <time>2013-05-02T18:33:17.16</time>
      </trkpt>
      <trkpt lat="37.17239" lon="-7.376335">
        <ele>50.49999999999996</ele>
        <time>2013-05-02T18:33:18.16</time>
      </trkpt>
      <trkpt lat="37.1724" lon="-7.376258333333333">
        <ele>50.399999999999956</ele>
        <time>2013-05-02T18:33:19.16</time>
      </trkpt>
      <trkpt lat="37.172423333333334" lon="-7.376171666666667">
        <ele>50.69999999999995</ele>
        <time>2013-05-02T18:33:20.16</time>
      </trkpt>
      <trkpt lat="37.172443333333334" lon="-7.376088333333334">
        <ele>50.09999999999995</ele>
        <time>2013-05-02T18:33:21.16</time>
      </trkpt>
      <trkpt lat="37.172473333333336" lon="-7.376006666666667">
        <ele>49.799999999999955</ele>
        <time>2013-05-02T18:33:22.16</time>
      </trkpt>
      <trkpt lat="37.1725" lon="-7.375921666666667">
        <ele>49.69999999999995</ele>
        <time>2013-05-02T18:33:23.16</time>
      </trkpt>
      <trkpt lat="37.172538333333335" lon="-7.375863333333333">
        <ele>49.899999999999956</ele>
        <time>2013-05-02T18:33:24.16</time>
      </trkpt>
      <trkpt lat="37.17257166666667" lon="-7.3758">
        <ele>50.09999999999996</ele>
        <time>2013-05-02T18:33:25.16</time>
      </trkpt>
      <trkpt lat="37.17262" lon="-7.375721666666666">
        <ele>50.399999999999956</ele>
        <time>2013-05-02T18:33:26.16</time>
      </trkpt>
      <trkpt lat="37.172648333333335" lon="-7.375651666666666">
        <ele>50.799999999999955</ele>
        <time>2013-05-02T18:33:27.16</time>
      </trkpt>
      <trkpt lat="37.172671666666666" lon="-7.37556">
        <ele>51.49999999999996</ele>
        <time>2013-05-02T18:33:28.16</time>
      </trkpt>
      <trkpt lat="37.172691666666665" lon="-7.375471666666667">
        <ele>50.49999999999996</ele>
        <time>2013-05-02T18:33:29.16</time>
      </trkpt>
      <trkpt lat="37.17270833333333" lon="-7.375375">
        <ele>50.299999999999955</ele>
        <time>2013-05-02T18:33:30.16</time>
      </trkpt>
      <trkpt lat="37.17270166666667" lon="-7.375278333333333">
        <ele>50.19999999999995</ele>
        <time>2013-05-02T18:33:31.16</time>
      </trkpt>
      <trkpt lat="37.17270166666667" lon="-7.375201666666666">
        <ele>50.399999999999956</ele>
        <time>2013-05-02T18:33:32.16</time>
      </trkpt>
      <trkpt lat="37.172716666666666" lon="-7.37513">
        <ele>50.09999999999996</ele>
        <time>2013-05-02T18:33:33.16</time>
      </trkpt>
      <trkpt lat="37.17270666666667" lon="-7.37506">
        <ele>50.59999999999996</ele>
        <time>2013-05-02T18:33:34.16</time>
      </trkpt>
      <trkpt lat="37.17270666666667" lon="-7.37497">
        <ele>49.99999999999996</ele>
        <time>2013-05-02T18:33:35.16</time>
      </trkpt>
      <trkpt lat="37.172738333333335" lon="-7.374873333333333">
        <ele>48.899999999999956</ele>
        <time>2013-05-02T18:33:36.16</time>
      </trkpt>
      <trkpt lat="37.17274166666667" lon="-7.374791666666667">
        <ele>48.899999999999956</ele>
        <time>2013-05-02T18:33:37.16</time>
      </trkpt>
      <trkpt lat="37.17275166666667" lon="-7.374696666666667">
        <ele>48.59999999999996</ele>
        <time>2013-05-02T18:33:38.22</time>
      </trkpt>
      <trkpt lat="37.17276" lon="-7.3746133333333335">
        <ele>48.49999999999996</ele>
        <time>2013-05-02T18:33:39.17</time>
      </trkpt>
      <trkpt lat="37.17277" lon="-7.374523333333333">
        <ele>47.99999999999996</ele>
        <time>2013-05-02T18:33:40.16</time>
      </trkpt>
      <trkpt lat="37.17277833333333" lon="-7.374425">
        <ele>47.399999999999956</ele>
        <time>2013-05-02T18:33:41.16</time>
      </trkpt>
      <trkpt lat="37.172783333333335" lon="-7.374336666666666">
        <ele>47.399999999999956</ele>
        <time>2013-05-02T18:33:42.16</time>
      </trkpt>
      <trkpt lat="37.17279666666666" lon="-7.374251666666667">
        <ele>47.49999999999996</ele>
        <time>2013-05-02T18:33:43.16</time>
      </trkpt>
      <trkpt lat="37.17279166666667" lon="-7.3741666666666665">
        <ele>47.69999999999996</ele>
        <time>2013-05-02T18:33:44.16</time>
      </trkpt>
      <trkpt lat="37.172785" lon="-7.374101666666666">
        <ele>47.69999999999996</ele>
        <time>2013-05-02T18:33:45.16</time>
      </trkpt>
      <trkpt lat="37.172785" lon="-7.374015">
        <ele>47.59999999999996</ele>
        <time>2013-05-02T18:33:46.16</time>
      </trkpt>
      <trkpt lat="37.1728" lon="-7.373928333333334">
        <ele>47.49999999999996</ele>
        <time>2013-05-02T18:33:47.16</time>
      </trkpt>
      <trkpt lat="37.17281666666667" lon="-7.373836666666667">
        <ele>47.99999999999996</ele>
        <time>2013-05-02T18:33:48.16</time>
      </trkpt>
      <trkpt lat="37.172826666666666" lon="-7.373736666666667">
        <ele>48.399999999999956</ele>
        <time>2013-05-02T18:33:49.16</time>
      </trkpt>
      <trkpt lat="37.17284333333333" lon="-7.373648333333334">
        <ele>47.69999999999995</ele>
        <time>2013-05-02T18:33:50.15</time>
      </trkpt>
      <trkpt lat="37.172845" lon="-7.373563333333333">
        <ele>46.99999999999995</ele>
        <time>2013-05-02T18:33:51.16</time>
      </trkpt>
      <trkpt lat="37.17285833333333" lon="-7.373481666666667">
        <ele>47.69999999999995</ele>
        <time>2013-05-02T18:33:52.16</time>
      </trkpt>
      <trkpt lat="37.17286166666667" lon="-7.373395">
        <ele>47.799999999999955</ele>
        <time>2013-05-02T18:33:53.16</time>
      </trkpt>
      <trkpt lat="37.17285833333333" lon="-7.373308333333333">
        <ele>48.399999999999956</ele>
        <time>2013-05-02T18:33:54.16</time>
      </trkpt>
      <trkpt lat="37.17285833333333" lon="-7.373223333333334">
        <ele>48.69999999999995</ele>
        <time>2013-05-02T18:33:55.16</time>
      </trkpt>
      <trkpt lat="37.172851666666666" lon="-7.373148333333333">
        <ele>48.799999999999955</ele>
        <time>2013-05-02T18:33:56.16</time>
      </trkpt>
      <trkpt lat="37.172848333333334" lon="-7.373068333333333">
        <ele>49.19999999999995</ele>
        <time>2013-05-02T18:33:57.16</time>
      </trkpt>
      <trkpt lat="37.172848333333334" lon="-7.372983333333333">
        <ele>49.299999999999955</ele>
        <time>2013-05-02T18:33:58.16</time>
      </trkpt>
      <trkpt lat="37.17285833333333" lon="-7.3729">
        <ele>49.19999999999995</ele>
        <time>2013-05-02T18:33:59.16</time>
      </trkpt>
      <trkpt lat="37.17285666666667" lon="-7.372818333333333">
        <ele>50.299999999999955</ele>
        <time>2013-05-02T18:34:00.14</time>
      </trkpt>
      <trkpt lat="37.17283833333333" lon="-7.372728333333334">
        <ele>50.399999999999956</ele>
        <time>2013-05-02T18:34:01.16</time>
      </trkpt>
      <trkpt lat="37.17284333333333" lon="-7.372651666666667">
        <ele>50.69999999999995</ele>
        <time>2013-05-02T18:34:02.16</time>
      </trkpt>
      <trkpt lat="37.17284" lon="-7.372595">
        <ele>51.09999999999995</ele>
        <time>2013-05-02T18:34:03.16</time>
      </trkpt>
      <trkpt lat="37.17284333333333" lon="-7.372498333333334">
        <ele>51.19999999999995</ele>
        <time>2013-05-02T18:34:04.16</time>
      </trkpt>
      <trkpt lat="37.172846666666665" lon="-7.372421666666667">
        <ele>51.399999999999956</ele>
        <time>2013-05-02T18:34:05.16</time>
      </trkpt>
      <trkpt lat="37.172851666666666" lon="-7.3723366666666665">
        <ele>51.799999999999955</ele>
        <time>2013-05-02T18:34:06.16</time>
      </trkpt>
      <trkpt lat="37.172845" lon="-7.372245">
        <ele>52.59999999999995</ele>
        <time>2013-05-02T18:34:07.16</time>
      </trkpt>
      <trkpt lat="37.17284" lon="-7.372165">
        <ele>52.799999999999955</ele>
        <time>2013-05-02T18:34:08.16</time>
      </trkpt>
      <trkpt lat="37.172845" lon="-7.372065">
        <ele>52.899999999999956</ele>
        <time>2013-05-02T18:34:09.16</time>
      </trkpt>
      <trkpt lat="37.172846666666665" lon="-7.371981666666667">
        <ele>53.59999999999996</ele>
        <time>2013-05-02T18:34:10.16</time>
      </trkpt>
      <trkpt lat="37.17284333333333" lon="-7.371886666666667">
        <ele>53.399999999999956</ele>
        <time>2013-05-02T18:34:11.16</time>
      </trkpt>
      <trkpt lat="37.17285833333333" lon="-7.371806666666667">
        <ele>53.59999999999996</ele>
        <time>2013-05-02T18:34:12.16</time>
      </trkpt>
      <trkpt lat="37.17286333333333" lon="-7.371728333333333">
        <ele>54.19999999999996</ele>
        <time>2013-05-02T18:34:13.16</time>
      </trkpt>
      <trkpt lat="37.17285666666667" lon="-7.3716566666666665">
        <ele>54.49999999999996</ele>
        <time>2013-05-02T18:34:14.16</time>
      </trkpt>
      <trkpt lat="37.17285833333333" lon="-7.371573333333333">
        <ele>54.299999999999955</ele>
        <time>2013-05-02T18:34:15.16</time>
      </trkpt>
      <trkpt lat="37.172865" lon="-7.37149">
        <ele>54.99999999999996</ele>
        <time>2013-05-02T18:34:16.16</time>
      </trkpt>
      <trkpt lat="37.17286333333333" lon="-7.371396666666667">
        <ele>54.799999999999955</ele>
        <time>2013-05-02T18:34:17.16</time>
      </trkpt>
      <trkpt lat="37.172875" lon="-7.371321666666667">
        <ele>54.899999999999956</ele>
        <time>2013-05-02T18:34:18.16</time>
      </trkpt>
      <trkpt lat="37.17287666666667" lon="-7.371236666666666">
        <ele>55.19999999999995</ele>
        <time>2013-05-02T18:34:19.16</time>
      </trkpt>
      <trkpt lat="37.17288666666666" lon="-7.371161666666667">
        <ele>55.399999999999956</ele>
        <time>2013-05-02T18:34:20.16</time>
      </trkpt>
      <trkpt lat="37.1729" lon="-7.37108">
        <ele>54.799999999999955</ele>
        <time>2013-05-02T18:34:21.16</time>
      </trkpt>
      <trkpt lat="37.17290666666667" lon="-7.371008333333333">
        <ele>54.799999999999955</ele>
        <time>2013-05-02T18:34:22.16</time>
      </trkpt>
      <trkpt lat="37.17292333333334" lon="-7.37094">
        <ele>54.899999999999956</ele>
        <time>2013-05-02T18:34:23.16</time>
      </trkpt>
      <trkpt lat="37.17294" lon="-7.370876666666667">
        <ele>54.69999999999995</ele>
        <time>2013-05-02T18:34:24.16</time>
      </trkpt>
      <trkpt lat="37.172958333333334" lon="-7.370815">
        <ele>55.09999999999995</ele>
        <time>2013-05-02T18:34:25.16</time>
      </trkpt>
      <trkpt lat="37.172975" lon="-7.370746666666666">
        <ele>54.99999999999995</ele>
        <time>2013-05-02T18:34:26.16</time>
      </trkpt>
      <trkpt lat="37.172988333333336" lon="-7.370675">
        <ele>54.69999999999995</ele>
        <time>2013-05-02T18:34:27.16</time>
      </trkpt>
      <trkpt lat="37.17301333333333" lon="-7.37061">
        <ele>54.59999999999995</ele>
        <time>2013-05-02T18:34:28.15</time>
      </trkpt>
      <trkpt lat="37.17304333333333" lon="-7.370546666666667">
        <ele>55.299999999999955</ele>
        <time>2013-05-02T18:34:29.16</time>
      </trkpt>
      <trkpt lat="37.17306166666667" lon="-7.370478333333334">
        <ele>54.99999999999996</ele>
        <time>2013-05-02T18:34:30.16</time>
      </trkpt>
      <trkpt lat="37.17307666666667" lon="-7.370408333333334">
        <ele>55.19999999999996</ele>
        <time>2013-05-02T18:34:31.16</time>
      </trkpt>
      <trkpt lat="37.17310166666667" lon="-7.3703433333333335">
        <ele>55.29999999999996</ele>
        <time>2013-05-02T18:34:32.16</time>
      </trkpt>
      <trkpt lat="37.173118333333335" lon="-7.37029">
        <ele>55.79999999999996</ele>
        <time>2013-05-02T18:34:33.16</time>
      </trkpt>
      <trkpt lat="37.173136666666664" lon="-7.370221666666667">
        <ele>55.69999999999996</ele>
        <time>2013-05-02T18:34:34.16</time>
      </trkpt>
      <trkpt lat="37.173155" lon="-7.370161666666666">
        <ele>55.89999999999996</ele>
        <time>2013-05-02T18:34:35.16</time>
      </trkpt>
      <trkpt lat="37.173165" lon="-7.370091666666666">
        <ele>55.79999999999996</ele>
        <time>2013-05-02T18:34:36.16</time>
      </trkpt>
      <trkpt lat="37.173175" lon="-7.37003">
        <ele>55.999999999999964</ele>
        <time>2013-05-02T18:34:37.16</time>
      </trkpt>
      <trkpt lat="37.173206666666665" lon="-7.369961666666667">
        <ele>54.999999999999964</ele>
        <time>2013-05-02T18:34:38.16</time>
      </trkpt>
      <trkpt lat="37.173235" lon="-7.369885">
        <ele>54.79999999999996</ele>
        <time>2013-05-02T18:34:39.16</time>
      </trkpt>
      <trkpt lat="37.17326333333333" lon="-7.369813333333333">
        <ele>55.59999999999996</ele>
        <time>2013-05-02T18:34:40.16</time>
      </trkpt>
      <trkpt lat="37.173291666666664" lon="-7.369748333333333">
        <ele>55.69999999999996</ele>
        <time>2013-05-02T18:34:41.16</time>
      </trkpt>
      <trkpt lat="37.173305" lon="-7.369681666666667">
        <ele>55.89999999999996</ele>
        <time>2013-05-02T18:34:42.16</time>
      </trkpt>
      <trkpt lat="37.17332666666667" lon="-7.3696166666666665">
        <ele>55.999999999999964</ele>
        <time>2013-05-02T18:34:43.16</time>
      </trkpt>
      <trkpt lat="37.17334666666667" lon="-7.369545">
        <ele>55.89999999999996</ele>
        <time>2013-05-02T18:34:44.16</time>
      </trkpt>
      <trkpt lat="37.17337666666667" lon="-7.369465">
        <ele>55.19999999999996</ele>
        <time>2013-05-02T18:34:45.22</time>
      </trkpt>
      <trkpt lat="37.17340333333333" lon="-7.369393333333333">
        <ele>55.49999999999996</ele>
        <time>2013-05-02T18:34:46.16</time>
      </trkpt>
      <trkpt lat="37.17342333333333" lon="-7.369323333333333">
        <ele>56.09999999999996</ele>
        <time>2013-05-02T18:34:47.16</time>
      </trkpt>
      <trkpt lat="37.17344666666666" lon="-7.369258333333334">
        <ele>56.09999999999996</ele>
        <time>2013-05-02T18:34:48.16</time>
      </trkpt>
      <trkpt lat="37.17347" lon="-7.369188333333334">
        <ele>56.19999999999996</ele>
        <time>2013-05-02T18:34:49.16</time>
      </trkpt>
      <trkpt lat="37.17348833333333" lon="-7.369121666666667">
        <ele>56.49999999999996</ele>
        <time>2013-05-02T18:34:50.16</time>
      </trkpt>
      <trkpt lat="37.17351" lon="-7.36905">
        <ele>57.19999999999996</ele>
        <time>2013-05-02T18:34:51.16</time>
      </trkpt>
      <trkpt lat="37.17353" lon="-7.368978333333334">
        <ele>57.19999999999996</ele>
        <time>2013-05-02T18:34:52.16</time>
      </trkpt>
      <trkpt lat="37.17355666666667" lon="-7.368913333333333">
        <ele>56.99999999999996</ele>
        <time>2013-05-02T18:34:53.16</time>
      </trkpt>
      <trkpt lat="37.17358" lon="-7.368845">
        <ele>56.99999999999996</ele>
        <time>2013-05-02T18:34:54.16</time>
      </trkpt>
      <trkpt lat="37.17359666666667" lon="-7.368775">
        <ele>57.09999999999996</ele>
        <time>2013-05-02T18:34:55.16</time>
      </trkpt>
      <trkpt lat="37.173615" lon="-7.368708333333333">
        <ele>57.19999999999996</ele>
        <time>2013-05-02T18:34:56.16</time>
      </trkpt>
      <trkpt lat="37.17362833333333" lon="-7.368648333333334">
        <ele>57.59999999999996</ele>
        <time>2013-05-02T18:34:57.16</time>
      </trkpt>
      <trkpt lat="37.17364" lon="-7.368591666666667">
        <ele>57.899999999999956</ele>
        <time>2013-05-02T18:34:58.16</time>
      </trkpt>
      <trkpt lat="37.17364833333333" lon="-7.368518333333333">
        <ele>57.69999999999995</ele>
        <time>2013-05-02T18:34:59.16</time>
      </trkpt>
      <trkpt lat="37.173645" lon="-7.368438333333334">
        <ele>57.99999999999995</ele>
        <time>2013-05-02T18:35:00.14</time>
      </trkpt>
      <trkpt lat="37.173651666666665" lon="-7.368353333333333">
        <ele>58.09999999999995</ele>
        <time>2013-05-02T18:35:01.15</time>
      </trkpt>
      <trkpt lat="37.173656666666666" lon="-7.368271666666667">
        <ele>58.39999999999995</ele>
        <time>2013-05-02T18:35:02.16</time>
      </trkpt>
      <trkpt lat="37.17366833333333" lon="-7.3681833333333335">
        <ele>58.09999999999995</ele>
        <time>2013-05-02T18:35:03.16</time>
      </trkpt>
      <trkpt lat="37.173676666666665" lon="-7.368111666666667">
        <ele>58.299999999999955</ele>
        <time>2013-05-02T18:35:04.16</time>
      </trkpt>
      <trkpt lat="37.173675" lon="-7.368031666666667">
        <ele>58.399999999999956</ele>
        <time>2013-05-02T18:35:05.16</time>
      </trkpt>
      <trkpt lat="37.173685" lon="-7.367958333333333">
        <ele>58.49999999999996</ele>
        <time>2013-05-02T18:35:06.16</time>
      </trkpt>
      <trkpt lat="37.17369166666667" lon="-7.367891666666667">
        <ele>58.59999999999996</ele>
        <time>2013-05-02T18:35:07.16</time>
      </trkpt>
      <trkpt lat="37.173705" lon="-7.367816666666666">
        <ele>58.99999999999996</ele>
        <time>2013-05-02T18:35:08.16</time>
      </trkpt>
      <trkpt lat="37.17371333333333" lon="-7.36775">
        <ele>59.399999999999956</ele>
        <time>2013-05-02T18:35:09.16</time>
      </trkpt>
      <trkpt lat="37.17372833333334" lon="-7.367673333333333">
        <ele>60.19999999999995</ele>
        <time>2013-05-02T18:35:10.16</time>
      </trkpt>
      <trkpt lat="37.173748333333336" lon="-7.367568333333334">
        <ele>59.59999999999995</ele>
        <time>2013-05-02T18:35:11.22</time>
      </trkpt>
      <trkpt lat="37.173766666666666" lon="-7.36748">
        <ele>60.09999999999995</ele>
        <time>2013-05-02T18:35:12.16</time>
      </trkpt>
      <trkpt lat="37.17377833333333" lon="-7.367403333333334">
        <ele>60.39999999999995</ele>
        <time>2013-05-02T18:35:13.16</time>
      </trkpt>
      <trkpt lat="37.173793333333336" lon="-7.367318333333333">
        <ele>60.89999999999995</ele>
        <time>2013-05-02T18:35:14.16</time>
      </trkpt>
      <trkpt lat="37.173813333333335" lon="-7.3672466666666665">
        <ele>60.89999999999995</ele>
        <time>2013-05-02T18:35:15.16</time>
      </trkpt>
      <trkpt lat="37.173831666666665" lon="-7.367178333333333">
        <ele>60.89999999999995</ele>
        <time>2013-05-02T18:35:16.16</time>
      </trkpt>
      <trkpt lat="37.17384833333333" lon="-7.367105">
        <ele>61.39999999999995</ele>
        <time>2013-05-02T18:35:17.16</time>
      </trkpt>
      <trkpt lat="37.17387" lon="-7.367018333333333">
        <ele>60.99999999999995</ele>
        <time>2013-05-02T18:35:18.17</time>
      </trkpt>
      <trkpt lat="37.173883333333336" lon="-7.366955">
        <ele>60.99999999999995</ele>
        <time>2013-05-02T18:35:19.21</time>
      </trkpt>
      <trkpt lat="37.17389166666667" lon="-7.36687">
        <ele>60.49999999999995</ele>
        <time>2013-05-02T18:35:20.16</time>
      </trkpt>
      <trkpt lat="37.173905" lon="-7.366786666666667">
        <ele>59.49999999999995</ele>
        <time>2013-05-02T18:35:21.16</time>
      </trkpt>
      <trkpt lat="37.173921666666665" lon="-7.366713333333333">
        <ele>59.09999999999995</ele>
        <time>2013-05-02T18:35:22.16</time>
      </trkpt>
      <trkpt lat="37.173941666666664" lon="-7.366648333333333">
        <ele>59.39999999999995</ele>
        <time>2013-05-02T18:35:23.16</time>
      </trkpt>
      <trkpt lat="37.173955" lon="-7.3665883333333335">
        <ele>59.49999999999995</ele>
        <time>2013-05-02T18:35:24.16</time>
      </trkpt>
      <trkpt lat="37.173986666666664" lon="-7.366568333333333">
        <ele>59.99999999999995</ele>
        <time>2013-05-02T18:35:25.16</time>
      </trkpt>
      <trkpt lat="37.17400666666666" lon="-7.366561666666667">
        <ele>61.09999999999995</ele>
        <time>2013-05-02T18:35:26.16</time>
      </trkpt>
      <trkpt lat="37.17407333333333" lon="-7.36658">
        <ele>59.59999999999995</ele>
        <time>2013-05-02T18:35:27.16</time>
      </trkpt>
      <trkpt lat="37.174126666666666" lon="-7.366593333333333">
        <ele>58.89999999999995</ele>
        <time>2013-05-02T18:35:28.16</time>
      </trkpt>
      <trkpt lat="37.17416166666667" lon="-7.36662">
        <ele>59.39999999999995</ele>
        <time>2013-05-02T18:35:29.16</time>
      </trkpt>
      <trkpt lat="37.174205" lon="-7.366631666666667">
        <ele>59.79999999999995</ele>
        <time>2013-05-02T18:35:30.16</time>
      </trkpt>
      <trkpt lat="37.17424" lon="-7.3666133333333335">
        <ele>59.79999999999995</ele>
        <time>2013-05-02T18:35:31.16</time>
      </trkpt>
      <trkpt lat="37.174263333333336" lon="-7.366551666666667">
        <ele>60.099999999999945</ele>
        <time>2013-05-02T18:35:32.16</time>
      </trkpt>
      <trkpt lat="37.17427333333333" lon="-7.366505">
        <ele>60.199999999999946</ele>
        <time>2013-05-02T18:35:33.16</time>
      </trkpt>
      <trkpt lat="37.174281666666666" lon="-7.366445">
        <ele>60.49999999999994</ele>
        <time>2013-05-02T18:35:34.16</time>
      </trkpt>
      <trkpt lat="37.17429333333333" lon="-7.366371666666667">
        <ele>60.599999999999945</ele>
        <time>2013-05-02T18:35:35.16</time>
      </trkpt>
      <trkpt lat="37.174306666666666" lon="-7.366303333333334">
        <ele>60.699999999999946</ele>
        <time>2013-05-02T18:35:36.16</time>
      </trkpt>
      <trkpt lat="37.174325" lon="-7.366226666666667">
        <ele>60.599999999999945</ele>
        <time>2013-05-02T18:35:37.16</time>
      </trkpt>
      <trkpt lat="37.17435" lon="-7.36615">
        <ele>61.099999999999945</ele>
        <time>2013-05-02T18:35:38.16</time>
      </trkpt>
      <trkpt lat="37.174375" lon="-7.3660733333333335">
        <ele>60.79999999999995</ele>
        <time>2013-05-02T18:35:39.16</time>
      </trkpt>
      <trkpt lat="37.17440166666667" lon="-7.365993333333333">
        <ele>61.099999999999945</ele>
        <time>2013-05-02T18:35:40.16</time>
      </trkpt>
      <trkpt lat="37.17442333333333" lon="-7.365921666666667">
        <ele>60.699999999999946</ele>
        <time>2013-05-02T18:35:41.13</time>
      </trkpt>
      <trkpt lat="37.17444166666667" lon="-7.36586">
        <ele>60.699999999999946</ele>
        <time>2013-05-02T18:35:42.16</time>
      </trkpt>
      <trkpt lat="37.174458333333334" lon="-7.36579">
        <ele>60.39999999999995</ele>
        <time>2013-05-02T18:35:43.16</time>
      </trkpt>
      <trkpt lat="37.17448" lon="-7.365713333333333">
        <ele>60.29999999999995</ele>
        <time>2013-05-02T18:35:44.16</time>
      </trkpt>
      <trkpt lat="37.17449666666667" lon="-7.365631666666666">
        <ele>60.49999999999995</ele>
        <time>2013-05-02T18:35:45.16</time>
      </trkpt>
      <trkpt lat="37.17451333333333" lon="-7.365553333333334">
        <ele>59.89999999999995</ele>
        <time>2013-05-02T18:35:46.16</time>
      </trkpt>
      <trkpt lat="37.17452333333333" lon="-7.36547">
        <ele>59.59999999999995</ele>
        <time>2013-05-02T18:35:47.16</time>
      </trkpt>
      <trkpt lat="37.174553333333336" lon="-7.365398333333333">
        <ele>59.99999999999995</ele>
        <time>2013-05-02T18:35:48.16</time>
      </trkpt>
      <trkpt lat="37.174573333333335" lon="-7.365316666666667">
        <ele>59.99999999999995</ele>
        <time>2013-05-02T18:35:49.16</time>
      </trkpt>
      <trkpt lat="37.17458833333333" lon="-7.365241666666667">
        <ele>59.79999999999995</ele>
        <time>2013-05-02T18:35:50.16</time>
      </trkpt>
      <trkpt lat="37.174605" lon="-7.36517">
        <ele>59.49999999999995</ele>
        <time>2013-05-02T18:35:51.16</time>
      </trkpt>
      <trkpt lat="37.174615" lon="-7.36509">
        <ele>59.39999999999995</ele>
        <time>2013-05-02T18:35:52.16</time>
      </trkpt>
      <trkpt lat="37.17461" lon="-7.365015">
        <ele>59.199999999999946</ele>
        <time>2013-05-02T18:35:53.16</time>
      </trkpt>
      <trkpt lat="37.174645" lon="-7.364935">
        <ele>58.29999999999995</ele>
        <time>2013-05-02T18:35:54.17</time>
      </trkpt>
      <trkpt lat="37.17466833333334" lon="-7.364856666666666">
        <ele>57.99999999999995</ele>
        <time>2013-05-02T18:35:55.16</time>
      </trkpt>
      <trkpt lat="37.174685" lon="-7.3647833333333335">
        <ele>57.79999999999995</ele>
        <time>2013-05-02T18:35:56.16</time>
      </trkpt>
      <trkpt lat="37.17471" lon="-7.364701666666667">
        <ele>57.79999999999995</ele>
        <time>2013-05-02T18:35:57.16</time>
      </trkpt>
      <trkpt lat="37.174735" lon="-7.36462">
        <ele>57.599999999999945</ele>
        <time>2013-05-02T18:35:58.16</time>
      </trkpt>
      <trkpt lat="37.174746666666664" lon="-7.364535">
        <ele>57.39999999999994</ele>
        <time>2013-05-02T18:35:59.16</time>
      </trkpt>
      <trkpt lat="37.17476" lon="-7.3644533333333335">
        <ele>56.89999999999994</ele>
        <time>2013-05-02T18:36:00.14</time>
      </trkpt>
      <trkpt lat="37.174771666666665" lon="-7.364381666666667">
        <ele>55.89999999999994</ele>
        <time>2013-05-02T18:36:01.16</time>
      </trkpt>
      <trkpt lat="37.17478666666667" lon="-7.364303333333333">
        <ele>55.89999999999994</ele>
        <time>2013-05-02T18:36:02.16</time>
      </trkpt>
      <trkpt lat="37.174798333333335" lon="-7.364226666666666">
        <ele>55.49999999999994</ele>
        <time>2013-05-02T18:36:03.16</time>
      </trkpt>
      <trkpt lat="37.17481166666666" lon="-7.3641483333333335">
        <ele>55.599999999999945</ele>
        <time>2013-05-02T18:36:04.16</time>
      </trkpt>
      <trkpt lat="37.17482833333333" lon="-7.364073333333334">
        <ele>55.599999999999945</ele>
        <time>2013-05-02T18:36:05.15</time>
      </trkpt>
      <trkpt lat="37.174845" lon="-7.364001666666667">
        <ele>55.79999999999995</ele>
        <time>2013-05-02T18:36:06.17</time>
      </trkpt>
      <trkpt lat="37.17485" lon="-7.363925">
        <ele>55.99999999999995</ele>
        <time>2013-05-02T18:36:07.16</time>
      </trkpt>
      <trkpt lat="37.174861666666665" lon="-7.363851666666666">
        <ele>55.79999999999995</ele>
        <time>2013-05-02T18:36:08.16</time>
      </trkpt>
      <trkpt lat="37.17486666666667" lon="-7.363761666666667">
        <ele>55.599999999999945</ele>
        <time>2013-05-02T18:36:09.16</time>
      </trkpt>
      <trkpt lat="37.17489" lon="-7.363671666666667">
        <ele>55.099999999999945</ele>
        <time>2013-05-02T18:36:10.16</time>
      </trkpt>
      <trkpt lat="37.174895" lon="-7.3636">
        <ele>54.89999999999994</ele>
        <time>2013-05-02T18:36:11.20</time>
      </trkpt>
      <trkpt lat="37.17491666666667" lon="-7.363513333333334">
        <ele>54.49999999999994</ele>
        <time>2013-05-02T18:36:12.16</time>
      </trkpt>
      <trkpt lat="37.17493666666667" lon="-7.363435">
        <ele>53.89999999999994</ele>
        <time>2013-05-02T18:36:13.16</time>
      </trkpt>
      <trkpt lat="37.17496166666667" lon="-7.3633516666666665">
        <ele>52.599999999999945</ele>
        <time>2013-05-02T18:36:14.15</time>
      </trkpt>
      <trkpt lat="37.17499" lon="-7.36327">
        <ele>52.49999999999994</ele>
        <time>2013-05-02T18:36:15.15</time>
      </trkpt>
      <trkpt lat="37.175005" lon="-7.363195">
        <ele>52.49999999999994</ele>
        <time>2013-05-02T18:36:16.16</time>
      </trkpt>
      <trkpt lat="37.175021666666666" lon="-7.363111666666667">
        <ele>51.99999999999994</ele>
        <time>2013-05-02T18:36:17.16</time>
      </trkpt>
      <trkpt lat="37.17503333333333" lon="-7.363033333333333">
        <ele>52.89999999999994</ele>
        <time>2013-05-02T18:36:18.16</time>
      </trkpt>
      <trkpt lat="37.17505" lon="-7.3629533333333335">
        <ele>52.19999999999994</ele>
        <time>2013-05-02T18:36:19.16</time>
      </trkpt>
      <trkpt lat="37.175068333333336" lon="-7.362871666666667">
        <ele>52.29999999999994</ele>
        <time>2013-05-02T18:36:20.15</time>
      </trkpt>
      <trkpt lat="37.175093333333336" lon="-7.362776666666667">
        <ele>52.59999999999994</ele>
        <time>2013-05-02T18:36:21.17</time>
      </trkpt>
      <trkpt lat="37.175125" lon="-7.362683333333333">
        <ele>52.399999999999935</ele>
        <time>2013-05-02T18:36:22.16</time>
      </trkpt>
      <trkpt lat="37.17514" lon="-7.362598333333334">
        <ele>51.899999999999935</ele>
        <time>2013-05-02T18:36:23.16</time>
      </trkpt>
      <trkpt lat="37.175156666666666" lon="-7.362513333333333">
        <ele>51.59999999999994</ele>
        <time>2013-05-02T18:36:24.16</time>
      </trkpt>
      <trkpt lat="37.175176666666665" lon="-7.36243">
        <ele>51.79999999999994</ele>
        <time>2013-05-02T18:36:25.16</time>
      </trkpt>
      <trkpt lat="37.1752" lon="-7.3623433333333335">
        <ele>51.39999999999994</ele>
        <time>2013-05-02T18:36:26.16</time>
      </trkpt>
      <trkpt lat="37.175225" lon="-7.362255">
        <ele>50.89999999999994</ele>
        <time>2013-05-02T18:36:27.16</time>
      </trkpt>
      <trkpt lat="37.17525666666667" lon="-7.362168333333333">
        <ele>50.49999999999994</ele>
        <time>2013-05-02T18:36:28.16</time>
      </trkpt>
      <trkpt lat="37.17527333333334" lon="-7.362091666666666">
        <ele>50.199999999999946</ele>
        <time>2013-05-02T18:36:29.16</time>
      </trkpt>
      <trkpt lat="37.17529833333333" lon="-7.361996666666666">
        <ele>49.89999999999995</ele>
        <time>2013-05-02T18:36:30.16</time>
      </trkpt>
      <trkpt lat="37.175313333333335" lon="-7.36191">
        <ele>49.89999999999995</ele>
        <time>2013-05-02T18:36:31.16</time>
      </trkpt>
      <trkpt lat="37.17533" lon="-7.361815">
        <ele>49.89999999999995</ele>
        <time>2013-05-02T18:36:32.16</time>
      </trkpt>
      <trkpt lat="37.17534833333333" lon="-7.36173">
        <ele>49.79999999999995</ele>
        <time>2013-05-02T18:36:33.16</time>
      </trkpt>
      <trkpt lat="37.17536666666667" lon="-7.361636666666667">
        <ele>49.99999999999995</ele>
        <time>2013-05-02T18:36:34.16</time>
      </trkpt>
      <trkpt lat="37.17537333333333" lon="-7.361538333333334">
        <ele>50.29999999999995</ele>
        <time>2013-05-02T18:36:35.16</time>
      </trkpt>
      <trkpt lat="37.175398333333334" lon="-7.361445">
        <ele>49.699999999999946</ele>
        <time>2013-05-02T18:36:36.16</time>
      </trkpt>
      <trkpt lat="37.175425" lon="-7.36136">
        <ele>49.99999999999994</ele>
        <time>2013-05-02T18:36:37.16</time>
      </trkpt>
      <trkpt lat="37.17545166666667" lon="-7.36128">
        <ele>50.39999999999994</ele>
        <time>2013-05-02T18:36:38.16</time>
      </trkpt>
      <trkpt lat="37.17547" lon="-7.361196666666666">
        <ele>51.099999999999945</ele>
        <time>2013-05-02T18:36:39.16</time>
      </trkpt>
      <trkpt lat="37.175495" lon="-7.361116666666667">
        <ele>51.099999999999945</ele>
        <time>2013-05-02T18:36:40.16</time>
      </trkpt>
      <trkpt lat="37.175515" lon="-7.361023333333334">
        <ele>50.699999999999946</ele>
        <time>2013-05-02T18:36:41.16</time>
      </trkpt>
      <trkpt lat="37.175545" lon="-7.360941666666666">
        <ele>50.79999999999995</ele>
        <time>2013-05-02T18:36:42.16</time>
      </trkpt>
      <trkpt lat="37.17556833333333" lon="-7.3608633333333335">
        <ele>51.099999999999945</ele>
        <time>2013-05-02T18:36:43.16</time>
      </trkpt>
      <trkpt lat="37.17558666666667" lon="-7.360766666666667">
        <ele>51.49999999999994</ele>
        <time>2013-05-02T18:36:44.16</time>
      </trkpt>
      <trkpt lat="37.17561666666667" lon="-7.360685">
        <ele>51.89999999999994</ele>
        <time>2013-05-02T18:36:45.16</time>
      </trkpt>
      <trkpt lat="37.17566" lon="-7.360613333333333">
        <ele>52.19999999999994</ele>
        <time>2013-05-02T18:36:46.16</time>
      </trkpt>
      <trkpt lat="37.175686666666664" lon="-7.360538333333333">
        <ele>52.69999999999994</ele>
        <time>2013-05-02T18:36:47.16</time>
      </trkpt>
      <trkpt lat="37.17572833333333" lon="-7.360478333333333">
        <ele>53.29999999999994</ele>
        <time>2013-05-02T18:36:48.16</time>
      </trkpt>
      <trkpt lat="37.17579166666667" lon="-7.360405">
        <ele>52.89999999999994</ele>
        <time>2013-05-02T18:36:49.16</time>
      </trkpt>
      <trkpt lat="37.17585833333333" lon="-7.360338333333333">
        <ele>52.99999999999994</ele>
        <time>2013-05-02T18:36:50.16</time>
      </trkpt>
      <trkpt lat="37.17590833333333" lon="-7.360275">
        <ele>52.89999999999994</ele>
        <time>2013-05-02T18:36:51.16</time>
      </trkpt>
      <trkpt lat="37.175956666666664" lon="-7.360201666666667">
        <ele>52.99999999999994</ele>
        <time>2013-05-02T18:36:52.17</time>
      </trkpt>
      <trkpt lat="37.17599666666667" lon="-7.360128333333333">
        <ele>52.79999999999994</ele>
        <time>2013-05-02T18:36:53.21</time>
      </trkpt>
      <trkpt lat="37.17604333333333" lon="-7.36006">
        <ele>54.09999999999994</ele>
        <time>2013-05-02T18:36:54.16</time>
      </trkpt>
      <trkpt lat="37.17609" lon="-7.359998333333333">
        <ele>53.69999999999994</ele>
        <time>2013-05-02T18:36:55.16</time>
      </trkpt>
      <trkpt lat="37.176138333333334" lon="-7.359933333333333">
        <ele>53.59999999999994</ele>
        <time>2013-05-02T18:36:56.16</time>
      </trkpt>
      <trkpt lat="37.176186666666666" lon="-7.359863333333333">
        <ele>53.499999999999936</ele>
        <time>2013-05-02T18:36:57.16</time>
      </trkpt>
      <trkpt lat="37.17623" lon="-7.359795">
        <ele>53.59999999999994</ele>
        <time>2013-05-02T18:36:58.16</time>
      </trkpt>
      <trkpt lat="37.176271666666665" lon="-7.359728333333333">
        <ele>53.499999999999936</ele>
        <time>2013-05-02T18:36:59.16</time>
      </trkpt>
      <trkpt lat="37.176318333333334" lon="-7.35966">
        <ele>53.899999999999935</ele>
        <time>2013-05-02T18:37:00.14</time>
      </trkpt>
      <trkpt lat="37.176363333333335" lon="-7.359588333333333">
        <ele>54.29999999999993</ele>
        <time>2013-05-02T18:37:01.16</time>
      </trkpt>
      <trkpt lat="37.176408333333335" lon="-7.359518333333333">
        <ele>54.899999999999935</ele>
        <time>2013-05-02T18:37:02.16</time>
      </trkpt>
      <trkpt lat="37.17645" lon="-7.359451666666667">
        <ele>55.29999999999993</ele>
        <time>2013-05-02T18:37:03.16</time>
      </trkpt>
      <trkpt lat="37.17650666666667" lon="-7.359385">
        <ele>55.09999999999993</ele>
        <time>2013-05-02T18:37:04.16</time>
      </trkpt>
      <trkpt lat="37.17655333333333" lon="-7.359318333333333">
        <ele>55.29999999999993</ele>
        <time>2013-05-02T18:37:05.16</time>
      </trkpt>
      <trkpt lat="37.17659333333334" lon="-7.359251666666666">
        <ele>55.69999999999993</ele>
        <time>2013-05-02T18:37:06.19</time>
      </trkpt>
      <trkpt lat="37.17663833333334" lon="-7.359183333333333">
        <ele>56.09999999999993</ele>
        <time>2013-05-02T18:37:07.16</time>
      </trkpt>
      <trkpt lat="37.17668166666667" lon="-7.359116666666667">
        <ele>56.69999999999993</ele>
        <time>2013-05-02T18:37:08.20</time>
      </trkpt>
      <trkpt lat="37.17673" lon="-7.359041666666666">
        <ele>57.29999999999993</ele>
        <time>2013-05-02T18:37:09.20</time>
      </trkpt>
      <trkpt lat="37.176765" lon="-7.358998333333333">
        <ele>57.59999999999993</ele>
        <time>2013-05-02T18:37:10.16</time>
      </trkpt>
      <trkpt lat="37.17677333333334" lon="-7.35895">
        <ele>57.59999999999993</ele>
        <time>2013-05-02T18:37:11.16</time>
      </trkpt>
      <trkpt lat="37.17675666666667" lon="-7.358913333333334">
        <ele>57.39999999999993</ele>
        <time>2013-05-02T18:37:12.16</time>
      </trkpt>
      <trkpt lat="37.17673833333333" lon="-7.35889">
        <ele>56.99999999999993</ele>
        <time>2013-05-02T18:37:13.17</time>
      </trkpt>
      <trkpt lat="37.17671833333333" lon="-7.358856666666667">
        <ele>56.59999999999993</ele>
        <time>2013-05-02T18:37:14.16</time>
      </trkpt>
      <trkpt lat="37.176696666666665" lon="-7.358805">
        <ele>56.39999999999993</ele>
        <time>2013-05-02T18:37:15.15</time>
      </trkpt>
      <trkpt lat="37.17666" lon="-7.35875">
        <ele>56.39999999999993</ele>
        <time>2013-05-02T18:37:16.16</time>
      </trkpt>
      <trkpt lat="37.17662333333333" lon="-7.358691666666667">
        <ele>56.39999999999993</ele>
        <time>2013-05-02T18:37:17.16</time>
      </trkpt>
      <trkpt lat="37.17659" lon="-7.358628333333334">
        <ele>56.09999999999993</ele>
        <time>2013-05-02T18:37:18.16</time>
      </trkpt>
      <trkpt lat="37.17655833333333" lon="-7.358571666666666">
        <ele>55.79999999999993</ele>
        <time>2013-05-02T18:37:19.16</time>
      </trkpt>
      <trkpt lat="37.176516666666664" lon="-7.35851">
        <ele>55.79999999999993</ele>
        <time>2013-05-02T18:37:20.16</time>
      </trkpt>
      <trkpt lat="37.176471666666664" lon="-7.358451666666666">
        <ele>55.29999999999993</ele>
        <time>2013-05-02T18:37:21.16</time>
      </trkpt>
      <trkpt lat="37.176433333333335" lon="-7.358385">
        <ele>54.899999999999935</ele>
        <time>2013-05-02T18:37:22.16</time>
      </trkpt>
      <trkpt lat="37.17639333333333" lon="-7.358316666666667">
        <ele>54.29999999999993</ele>
        <time>2013-05-02T18:37:23.16</time>
      </trkpt>
      <trkpt lat="37.17639833333333" lon="-7.358231666666667">
        <ele>53.59999999999993</ele>
        <time>2013-05-02T18:37:24.18</time>
      </trkpt>
      <trkpt lat="37.17639333333333" lon="-7.358158333333333">
        <ele>53.49999999999993</ele>
        <time>2013-05-02T18:37:25.18</time>
      </trkpt>
      <trkpt lat="37.176395" lon="-7.358075">
        <ele>53.19999999999993</ele>
        <time>2013-05-02T18:37:26.16</time>
      </trkpt>
      <trkpt lat="37.176408333333335" lon="-7.357996666666667">
        <ele>53.19999999999993</ele>
        <time>2013-05-02T18:37:27.16</time>
      </trkpt>
      <trkpt lat="37.176375" lon="-7.357921666666667">
        <ele>53.09999999999993</ele>
        <time>2013-05-02T18:37:28.16</time>
      </trkpt>
      <trkpt lat="37.17635666666666" lon="-7.357853333333333">
        <ele>52.79999999999993</ele>
        <time>2013-05-02T18:37:29.16</time>
      </trkpt>
      <trkpt lat="37.176338333333334" lon="-7.35778">
        <ele>52.29999999999993</ele>
        <time>2013-05-02T18:37:30.16</time>
      </trkpt>
      <trkpt lat="37.17633" lon="-7.3577">
        <ele>52.09999999999993</ele>
        <time>2013-05-02T18:37:31.16</time>
      </trkpt>
      <trkpt lat="37.176341666666666" lon="-7.357613333333333">
        <ele>52.49999999999993</ele>
        <time>2013-05-02T18:37:32.16</time>
      </trkpt>
      <trkpt lat="37.176343333333335" lon="-7.3575333333333335">
        <ele>52.59999999999993</ele>
        <time>2013-05-02T18:37:33.16</time>
      </trkpt>
      <trkpt lat="37.17634666666667" lon="-7.357456666666667">
        <ele>52.39999999999993</ele>
        <time>2013-05-02T18:37:34.16</time>
      </trkpt>
      <trkpt lat="37.176345" lon="-7.3573683333333335">
        <ele>52.49999999999993</ele>
        <time>2013-05-02T18:37:35.16</time>
      </trkpt>
      <trkpt lat="37.176341666666666" lon="-7.357285">
        <ele>52.69999999999993</ele>
        <time>2013-05-02T18:37:36.16</time>
      </trkpt>
      <trkpt lat="37.176335" lon="-7.357198333333334">
        <ele>52.29999999999993</ele>
        <time>2013-05-02T18:37:37.16</time>
      </trkpt>
      <trkpt lat="37.176355" lon="-7.35711">
        <ele>51.499999999999936</ele>
        <time>2013-05-02T18:37:38.16</time>
      </trkpt>
      <trkpt lat="37.17637166666667" lon="-7.35703">
        <ele>50.79999999999993</ele>
        <time>2013-05-02T18:37:39.16</time>
      </trkpt>
      <trkpt lat="37.176383333333334" lon="-7.3569466666666665">
        <ele>51.09999999999993</ele>
        <time>2013-05-02T18:37:40.22</time>
      </trkpt>
      <trkpt lat="37.17640333333333" lon="-7.356861666666667">
        <ele>50.99999999999993</ele>
        <time>2013-05-02T18:37:41.19</time>
      </trkpt>
      <trkpt lat="37.17641166666667" lon="-7.356776666666667">
        <ele>51.19999999999993</ele>
        <time>2013-05-02T18:37:42.15</time>
      </trkpt>
      <trkpt lat="37.17642166666667" lon="-7.356686666666667">
        <ele>50.79999999999993</ele>
        <time>2013-05-02T18:37:43.16</time>
      </trkpt>
      <trkpt lat="37.17643833333333" lon="-7.35661">
        <ele>50.399999999999935</ele>
        <time>2013-05-02T18:37:44.16</time>
      </trkpt>
      <trkpt lat="37.17644666666666" lon="-7.356521666666667">
        <ele>50.499999999999936</ele>
        <time>2013-05-02T18:37:45.16</time>
      </trkpt>
      <trkpt lat="37.176455" lon="-7.356441666666667">
        <ele>49.899999999999935</ele>
        <time>2013-05-02T18:37:46.16</time>
      </trkpt>
      <trkpt lat="37.17646" lon="-7.3563616666666665">
        <ele>49.79999999999993</ele>
        <time>2013-05-02T18:37:47.16</time>
      </trkpt>
      <trkpt lat="37.176476666666666" lon="-7.3562666666666665">
        <ele>48.899999999999935</ele>
        <time>2013-05-02T18:37:48.16</time>
      </trkpt>
      <trkpt lat="37.17649333333333" lon="-7.356183333333333">
        <ele>48.999999999999936</ele>
        <time>2013-05-02T18:37:49.16</time>
      </trkpt>
      <trkpt lat="37.176505" lon="-7.3561016666666665">
        <ele>49.09999999999994</ele>
        <time>2013-05-02T18:37:50.15</time>
      </trkpt>
      <trkpt lat="37.17651333333333" lon="-7.356015">
        <ele>48.59999999999994</ele>
        <time>2013-05-02T18:37:51.19</time>
      </trkpt>
      <trkpt lat="37.176518333333334" lon="-7.355915">
        <ele>47.59999999999994</ele>
        <time>2013-05-02T18:37:52.16</time>
      </trkpt>
      <trkpt lat="37.176525" lon="-7.355816666666667">
        <ele>47.09999999999994</ele>
        <time>2013-05-02T18:37:53.16</time>
      </trkpt>
      <trkpt lat="37.176561666666665" lon="-7.355765">
        <ele>47.999999999999936</ele>
        <time>2013-05-02T18:37:54.16</time>
      </trkpt>
      <trkpt lat="37.17659666666667" lon="-7.355693333333333">
        <ele>48.29999999999993</ele>
        <time>2013-05-02T18:37:55.16</time>
      </trkpt>
      <trkpt lat="37.176626666666664" lon="-7.355618333333333">
        <ele>48.499999999999936</ele>
        <time>2013-05-02T18:37:56.17</time>
      </trkpt>
      <trkpt lat="37.17666" lon="-7.355553333333333">
        <ele>48.499999999999936</ele>
        <time>2013-05-02T18:37:57.22</time>
      </trkpt>
      <trkpt lat="37.176696666666665" lon="-7.355485">
        <ele>48.79999999999993</ele>
        <time>2013-05-02T18:37:58.16</time>
      </trkpt>
      <trkpt lat="37.17673833333333" lon="-7.355408333333333">
        <ele>48.79999999999993</ele>
        <time>2013-05-02T18:37:59.16</time>
      </trkpt>
      <trkpt lat="37.17677833333333" lon="-7.355341666666667">
        <ele>48.59999999999993</ele>
        <time>2013-05-02T18:38:00.14</time>
      </trkpt>
      <trkpt lat="37.17681666666667" lon="-7.355273333333334">
        <ele>48.59999999999993</ele>
        <time>2013-05-02T18:38:01.15</time>
      </trkpt>
      <trkpt lat="37.17685" lon="-7.355208333333334">
        <ele>48.59999999999993</ele>
        <time>2013-05-02T18:38:02.16</time>
      </trkpt>
      <trkpt lat="37.176865" lon="-7.355125">
        <ele>47.89999999999993</ele>
        <time>2013-05-02T18:38:03.17</time>
      </trkpt>
      <trkpt lat="37.17689" lon="-7.355041666666667">
        <ele>48.199999999999925</ele>
        <time>2013-05-02T18:38:04.16</time>
      </trkpt>
      <trkpt lat="37.17693" lon="-7.354968333333334">
        <ele>47.299999999999926</ele>
        <time>2013-05-02T18:38:05.16</time>
      </trkpt>
      <trkpt lat="37.17697166666667" lon="-7.3549">
        <ele>48.09999999999992</ele>
        <time>2013-05-02T18:38:06.16</time>
      </trkpt>
      <trkpt lat="37.177013333333335" lon="-7.354838333333333">
        <ele>48.699999999999925</ele>
        <time>2013-05-02T18:38:07.16</time>
      </trkpt>
      <trkpt lat="37.17706666666667" lon="-7.354786666666667">
        <ele>48.699999999999925</ele>
        <time>2013-05-02T18:38:08.17</time>
      </trkpt>
      <trkpt lat="37.17711666666667" lon="-7.3547183333333335">
        <ele>49.99999999999992</ele>
        <time>2013-05-02T18:38:09.16</time>
      </trkpt>
      <trkpt lat="37.17716166666666" lon="-7.35465">
        <ele>50.59999999999992</ele>
        <time>2013-05-02T18:38:10.16</time>
      </trkpt>
      <trkpt lat="37.17719666666667" lon="-7.354578333333333">
        <ele>51.39999999999992</ele>
        <time>2013-05-02T18:38:11.16</time>
      </trkpt>
      <trkpt lat="37.177245" lon="-7.354511666666666">
        <ele>50.89999999999992</ele>
        <time>2013-05-02T18:38:12.18</time>
      </trkpt>
      <trkpt lat="37.177283333333335" lon="-7.354446666666667">
        <ele>50.89999999999992</ele>
        <time>2013-05-02T18:38:13.16</time>
      </trkpt>
      <trkpt lat="37.17731833333333" lon="-7.354376666666667">
        <ele>50.99999999999992</ele>
        <time>2013-05-02T18:38:14.16</time>
      </trkpt>
      <trkpt lat="37.177365" lon="-7.35431">
        <ele>49.59999999999992</ele>
        <time>2013-05-02T18:38:15.16</time>
      </trkpt>
      <trkpt lat="37.177405" lon="-7.3542483333333335">
        <ele>49.59999999999992</ele>
        <time>2013-05-02T18:38:16.16</time>
      </trkpt>
      <trkpt lat="37.177443333333336" lon="-7.354185">
        <ele>49.59999999999992</ele>
        <time>2013-05-02T18:38:17.15</time>
      </trkpt>
      <trkpt lat="37.17748" lon="-7.354123333333333">
        <ele>49.89999999999992</ele>
        <time>2013-05-02T18:38:18.15</time>
      </trkpt>
      <trkpt lat="37.177526666666665" lon="-7.354063333333333">
        <ele>50.19999999999992</ele>
        <time>2013-05-02T18:38:19.17</time>
      </trkpt>
      <trkpt lat="37.177555" lon="-7.353986666666667">
        <ele>50.39999999999992</ele>
        <time>2013-05-02T18:38:20.16</time>
      </trkpt>
      <trkpt lat="37.177575" lon="-7.353908333333333">
        <ele>50.39999999999992</ele>
        <time>2013-05-02T18:38:21.16</time>
      </trkpt>
      <trkpt lat="37.177595" lon="-7.35384">
        <ele>50.19999999999992</ele>
        <time>2013-05-02T18:38:22.16</time>
      </trkpt>
      <trkpt lat="37.177638333333334" lon="-7.353781666666666">
        <ele>50.29999999999992</ele>
        <time>2013-05-02T18:38:23.16</time>
      </trkpt>
      <trkpt lat="37.177685" lon="-7.35373">
        <ele>50.79999999999992</ele>
        <time>2013-05-02T18:38:24.17</time>
      </trkpt>
      <trkpt lat="37.17773833333333" lon="-7.353678333333334">
        <ele>50.89999999999992</ele>
        <time>2013-05-02T18:38:25.16</time>
      </trkpt>
      <trkpt lat="37.17777666666667" lon="-7.353603333333333">
        <ele>51.49999999999992</ele>
        <time>2013-05-02T18:38:26.16</time>
      </trkpt>
      <trkpt lat="37.177818333333335" lon="-7.353538333333334">
        <ele>51.699999999999925</ele>
        <time>2013-05-02T18:38:27.16</time>
      </trkpt>
      <trkpt lat="37.17785666666666" lon="-7.353468333333334">
        <ele>51.89999999999993</ele>
        <time>2013-05-02T18:38:28.18</time>
      </trkpt>
      <trkpt lat="37.17789333333333" lon="-7.3534">
        <ele>51.59999999999993</ele>
        <time>2013-05-02T18:38:29.18</time>
      </trkpt>
      <trkpt lat="37.177926666666664" lon="-7.3533333333333335">
        <ele>51.59999999999993</ele>
        <time>2013-05-02T18:38:30.16</time>
      </trkpt>
      <trkpt lat="37.177958333333336" lon="-7.353261666666667">
        <ele>52.09999999999993</ele>
        <time>2013-05-02T18:38:31.16</time>
      </trkpt>
      <trkpt lat="37.177985" lon="-7.353183333333333">
        <ele>51.89999999999993</ele>
        <time>2013-05-02T18:38:32.16</time>
      </trkpt>
      <trkpt lat="37.17800833333333" lon="-7.353095">
        <ele>51.59999999999993</ele>
        <time>2013-05-02T18:38:33.16</time>
      </trkpt>
      <trkpt lat="37.178016666666664" lon="-7.353013333333333">
        <ele>50.99999999999993</ele>
        <time>2013-05-02T18:38:34.16</time>
      </trkpt>
      <trkpt lat="37.17802666666667" lon="-7.352925">
        <ele>50.89999999999993</ele>
        <time>2013-05-02T18:38:35.16</time>
      </trkpt>
      <trkpt lat="37.178035" lon="-7.352845">
        <ele>50.49999999999993</ele>
        <time>2013-05-02T18:38:36.16</time>
      </trkpt>
      <trkpt lat="37.17805666666667" lon="-7.352763333333334">
        <ele>50.799999999999926</ele>
        <time>2013-05-02T18:38:37.16</time>
      </trkpt>
      <trkpt lat="37.178066666666666" lon="-7.352671666666667">
        <ele>50.199999999999925</ele>
        <time>2013-05-02T18:38:38.16</time>
      </trkpt>
      <trkpt lat="37.17808333333333" lon="-7.3525833333333335">
        <ele>49.799999999999926</ele>
        <time>2013-05-02T18:38:39.16</time>
      </trkpt>
      <trkpt lat="37.17809666666667" lon="-7.352495">
        <ele>49.39999999999993</ele>
        <time>2013-05-02T18:38:40.17</time>
      </trkpt>
      <trkpt lat="37.17812166666667" lon="-7.352413333333334">
        <ele>49.799999999999926</ele>
        <time>2013-05-02T18:38:41.16</time>
      </trkpt>
      <trkpt lat="37.17816" lon="-7.352335">
        <ele>49.699999999999925</ele>
        <time>2013-05-02T18:38:42.16</time>
      </trkpt>
      <trkpt lat="37.17820833333333" lon="-7.35227">
        <ele>49.59999999999992</ele>
        <time>2013-05-02T18:38:43.16</time>
      </trkpt>
      <trkpt lat="37.17825333333333" lon="-7.352198333333333">
        <ele>49.49999999999992</ele>
        <time>2013-05-02T18:38:44.20</time>
      </trkpt>
      <trkpt lat="37.178306666666664" lon="-7.352138333333333">
        <ele>49.49999999999992</ele>
        <time>2013-05-02T18:38:45.16</time>
      </trkpt>
      <trkpt lat="37.17834333333333" lon="-7.352075">
        <ele>49.79999999999992</ele>
        <time>2013-05-02T18:38:46.16</time>
      </trkpt>
      <trkpt lat="37.17839166666667" lon="-7.352016666666667">
        <ele>49.79999999999992</ele>
        <time>2013-05-02T18:38:47.16</time>
      </trkpt>
      <trkpt lat="37.178428333333336" lon="-7.351953333333333">
        <ele>49.79999999999992</ele>
        <time>2013-05-02T18:38:48.16</time>
      </trkpt>
      <trkpt lat="37.178486666666664" lon="-7.3519">
        <ele>49.89999999999992</ele>
        <time>2013-05-02T18:38:49.17</time>
      </trkpt>
      <trkpt lat="37.17852" lon="-7.351841666666667">
        <ele>49.79999999999992</ele>
        <time>2013-05-02T18:38:50.16</time>
      </trkpt>
      <trkpt lat="37.17856166666667" lon="-7.351773333333333">
        <ele>49.99999999999992</ele>
        <time>2013-05-02T18:38:51.17</time>
      </trkpt>
      <trkpt lat="37.178621666666665" lon="-7.351706666666667">
        <ele>49.199999999999925</ele>
        <time>2013-05-02T18:38:52.16</time>
      </trkpt>
      <trkpt lat="37.17867" lon="-7.35164">
        <ele>49.49999999999992</ele>
        <time>2013-05-02T18:38:53.16</time>
      </trkpt>
      <trkpt lat="37.178715" lon="-7.351571666666667">
        <ele>50.89999999999992</ele>
        <time>2013-05-02T18:38:54.16</time>
      </trkpt>
      <trkpt lat="37.17876666666667" lon="-7.351506666666666">
        <ele>49.99999999999992</ele>
        <time>2013-05-02T18:38:55.16</time>
      </trkpt>
      <trkpt lat="37.178815" lon="-7.35144">
        <ele>49.99999999999992</ele>
        <time>2013-05-02T18:38:56.16</time>
      </trkpt>
      <trkpt lat="37.178868333333334" lon="-7.351375">
        <ele>49.39999999999992</ele>
        <time>2013-05-02T18:38:57.16</time>
      </trkpt>
      <trkpt lat="37.178913333333334" lon="-7.351308333333333">
        <ele>49.09999999999992</ele>
        <time>2013-05-02T18:38:58.16</time>
      </trkpt>
      <trkpt lat="37.17895333333333" lon="-7.351248333333333">
        <ele>48.799999999999926</ele>
        <time>2013-05-02T18:38:59.16</time>
      </trkpt>
      <trkpt lat="37.178995" lon="-7.351185">
        <ele>49.199999999999925</ele>
        <time>2013-05-02T18:39:00.19</time>
      </trkpt>
      <trkpt lat="37.17903833333333" lon="-7.351123333333334">
        <ele>49.59999999999992</ele>
        <time>2013-05-02T18:39:01.15</time>
      </trkpt>
      <trkpt lat="37.17908" lon="-7.3510583333333335">
        <ele>49.799999999999926</ele>
        <time>2013-05-02T18:39:02.16</time>
      </trkpt>
      <trkpt lat="37.179116666666665" lon="-7.35098">
        <ele>51.09999999999992</ele>
        <time>2013-05-02T18:39:03.16</time>
      </trkpt>
      <trkpt lat="37.17916666666667" lon="-7.350923333333333">
        <ele>51.09999999999992</ele>
        <time>2013-05-02T18:39:04.16</time>
      </trkpt>
      <trkpt lat="37.17922" lon="-7.3508716666666665">
        <ele>51.299999999999926</ele>
        <time>2013-05-02T18:39:05.16</time>
      </trkpt>
      <trkpt lat="37.179273333333335" lon="-7.350818333333334">
        <ele>51.09999999999992</ele>
        <time>2013-05-02T18:39:06.16</time>
      </trkpt>
      <trkpt lat="37.179318333333335" lon="-7.350758333333333">
        <ele>51.39999999999992</ele>
        <time>2013-05-02T18:39:07.16</time>
      </trkpt>
      <trkpt lat="37.17937" lon="-7.3507">
        <ele>51.09999999999992</ele>
        <time>2013-05-02T18:39:08.16</time>
      </trkpt>
      <trkpt lat="37.17941833333333" lon="-7.350643333333333">
        <ele>50.99999999999992</ele>
        <time>2013-05-02T18:39:09.16</time>
      </trkpt>
      <trkpt lat="37.17946166666667" lon="-7.350578333333333">
        <ele>50.89999999999992</ele>
        <time>2013-05-02T18:39:10.16</time>
      </trkpt>
      <trkpt lat="37.179505" lon="-7.350516666666667">
        <ele>50.59999999999992</ele>
        <time>2013-05-02T18:39:11.16</time>
      </trkpt>
      <trkpt lat="37.17955166666667" lon="-7.350461666666667">
        <ele>50.99999999999992</ele>
        <time>2013-05-02T18:39:12.16</time>
      </trkpt>
      <trkpt lat="37.17959833333333" lon="-7.350408333333333">
        <ele>51.199999999999925</ele>
        <time>2013-05-02T18:39:13.16</time>
      </trkpt>
      <trkpt lat="37.17965" lon="-7.350345">
        <ele>51.299999999999926</ele>
        <time>2013-05-02T18:39:14.16</time>
      </trkpt>
      <trkpt lat="37.179698333333334" lon="-7.350288333333333">
        <ele>51.699999999999925</ele>
        <time>2013-05-02T18:39:15.16</time>
      </trkpt>
      <trkpt lat="37.179745" lon="-7.350225">
        <ele>51.89999999999993</ele>
        <time>2013-05-02T18:39:16.16</time>
      </trkpt>
      <trkpt lat="37.17978333333333" lon="-7.350158333333333">
        <ele>51.799999999999926</ele>
        <time>2013-05-02T18:39:17.16</time>
      </trkpt>
      <trkpt lat="37.17981833333333" lon="-7.350091666666667">
        <ele>51.49999999999993</ele>
        <time>2013-05-02T18:39:18.15</time>
      </trkpt>
      <trkpt lat="37.179856666666666" lon="-7.350023333333334">
        <ele>51.799999999999926</ele>
        <time>2013-05-02T18:39:19.17</time>
      </trkpt>
      <trkpt lat="37.17989" lon="-7.349955">
        <ele>52.39999999999993</ele>
        <time>2013-05-02T18:39:20.17</time>
      </trkpt>
      <trkpt lat="37.17993" lon="-7.349885">
        <ele>52.59999999999993</ele>
        <time>2013-05-02T18:39:21.16</time>
      </trkpt>
      <trkpt lat="37.179966666666665" lon="-7.34982">
        <ele>52.99999999999993</ele>
        <time>2013-05-02T18:39:22.15</time>
      </trkpt>
      <trkpt lat="37.180006666666664" lon="-7.349758333333333">
        <ele>52.89999999999993</ele>
        <time>2013-05-02T18:39:23.16</time>
      </trkpt>
      <trkpt lat="37.18004833333333" lon="-7.349688333333333">
        <ele>52.799999999999926</ele>
        <time>2013-05-02T18:39:24.16</time>
      </trkpt>
      <trkpt lat="37.18009166666667" lon="-7.349625">
        <ele>52.799999999999926</ele>
        <time>2013-05-02T18:39:25.15</time>
      </trkpt>
      <trkpt lat="37.18013166666667" lon="-7.349558333333333">
        <ele>52.799999999999926</ele>
        <time>2013-05-02T18:39:26.15</time>
      </trkpt>
      <trkpt lat="37.18017" lon="-7.3494866666666665">
        <ele>52.99999999999993</ele>
        <time>2013-05-02T18:39:27.16</time>
      </trkpt>
      <trkpt lat="37.18020833333333" lon="-7.349415">
        <ele>52.89999999999993</ele>
        <time>2013-05-02T18:39:28.16</time>
      </trkpt>
      <trkpt lat="37.18024166666667" lon="-7.34934">
        <ele>53.199999999999925</ele>
        <time>2013-05-02T18:39:29.16</time>
      </trkpt>
      <trkpt lat="37.18028" lon="-7.349263333333333">
        <ele>52.99999999999992</ele>
        <time>2013-05-02T18:39:30.15</time>
      </trkpt>
      <trkpt lat="37.180321666666664" lon="-7.349186666666666">
        <ele>52.99999999999992</ele>
        <time>2013-05-02T18:39:31.16</time>
      </trkpt>
      <trkpt lat="37.180348333333335" lon="-7.349096666666667">
        <ele>52.699999999999925</ele>
        <time>2013-05-02T18:39:32.23</time>
      </trkpt>
      <trkpt lat="37.180375" lon="-7.349018333333333">
        <ele>52.799999999999926</ele>
        <time>2013-05-02T18:39:33.19</time>
      </trkpt>
      <trkpt lat="37.180416666666666" lon="-7.348931666666667">
        <ele>52.799999999999926</ele>
        <time>2013-05-02T18:39:34.22</time>
      </trkpt>
      <trkpt lat="37.18045166666667" lon="-7.34886">
        <ele>52.99999999999993</ele>
        <time>2013-05-02T18:39:35.15</time>
      </trkpt>
      <trkpt lat="37.18049833333333" lon="-7.348785">
        <ele>52.49999999999993</ele>
        <time>2013-05-02T18:39:36.15</time>
      </trkpt>
      <trkpt lat="37.18053333333334" lon="-7.348713333333333">
        <ele>52.799999999999926</ele>
        <time>2013-05-02T18:39:37.16</time>
      </trkpt>
      <trkpt lat="37.180571666666665" lon="-7.348638333333334">
        <ele>52.99999999999993</ele>
        <time>2013-05-02T18:39:38.15</time>
      </trkpt>
      <trkpt lat="37.18062833333333" lon="-7.34858">
        <ele>51.69999999999993</ele>
        <time>2013-05-02T18:39:39.16</time>
      </trkpt>
      <trkpt lat="37.18067833333333" lon="-7.348508333333333">
        <ele>52.09999999999993</ele>
        <time>2013-05-02T18:39:40.16</time>
      </trkpt>
      <trkpt lat="37.180746666666664" lon="-7.348456666666666">
        <ele>51.79999999999993</ele>
        <time>2013-05-02T18:39:41.16</time>
      </trkpt>
      <trkpt lat="37.180805" lon="-7.348393333333333">
        <ele>51.59999999999993</ele>
        <time>2013-05-02T18:39:42.16</time>
      </trkpt>
      <trkpt lat="37.18086" lon="-7.348331666666667">
        <ele>51.49999999999993</ele>
        <time>2013-05-02T18:39:43.22</time>
      </trkpt>
      <trkpt lat="37.180908333333335" lon="-7.348265">
        <ele>50.49999999999993</ele>
        <time>2013-05-02T18:39:44.16</time>
      </trkpt>
      <trkpt lat="37.180958333333336" lon="-7.348198333333333">
        <ele>50.89999999999993</ele>
        <time>2013-05-02T18:39:45.16</time>
      </trkpt>
      <trkpt lat="37.18100666666667" lon="-7.34813">
        <ele>50.799999999999926</ele>
        <time>2013-05-02T18:39:46.16</time>
      </trkpt>
      <trkpt lat="37.181055" lon="-7.348058333333333">
        <ele>51.09999999999992</ele>
        <time>2013-05-02T18:39:47.16</time>
      </trkpt>
      <trkpt lat="37.181095" lon="-7.347996666666667">
        <ele>50.699999999999925</ele>
        <time>2013-05-02T18:39:48.17</time>
      </trkpt>
      <trkpt lat="37.18114166666667" lon="-7.347928333333333">
        <ele>50.39999999999993</ele>
        <time>2013-05-02T18:39:49.16</time>
      </trkpt>
      <trkpt lat="37.18118833333333" lon="-7.347855">
        <ele>49.699999999999925</ele>
        <time>2013-05-02T18:39:50.19</time>
      </trkpt>
      <trkpt lat="37.18123166666667" lon="-7.34779">
        <ele>48.99999999999992</ele>
        <time>2013-05-02T18:39:51.16</time>
      </trkpt>
      <trkpt lat="37.181288333333335" lon="-7.347721666666667">
        <ele>50.39999999999992</ele>
        <time>2013-05-02T18:39:52.15</time>
      </trkpt>
      <trkpt lat="37.181331666666665" lon="-7.347648333333333">
        <ele>50.59999999999992</ele>
        <time>2013-05-02T18:39:53.16</time>
      </trkpt>
      <trkpt lat="37.181365" lon="-7.3475633333333334">
        <ele>51.39999999999992</ele>
        <time>2013-05-02T18:39:54.16</time>
      </trkpt>
      <trkpt lat="37.1814" lon="-7.347473333333333">
        <ele>51.39999999999992</ele>
        <time>2013-05-02T18:39:55.16</time>
      </trkpt>
      <trkpt lat="37.181435" lon="-7.347388333333333">
        <ele>51.29999999999992</ele>
        <time>2013-05-02T18:39:56.16</time>
      </trkpt>
      <trkpt lat="37.181465" lon="-7.3473">
        <ele>51.19999999999992</ele>
        <time>2013-05-02T18:39:57.16</time>
      </trkpt>
      <trkpt lat="37.181495" lon="-7.3472116666666665">
        <ele>51.39999999999992</ele>
        <time>2013-05-02T18:39:58.16</time>
      </trkpt>
      <trkpt lat="37.18152166666667" lon="-7.34713">
        <ele>51.29999999999992</ele>
        <time>2013-05-02T18:39:59.16</time>
      </trkpt>
      <trkpt lat="37.18154833333333" lon="-7.347045">
        <ele>50.89999999999992</ele>
        <time>2013-05-02T18:40:00.14</time>
      </trkpt>
      <trkpt lat="37.18158" lon="-7.34696">
        <ele>50.99999999999992</ele>
        <time>2013-05-02T18:40:01.15</time>
      </trkpt>
      <trkpt lat="37.18161" lon="-7.346875">
        <ele>51.29999999999992</ele>
        <time>2013-05-02T18:40:02.15</time>
      </trkpt>
      <trkpt lat="37.18164" lon="-7.346785">
        <ele>51.79999999999992</ele>
        <time>2013-05-02T18:40:03.16</time>
      </trkpt>
      <trkpt lat="37.18167" lon="-7.346696666666666">
        <ele>51.79999999999992</ele>
        <time>2013-05-02T18:40:04.16</time>
      </trkpt>
      <trkpt lat="37.18169666666667" lon="-7.346616666666667">
        <ele>51.69999999999992</ele>
        <time>2013-05-02T18:40:05.16</time>
      </trkpt>
      <trkpt lat="37.18172" lon="-7.3465316666666665">
        <ele>52.499999999999915</ele>
        <time>2013-05-02T18:40:06.16</time>
      </trkpt>
      <trkpt lat="37.181735" lon="-7.346438333333333">
        <ele>52.69999999999992</ele>
        <time>2013-05-02T18:40:07.16</time>
      </trkpt>
      <trkpt lat="37.18176" lon="-7.346348333333333">
        <ele>52.39999999999992</ele>
        <time>2013-05-02T18:40:08.16</time>
      </trkpt>
      <trkpt lat="37.181783333333335" lon="-7.346263333333333">
        <ele>52.69999999999992</ele>
        <time>2013-05-02T18:40:09.16</time>
      </trkpt>
      <trkpt lat="37.18181166666667" lon="-7.346176666666667">
        <ele>52.499999999999915</ele>
        <time>2013-05-02T18:40:10.16</time>
      </trkpt>
      <trkpt lat="37.181845" lon="-7.346085">
        <ele>51.499999999999915</ele>
        <time>2013-05-02T18:40:11.16</time>
      </trkpt>
      <trkpt lat="37.18187666666667" lon="-7.346">
        <ele>51.29999999999991</ele>
        <time>2013-05-02T18:40:12.16</time>
      </trkpt>
      <trkpt lat="37.18190666666667" lon="-7.34592">
        <ele>51.19999999999991</ele>
        <time>2013-05-02T18:40:13.16</time>
      </trkpt>
      <trkpt lat="37.18194" lon="-7.345836666666667">
        <ele>51.69999999999991</ele>
        <time>2013-05-02T18:40:14.16</time>
      </trkpt>
      <trkpt lat="37.181976666666664" lon="-7.345755">
        <ele>51.79999999999991</ele>
        <time>2013-05-02T18:40:15.16</time>
      </trkpt>
      <trkpt lat="37.182015" lon="-7.34568">
        <ele>51.89999999999991</ele>
        <time>2013-05-02T18:40:16.16</time>
      </trkpt>
      <trkpt lat="37.182046666666665" lon="-7.345596666666666">
        <ele>52.19999999999991</ele>
        <time>2013-05-02T18:40:17.16</time>
      </trkpt>
      <trkpt lat="37.182075" lon="-7.345505">
        <ele>52.19999999999991</ele>
        <time>2013-05-02T18:40:18.16</time>
      </trkpt>
      <trkpt lat="37.1821" lon="-7.345413333333333">
        <ele>51.79999999999991</ele>
        <time>2013-05-02T18:40:19.16</time>
      </trkpt>
      <trkpt lat="37.18213333333333" lon="-7.345325">
        <ele>52.09999999999991</ele>
        <time>2013-05-02T18:40:20.16</time>
      </trkpt>
      <trkpt lat="37.18216" lon="-7.34524">
        <ele>52.29999999999991</ele>
        <time>2013-05-02T18:40:21.16</time>
      </trkpt>
      <trkpt lat="37.182188333333336" lon="-7.345153333333333">
        <ele>52.19999999999991</ele>
        <time>2013-05-02T18:40:22.16</time>
      </trkpt>
      <trkpt lat="37.18221" lon="-7.345073333333334">
        <ele>52.49999999999991</ele>
        <time>2013-05-02T18:40:23.16</time>
      </trkpt>
      <trkpt lat="37.18223833333333" lon="-7.344986666666666">
        <ele>52.69999999999991</ele>
        <time>2013-05-02T18:40:24.16</time>
      </trkpt>
      <trkpt lat="37.18227" lon="-7.344908333333334">
        <ele>52.99999999999991</ele>
        <time>2013-05-02T18:40:25.16</time>
      </trkpt>
      <trkpt lat="37.182291666666664" lon="-7.344825">
        <ele>53.19999999999991</ele>
        <time>2013-05-02T18:40:26.16</time>
      </trkpt>
      <trkpt lat="37.182315" lon="-7.344741666666667">
        <ele>53.19999999999991</ele>
        <time>2013-05-02T18:40:27.16</time>
      </trkpt>
      <trkpt lat="37.18234666666667" lon="-7.344655">
        <ele>53.89999999999991</ele>
        <time>2013-05-02T18:40:28.16</time>
      </trkpt>
      <trkpt lat="37.18238" lon="-7.344575">
        <ele>53.69999999999991</ele>
        <time>2013-05-02T18:40:29.16</time>
      </trkpt>
      <trkpt lat="37.182406666666665" lon="-7.344501666666667">
        <ele>53.99999999999991</ele>
        <time>2013-05-02T18:40:30.16</time>
      </trkpt>
      <trkpt lat="37.182433333333336" lon="-7.344425">
        <ele>54.399999999999906</ele>
        <time>2013-05-02T18:40:31.16</time>
      </trkpt>
      <trkpt lat="37.18244333333333" lon="-7.344375">
        <ele>54.59999999999991</ele>
        <time>2013-05-02T18:40:32.15</time>
      </trkpt>
      <trkpt lat="37.18246" lon="-7.344336666666667">
        <ele>54.79999999999991</ele>
        <time>2013-05-02T18:40:33.16</time>
      </trkpt>
      <trkpt lat="37.18248" lon="-7.344306666666666">
        <ele>55.29999999999991</ele>
        <time>2013-05-02T18:40:34.16</time>
      </trkpt>
      <trkpt lat="37.18248833333333" lon="-7.34427">
        <ele>54.8</ele>
        <time>2013-05-02T18:40:37.18</time>
      </trkpt>
      <trkpt lat="37.1825" lon="-7.344228333333334">
        <ele>55</ele>
        <time>2013-05-02T18:40:38.15</time>
      </trkpt>
      <trkpt lat="37.18250666666667" lon="-7.344186666666666">
        <ele>54.1</ele>
        <time>2013-05-02T18:40:39.16</time>
      </trkpt>
      <trkpt lat="37.18253" lon="-7.344135">
        <ele>54</ele>
        <time>2013-05-02T18:40:40.16</time>
      </trkpt>
      <trkpt lat="37.18254666666667" lon="-7.344076666666667">
        <ele>53.7</ele>
        <time>2013-05-02T18:40:41.16</time>
      </trkpt>
      <trkpt lat="37.18256" lon="-7.344026666666666">
        <ele>54.1</ele>
        <time>2013-05-02T18:40:42.15</time>
      </trkpt>
      <trkpt lat="37.182581666666664" lon="-7.343975">
        <ele>54</ele>
        <time>2013-05-02T18:40:43.16</time>
      </trkpt>
      <trkpt lat="37.18260333333333" lon="-7.343918333333334">
        <ele>54.7</ele>
        <time>2013-05-02T18:40:44.16</time>
      </trkpt>
      <trkpt lat="37.182625" lon="-7.343846666666667">
        <ele>54.5</ele>
        <time>2013-05-02T18:40:45.15</time>
      </trkpt>
      <trkpt lat="37.182651666666665" lon="-7.343785">
        <ele>54.3</ele>
        <time>2013-05-02T18:40:46.15</time>
      </trkpt>
      <trkpt lat="37.18268" lon="-7.34372">
        <ele>54.4</ele>
        <time>2013-05-02T18:40:47.15</time>
      </trkpt>
      <trkpt lat="37.18270666666667" lon="-7.343656666666667">
        <ele>53.8</ele>
        <time>2013-05-02T18:40:48.16</time>
      </trkpt>
      <trkpt lat="37.18272666666667" lon="-7.343586666666667">
        <ele>53.699999999999996</ele>
        <time>2013-05-02T18:40:49.16</time>
      </trkpt>
      <trkpt lat="37.18275" lon="-7.343515">
        <ele>53.8</ele>
        <time>2013-05-02T18:40:50.16</time>
      </trkpt>
      <trkpt lat="37.18277333333333" lon="-7.343451666666667">
        <ele>54</ele>
        <time>2013-05-02T18:40:51.16</time>
      </trkpt>
      <trkpt lat="37.18280166666667" lon="-7.343388333333333">
        <ele>53.9</ele>
        <time>2013-05-02T18:40:52.16</time>
      </trkpt>
      <trkpt lat="37.182833333333335" lon="-7.343325">
        <ele>53.6</ele>
        <time>2013-05-02T18:40:53.16</time>
      </trkpt>
      <trkpt lat="37.182855" lon="-7.343263333333334">
        <ele>53.2</ele>
        <time>2013-05-02T18:40:54.15</time>
      </trkpt>
      <trkpt lat="37.18286833333333" lon="-7.3432">
        <ele>53.1</ele>
        <time>2013-05-02T18:40:55.15</time>
      </trkpt>
      <trkpt lat="37.18289166666667" lon="-7.343126666666667">
        <ele>53.300000000000004</ele>
        <time>2013-05-02T18:40:56.15</time>
      </trkpt>
      <trkpt lat="37.18291333333333" lon="-7.343056666666667">
        <ele>53.00000000000001</ele>
        <time>2013-05-02T18:40:57.15</time>
      </trkpt>
      <trkpt lat="37.18293666666667" lon="-7.3429883333333335">
        <ele>53.00000000000001</ele>
        <time>2013-05-02T18:40:58.15</time>
      </trkpt>
      <trkpt lat="37.182961666666664" lon="-7.342921666666666">
        <ele>52.800000000000004</ele>
        <time>2013-05-02T18:40:59.16</time>
      </trkpt>
      <trkpt lat="37.182985" lon="-7.34285">
        <ele>52.800000000000004</ele>
        <time>2013-05-02T18:41:00.14</time>
      </trkpt>
      <trkpt lat="37.183031666666665" lon="-7.342805">
        <ele>53.1</ele>
        <time>2013-05-02T18:41:01.16</time>
      </trkpt>
      <trkpt lat="37.183076666666665" lon="-7.342766666666667">
        <ele>53</ele>
        <time>2013-05-02T18:41:02.16</time>
      </trkpt>
      <trkpt lat="37.18311666666666" lon="-7.342721666666667">
        <ele>53</ele>
        <time>2013-05-02T18:41:03.16</time>
      </trkpt>
      <trkpt lat="37.183155" lon="-7.34267">
        <ele>53.1</ele>
        <time>2013-05-02T18:41:04.16</time>
      </trkpt>
      <trkpt lat="37.183193333333335" lon="-7.342613333333333">
        <ele>53.4</ele>
        <time>2013-05-02T18:41:05.16</time>
      </trkpt>
      <trkpt lat="37.183231666666664" lon="-7.342565">
        <ele>53.6</ele>
        <time>2013-05-02T18:41:06.16</time>
      </trkpt>
      <trkpt lat="37.18326833333333" lon="-7.3425183333333335">
        <ele>53.6</ele>
        <time>2013-05-02T18:41:07.16</time>
      </trkpt>
      <trkpt lat="37.183308333333336" lon="-7.34247">
        <ele>53.6</ele>
        <time>2013-05-02T18:41:08.17</time>
      </trkpt>
      <trkpt lat="37.18335" lon="-7.342431666666666">
        <ele>54.1</ele>
        <time>2013-05-02T18:41:09.21</time>
      </trkpt>
      <trkpt lat="37.183385" lon="-7.342395">
        <ele>54.300000000000004</ele>
        <time>2013-05-02T18:41:10.16</time>
      </trkpt>
      <trkpt lat="37.183431666666664" lon="-7.342371666666667">
        <ele>53.900000000000006</ele>
        <time>2013-05-02T18:41:11.16</time>
      </trkpt>
      <trkpt lat="37.18349166666667" lon="-7.342355">
        <ele>52.800000000000004</ele>
        <time>2013-05-02T18:41:12.16</time>
      </trkpt>
      <trkpt lat="37.18353" lon="-7.342295">
        <ele>52.2</ele>
        <time>2013-05-02T18:41:13.16</time>
      </trkpt>
      <trkpt lat="37.18354333333333" lon="-7.34224">
        <ele>52.1</ele>
        <time>2013-05-02T18:41:14.23</time>
      </trkpt>
      <trkpt lat="37.183568333333334" lon="-7.342183333333334">
        <ele>51.9</ele>
        <time>2013-05-02T18:41:15.16</time>
      </trkpt>
      <trkpt lat="37.18359" lon="-7.342115">
        <ele>52.3</ele>
        <time>2013-05-02T18:41:16.16</time>
      </trkpt>
      <trkpt lat="37.183616666666666" lon="-7.3420483333333335">
        <ele>52.199999999999996</ele>
        <time>2013-05-02T18:41:17.16</time>
      </trkpt>
      <trkpt lat="37.183661666666666" lon="-7.34198">
        <ele>52.3</ele>
        <time>2013-05-02T18:41:18.16</time>
      </trkpt>
      <trkpt lat="37.18369166666667" lon="-7.34195">
        <ele>52.5</ele>
        <time>2013-05-02T18:41:19.16</time>
      </trkpt>
      <trkpt lat="37.18373" lon="-7.34197">
        <ele>52.6</ele>
        <time>2013-05-02T18:41:20.16</time>
      </trkpt>
      <trkpt lat="37.18378166666667" lon="-7.342016666666667">
        <ele>53.2</ele>
        <time>2013-05-02T18:41:21.15</time>
      </trkpt>
      <trkpt lat="37.18383166666667" lon="-7.342051666666666">
        <ele>53.6</ele>
        <time>2013-05-02T18:41:22.16</time>
      </trkpt>
      <trkpt lat="37.183888333333336" lon="-7.342086666666667">
        <ele>53.4</ele>
        <time>2013-05-02T18:41:23.16</time>
      </trkpt>
      <trkpt lat="37.18394166666667" lon="-7.34209">
        <ele>53.6</ele>
        <time>2013-05-02T18:41:24.16</time>
      </trkpt>
      <trkpt lat="37.18399333333333" lon="-7.342116666666667">
        <ele>53.4</ele>
        <time>2013-05-02T18:41:25.16</time>
      </trkpt>
      <trkpt lat="37.18402833333333" lon="-7.3421666666666665">
        <ele>54</ele>
        <time>2013-05-02T18:41:26.15</time>
      </trkpt>
      <trkpt lat="37.184075" lon="-7.342233333333334">
        <ele>53.9</ele>
        <time>2013-05-02T18:41:27.16</time>
      </trkpt>
      <trkpt lat="37.18414166666667" lon="-7.342295">
        <ele>53.5</ele>
        <time>2013-05-02T18:41:28.16</time>
      </trkpt>
      <trkpt lat="37.18418166666667" lon="-7.3423766666666666">
        <ele>53.8</ele>
        <time>2013-05-02T18:41:29.16</time>
      </trkpt>
      <trkpt lat="37.18422833333333" lon="-7.342456666666667">
        <ele>53.599999999999994</ele>
        <time>2013-05-02T18:41:30.15</time>
      </trkpt>
      <trkpt lat="37.184243333333335" lon="-7.342536666666667">
        <ele>53.99999999999999</ele>
        <time>2013-05-02T18:41:31.16</time>
      </trkpt>
      <trkpt lat="37.184285" lon="-7.342581666666667">
        <ele>54.699999999999996</ele>
        <time>2013-05-02T18:41:32.15</time>
      </trkpt>
      <trkpt lat="37.18434666666667" lon="-7.342606666666667">
        <ele>55.199999999999996</ele>
        <time>2013-05-02T18:41:33.16</time>
      </trkpt>
      <trkpt lat="37.18441166666667" lon="-7.34263">
        <ele>55.3</ele>
        <time>2013-05-02T18:41:34.15</time>
      </trkpt>
      <trkpt lat="37.184461666666664" lon="-7.34261">
        <ele>55.699999999999996</ele>
        <time>2013-05-02T18:41:35.16</time>
      </trkpt>
      <trkpt lat="37.184515" lon="-7.3426116666666665">
        <ele>55.99999999999999</ele>
        <time>2013-05-02T18:41:36.16</time>
      </trkpt>
      <trkpt lat="37.18457" lon="-7.342626666666667">
        <ele>55.599999999999994</ele>
        <time>2013-05-02T18:41:37.15</time>
      </trkpt>
      <trkpt lat="37.184646666666666" lon="-7.342653333333334">
        <ele>55.199999999999996</ele>
        <time>2013-05-02T18:41:38.16</time>
      </trkpt>
      <trkpt lat="37.18472666666667" lon="-7.342705">
        <ele>55.599999999999994</ele>
        <time>2013-05-02T18:41:39.16</time>
      </trkpt>
      <trkpt lat="37.184805" lon="-7.342763333333333">
        <ele>55.699999999999996</ele>
        <time>2013-05-02T18:41:40.17</time>
      </trkpt>
      <trkpt lat="37.184835" lon="-7.34284">
        <ele>56.099999999999994</ele>
        <time>2013-05-02T18:41:41.17</time>
      </trkpt>
      <trkpt lat="37.18486" lon="-7.342925">
        <ele>56.39999999999999</ele>
        <time>2013-05-02T18:41:42.15</time>
      </trkpt>
      <trkpt lat="37.184853333333336" lon="-7.343015">
        <ele>55.29999999999999</ele>
        <time>2013-05-02T18:41:43.16</time>
      </trkpt>
      <trkpt lat="37.184848333333335" lon="-7.34309">
        <ele>54.59999999999999</ele>
        <time>2013-05-02T18:41:44.16</time>
      </trkpt>
      <trkpt lat="37.18485666666667" lon="-7.343161666666667">
        <ele>54.79999999999999</ele>
        <time>2013-05-02T18:41:45.15</time>
      </trkpt>
      <trkpt lat="37.184918333333336" lon="-7.343196666666667">
        <ele>53.29999999999999</ele>
        <time>2013-05-02T18:41:46.15</time>
      </trkpt>
      <trkpt lat="37.184965" lon="-7.343238333333334">
        <ele>53.39999999999999</ele>
        <time>2013-05-02T18:41:47.16</time>
      </trkpt>
      <trkpt lat="37.18502" lon="-7.343278333333333">
        <ele>53.49999999999999</ele>
        <time>2013-05-02T18:41:48.16</time>
      </trkpt>
      <trkpt lat="37.185068333333334" lon="-7.343343333333333">
        <ele>53.89999999999999</ele>
        <time>2013-05-02T18:41:49.16</time>
      </trkpt>
      <trkpt lat="37.1851" lon="-7.3434083333333335">
        <ele>53.79999999999999</ele>
        <time>2013-05-02T18:41:50.16</time>
      </trkpt>
      <trkpt lat="37.185143333333336" lon="-7.343461666666666">
        <ele>52.69999999999999</ele>
        <time>2013-05-02T18:41:51.15</time>
      </trkpt>
      <trkpt lat="37.18516666666667" lon="-7.343536666666667">
        <ele>52.59999999999999</ele>
        <time>2013-05-02T18:41:52.16</time>
      </trkpt>
      <trkpt lat="37.18519666666667" lon="-7.343601666666666">
        <ele>51.59999999999999</ele>
        <time>2013-05-02T18:41:53.16</time>
      </trkpt>
      <trkpt lat="37.18523" lon="-7.343666666666667">
        <ele>51.09999999999999</ele>
        <time>2013-05-02T18:41:54.16</time>
      </trkpt>
      <trkpt lat="37.185271666666665" lon="-7.343735">
        <ele>50.899999999999984</ele>
        <time>2013-05-02T18:41:55.16</time>
      </trkpt>
      <trkpt lat="37.185311666666664" lon="-7.343796666666667">
        <ele>50.59999999999999</ele>
        <time>2013-05-02T18:41:56.20</time>
      </trkpt>
      <trkpt lat="37.18537333333333" lon="-7.343841666666667">
        <ele>51.09999999999999</ele>
        <time>2013-05-02T18:41:57.16</time>
      </trkpt>
      <trkpt lat="37.185426666666665" lon="-7.343876666666667">
        <ele>50.999999999999986</ele>
        <time>2013-05-02T18:41:58.15</time>
      </trkpt>
      <trkpt lat="37.18548" lon="-7.343906666666666">
        <ele>51.499999999999986</ele>
        <time>2013-05-02T18:41:59.16</time>
      </trkpt>
      <trkpt lat="37.18554" lon="-7.343918333333334">
        <ele>51.59999999999999</ele>
        <time>2013-05-02T18:42:00.13</time>
      </trkpt>
      <trkpt lat="37.1856" lon="-7.343913333333333">
        <ele>51.999999999999986</ele>
        <time>2013-05-02T18:42:01.15</time>
      </trkpt>
      <trkpt lat="37.185675" lon="-7.343916666666667">
        <ele>52.399999999999984</ele>
        <time>2013-05-02T18:42:02.22</time>
      </trkpt>
      <trkpt lat="37.18573" lon="-7.343915">
        <ele>52.29999999999998</ele>
        <time>2013-05-02T18:42:03.16</time>
      </trkpt>
      <trkpt lat="37.18580166666667" lon="-7.34391">
        <ele>52.29999999999998</ele>
        <time>2013-05-02T18:42:04.16</time>
      </trkpt>
      <trkpt lat="37.18588333333334" lon="-7.343913333333333">
        <ele>52.499999999999986</ele>
        <time>2013-05-02T18:42:05.16</time>
      </trkpt>
      <trkpt lat="37.18595166666667" lon="-7.343906666666666">
        <ele>52.499999999999986</ele>
        <time>2013-05-02T18:42:06.16</time>
      </trkpt>
      <trkpt lat="37.186015" lon="-7.343908333333333">
        <ele>52.79999999999998</ele>
        <time>2013-05-02T18:42:07.16</time>
      </trkpt>
      <trkpt lat="37.186098333333334" lon="-7.343896666666667">
        <ele>52.999999999999986</ele>
        <time>2013-05-02T18:42:08.16</time>
      </trkpt>
      <trkpt lat="37.18615166666667" lon="-7.3439">
        <ele>52.999999999999986</ele>
        <time>2013-05-02T18:42:09.16</time>
      </trkpt>
      <trkpt lat="37.186211666666665" lon="-7.343886666666666">
        <ele>53.19999999999999</ele>
        <time>2013-05-02T18:42:10.15</time>
      </trkpt>
      <trkpt lat="37.18626666666667" lon="-7.3438783333333335">
        <ele>53.19999999999999</ele>
        <time>2013-05-02T18:42:11.16</time>
      </trkpt>
      <trkpt lat="37.18633666666667" lon="-7.343873333333334">
        <ele>53.19999999999999</ele>
        <time>2013-05-02T18:42:12.16</time>
      </trkpt>
      <trkpt lat="37.186395" lon="-7.343863333333333">
        <ele>53.19999999999999</ele>
        <time>2013-05-02T18:42:13.17</time>
      </trkpt>
      <trkpt lat="37.18645166666666" lon="-7.343873333333334">
        <ele>53.19999999999999</ele>
        <time>2013-05-02T18:42:14.17</time>
      </trkpt>
      <trkpt lat="37.186521666666664" lon="-7.343876666666667">
        <ele>53.19999999999999</ele>
        <time>2013-05-02T18:42:15.17</time>
      </trkpt>
      <trkpt lat="37.18658" lon="-7.343895">
        <ele>53.19999999999999</ele>
        <time>2013-05-02T18:42:16.15</time>
      </trkpt>
      <trkpt lat="37.18664666666667" lon="-7.343921666666667">
        <ele>53.29999999999999</ele>
        <time>2013-05-02T18:42:17.16</time>
      </trkpt>
      <trkpt lat="37.186705" lon="-7.34394">
        <ele>53.39999999999999</ele>
        <time>2013-05-02T18:42:18.16</time>
      </trkpt>
      <trkpt lat="37.186775" lon="-7.343966666666667">
        <ele>53.599999999999994</ele>
        <time>2013-05-02T18:42:19.16</time>
      </trkpt>
      <trkpt lat="37.186838333333334" lon="-7.343983333333333">
        <ele>53.3</ele>
        <time>2013-05-02T18:42:20.16</time>
      </trkpt>
      <trkpt lat="37.18691" lon="-7.3439966666666665">
        <ele>53.5</ele>
        <time>2013-05-02T18:42:21.16</time>
      </trkpt>
      <trkpt lat="37.18696833333333" lon="-7.34402">
        <ele>53.5</ele>
        <time>2013-05-02T18:42:22.16</time>
      </trkpt>
      <trkpt lat="37.187036666666664" lon="-7.344046666666666">
        <ele>53.8</ele>
        <time>2013-05-02T18:42:23.16</time>
      </trkpt>
      <trkpt lat="37.18709333333334" lon="-7.34406">
        <ele>53.5</ele>
        <time>2013-05-02T18:42:24.16</time>
      </trkpt>
      <trkpt lat="37.187153333333335" lon="-7.344083333333334">
        <ele>53.3</ele>
        <time>2013-05-02T18:42:25.16</time>
      </trkpt>
      <trkpt lat="37.187221666666666" lon="-7.344105">
        <ele>52.8</ele>
        <time>2013-05-02T18:42:26.15</time>
      </trkpt>
      <trkpt lat="37.18727833333333" lon="-7.34414">
        <ele>53.099999999999994</ele>
        <time>2013-05-02T18:42:27.16</time>
      </trkpt>
      <trkpt lat="37.18733" lon="-7.344188333333333">
        <ele>53.3</ele>
        <time>2013-05-02T18:42:28.18</time>
      </trkpt>
      <trkpt lat="37.18738833333333" lon="-7.344223333333334">
        <ele>53.4</ele>
        <time>2013-05-02T18:42:29.18</time>
      </trkpt>
      <trkpt lat="37.187448333333336" lon="-7.344258333333333">
        <ele>53.3</ele>
        <time>2013-05-02T18:42:30.15</time>
      </trkpt>
      <trkpt lat="37.18751666666667" lon="-7.344275">
        <ele>53.199999999999996</ele>
        <time>2013-05-02T18:42:31.16</time>
      </trkpt>
      <trkpt lat="37.187585" lon="-7.344283333333333">
        <ele>53.49999999999999</ele>
        <time>2013-05-02T18:42:32.16</time>
      </trkpt>
      <trkpt lat="37.187645" lon="-7.3442783333333335">
        <ele>53.599999999999994</ele>
        <time>2013-05-02T18:42:33.16</time>
      </trkpt>
      <trkpt lat="37.187705" lon="-7.3442783333333335">
        <ele>53.699999999999996</ele>
        <time>2013-05-02T18:42:34.16</time>
      </trkpt>
      <trkpt lat="37.187763333333336" lon="-7.344288333333333">
        <ele>53.9</ele>
        <time>2013-05-02T18:42:35.16</time>
      </trkpt>
      <trkpt lat="37.18781666666667" lon="-7.344341666666667">
        <ele>53.6</ele>
        <time>2013-05-02T18:42:36.16</time>
      </trkpt>
      <trkpt lat="37.187865" lon="-7.3443966666666665">
        <ele>53.300000000000004</ele>
        <time>2013-05-02T18:42:37.16</time>
      </trkpt>
      <trkpt lat="37.187915" lon="-7.344458333333334">
        <ele>53.1</ele>
        <time>2013-05-02T18:42:38.16</time>
      </trkpt>
      <trkpt lat="37.18795" lon="-7.344538333333333">
        <ele>52.7</ele>
        <time>2013-05-02T18:42:39.16</time>
      </trkpt>
      <trkpt lat="37.18796833333333" lon="-7.344616666666667">
        <ele>52.1</ele>
        <time>2013-05-02T18:42:40.16</time>
      </trkpt>
      <trkpt lat="37.188005" lon="-7.344681666666666">
        <ele>52.4</ele>
        <time>2013-05-02T18:42:41.16</time>
      </trkpt>
      <trkpt lat="37.18805666666667" lon="-7.344738333333333">
        <ele>52.699999999999996</ele>
        <time>2013-05-02T18:42:42.16</time>
      </trkpt>
      <trkpt lat="37.18810166666667" lon="-7.3447933333333335">
        <ele>53.099999999999994</ele>
        <time>2013-05-02T18:42:43.19</time>
      </trkpt>
      <trkpt lat="37.18815" lon="-7.34485">
        <ele>52.99999999999999</ele>
        <time>2013-05-02T18:42:44.16</time>
      </trkpt>
      <trkpt lat="37.18819833333333" lon="-7.344908333333334">
        <ele>53.099999999999994</ele>
        <time>2013-05-02T18:42:45.16</time>
      </trkpt>
      <trkpt lat="37.188246666666664" lon="-7.344965">
        <ele>52.89999999999999</ele>
        <time>2013-05-02T18:42:46.16</time>
      </trkpt>
      <trkpt lat="37.18828833333333" lon="-7.345026666666667">
        <ele>52.79999999999999</ele>
        <time>2013-05-02T18:42:47.16</time>
      </trkpt>
      <trkpt lat="37.188335" lon="-7.345086666666667">
        <ele>52.59999999999999</ele>
        <time>2013-05-02T18:42:48.16</time>
      </trkpt>
      <trkpt lat="37.18837333333333" lon="-7.345153333333333">
        <ele>52.69999999999999</ele>
        <time>2013-05-02T18:42:49.16</time>
      </trkpt>
      <trkpt lat="37.18841833333333" lon="-7.345221666666666">
        <ele>52.89999999999999</ele>
        <time>2013-05-02T18:42:50.16</time>
      </trkpt>
      <trkpt lat="37.18846333333333" lon="-7.3452866666666665">
        <ele>52.69999999999999</ele>
        <time>2013-05-02T18:42:51.16</time>
      </trkpt>
      <trkpt lat="37.18850333333334" lon="-7.345345">
        <ele>52.499999999999986</ele>
        <time>2013-05-02T18:42:52.16</time>
      </trkpt>
      <trkpt lat="37.18854666666667" lon="-7.345401666666667">
        <ele>52.09999999999999</ele>
        <time>2013-05-02T18:42:53.16</time>
      </trkpt>
      <trkpt lat="37.188585" lon="-7.345468333333334">
        <ele>52.499999999999986</ele>
        <time>2013-05-02T18:42:54.15</time>
      </trkpt>
      <trkpt lat="37.188626666666664" lon="-7.345533333333333">
        <ele>52.499999999999986</ele>
        <time>2013-05-02T18:42:55.16</time>
      </trkpt>
      <trkpt lat="37.18866" lon="-7.3455916666666665">
        <ele>52.19999999999999</ele>
        <time>2013-05-02T18:42:56.16</time>
      </trkpt>
      <trkpt lat="37.188696666666665" lon="-7.345653333333333">
        <ele>52.69999999999999</ele>
        <time>2013-05-02T18:42:57.16</time>
      </trkpt>
      <trkpt lat="37.18873" lon="-7.345716666666666">
        <ele>53.499999999999986</ele>
        <time>2013-05-02T18:42:58.16</time>
      </trkpt>
      <trkpt lat="37.188761666666664" lon="-7.345775">
        <ele>53.399999999999984</ele>
        <time>2013-05-02T18:42:59.16</time>
      </trkpt>
      <trkpt lat="37.18879333333334" lon="-7.345835">
        <ele>53.19999999999998</ele>
        <time>2013-05-02T18:43:00.14</time>
      </trkpt>
      <trkpt lat="37.18881833333333" lon="-7.345898333333333">
        <ele>53.19999999999998</ele>
        <time>2013-05-02T18:43:01.16</time>
      </trkpt>
      <trkpt lat="37.18884" lon="-7.345965">
        <ele>53.19999999999998</ele>
        <time>2013-05-02T18:43:02.16</time>
      </trkpt>
      <trkpt lat="37.18886333333333" lon="-7.346026666666667">
        <ele>53.399999999999984</ele>
        <time>2013-05-02T18:43:03.16</time>
      </trkpt>
      <trkpt lat="37.18888666666667" lon="-7.346091666666666">
        <ele>53.499999999999986</ele>
        <time>2013-05-02T18:43:04.16</time>
      </trkpt>
      <trkpt lat="37.188915" lon="-7.34615">
        <ele>53.999999999999986</ele>
        <time>2013-05-02T18:43:05.16</time>
      </trkpt>
      <trkpt lat="37.188935" lon="-7.346213333333333">
        <ele>54.19999999999999</ele>
        <time>2013-05-02T18:43:06.15</time>
      </trkpt>
      <trkpt lat="37.18895166666667" lon="-7.346278333333333">
        <ele>53.59999999999999</ele>
        <time>2013-05-02T18:43:07.16</time>
      </trkpt>
      <trkpt lat="37.188975" lon="-7.346346666666666">
        <ele>53.79999999999999</ele>
        <time>2013-05-02T18:43:08.15</time>
      </trkpt>
      <trkpt lat="37.188988333333334" lon="-7.346411666666667">
        <ele>54.09999999999999</ele>
        <time>2013-05-02T18:43:09.15</time>
      </trkpt>
      <trkpt lat="37.189005" lon="-7.34647">
        <ele>53.399999999999984</ele>
        <time>2013-05-02T18:43:10.15</time>
      </trkpt>
      <trkpt lat="37.18902" lon="-7.34653">
        <ele>53.19999999999998</ele>
        <time>2013-05-02T18:43:11.15</time>
      </trkpt>
      <trkpt lat="37.189038333333336" lon="-7.346581666666666">
        <ele>53.19999999999998</ele>
        <time>2013-05-02T18:43:12.16</time>
      </trkpt>
      <trkpt lat="37.189045" lon="-7.346636666666667">
        <ele>52.899999999999984</ele>
        <time>2013-05-02T18:43:13.16</time>
      </trkpt>
      <trkpt lat="37.189051666666664" lon="-7.346691666666667">
        <ele>52.59999999999999</ele>
        <time>2013-05-02T18:43:14.16</time>
      </trkpt>
      <trkpt lat="37.18906" lon="-7.346745">
        <ele>52.19999999999999</ele>
        <time>2013-05-02T18:43:15.16</time>
      </trkpt>
      <trkpt lat="37.18906833333333" lon="-7.346806666666667">
        <ele>52.19999999999999</ele>
        <time>2013-05-02T18:43:16.20</time>
      </trkpt>
      <trkpt lat="37.189075" lon="-7.346865">
        <ele>51.79999999999999</ele>
        <time>2013-05-02T18:43:17.20</time>
      </trkpt>
      <trkpt lat="37.18909" lon="-7.346921666666667">
        <ele>52.09999999999999</ele>
        <time>2013-05-02T18:43:18.15</time>
      </trkpt>
      <trkpt lat="37.18910666666667" lon="-7.34698">
        <ele>51.899999999999984</ele>
        <time>2013-05-02T18:43:19.15</time>
      </trkpt>
      <trkpt lat="37.18911666666666" lon="-7.347043333333334">
        <ele>51.999999999999986</ele>
        <time>2013-05-02T18:43:20.16</time>
      </trkpt>
      <trkpt lat="37.189121666666665" lon="-7.3471">
        <ele>51.999999999999986</ele>
        <time>2013-05-02T18:43:21.16</time>
      </trkpt>
      <trkpt lat="37.189121666666665" lon="-7.3471633333333335">
        <ele>52.19999999999999</ele>
        <time>2013-05-02T18:43:22.15</time>
      </trkpt>
      <trkpt lat="37.18912666666667" lon="-7.34723">
        <ele>52.39999999999999</ele>
        <time>2013-05-02T18:43:23.16</time>
      </trkpt>
      <trkpt lat="37.18912666666667" lon="-7.347298333333334">
        <ele>52.29999999999999</ele>
        <time>2013-05-02T18:43:24.16</time>
      </trkpt>
      <trkpt lat="37.18914" lon="-7.347356666666666">
        <ele>51.99999999999999</ele>
        <time>2013-05-02T18:43:25.16</time>
      </trkpt>
      <trkpt lat="37.189141666666664" lon="-7.347416666666667">
        <ele>51.49999999999999</ele>
        <time>2013-05-02T18:43:26.16</time>
      </trkpt>
      <trkpt lat="37.189141666666664" lon="-7.347481666666667">
        <ele>51.599999999999994</ele>
        <time>2013-05-02T18:43:27.16</time>
      </trkpt>
      <trkpt lat="37.18913833333333" lon="-7.34755">
        <ele>51.49999999999999</ele>
        <time>2013-05-02T18:43:28.17</time>
      </trkpt>
      <trkpt lat="37.189148333333335" lon="-7.34761">
        <ele>50.99999999999999</ele>
        <time>2013-05-02T18:43:29.16</time>
      </trkpt>
      <trkpt lat="37.18915" lon="-7.347668333333333">
        <ele>51.199999999999996</ele>
        <time>2013-05-02T18:43:30.16</time>
      </trkpt>
      <trkpt lat="37.18916" lon="-7.347728333333333">
        <ele>50.9</ele>
        <time>2013-05-02T18:43:31.16</time>
      </trkpt>
      <trkpt lat="37.18916333333333" lon="-7.34779">
        <ele>51.1</ele>
        <time>2013-05-02T18:43:32.18</time>
      </trkpt>
      <trkpt lat="37.18915333333333" lon="-7.347853333333333">
        <ele>51.300000000000004</ele>
        <time>2013-05-02T18:43:33.18</time>
      </trkpt>
      <trkpt lat="37.18915333333333" lon="-7.347915">
        <ele>51.7</ele>
        <time>2013-05-02T18:43:34.15</time>
      </trkpt>
      <trkpt lat="37.18918166666667" lon="-7.347966666666666">
        <ele>51.7</ele>
        <time>2013-05-02T18:43:35.16</time>
      </trkpt>
      <trkpt lat="37.18918166666667" lon="-7.348033333333333">
        <ele>51.900000000000006</ele>
        <time>2013-05-02T18:43:36.16</time>
      </trkpt>
      <trkpt lat="37.18917166666667" lon="-7.3481">
        <ele>52.300000000000004</ele>
        <time>2013-05-02T18:43:37.16</time>
      </trkpt>
      <trkpt lat="37.189175" lon="-7.348156666666666">
        <ele>52.50000000000001</ele>
        <time>2013-05-02T18:43:38.15</time>
      </trkpt>
      <trkpt lat="37.18917666666667" lon="-7.348208333333333">
        <ele>52.60000000000001</ele>
        <time>2013-05-02T18:43:39.16</time>
      </trkpt>
      <trkpt lat="37.18918333333333" lon="-7.348273333333333">
        <ele>51.60000000000001</ele>
        <time>2013-05-02T18:43:40.16</time>
      </trkpt>
      <trkpt lat="37.18918166666667" lon="-7.34834">
        <ele>50.70000000000001</ele>
        <time>2013-05-02T18:43:41.16</time>
      </trkpt>
      <trkpt lat="37.189191666666666" lon="-7.348408333333333">
        <ele>50.90000000000001</ele>
        <time>2013-05-02T18:43:42.16</time>
      </trkpt>
      <trkpt lat="37.1892" lon="-7.348481666666666">
        <ele>51.30000000000001</ele>
        <time>2013-05-02T18:43:43.16</time>
      </trkpt>
      <trkpt lat="37.189205" lon="-7.348546666666667">
        <ele>51.500000000000014</ele>
        <time>2013-05-02T18:43:44.16</time>
      </trkpt>
      <trkpt lat="37.189206666666664" lon="-7.348616666666667">
        <ele>51.90000000000001</ele>
        <time>2013-05-02T18:43:45.15</time>
      </trkpt>
      <trkpt lat="37.189211666666665" lon="-7.348686666666667">
        <ele>52.000000000000014</ele>
        <time>2013-05-02T18:43:46.15</time>
      </trkpt>
      <trkpt lat="37.189211666666665" lon="-7.3487583333333335">
        <ele>52.100000000000016</ele>
        <time>2013-05-02T18:43:47.15</time>
      </trkpt>
      <trkpt lat="37.18922333333333" lon="-7.3488283333333335">
        <ele>52.40000000000001</ele>
        <time>2013-05-02T18:43:48.16</time>
      </trkpt>
      <trkpt lat="37.189231666666664" lon="-7.348891666666667">
        <ele>52.600000000000016</ele>
        <time>2013-05-02T18:43:49.18</time>
      </trkpt>
      <trkpt lat="37.189235" lon="-7.348965">
        <ele>52.100000000000016</ele>
        <time>2013-05-02T18:43:50.15</time>
      </trkpt>
      <trkpt lat="37.18924" lon="-7.349038333333334">
        <ele>51.80000000000002</ele>
        <time>2013-05-02T18:43:51.16</time>
      </trkpt>
      <trkpt lat="37.189245" lon="-7.349108333333334">
        <ele>51.80000000000002</ele>
        <time>2013-05-02T18:43:52.16</time>
      </trkpt>
      <trkpt lat="37.189251666666664" lon="-7.349183333333333">
        <ele>51.100000000000016</ele>
        <time>2013-05-02T18:43:53.16</time>
      </trkpt>
      <trkpt lat="37.18925333333333" lon="-7.349255">
        <ele>51.20000000000002</ele>
        <time>2013-05-02T18:43:54.15</time>
      </trkpt>
      <trkpt lat="37.18926" lon="-7.3493216666666665">
        <ele>51.500000000000014</ele>
        <time>2013-05-02T18:43:55.16</time>
      </trkpt>
      <trkpt lat="37.18926166666667" lon="-7.349383333333333">
        <ele>51.20000000000002</ele>
        <time>2013-05-02T18:43:56.16</time>
      </trkpt>
      <trkpt lat="37.189265" lon="-7.34945">
        <ele>51.20000000000002</ele>
        <time>2013-05-02T18:43:57.16</time>
      </trkpt>
      <trkpt lat="37.18926" lon="-7.349523333333333">
        <ele>51.500000000000014</ele>
        <time>2013-05-02T18:43:58.16</time>
      </trkpt>
      <trkpt lat="37.18926166666667" lon="-7.34959">
        <ele>51.80000000000001</ele>
        <time>2013-05-02T18:43:59.16</time>
      </trkpt>
      <trkpt lat="37.18927" lon="-7.349676666666666">
        <ele>51.20000000000001</ele>
        <time>2013-05-02T18:44:00.15</time>
      </trkpt>
      <trkpt lat="37.189281666666666" lon="-7.349758333333333">
        <ele>50.90000000000001</ele>
        <time>2013-05-02T18:44:01.15</time>
      </trkpt>
      <trkpt lat="37.189285" lon="-7.349835">
        <ele>50.600000000000016</ele>
        <time>2013-05-02T18:44:02.16</time>
      </trkpt>
      <trkpt lat="37.18928833333333" lon="-7.349905">
        <ele>51.000000000000014</ele>
        <time>2013-05-02T18:44:03.16</time>
      </trkpt>
      <trkpt lat="37.18929166666667" lon="-7.34998">
        <ele>51.20000000000002</ele>
        <time>2013-05-02T18:44:04.16</time>
      </trkpt>
      <trkpt lat="37.18929" lon="-7.350058333333333">
        <ele>51.20000000000002</ele>
        <time>2013-05-02T18:44:05.16</time>
      </trkpt>
      <trkpt lat="37.18929833333333" lon="-7.35013">
        <ele>51.100000000000016</ele>
        <time>2013-05-02T18:44:06.16</time>
      </trkpt>
      <trkpt lat="37.189301666666665" lon="-7.350208333333334">
        <ele>50.90000000000001</ele>
        <time>2013-05-02T18:44:07.16</time>
      </trkpt>
      <trkpt lat="37.18930666666667" lon="-7.350278333333334">
        <ele>51.000000000000014</ele>
        <time>2013-05-02T18:44:08.15</time>
      </trkpt>
      <trkpt lat="37.18931333333333" lon="-7.3503533333333335">
        <ele>50.90000000000001</ele>
        <time>2013-05-02T18:44:09.15</time>
      </trkpt>
      <trkpt lat="37.18931833333333" lon="-7.350426666666666">
        <ele>51.30000000000001</ele>
        <time>2013-05-02T18:44:10.15</time>
      </trkpt>
      <trkpt lat="37.18932" lon="-7.3505">
        <ele>51.10000000000001</ele>
        <time>2013-05-02T18:44:11.16</time>
      </trkpt>
      <trkpt lat="37.189326666666666" lon="-7.350578333333333">
        <ele>50.900000000000006</ele>
        <time>2013-05-02T18:44:12.15</time>
      </trkpt>
      <trkpt lat="37.18933" lon="-7.350661666666666">
        <ele>51.300000000000004</ele>
        <time>2013-05-02T18:44:13.15</time>
      </trkpt>
      <trkpt lat="37.18933666666667" lon="-7.350738333333333">
        <ele>51.1</ele>
        <time>2013-05-02T18:44:14.15</time>
      </trkpt>
      <trkpt lat="37.18934333333333" lon="-7.350815">
        <ele>50.800000000000004</ele>
        <time>2013-05-02T18:44:15.15</time>
      </trkpt>
      <trkpt lat="37.18935333333334" lon="-7.350891666666667">
        <ele>50.50000000000001</ele>
        <time>2013-05-02T18:44:16.16</time>
      </trkpt>
      <trkpt lat="37.18936" lon="-7.350966666666666">
        <ele>50.00000000000001</ele>
        <time>2013-05-02T18:44:17.15</time>
      </trkpt>
      <trkpt lat="37.189365" lon="-7.35104">
        <ele>50.10000000000001</ele>
        <time>2013-05-02T18:44:18.16</time>
      </trkpt>
      <trkpt lat="37.189375" lon="-7.351113333333333">
        <ele>49.900000000000006</ele>
        <time>2013-05-02T18:44:19.16</time>
      </trkpt>
      <trkpt lat="37.18938333333333" lon="-7.351191666666667">
        <ele>50.10000000000001</ele>
        <time>2013-05-02T18:44:20.15</time>
      </trkpt>
      <trkpt lat="37.189385" lon="-7.35127">
        <ele>50.10000000000001</ele>
        <time>2013-05-02T18:44:21.16</time>
      </trkpt>
      <trkpt lat="37.189395" lon="-7.351343333333333">
        <ele>49.70000000000001</ele>
        <time>2013-05-02T18:44:22.18</time>
      </trkpt>
      <trkpt lat="37.1894" lon="-7.351423333333333">
        <ele>49.60000000000001</ele>
        <time>2013-05-02T18:44:23.18</time>
      </trkpt>
      <trkpt lat="37.189405" lon="-7.351493333333333">
        <ele>49.80000000000001</ele>
        <time>2013-05-02T18:44:24.15</time>
      </trkpt>
      <trkpt lat="37.189413333333334" lon="-7.35157">
        <ele>49.70000000000001</ele>
        <time>2013-05-02T18:44:25.15</time>
      </trkpt>
      <trkpt lat="37.18942333333333" lon="-7.351646666666666">
        <ele>49.60000000000001</ele>
        <time>2013-05-02T18:44:26.15</time>
      </trkpt>
      <trkpt lat="37.189431666666664" lon="-7.3517166666666665">
        <ele>49.50000000000001</ele>
        <time>2013-05-02T18:44:27.16</time>
      </trkpt>
      <trkpt lat="37.189431666666664" lon="-7.35179">
        <ele>49.400000000000006</ele>
        <time>2013-05-02T18:44:28.15</time>
      </trkpt>
      <trkpt lat="37.189433333333334" lon="-7.351861666666666">
        <ele>49.50000000000001</ele>
        <time>2013-05-02T18:44:29.16</time>
      </trkpt>
      <trkpt lat="37.18943" lon="-7.351933333333333">
        <ele>49.400000000000006</ele>
        <time>2013-05-02T18:44:30.15</time>
      </trkpt>
      <trkpt lat="37.18942833333333" lon="-7.3520183333333335">
        <ele>49.7</ele>
        <time>2013-05-02T18:44:31.15</time>
      </trkpt>
      <trkpt lat="37.18942833333333" lon="-7.352095">
        <ele>49.800000000000004</ele>
        <time>2013-05-02T18:44:32.23</time>
      </trkpt>
      <trkpt lat="37.18943" lon="-7.35217">
        <ele>49.900000000000006</ele>
        <time>2013-05-02T18:44:33.15</time>
      </trkpt>
      <trkpt lat="37.189436666666666" lon="-7.352241666666667">
        <ele>49.900000000000006</ele>
        <time>2013-05-02T18:44:34.16</time>
      </trkpt>
      <trkpt lat="37.18944333333334" lon="-7.352306666666666">
        <ele>49.7</ele>
        <time>2013-05-02T18:44:35.15</time>
      </trkpt>
      <trkpt lat="37.18945" lon="-7.35239">
        <ele>49.900000000000006</ele>
        <time>2013-05-02T18:44:36.15</time>
      </trkpt>
      <trkpt lat="37.18944833333333" lon="-7.3524666666666665">
        <ele>50.2</ele>
        <time>2013-05-02T18:44:37.23</time>
      </trkpt>
      <trkpt lat="37.18945333333333" lon="-7.352538333333333">
        <ele>50.2</ele>
        <time>2013-05-02T18:44:38.18</time>
      </trkpt>
      <trkpt lat="37.189456666666665" lon="-7.352608333333333">
        <ele>50.2</ele>
        <time>2013-05-02T18:44:39.17</time>
      </trkpt>
      <trkpt lat="37.18945166666666" lon="-7.352686666666667">
        <ele>49.800000000000004</ele>
        <time>2013-05-02T18:44:40.16</time>
      </trkpt>
      <trkpt lat="37.189465" lon="-7.352758333333333">
        <ele>49.900000000000006</ele>
        <time>2013-05-02T18:44:41.16</time>
      </trkpt>
      <trkpt lat="37.18946666666667" lon="-7.352826666666667">
        <ele>49.60000000000001</ele>
        <time>2013-05-02T18:44:42.17</time>
      </trkpt>
      <trkpt lat="37.18947333333333" lon="-7.352893333333333">
        <ele>49.30000000000001</ele>
        <time>2013-05-02T18:44:43.16</time>
      </trkpt>
      <trkpt lat="37.189481666666666" lon="-7.352973333333333">
        <ele>49.30000000000001</ele>
        <time>2013-05-02T18:44:44.15</time>
      </trkpt>
      <trkpt lat="37.189483333333335" lon="-7.353058333333333">
        <ele>49.60000000000001</ele>
        <time>2013-05-02T18:44:45.16</time>
      </trkpt>
      <trkpt lat="37.189483333333335" lon="-7.353125">
        <ele>49.70000000000001</ele>
        <time>2013-05-02T18:44:46.16</time>
      </trkpt>
      <trkpt lat="37.189485" lon="-7.353198333333333">
        <ele>49.40000000000001</ele>
        <time>2013-05-02T18:44:47.16</time>
      </trkpt>
      <trkpt lat="37.18948833333334" lon="-7.35327">
        <ele>49.500000000000014</ele>
        <time>2013-05-02T18:44:48.16</time>
      </trkpt>
      <trkpt lat="37.18949" lon="-7.353336666666666">
        <ele>49.000000000000014</ele>
        <time>2013-05-02T18:44:49.15</time>
      </trkpt>
      <trkpt lat="37.18949333333333" lon="-7.353408333333333">
        <ele>48.90000000000001</ele>
        <time>2013-05-02T18:44:50.16</time>
      </trkpt>
      <trkpt lat="37.189515" lon="-7.353463333333333">
        <ele>48.500000000000014</ele>
        <time>2013-05-02T18:44:51.16</time>
      </trkpt>
      <trkpt lat="37.189508333333336" lon="-7.353533333333333">
        <ele>48.70000000000002</ele>
        <time>2013-05-02T18:44:52.15</time>
      </trkpt>
      <trkpt lat="37.189503333333334" lon="-7.3535916666666665">
        <ele>48.90000000000002</ele>
        <time>2013-05-02T18:44:53.16</time>
      </trkpt>
      <trkpt lat="37.189515" lon="-7.353671666666667">
        <ele>48.70000000000002</ele>
        <time>2013-05-02T18:44:54.17</time>
      </trkpt>
      <trkpt lat="37.18951666666667" lon="-7.353738333333333">
        <ele>48.80000000000002</ele>
        <time>2013-05-02T18:44:55.16</time>
      </trkpt>
      <trkpt lat="37.189515" lon="-7.35381">
        <ele>48.50000000000002</ele>
        <time>2013-05-02T18:44:56.15</time>
      </trkpt>
      <trkpt lat="37.189515" lon="-7.353868333333334">
        <ele>48.200000000000024</ele>
        <time>2013-05-02T18:44:57.15</time>
      </trkpt>
      <trkpt lat="37.189501666666665" lon="-7.353933333333333">
        <ele>48.200000000000024</ele>
        <time>2013-05-02T18:44:58.15</time>
      </trkpt>
      <trkpt lat="37.18950666666667" lon="-7.353985">
        <ele>48.300000000000026</ele>
        <time>2013-05-02T18:44:59.16</time>
      </trkpt>
      <trkpt lat="37.18951166666667" lon="-7.354045">
        <ele>48.40000000000003</ele>
        <time>2013-05-02T18:45:00.14</time>
      </trkpt>
      <trkpt lat="37.189508333333336" lon="-7.35411">
        <ele>48.800000000000026</ele>
        <time>2013-05-02T18:45:01.15</time>
      </trkpt>
      <trkpt lat="37.189505" lon="-7.354175">
        <ele>48.700000000000024</ele>
        <time>2013-05-02T18:45:02.16</time>
      </trkpt>
      <trkpt lat="37.18949666666666" lon="-7.354246666666667">
        <ele>48.200000000000024</ele>
        <time>2013-05-02T18:45:03.16</time>
      </trkpt>
      <trkpt lat="37.18949833333333" lon="-7.354316666666667">
        <ele>48.10000000000002</ele>
        <time>2013-05-02T18:45:04.16</time>
      </trkpt>
      <trkpt lat="37.18949666666666" lon="-7.354391666666666">
        <ele>47.700000000000024</ele>
        <time>2013-05-02T18:45:05.15</time>
      </trkpt>
      <trkpt lat="37.18949" lon="-7.35446">
        <ele>47.40000000000003</ele>
        <time>2013-05-02T18:45:06.18</time>
      </trkpt>
      <trkpt lat="37.18948833333334" lon="-7.354533333333333">
        <ele>47.40000000000003</ele>
        <time>2013-05-02T18:45:07.15</time>
      </trkpt>
      <trkpt lat="37.18949" lon="-7.35461">
        <ele>47.300000000000026</ele>
        <time>2013-05-02T18:45:08.15</time>
      </trkpt>
      <trkpt lat="37.189481666666666" lon="-7.354681666666667">
        <ele>47.10000000000002</ele>
        <time>2013-05-02T18:45:09.16</time>
      </trkpt>
      <trkpt lat="37.189481666666666" lon="-7.35475">
        <ele>47.40000000000002</ele>
        <time>2013-05-02T18:45:10.16</time>
      </trkpt>
      <trkpt lat="37.18949" lon="-7.354815">
        <ele>47.20000000000002</ele>
        <time>2013-05-02T18:45:11.15</time>
      </trkpt>
      <trkpt lat="37.18949333333333" lon="-7.354886666666666">
        <ele>48.100000000000016</ele>
        <time>2013-05-02T18:45:12.15</time>
      </trkpt>
      <trkpt lat="37.18949333333333" lon="-7.354961666666667">
        <ele>48.20000000000002</ele>
        <time>2013-05-02T18:45:13.15</time>
      </trkpt>
      <trkpt lat="37.18949666666666" lon="-7.355028333333333">
        <ele>48.000000000000014</ele>
        <time>2013-05-02T18:45:14.15</time>
      </trkpt>
      <trkpt lat="37.18949333333333" lon="-7.355101666666667">
        <ele>48.100000000000016</ele>
        <time>2013-05-02T18:45:15.16</time>
      </trkpt>
      <trkpt lat="37.189481666666666" lon="-7.355171666666667">
        <ele>48.40000000000001</ele>
        <time>2013-05-02T18:45:16.15</time>
      </trkpt>
      <trkpt lat="37.189476666666664" lon="-7.355245">
        <ele>48.600000000000016</ele>
        <time>2013-05-02T18:45:17.16</time>
      </trkpt>
      <trkpt lat="37.189485" lon="-7.355323333333334">
        <ele>48.30000000000002</ele>
        <time>2013-05-02T18:45:18.16</time>
      </trkpt>
      <trkpt lat="37.18948666666667" lon="-7.355401666666666">
        <ele>48.30000000000002</ele>
        <time>2013-05-02T18:45:19.18</time>
      </trkpt>
      <trkpt lat="37.18948" lon="-7.355473333333333">
        <ele>48.100000000000016</ele>
        <time>2013-05-02T18:45:20.18</time>
      </trkpt>
      <trkpt lat="37.18948" lon="-7.355545">
        <ele>48.20000000000002</ele>
        <time>2013-05-02T18:45:21.15</time>
      </trkpt>
      <trkpt lat="37.18948" lon="-7.355606666666667">
        <ele>47.80000000000002</ele>
        <time>2013-05-02T18:45:22.15</time>
      </trkpt>
      <trkpt lat="37.189465" lon="-7.3556783333333335">
        <ele>48.100000000000016</ele>
        <time>2013-05-02T18:45:23.16</time>
      </trkpt>
      <trkpt lat="37.18947" lon="-7.35575">
        <ele>48.000000000000014</ele>
        <time>2013-05-02T18:45:24.16</time>
      </trkpt>
      <trkpt lat="37.189456666666665" lon="-7.355816666666667">
        <ele>47.600000000000016</ele>
        <time>2013-05-02T18:45:25.16</time>
      </trkpt>
      <trkpt lat="37.189461666666666" lon="-7.355881666666667">
        <ele>47.100000000000016</ele>
        <time>2013-05-02T18:45:26.16</time>
      </trkpt>
      <trkpt lat="37.18946" lon="-7.355953333333333">
        <ele>47.30000000000002</ele>
        <time>2013-05-02T18:45:27.16</time>
      </trkpt>
      <trkpt lat="37.18944666666667" lon="-7.35603">
        <ele>47.50000000000002</ele>
        <time>2013-05-02T18:45:28.16</time>
      </trkpt>
      <trkpt lat="37.18944166666667" lon="-7.356105">
        <ele>47.60000000000002</ele>
        <time>2013-05-02T18:45:29.16</time>
      </trkpt>
      <trkpt lat="37.189436666666666" lon="-7.356168333333334">
        <ele>47.700000000000024</ele>
        <time>2013-05-02T18:45:30.15</time>
      </trkpt>
      <trkpt lat="37.18944" lon="-7.35624">
        <ele>47.300000000000026</ele>
        <time>2013-05-02T18:45:31.16</time>
      </trkpt>
      <trkpt lat="37.18942833333333" lon="-7.356311666666667">
        <ele>47.50000000000003</ele>
        <time>2013-05-02T18:45:32.16</time>
      </trkpt>
      <trkpt lat="37.18942" lon="-7.356386666666666">
        <ele>47.60000000000003</ele>
        <time>2013-05-02T18:45:33.16</time>
      </trkpt>
      <trkpt lat="37.18940666666666" lon="-7.356465">
        <ele>47.70000000000003</ele>
        <time>2013-05-02T18:45:34.16</time>
      </trkpt>
      <trkpt lat="37.18939833333334" lon="-7.356535">
        <ele>47.400000000000034</ele>
        <time>2013-05-02T18:45:35.16</time>
      </trkpt>
      <trkpt lat="37.189371666666666" lon="-7.356615">
        <ele>47.80000000000003</ele>
        <time>2013-05-02T18:45:36.16</time>
      </trkpt>
      <trkpt lat="37.18937833333333" lon="-7.35669">
        <ele>47.30000000000003</ele>
        <time>2013-05-02T18:45:37.16</time>
      </trkpt>
      <trkpt lat="37.189375" lon="-7.356751666666667">
        <ele>47.500000000000036</ele>
        <time>2013-05-02T18:45:38.16</time>
      </trkpt>
      <trkpt lat="37.189368333333334" lon="-7.356833333333333">
        <ele>47.000000000000036</ele>
        <time>2013-05-02T18:45:39.15</time>
      </trkpt>
      <trkpt lat="37.189348333333335" lon="-7.35691">
        <ele>47.000000000000036</ele>
        <time>2013-05-02T18:45:40.16</time>
      </trkpt>
      <trkpt lat="37.18933666666667" lon="-7.35698">
        <ele>46.70000000000004</ele>
        <time>2013-05-02T18:45:41.16</time>
      </trkpt>
      <trkpt lat="37.18933166666667" lon="-7.357045">
        <ele>46.70000000000004</ele>
        <time>2013-05-02T18:45:42.18</time>
      </trkpt>
      <trkpt lat="37.189328333333336" lon="-7.357113333333333">
        <ele>46.30000000000004</ele>
        <time>2013-05-02T18:45:43.17</time>
      </trkpt>
      <trkpt lat="37.18931833333333" lon="-7.357186666666666">
        <ele>46.20000000000004</ele>
        <time>2013-05-02T18:45:44.16</time>
      </trkpt>
      <trkpt lat="37.189303333333335" lon="-7.357261666666667">
        <ele>46.40000000000004</ele>
        <time>2013-05-02T18:45:45.17</time>
      </trkpt>
      <trkpt lat="37.189303333333335" lon="-7.357323333333333">
        <ele>46.20000000000004</ele>
        <time>2013-05-02T18:45:46.15</time>
      </trkpt>
      <trkpt lat="37.18929833333333" lon="-7.3573916666666666">
        <ele>46.000000000000036</ele>
        <time>2013-05-02T18:45:47.16</time>
      </trkpt>
      <trkpt lat="37.18929833333333" lon="-7.357456666666667">
        <ele>45.70000000000004</ele>
        <time>2013-05-02T18:45:48.15</time>
      </trkpt>
      <trkpt lat="37.18928833333333" lon="-7.3575333333333335">
        <ele>45.60000000000004</ele>
        <time>2013-05-02T18:45:49.16</time>
      </trkpt>
      <trkpt lat="37.18925333333333" lon="-7.35761">
        <ele>45.60000000000004</ele>
        <time>2013-05-02T18:45:50.16</time>
      </trkpt>
      <trkpt lat="37.189233333333334" lon="-7.357678333333333">
        <ele>46.000000000000036</ele>
        <time>2013-05-02T18:45:51.16</time>
      </trkpt>
      <trkpt lat="37.18922166666667" lon="-7.357755">
        <ele>45.900000000000034</ele>
        <time>2013-05-02T18:45:52.15</time>
      </trkpt>
      <trkpt lat="37.18921666666667" lon="-7.357828333333333">
        <ele>45.900000000000034</ele>
        <time>2013-05-02T18:45:53.15</time>
      </trkpt>
      <trkpt lat="37.189218333333336" lon="-7.357891666666666">
        <ele>45.80000000000003</ele>
        <time>2013-05-02T18:45:54.16</time>
      </trkpt>
      <trkpt lat="37.189206666666664" lon="-7.357965">
        <ele>45.70000000000003</ele>
        <time>2013-05-02T18:45:55.15</time>
      </trkpt>
      <trkpt lat="37.189206666666664" lon="-7.3580266666666665">
        <ele>45.50000000000003</ele>
        <time>2013-05-02T18:45:56.15</time>
      </trkpt>
      <trkpt lat="37.18919666666667" lon="-7.358088333333333">
        <ele>45.50000000000003</ele>
        <time>2013-05-02T18:45:57.16</time>
      </trkpt>
      <trkpt lat="37.18919833333333" lon="-7.358158333333333">
        <ele>45.70000000000003</ele>
        <time>2013-05-02T18:45:58.18</time>
      </trkpt>
      <trkpt lat="37.189185" lon="-7.358231666666667">
        <ele>46.00000000000003</ele>
        <time>2013-05-02T18:45:59.22</time>
      </trkpt>
      <trkpt lat="37.189186666666664" lon="-7.358295">
        <ele>46.00000000000003</ele>
        <time>2013-05-02T18:46:00.14</time>
      </trkpt>
      <trkpt lat="37.189188333333334" lon="-7.35836">
        <ele>46.20000000000003</ele>
        <time>2013-05-02T18:46:01.15</time>
      </trkpt>
      <trkpt lat="37.18918166666667" lon="-7.3584266666666664">
        <ele>45.80000000000003</ele>
        <time>2013-05-02T18:46:02.16</time>
      </trkpt>
      <trkpt lat="37.18915666666667" lon="-7.358488333333334">
        <ele>45.900000000000034</ele>
        <time>2013-05-02T18:46:03.16</time>
      </trkpt>
      <trkpt lat="37.189155" lon="-7.358548333333333">
        <ele>45.60000000000004</ele>
        <time>2013-05-02T18:46:04.15</time>
      </trkpt>
      <trkpt lat="37.189143333333334" lon="-7.3586133333333335">
        <ele>45.80000000000004</ele>
        <time>2013-05-02T18:46:05.15</time>
      </trkpt>
      <trkpt lat="37.18913833333333" lon="-7.3586833333333335">
        <ele>46.00000000000004</ele>
        <time>2013-05-02T18:46:06.15</time>
      </trkpt>
      <trkpt lat="37.18911666666666" lon="-7.358745">
        <ele>46.00000000000004</ele>
        <time>2013-05-02T18:46:07.16</time>
      </trkpt>
      <trkpt lat="37.189105" lon="-7.358825">
        <ele>46.30000000000004</ele>
        <time>2013-05-02T18:46:08.16</time>
      </trkpt>
      <trkpt lat="37.189085" lon="-7.358895">
        <ele>46.50000000000004</ele>
        <time>2013-05-02T18:46:09.16</time>
      </trkpt>
      <trkpt lat="37.189076666666665" lon="-7.358948333333333">
        <ele>46.600000000000044</ele>
        <time>2013-05-02T18:46:10.16</time>
      </trkpt>
      <trkpt lat="37.189076666666665" lon="-7.35902">
        <ele>47.100000000000044</ele>
        <time>2013-05-02T18:46:11.15</time>
      </trkpt>
      <trkpt lat="37.189065" lon="-7.359086666666666">
        <ele>47.30000000000005</ele>
        <time>2013-05-02T18:46:12.15</time>
      </trkpt>
      <trkpt lat="37.189053333333334" lon="-7.359148333333334">
        <ele>47.200000000000045</ele>
        <time>2013-05-02T18:46:13.16</time>
      </trkpt>
      <trkpt lat="37.18903666666667" lon="-7.35921">
        <ele>47.30000000000005</ele>
        <time>2013-05-02T18:46:14.16</time>
      </trkpt>
      <trkpt lat="37.189015" lon="-7.3592683333333335">
        <ele>47.50000000000005</ele>
        <time>2013-05-02T18:46:15.15</time>
      </trkpt>
      <trkpt lat="37.18900333333333" lon="-7.359335">
        <ele>47.20000000000005</ele>
        <time>2013-05-02T18:46:16.16</time>
      </trkpt>
      <trkpt lat="37.18899666666667" lon="-7.359398333333333">
        <ele>47.20000000000005</ele>
        <time>2013-05-02T18:46:17.15</time>
      </trkpt>
      <trkpt lat="37.189" lon="-7.359455">
        <ele>47.300000000000054</ele>
        <time>2013-05-02T18:46:18.15</time>
      </trkpt>
      <trkpt lat="37.18898166666666" lon="-7.359513333333333">
        <ele>47.300000000000054</ele>
        <time>2013-05-02T18:46:19.15</time>
      </trkpt>
      <trkpt lat="37.188968333333335" lon="-7.359565">
        <ele>47.300000000000054</ele>
        <time>2013-05-02T18:46:20.15</time>
      </trkpt>
      <trkpt lat="37.18895" lon="-7.35963">
        <ele>47.900000000000055</ele>
        <time>2013-05-02T18:46:21.16</time>
      </trkpt>
      <trkpt lat="37.18892833333334" lon="-7.359703333333333">
        <ele>48.400000000000055</ele>
        <time>2013-05-02T18:46:22.16</time>
      </trkpt>
      <trkpt lat="37.18891" lon="-7.359765">
        <ele>48.20000000000005</ele>
        <time>2013-05-02T18:46:23.16</time>
      </trkpt>
      <trkpt lat="37.188895" lon="-7.359823333333333">
        <ele>48.300000000000054</ele>
        <time>2013-05-02T18:46:24.16</time>
      </trkpt>
      <trkpt lat="37.188878333333335" lon="-7.359883333333333">
        <ele>48.10000000000005</ele>
        <time>2013-05-02T18:46:25.16</time>
      </trkpt>
      <trkpt lat="37.18887" lon="-7.359943333333334">
        <ele>48.40000000000005</ele>
        <time>2013-05-02T18:46:26.16</time>
      </trkpt>
      <trkpt lat="37.18884666666667" lon="-7.3599966666666665">
        <ele>49.00000000000005</ele>
        <time>2013-05-02T18:46:27.16</time>
      </trkpt>
      <trkpt lat="37.18884" lon="-7.36006">
        <ele>49.20000000000005</ele>
        <time>2013-05-02T18:46:28.16</time>
      </trkpt>
      <trkpt lat="37.188825" lon="-7.360126666666667">
        <ele>49.60000000000005</ele>
        <time>2013-05-02T18:46:29.16</time>
      </trkpt>
      <trkpt lat="37.188806666666665" lon="-7.360195">
        <ele>49.00000000000005</ele>
        <time>2013-05-02T18:46:30.16</time>
      </trkpt>
      <trkpt lat="37.1888" lon="-7.360261666666666">
        <ele>48.50000000000005</ele>
        <time>2013-05-02T18:46:31.16</time>
      </trkpt>
      <trkpt lat="37.18878" lon="-7.3603233333333336">
        <ele>48.30000000000005</ele>
        <time>2013-05-02T18:46:32.16</time>
      </trkpt>
      <trkpt lat="37.188761666666664" lon="-7.36039">
        <ele>48.100000000000044</ele>
        <time>2013-05-02T18:46:33.16</time>
      </trkpt>
      <trkpt lat="37.18873833333333" lon="-7.360453333333333">
        <ele>48.00000000000004</ele>
        <time>2013-05-02T18:46:34.16</time>
      </trkpt>
      <trkpt lat="37.18873166666667" lon="-7.360516666666666">
        <ele>48.00000000000004</ele>
        <time>2013-05-02T18:46:35.16</time>
      </trkpt>
      <trkpt lat="37.18873" lon="-7.360578333333334">
        <ele>47.90000000000004</ele>
        <time>2013-05-02T18:46:36.16</time>
      </trkpt>
      <trkpt lat="37.188716666666664" lon="-7.360643333333333">
        <ele>48.100000000000044</ele>
        <time>2013-05-02T18:46:37.16</time>
      </trkpt>
      <trkpt lat="37.188698333333335" lon="-7.360705">
        <ele>48.100000000000044</ele>
        <time>2013-05-02T18:46:38.16</time>
      </trkpt>
      <trkpt lat="37.188676666666666" lon="-7.360756666666667">
        <ele>48.30000000000005</ele>
        <time>2013-05-02T18:46:39.16</time>
      </trkpt>
      <trkpt lat="37.18866" lon="-7.3608183333333335">
        <ele>48.100000000000044</ele>
        <time>2013-05-02T18:46:40.16</time>
      </trkpt>
      <trkpt lat="37.188645" lon="-7.36088">
        <ele>48.200000000000045</ele>
        <time>2013-05-02T18:46:41.16</time>
      </trkpt>
      <trkpt lat="37.188628333333334" lon="-7.360941666666666">
        <ele>48.50000000000004</ele>
        <time>2013-05-02T18:46:42.16</time>
      </trkpt>
      <trkpt lat="37.18862" lon="-7.360988333333333">
        <ele>48.700000000000045</ele>
        <time>2013-05-02T18:46:43.16</time>
      </trkpt>
      <trkpt lat="37.188613333333336" lon="-7.3610516666666665">
        <ele>48.90000000000005</ele>
        <time>2013-05-02T18:46:44.16</time>
      </trkpt>
      <trkpt lat="37.18860166666666" lon="-7.361115">
        <ele>49.200000000000045</ele>
        <time>2013-05-02T18:46:45.15</time>
      </trkpt>
      <trkpt lat="37.188583333333334" lon="-7.361173333333333">
        <ele>49.50000000000004</ele>
        <time>2013-05-02T18:46:46.15</time>
      </trkpt>
      <trkpt lat="37.188561666666665" lon="-7.3612383333333336">
        <ele>49.600000000000044</ele>
        <time>2013-05-02T18:46:47.15</time>
      </trkpt>
      <trkpt lat="37.188525" lon="-7.361303333333334">
        <ele>49.80000000000005</ele>
        <time>2013-05-02T18:46:48.16</time>
      </trkpt>
      <trkpt lat="37.18849" lon="-7.361375">
        <ele>49.40000000000005</ele>
        <time>2013-05-02T18:46:49.16</time>
      </trkpt>
      <trkpt lat="37.188485" lon="-7.361438333333333">
        <ele>49.10000000000005</ele>
        <time>2013-05-02T18:46:50.16</time>
      </trkpt>
      <trkpt lat="37.18846833333333" lon="-7.361503333333333">
        <ele>49.50000000000005</ele>
        <time>2013-05-02T18:46:51.16</time>
      </trkpt>
      <trkpt lat="37.188445" lon="-7.3615683333333335">
        <ele>49.10000000000005</ele>
        <time>2013-05-02T18:46:52.16</time>
      </trkpt>
      <trkpt lat="37.18842333333333" lon="-7.361628333333333">
        <ele>48.90000000000005</ele>
        <time>2013-05-02T18:46:53.16</time>
      </trkpt>
      <trkpt lat="37.18841333333334" lon="-7.3616866666666665">
        <ele>48.50000000000005</ele>
        <time>2013-05-02T18:46:54.15</time>
      </trkpt>
      <trkpt lat="37.18840333333333" lon="-7.361743333333333">
        <ele>48.30000000000005</ele>
        <time>2013-05-02T18:46:55.15</time>
      </trkpt>
      <trkpt lat="37.188385" lon="-7.361791666666667">
        <ele>48.50000000000005</ele>
        <time>2013-05-02T18:46:56.16</time>
      </trkpt>
      <trkpt lat="37.188365" lon="-7.361845">
        <ele>48.10000000000005</ele>
        <time>2013-05-02T18:46:57.16</time>
      </trkpt>
      <trkpt lat="37.18835333333333" lon="-7.361901666666666">
        <ele>47.800000000000054</ele>
        <time>2013-05-02T18:46:58.16</time>
      </trkpt>
      <trkpt lat="37.188325" lon="-7.361971666666666">
        <ele>47.70000000000005</ele>
        <time>2013-05-02T18:46:59.15</time>
      </trkpt>
      <trkpt lat="37.18830333333333" lon="-7.362028333333333">
        <ele>47.50000000000005</ele>
        <time>2013-05-02T18:47:00.13</time>
      </trkpt>
      <trkpt lat="37.188291666666665" lon="-7.362055">
        <ele>50.10000000000005</ele>
        <time>2013-05-02T18:47:01.22</time>
      </trkpt>
      <trkpt lat="37.188278333333336" lon="-7.362091666666666">
        <ele>51.20000000000005</ele>
        <time>2013-05-02T18:47:02.16</time>
      </trkpt>
      <trkpt lat="37.188265" lon="-7.362128333333334">
        <ele>51.70000000000005</ele>
        <time>2013-05-02T18:47:03.16</time>
      </trkpt>
      <trkpt lat="37.188265" lon="-7.362166666666667">
        <ele>52.20000000000005</ele>
        <time>2013-05-02T18:47:04.16</time>
      </trkpt>
      <trkpt lat="37.188255" lon="-7.362213333333333">
        <ele>53.00000000000005</ele>
        <time>2013-05-02T18:47:05.16</time>
      </trkpt>
      <trkpt lat="37.18824333333333" lon="-7.36226">
        <ele>53.70000000000005</ele>
        <time>2013-05-02T18:47:06.15</time>
      </trkpt>
      <trkpt lat="37.18821666666667" lon="-7.362315">
        <ele>54.50000000000005</ele>
        <time>2013-05-02T18:47:07.15</time>
      </trkpt>
      <trkpt lat="37.1882" lon="-7.362361666666667">
        <ele>55.00000000000005</ele>
        <time>2013-05-02T18:47:08.15</time>
      </trkpt>
      <trkpt lat="37.188161666666666" lon="-7.3624133333333335">
        <ele>55.40000000000005</ele>
        <time>2013-05-02T18:47:09.16</time>
      </trkpt>
      <trkpt lat="37.18814666666667" lon="-7.362475">
        <ele>55.80000000000005</ele>
        <time>2013-05-02T18:47:10.16</time>
      </trkpt>
      <trkpt lat="37.18812666666667" lon="-7.362528333333334">
        <ele>56.100000000000044</ele>
        <time>2013-05-02T18:47:11.16</time>
      </trkpt>
      <trkpt lat="37.188111666666664" lon="-7.362571666666667">
        <ele>56.200000000000045</ele>
        <time>2013-05-02T18:47:12.16</time>
      </trkpt>
      <trkpt lat="37.18807666666667" lon="-7.36263">
        <ele>56.40000000000005</ele>
        <time>2013-05-02T18:47:13.16</time>
      </trkpt>
      <trkpt lat="37.188053333333336" lon="-7.36271">
        <ele>56.700000000000045</ele>
        <time>2013-05-02T18:47:14.16</time>
      </trkpt>
      <trkpt lat="37.188015" lon="-7.362865">
        <ele>54.200000000000045</ele>
        <time>2013-05-02T18:47:15.16</time>
      </trkpt>
      <trkpt lat="37.18799833333333" lon="-7.362921666666667">
        <ele>54.30000000000005</ele>
        <time>2013-05-02T18:47:16.16</time>
      </trkpt>
      <trkpt lat="37.18797" lon="-7.362986666666667">
        <ele>54.80000000000005</ele>
        <time>2013-05-02T18:47:17.16</time>
      </trkpt>
      <trkpt lat="37.187955" lon="-7.363038333333333">
        <ele>54.40000000000005</ele>
        <time>2013-05-02T18:47:18.16</time>
      </trkpt>
      <trkpt lat="37.18793" lon="-7.3630933333333335">
        <ele>54.30000000000005</ele>
        <time>2013-05-02T18:47:19.16</time>
      </trkpt>
      <trkpt lat="37.187918333333336" lon="-7.363155">
        <ele>54.600000000000044</ele>
        <time>2013-05-02T18:47:20.16</time>
      </trkpt>
      <trkpt lat="37.187893333333335" lon="-7.363201666666667">
        <ele>54.50000000000004</ele>
        <time>2013-05-02T18:47:21.16</time>
      </trkpt>
      <trkpt lat="37.18786166666667" lon="-7.363261666666666">
        <ele>54.50000000000004</ele>
        <time>2013-05-02T18:47:22.16</time>
      </trkpt>
      <trkpt lat="37.18783" lon="-7.36333">
        <ele>54.600000000000044</ele>
        <time>2013-05-02T18:47:23.16</time>
      </trkpt>
      <trkpt lat="37.18780833333334" lon="-7.3634">
        <ele>54.90000000000004</ele>
        <time>2013-05-02T18:47:24.16</time>
      </trkpt>
      <trkpt lat="37.187781666666666" lon="-7.363458333333333">
        <ele>54.80000000000004</ele>
        <time>2013-05-02T18:47:25.16</time>
      </trkpt>
      <trkpt lat="37.18774666666667" lon="-7.363511666666667">
        <ele>54.60000000000004</ele>
        <time>2013-05-02T18:47:26.16</time>
      </trkpt>
      <trkpt lat="37.18772166666667" lon="-7.363573333333333">
        <ele>54.70000000000004</ele>
        <time>2013-05-02T18:47:27.16</time>
      </trkpt>
      <trkpt lat="37.18769833333333" lon="-7.363628333333334">
        <ele>55.000000000000036</ele>
        <time>2013-05-02T18:47:28.16</time>
      </trkpt>
      <trkpt lat="37.18767166666667" lon="-7.363698333333334">
        <ele>55.000000000000036</ele>
        <time>2013-05-02T18:47:29.16</time>
      </trkpt>
      <trkpt lat="37.18763" lon="-7.363771666666667">
        <ele>54.80000000000003</ele>
        <time>2013-05-02T18:47:30.16</time>
      </trkpt>
      <trkpt lat="37.18763" lon="-7.363791666666667">
        <ele>55.000000000000036</ele>
        <time>2013-05-02T18:47:31.15</time>
      </trkpt>
      <trkpt lat="37.187595" lon="-7.363855">
        <ele>54.80000000000003</ele>
        <time>2013-05-02T18:47:32.15</time>
      </trkpt>
      <trkpt lat="37.18756666666667" lon="-7.363921666666666">
        <ele>54.70000000000003</ele>
        <time>2013-05-02T18:47:33.15</time>
      </trkpt>
      <trkpt lat="37.187538333333336" lon="-7.36398">
        <ele>54.80000000000003</ele>
        <time>2013-05-02T18:47:34.16</time>
      </trkpt>
      <trkpt lat="37.187508333333334" lon="-7.364006666666667">
        <ele>54.70000000000003</ele>
        <time>2013-05-02T18:47:35.15</time>
      </trkpt>
      <trkpt lat="37.187513333333335" lon="-7.364043333333333">
        <ele>54.80000000000003</ele>
        <time>2013-05-02T18:47:36.15</time>
      </trkpt>
      <trkpt lat="37.187495" lon="-7.3641">
        <ele>54.70000000000003</ele>
        <time>2013-05-02T18:47:37.15</time>
      </trkpt>
      <trkpt lat="37.187465" lon="-7.364166666666667">
        <ele>54.50000000000003</ele>
        <time>2013-05-02T18:47:38.15</time>
      </trkpt>
      <trkpt lat="37.187445" lon="-7.36421">
        <ele>54.50000000000003</ele>
        <time>2013-05-02T18:47:39.15</time>
      </trkpt>
      <trkpt lat="37.187416666666664" lon="-7.364261666666667">
        <ele>54.60000000000003</ele>
        <time>2013-05-02T18:47:40.16</time>
      </trkpt>
      <trkpt lat="37.187405" lon="-7.364306666666667">
        <ele>54.90000000000003</ele>
        <time>2013-05-02T18:47:41.16</time>
      </trkpt>
      <trkpt lat="37.18737333333333" lon="-7.364373333333333">
        <ele>54.800000000000026</ele>
        <time>2013-05-02T18:47:42.15</time>
      </trkpt>
      <trkpt lat="37.18736333333333" lon="-7.364418333333333">
        <ele>54.90000000000003</ele>
        <time>2013-05-02T18:47:43.15</time>
      </trkpt>
      <trkpt lat="37.187326666666664" lon="-7.364483333333333">
        <ele>54.800000000000026</ele>
        <time>2013-05-02T18:47:44.15</time>
      </trkpt>
      <trkpt lat="37.18728333333333" lon="-7.364545">
        <ele>54.700000000000024</ele>
        <time>2013-05-02T18:47:45.15</time>
      </trkpt>
      <trkpt lat="37.18728333333333" lon="-7.364568333333334">
        <ele>54.90000000000003</ele>
        <time>2013-05-02T18:47:46.15</time>
      </trkpt>
      <trkpt lat="37.187266666666666" lon="-7.364621666666666">
        <ele>54.90000000000003</ele>
        <time>2013-05-02T18:47:47.15</time>
      </trkpt>
      <trkpt lat="37.187243333333335" lon="-7.364671666666666">
        <ele>54.90000000000003</ele>
        <time>2013-05-02T18:47:48.15</time>
      </trkpt>
      <trkpt lat="37.187223333333336" lon="-7.364725">
        <ele>55.300000000000026</ele>
        <time>2013-05-02T18:47:49.15</time>
      </trkpt>
      <trkpt lat="37.18722" lon="-7.364751666666667">
        <ele>55.60000000000002</ele>
        <time>2013-05-02T18:47:50.21</time>
      </trkpt>
      <trkpt lat="37.18718666666667" lon="-7.364805">
        <ele>55.800000000000026</ele>
        <time>2013-05-02T18:47:51.15</time>
      </trkpt>
      <trkpt lat="37.18716666666667" lon="-7.364861666666667">
        <ele>56.200000000000024</ele>
        <time>2013-05-02T18:47:52.16</time>
      </trkpt>
      <trkpt lat="37.18714666666666" lon="-7.3649233333333335">
        <ele>56.60000000000002</ele>
        <time>2013-05-02T18:47:53.16</time>
      </trkpt>
      <trkpt lat="37.18711666666667" lon="-7.364975">
        <ele>56.700000000000024</ele>
        <time>2013-05-02T18:47:54.15</time>
      </trkpt>
      <trkpt lat="37.18709666666667" lon="-7.365028333333333">
        <ele>56.60000000000002</ele>
        <time>2013-05-02T18:47:55.15</time>
      </trkpt>
      <trkpt lat="37.18707333333333" lon="-7.365056666666667">
        <ele>56.700000000000024</ele>
        <time>2013-05-02T18:47:56.16</time>
      </trkpt>
      <trkpt lat="37.18704666666667" lon="-7.365095">
        <ele>56.700000000000024</ele>
        <time>2013-05-02T18:47:57.17</time>
      </trkpt>
      <trkpt lat="37.187016666666665" lon="-7.365161666666666">
        <ele>56.40000000000003</ele>
        <time>2013-05-02T18:47:58.15</time>
      </trkpt>
      <trkpt lat="37.187" lon="-7.365218333333333">
        <ele>56.50000000000003</ele>
        <time>2013-05-02T18:47:59.16</time>
      </trkpt>
      <trkpt lat="37.18698833333333" lon="-7.365263333333333">
        <ele>56.50000000000003</ele>
        <time>2013-05-02T18:48:00.13</time>
      </trkpt>
      <trkpt lat="37.18696166666667" lon="-7.365341666666667">
        <ele>56.50000000000003</ele>
        <time>2013-05-02T18:48:01.15</time>
      </trkpt>
      <trkpt lat="37.18693666666667" lon="-7.3654">
        <ele>56.800000000000026</ele>
        <time>2013-05-02T18:48:02.16</time>
      </trkpt>
      <trkpt lat="37.18692" lon="-7.365446666666666">
        <ele>57.300000000000026</ele>
        <time>2013-05-02T18:48:03.15</time>
      </trkpt>
      <trkpt lat="37.1869" lon="-7.3655116666666665">
        <ele>57.300000000000026</ele>
        <time>2013-05-02T18:48:04.15</time>
      </trkpt>
      <trkpt lat="37.186881666666665" lon="-7.365545">
        <ele>57.10000000000002</ele>
        <time>2013-05-02T18:48:05.15</time>
      </trkpt>
      <trkpt lat="37.18685" lon="-7.365583333333333">
        <ele>56.90000000000002</ele>
        <time>2013-05-02T18:48:06.15</time>
      </trkpt>
      <trkpt lat="37.186825" lon="-7.365636666666667">
        <ele>57.20000000000002</ele>
        <time>2013-05-02T18:48:07.15</time>
      </trkpt>
      <trkpt lat="37.18681" lon="-7.365683333333333">
        <ele>57.500000000000014</ele>
        <time>2013-05-02T18:48:08.16</time>
      </trkpt>
      <trkpt lat="37.186775" lon="-7.36572">
        <ele>57.600000000000016</ele>
        <time>2013-05-02T18:48:09.15</time>
      </trkpt>
      <trkpt lat="37.186755" lon="-7.36579">
        <ele>57.600000000000016</ele>
        <time>2013-05-02T18:48:10.15</time>
      </trkpt>
      <trkpt lat="37.18671833333333" lon="-7.365855">
        <ele>57.70000000000002</ele>
        <time>2013-05-02T18:48:11.15</time>
      </trkpt>
      <trkpt lat="37.18669333333333" lon="-7.36591">
        <ele>57.90000000000002</ele>
        <time>2013-05-02T18:48:12.17</time>
      </trkpt>
      <trkpt lat="37.18667833333333" lon="-7.36595">
        <ele>58.20000000000002</ele>
        <time>2013-05-02T18:48:13.16</time>
      </trkpt>
      <trkpt lat="37.186635" lon="-7.36601">
        <ele>58.40000000000002</ele>
        <time>2013-05-02T18:48:14.15</time>
      </trkpt>
      <trkpt lat="37.18662" lon="-7.366065">
        <ele>58.90000000000002</ele>
        <time>2013-05-02T18:48:15.15</time>
      </trkpt>
      <trkpt lat="37.186598333333336" lon="-7.366125">
        <ele>58.70000000000002</ele>
        <time>2013-05-02T18:48:16.15</time>
      </trkpt>
      <trkpt lat="37.186591666666665" lon="-7.36618">
        <ele>58.80000000000002</ele>
        <time>2013-05-02T18:48:17.15</time>
      </trkpt>
      <trkpt lat="37.18654" lon="-7.366286666666666">
        <ele>57.40000000000002</ele>
        <time>2013-05-02T18:48:18.15</time>
      </trkpt>
      <trkpt lat="37.186521666666664" lon="-7.366341666666667">
        <ele>57.80000000000002</ele>
        <time>2013-05-02T18:48:19.16</time>
      </trkpt>
      <trkpt lat="37.186503333333334" lon="-7.366385">
        <ele>57.50000000000002</ele>
        <time>2013-05-02T18:48:20.16</time>
      </trkpt>
      <trkpt lat="37.186475" lon="-7.366436666666667">
        <ele>57.60000000000002</ele>
        <time>2013-05-02T18:48:21.15</time>
      </trkpt>
      <trkpt lat="37.18646" lon="-7.366485">
        <ele>56.90000000000002</ele>
        <time>2013-05-02T18:48:22.15</time>
      </trkpt>
      <trkpt lat="37.18643333333333" lon="-7.366526666666666">
        <ele>57.00000000000002</ele>
        <time>2013-05-02T18:48:23.15</time>
      </trkpt>
      <trkpt lat="37.18640833333333" lon="-7.36657">
        <ele>56.40000000000002</ele>
        <time>2013-05-02T18:48:24.16</time>
      </trkpt>
      <trkpt lat="37.18638333333333" lon="-7.366621666666667">
        <ele>56.90000000000002</ele>
        <time>2013-05-02T18:48:25.16</time>
      </trkpt>
      <trkpt lat="37.186346666666665" lon="-7.366733333333333">
        <ele>54.60000000000002</ele>
        <time>2013-05-02T18:48:26.15</time>
      </trkpt>
      <trkpt lat="37.18633" lon="-7.366785">
        <ele>54.800000000000026</ele>
        <time>2013-05-02T18:48:27.15</time>
      </trkpt>
      <trkpt lat="37.186315" lon="-7.366836666666667">
        <ele>54.90000000000003</ele>
        <time>2013-05-02T18:48:28.17</time>
      </trkpt>
      <trkpt lat="37.18629166666667" lon="-7.366881666666667">
        <ele>54.50000000000003</ele>
        <time>2013-05-02T18:48:29.17</time>
      </trkpt>
      <trkpt lat="37.186275" lon="-7.366938333333334">
        <ele>54.50000000000003</ele>
        <time>2013-05-02T18:48:30.15</time>
      </trkpt>
      <trkpt lat="37.18625333333333" lon="-7.3669883333333335">
        <ele>54.800000000000026</ele>
        <time>2013-05-02T18:48:31.16</time>
      </trkpt>
      <trkpt lat="37.186231666666664" lon="-7.367055">
        <ele>54.200000000000024</ele>
        <time>2013-05-02T18:48:32.16</time>
      </trkpt>
      <trkpt lat="37.18621" lon="-7.367103333333334">
        <ele>54.700000000000024</ele>
        <time>2013-05-02T18:48:33.16</time>
      </trkpt>
      <trkpt lat="37.18617666666667" lon="-7.367148333333334">
        <ele>55.800000000000026</ele>
        <time>2013-05-02T18:48:34.16</time>
      </trkpt>
      <trkpt lat="37.18615666666667" lon="-7.3671983333333335">
        <ele>56.200000000000024</ele>
        <time>2013-05-02T18:48:35.16</time>
      </trkpt>
      <trkpt lat="37.186135" lon="-7.367253333333333">
        <ele>56.40000000000003</ele>
        <time>2013-05-02T18:48:36.15</time>
      </trkpt>
      <trkpt lat="37.18611666666666" lon="-7.3673">
        <ele>56.60000000000003</ele>
        <time>2013-05-02T18:48:37.15</time>
      </trkpt>
      <trkpt lat="37.186101666666666" lon="-7.367351666666667">
        <ele>56.70000000000003</ele>
        <time>2013-05-02T18:48:38.18</time>
      </trkpt>
      <trkpt lat="37.186085" lon="-7.367396666666667">
        <ele>56.80000000000003</ele>
        <time>2013-05-02T18:48:39.22</time>
      </trkpt>
      <trkpt lat="37.18606166666667" lon="-7.36745">
        <ele>57.10000000000003</ele>
        <time>2013-05-02T18:48:40.16</time>
      </trkpt>
      <trkpt lat="37.18604" lon="-7.367505">
        <ele>56.90000000000003</ele>
        <time>2013-05-02T18:48:41.15</time>
      </trkpt>
      <trkpt lat="37.18602" lon="-7.367583333333333">
        <ele>56.300000000000026</ele>
        <time>2013-05-02T18:48:42.16</time>
      </trkpt>
      <trkpt lat="37.18599666666667" lon="-7.367635">
        <ele>56.200000000000024</ele>
        <time>2013-05-02T18:48:43.16</time>
      </trkpt>
      <trkpt lat="37.18598333333333" lon="-7.367693333333333">
        <ele>56.200000000000024</ele>
        <time>2013-05-02T18:48:44.16</time>
      </trkpt>
      <trkpt lat="37.18595333333333" lon="-7.367743333333333">
        <ele>56.10000000000002</ele>
        <time>2013-05-02T18:48:45.16</time>
      </trkpt>
      <trkpt lat="37.18593166666667" lon="-7.3677866666666665">
        <ele>55.800000000000026</ele>
        <time>2013-05-02T18:48:46.16</time>
      </trkpt>
      <trkpt lat="37.18593333333333" lon="-7.367843333333333">
        <ele>55.40000000000003</ele>
        <time>2013-05-02T18:48:47.16</time>
      </trkpt>
      <trkpt lat="37.185905" lon="-7.367908333333333">
        <ele>55.700000000000024</ele>
        <time>2013-05-02T18:48:48.16</time>
      </trkpt>
      <trkpt lat="37.18591333333333" lon="-7.367953333333333">
        <ele>55.60000000000002</ele>
        <time>2013-05-02T18:48:49.16</time>
      </trkpt>
      <trkpt lat="37.18591166666667" lon="-7.368005">
        <ele>55.50000000000002</ele>
        <time>2013-05-02T18:48:50.15</time>
      </trkpt>
      <trkpt lat="37.185896666666665" lon="-7.368051666666667">
        <ele>55.40000000000002</ele>
        <time>2013-05-02T18:48:51.15</time>
      </trkpt>
      <trkpt lat="37.185875" lon="-7.368106666666667">
        <ele>55.40000000000002</ele>
        <time>2013-05-02T18:48:52.15</time>
      </trkpt>
      <trkpt lat="37.185875" lon="-7.368158333333334">
        <ele>55.40000000000002</ele>
        <time>2013-05-02T18:48:53.16</time>
      </trkpt>
      <trkpt lat="37.18585" lon="-7.36823">
        <ele>55.60000000000002</ele>
        <time>2013-05-02T18:48:54.16</time>
      </trkpt>
      <trkpt lat="37.185831666666665" lon="-7.36829">
        <ele>55.60000000000002</ele>
        <time>2013-05-02T18:48:55.16</time>
      </trkpt>
      <trkpt lat="37.185808333333334" lon="-7.368346666666667">
        <ele>55.50000000000002</ele>
        <time>2013-05-02T18:48:56.16</time>
      </trkpt>
      <trkpt lat="37.185805" lon="-7.3684">
        <ele>55.50000000000002</ele>
        <time>2013-05-02T18:48:57.15</time>
      </trkpt>
      <trkpt lat="37.1858" lon="-7.368471666666666">
        <ele>55.60000000000002</ele>
        <time>2013-05-02T18:48:58.16</time>
      </trkpt>
      <trkpt lat="37.18578333333333" lon="-7.368525">
        <ele>55.700000000000024</ele>
        <time>2013-05-02T18:48:59.16</time>
      </trkpt>
      <trkpt lat="37.185763333333334" lon="-7.368598333333333">
        <ele>55.60000000000002</ele>
        <time>2013-05-02T18:49:00.13</time>
      </trkpt>
      <trkpt lat="37.18574666666667" lon="-7.368661666666667">
        <ele>55.700000000000024</ele>
        <time>2013-05-02T18:49:01.15</time>
      </trkpt>
      <trkpt lat="37.18573666666666" lon="-7.368725">
        <ele>55.800000000000026</ele>
        <time>2013-05-02T18:49:02.16</time>
      </trkpt>
      <trkpt lat="37.185705" lon="-7.368786666666667">
        <ele>55.700000000000024</ele>
        <time>2013-05-02T18:49:03.16</time>
      </trkpt>
      <trkpt lat="37.185703333333336" lon="-7.368845">
        <ele>55.800000000000026</ele>
        <time>2013-05-02T18:49:04.16</time>
      </trkpt>
      <trkpt lat="37.18570166666667" lon="-7.368946666666667">
        <ele>53.700000000000024</ele>
        <time>2013-05-02T18:49:05.16</time>
      </trkpt>
      <trkpt lat="37.18568" lon="-7.36901">
        <ele>53.50000000000002</ele>
        <time>2013-05-02T18:49:06.16</time>
      </trkpt>
      <trkpt lat="37.18564833333333" lon="-7.369095">
        <ele>52.80000000000002</ele>
        <time>2013-05-02T18:49:07.16</time>
      </trkpt>
      <trkpt lat="37.185625" lon="-7.3691716666666665">
        <ele>52.40000000000002</ele>
        <time>2013-05-02T18:49:08.16</time>
      </trkpt>
      <trkpt lat="37.18562333333333" lon="-7.369236666666667">
        <ele>52.10000000000002</ele>
        <time>2013-05-02T18:49:09.16</time>
      </trkpt>
      <trkpt lat="37.18562" lon="-7.369293333333333">
        <ele>51.60000000000002</ele>
        <time>2013-05-02T18:49:10.16</time>
      </trkpt>
      <trkpt lat="37.185606666666665" lon="-7.3693566666666666">
        <ele>51.60000000000002</ele>
        <time>2013-05-02T18:49:11.16</time>
      </trkpt>
      <trkpt lat="37.185606666666665" lon="-7.369421666666667">
        <ele>51.200000000000024</ele>
        <time>2013-05-02T18:49:12.16</time>
      </trkpt>
      <trkpt lat="37.185595" lon="-7.369486666666667">
        <ele>51.50000000000002</ele>
        <time>2013-05-02T18:49:13.22</time>
      </trkpt>
      <trkpt lat="37.18559333333334" lon="-7.369541666666667">
        <ele>51.10000000000002</ele>
        <time>2013-05-02T18:49:14.16</time>
      </trkpt>
      <trkpt lat="37.185583333333334" lon="-7.36959">
        <ele>51.200000000000024</ele>
        <time>2013-05-02T18:49:15.15</time>
      </trkpt>
      <trkpt lat="37.18558" lon="-7.36966">
        <ele>50.60000000000002</ele>
        <time>2013-05-02T18:49:16.15</time>
      </trkpt>
      <trkpt lat="37.18557333333333" lon="-7.369723333333333">
        <ele>50.800000000000026</ele>
        <time>2013-05-02T18:49:17.16</time>
      </trkpt>
      <trkpt lat="37.18557" lon="-7.369788333333333">
        <ele>50.90000000000003</ele>
        <time>2013-05-02T18:49:18.16</time>
      </trkpt>
      <trkpt lat="37.18556" lon="-7.36985">
        <ele>51.200000000000024</ele>
        <time>2013-05-02T18:49:19.15</time>
      </trkpt>
      <trkpt lat="37.185561666666665" lon="-7.36992">
        <ele>50.50000000000002</ele>
        <time>2013-05-02T18:49:20.21</time>
      </trkpt>
      <trkpt lat="37.18555" lon="-7.369983333333334">
        <ele>50.00000000000002</ele>
        <time>2013-05-02T18:49:21.15</time>
      </trkpt>
      <trkpt lat="37.185541666666666" lon="-7.370055">
        <ele>49.60000000000002</ele>
        <time>2013-05-02T18:49:22.15</time>
      </trkpt>
      <trkpt lat="37.185525" lon="-7.370116666666667">
        <ele>49.700000000000024</ele>
        <time>2013-05-02T18:49:23.14</time>
      </trkpt>
      <trkpt lat="37.185516666666665" lon="-7.37016">
        <ele>50.00000000000002</ele>
        <time>2013-05-02T18:49:24.15</time>
      </trkpt>
      <trkpt lat="37.185518333333334" lon="-7.37023">
        <ele>50.30000000000002</ele>
        <time>2013-05-02T18:49:25.15</time>
      </trkpt>
      <trkpt lat="37.185518333333334" lon="-7.370288333333334">
        <ele>49.80000000000002</ele>
        <time>2013-05-02T18:49:26.15</time>
      </trkpt>
      <trkpt lat="37.18551" lon="-7.370348333333333">
        <ele>50.00000000000002</ele>
        <time>2013-05-02T18:49:27.16</time>
      </trkpt>
      <trkpt lat="37.18550333333334" lon="-7.370406666666667">
        <ele>49.00000000000002</ele>
        <time>2013-05-02T18:49:28.15</time>
      </trkpt>
      <trkpt lat="37.185496666666666" lon="-7.370458333333334">
        <ele>49.80000000000002</ele>
        <time>2013-05-02T18:49:29.15</time>
      </trkpt>
      <trkpt lat="37.185495" lon="-7.370518333333333">
        <ele>49.50000000000002</ele>
        <time>2013-05-02T18:49:30.16</time>
      </trkpt>
      <trkpt lat="37.18550166666667" lon="-7.370583333333333">
        <ele>49.200000000000024</ele>
        <time>2013-05-02T18:49:31.16</time>
      </trkpt>
      <trkpt lat="37.18550166666667" lon="-7.37064">
        <ele>49.00000000000002</ele>
        <time>2013-05-02T18:49:32.15</time>
      </trkpt>
      <trkpt lat="37.185496666666666" lon="-7.3706966666666665">
        <ele>49.30000000000002</ele>
        <time>2013-05-02T18:49:33.16</time>
      </trkpt>
      <trkpt lat="37.185478333333336" lon="-7.370758333333334">
        <ele>49.20000000000002</ele>
        <time>2013-05-02T18:49:34.15</time>
      </trkpt>
      <trkpt lat="37.18546833333333" lon="-7.370818333333333">
        <ele>49.30000000000002</ele>
        <time>2013-05-02T18:49:35.15</time>
      </trkpt>
      <trkpt lat="37.18548166666667" lon="-7.370868333333333">
        <ele>48.90000000000002</ele>
        <time>2013-05-02T18:49:36.16</time>
      </trkpt>
      <trkpt lat="37.18548333333333" lon="-7.3709283333333335">
        <ele>48.80000000000002</ele>
        <time>2013-05-02T18:49:37.23</time>
      </trkpt>
      <trkpt lat="37.185475" lon="-7.370978333333333">
        <ele>48.80000000000002</ele>
        <time>2013-05-02T18:49:38.16</time>
      </trkpt>
      <trkpt lat="37.185473333333334" lon="-7.371038333333333">
        <ele>48.90000000000002</ele>
        <time>2013-05-02T18:49:39.15</time>
      </trkpt>
      <trkpt lat="37.185455" lon="-7.3711">
        <ele>49.30000000000002</ele>
        <time>2013-05-02T18:49:40.16</time>
      </trkpt>
      <trkpt lat="37.18546333333333" lon="-7.371146666666666">
        <ele>49.40000000000002</ele>
        <time>2013-05-02T18:49:41.16</time>
      </trkpt>
      <trkpt lat="37.18545666666667" lon="-7.371201666666667">
        <ele>49.50000000000002</ele>
        <time>2013-05-02T18:49:42.15</time>
      </trkpt>
      <trkpt lat="37.185455" lon="-7.371261666666666">
        <ele>49.50000000000002</ele>
        <time>2013-05-02T18:49:43.16</time>
      </trkpt>
      <trkpt lat="37.185465" lon="-7.371308333333333">
        <ele>49.40000000000002</ele>
        <time>2013-05-02T18:49:44.16</time>
      </trkpt>
      <trkpt lat="37.185475" lon="-7.371365">
        <ele>49.70000000000002</ele>
        <time>2013-05-02T18:49:45.16</time>
      </trkpt>
      <trkpt lat="37.18547" lon="-7.371425">
        <ele>50.000000000000014</ele>
        <time>2013-05-02T18:49:46.15</time>
      </trkpt>
      <trkpt lat="37.18547" lon="-7.371481666666667">
        <ele>50.100000000000016</ele>
        <time>2013-05-02T18:49:47.16</time>
      </trkpt>
      <trkpt lat="37.185475" lon="-7.371536666666667">
        <ele>50.30000000000002</ele>
        <time>2013-05-02T18:49:48.16</time>
      </trkpt>
      <trkpt lat="37.185478333333336" lon="-7.371593333333333">
        <ele>50.50000000000002</ele>
        <time>2013-05-02T18:49:49.16</time>
      </trkpt>
      <trkpt lat="37.18548833333333" lon="-7.371655">
        <ele>49.80000000000002</ele>
        <time>2013-05-02T18:49:50.16</time>
      </trkpt>
      <trkpt lat="37.185498333333335" lon="-7.371708333333333">
        <ele>49.80000000000002</ele>
        <time>2013-05-02T18:49:51.15</time>
      </trkpt>
      <trkpt lat="37.18551" lon="-7.371763333333333">
        <ele>50.30000000000002</ele>
        <time>2013-05-02T18:49:52.15</time>
      </trkpt>
      <trkpt lat="37.185525" lon="-7.371828333333333">
        <ele>50.30000000000002</ele>
        <time>2013-05-02T18:49:53.15</time>
      </trkpt>
      <trkpt lat="37.18553333333333" lon="-7.371886666666667">
        <ele>50.40000000000002</ele>
        <time>2013-05-02T18:49:54.16</time>
      </trkpt>
      <trkpt lat="37.18554" lon="-7.371963333333333">
        <ele>50.20000000000002</ele>
        <time>2013-05-02T18:49:55.16</time>
      </trkpt>
      <trkpt lat="37.18555333333333" lon="-7.372025">
        <ele>50.20000000000002</ele>
        <time>2013-05-02T18:49:56.17</time>
      </trkpt>
      <trkpt lat="37.18554833333334" lon="-7.372096666666667">
        <ele>50.20000000000002</ele>
        <time>2013-05-02T18:49:57.17</time>
      </trkpt>
      <trkpt lat="37.18555333333333" lon="-7.37216">
        <ele>49.90000000000002</ele>
        <time>2013-05-02T18:49:58.15</time>
      </trkpt>
      <trkpt lat="37.18557333333333" lon="-7.372225">
        <ele>49.70000000000002</ele>
        <time>2013-05-02T18:49:59.15</time>
      </trkpt>
      <trkpt lat="37.185561666666665" lon="-7.372295">
        <ele>50.000000000000014</ele>
        <time>2013-05-02T18:50:00.13</time>
      </trkpt>
      <trkpt lat="37.185555" lon="-7.372355">
        <ele>49.600000000000016</ele>
        <time>2013-05-02T18:50:01.15</time>
      </trkpt>
      <trkpt lat="37.18557" lon="-7.372416666666667">
        <ele>49.600000000000016</ele>
        <time>2013-05-02T18:50:02.16</time>
      </trkpt>
      <trkpt lat="37.185581666666664" lon="-7.372491666666667">
        <ele>49.500000000000014</ele>
        <time>2013-05-02T18:50:03.16</time>
      </trkpt>
      <trkpt lat="37.18559833333333" lon="-7.37257">
        <ele>49.40000000000001</ele>
        <time>2013-05-02T18:50:04.16</time>
      </trkpt>
      <trkpt lat="37.185615" lon="-7.372621666666666">
        <ele>49.500000000000014</ele>
        <time>2013-05-02T18:50:05.16</time>
      </trkpt>
      <trkpt lat="37.18563" lon="-7.3726883333333335">
        <ele>49.70000000000002</ele>
        <time>2013-05-02T18:50:06.16</time>
      </trkpt>
      <trkpt lat="37.18564" lon="-7.372763333333333">
        <ele>49.90000000000002</ele>
        <time>2013-05-02T18:50:07.16</time>
      </trkpt>
      <trkpt lat="37.185655" lon="-7.372838333333333">
        <ele>49.60000000000002</ele>
        <time>2013-05-02T18:50:08.16</time>
      </trkpt>
      <trkpt lat="37.18566833333333" lon="-7.372905">
        <ele>49.700000000000024</ele>
        <time>2013-05-02T18:50:09.16</time>
      </trkpt>
      <trkpt lat="37.185695" lon="-7.372955">
        <ele>51.10000000000002</ele>
        <time>2013-05-02T18:50:10.16</time>
      </trkpt>
      <trkpt lat="37.18570833333333" lon="-7.373026666666667">
        <ele>51.50000000000002</ele>
        <time>2013-05-02T18:50:11.15</time>
      </trkpt>
      <trkpt lat="37.185725" lon="-7.37309">
        <ele>52.30000000000002</ele>
        <time>2013-05-02T18:50:12.21</time>
      </trkpt>
      <trkpt lat="37.18574666666667" lon="-7.3731583333333335">
        <ele>52.30000000000002</ele>
        <time>2013-05-02T18:50:13.16</time>
      </trkpt>
      <trkpt lat="37.18575333333333" lon="-7.37322">
        <ele>52.600000000000016</ele>
        <time>2013-05-02T18:50:14.15</time>
      </trkpt>
      <trkpt lat="37.185768333333336" lon="-7.373291666666667">
        <ele>52.500000000000014</ele>
        <time>2013-05-02T18:50:15.16</time>
      </trkpt>
      <trkpt lat="37.185788333333335" lon="-7.373366666666667">
        <ele>52.70000000000002</ele>
        <time>2013-05-02T18:50:16.16</time>
      </trkpt>
      <trkpt lat="37.185813333333336" lon="-7.373453333333333">
        <ele>52.20000000000002</ele>
        <time>2013-05-02T18:50:17.16</time>
      </trkpt>
      <trkpt lat="37.18583666666667" lon="-7.373525">
        <ele>52.000000000000014</ele>
        <time>2013-05-02T18:50:18.16</time>
      </trkpt>
      <trkpt lat="37.185853333333334" lon="-7.373595">
        <ele>52.20000000000002</ele>
        <time>2013-05-02T18:50:19.16</time>
      </trkpt>
      <trkpt lat="37.18586833333333" lon="-7.373668333333334">
        <ele>52.30000000000002</ele>
        <time>2013-05-02T18:50:20.16</time>
      </trkpt>
      <trkpt lat="37.18588333333334" lon="-7.37374">
        <ele>52.00000000000002</ele>
        <time>2013-05-02T18:50:21.16</time>
      </trkpt>
      <trkpt lat="37.185903333333336" lon="-7.373806666666667">
        <ele>51.700000000000024</ele>
        <time>2013-05-02T18:50:22.16</time>
      </trkpt>
      <trkpt lat="37.18592666666667" lon="-7.373878333333334">
        <ele>51.700000000000024</ele>
        <time>2013-05-02T18:50:23.16</time>
      </trkpt>
      <trkpt lat="37.185945" lon="-7.373946666666667">
        <ele>51.300000000000026</ele>
        <time>2013-05-02T18:50:24.16</time>
      </trkpt>
      <trkpt lat="37.185968333333335" lon="-7.374016666666667">
        <ele>51.50000000000003</ele>
        <time>2013-05-02T18:50:25.16</time>
      </trkpt>
      <trkpt lat="37.18599833333333" lon="-7.374083333333333">
        <ele>51.00000000000003</ele>
        <time>2013-05-02T18:50:26.16</time>
      </trkpt>
      <trkpt lat="37.18602833333333" lon="-7.374146666666666">
        <ele>51.10000000000003</ele>
        <time>2013-05-02T18:50:27.16</time>
      </trkpt>
      <trkpt lat="37.186051666666664" lon="-7.3742133333333335">
        <ele>51.30000000000003</ele>
        <time>2013-05-02T18:50:28.16</time>
      </trkpt>
      <trkpt lat="37.18608" lon="-7.374275">
        <ele>51.30000000000003</ele>
        <time>2013-05-02T18:50:29.15</time>
      </trkpt>
      <trkpt lat="37.1861" lon="-7.374345">
        <ele>51.20000000000003</ele>
        <time>2013-05-02T18:50:30.15</time>
      </trkpt>
      <trkpt lat="37.186125" lon="-7.374408333333333">
        <ele>51.10000000000003</ele>
        <time>2013-05-02T18:50:31.16</time>
      </trkpt>
      <trkpt lat="37.18615166666667" lon="-7.374483333333333">
        <ele>50.90000000000003</ele>
        <time>2013-05-02T18:50:32.16</time>
      </trkpt>
      <trkpt lat="37.186175" lon="-7.374553333333333">
        <ele>50.800000000000026</ele>
        <time>2013-05-02T18:50:33.16</time>
      </trkpt>
      <trkpt lat="37.18620166666667" lon="-7.374625">
        <ele>50.90000000000003</ele>
        <time>2013-05-02T18:50:34.15</time>
      </trkpt>
      <trkpt lat="37.18622666666667" lon="-7.374695">
        <ele>50.60000000000003</ele>
        <time>2013-05-02T18:50:35.15</time>
      </trkpt>
      <trkpt lat="37.18625333333333" lon="-7.374768333333333">
        <ele>50.20000000000003</ele>
        <time>2013-05-02T18:50:36.15</time>
      </trkpt>
      <trkpt lat="37.18628" lon="-7.374836666666667">
        <ele>49.60000000000003</ele>
        <time>2013-05-02T18:50:37.16</time>
      </trkpt>
      <trkpt lat="37.186305" lon="-7.374903333333333">
        <ele>49.60000000000003</ele>
        <time>2013-05-02T18:50:38.19</time>
      </trkpt>
      <trkpt lat="37.18633333333333" lon="-7.37497">
        <ele>49.40000000000003</ele>
        <time>2013-05-02T18:50:39.15</time>
      </trkpt>
      <trkpt lat="37.18635666666667" lon="-7.375035">
        <ele>49.40000000000003</ele>
        <time>2013-05-02T18:50:40.15</time>
      </trkpt>
      <trkpt lat="37.186375" lon="-7.375101666666667">
        <ele>49.300000000000026</ele>
        <time>2013-05-02T18:50:41.16</time>
      </trkpt>
      <trkpt lat="37.1864" lon="-7.375173333333334">
        <ele>49.40000000000003</ele>
        <time>2013-05-02T18:50:42.16</time>
      </trkpt>
      <trkpt lat="37.186431666666664" lon="-7.375245">
        <ele>49.50000000000003</ele>
        <time>2013-05-02T18:50:43.16</time>
      </trkpt>
      <trkpt lat="37.18646" lon="-7.375303333333333">
        <ele>51.00000000000003</ele>
        <time>2013-05-02T18:50:44.16</time>
      </trkpt>
      <trkpt lat="37.186495" lon="-7.3753633333333335">
        <ele>51.60000000000003</ele>
        <time>2013-05-02T18:50:45.16</time>
      </trkpt>
      <trkpt lat="37.186521666666664" lon="-7.375418333333333">
        <ele>51.80000000000003</ele>
        <time>2013-05-02T18:50:46.15</time>
      </trkpt>
      <trkpt lat="37.18654" lon="-7.375478333333334">
        <ele>51.900000000000034</ele>
        <time>2013-05-02T18:50:47.16</time>
      </trkpt>
      <trkpt lat="37.186571666666666" lon="-7.375545">
        <ele>51.900000000000034</ele>
        <time>2013-05-02T18:50:48.16</time>
      </trkpt>
      <trkpt lat="37.18659" lon="-7.375611666666667">
        <ele>51.900000000000034</ele>
        <time>2013-05-02T18:50:49.16</time>
      </trkpt>
      <trkpt lat="37.186625" lon="-7.375695">
        <ele>51.70000000000003</ele>
        <time>2013-05-02T18:50:50.16</time>
      </trkpt>
      <trkpt lat="37.18665" lon="-7.375748333333333">
        <ele>51.50000000000003</ele>
        <time>2013-05-02T18:50:51.16</time>
      </trkpt>
      <trkpt lat="37.18667833333333" lon="-7.375815">
        <ele>51.40000000000003</ele>
        <time>2013-05-02T18:50:52.16</time>
      </trkpt>
      <trkpt lat="37.18669" lon="-7.3758816666666664">
        <ele>51.40000000000003</ele>
        <time>2013-05-02T18:50:53.16</time>
      </trkpt>
      <trkpt lat="37.186725" lon="-7.37595">
        <ele>51.200000000000024</ele>
        <time>2013-05-02T18:50:54.15</time>
      </trkpt>
      <trkpt lat="37.186745" lon="-7.37602">
        <ele>50.800000000000026</ele>
        <time>2013-05-02T18:50:55.16</time>
      </trkpt>
      <trkpt lat="37.18678166666667" lon="-7.376081666666667">
        <ele>50.700000000000024</ele>
        <time>2013-05-02T18:50:56.16</time>
      </trkpt>
      <trkpt lat="37.186811666666664" lon="-7.376151666666667">
        <ele>50.700000000000024</ele>
        <time>2013-05-02T18:50:57.16</time>
      </trkpt>
      <trkpt lat="37.186836666666665" lon="-7.376225">
        <ele>50.800000000000026</ele>
        <time>2013-05-02T18:50:58.15</time>
      </trkpt>
      <trkpt lat="37.186865" lon="-7.376291666666667">
        <ele>50.800000000000026</ele>
        <time>2013-05-02T18:50:59.16</time>
      </trkpt>
      <trkpt lat="37.186885" lon="-7.376353333333333">
        <ele>50.200000000000024</ele>
        <time>2013-05-02T18:51:00.14</time>
      </trkpt>
      <trkpt lat="37.186906666666665" lon="-7.376423333333333">
        <ele>49.300000000000026</ele>
        <time>2013-05-02T18:51:01.15</time>
      </trkpt>
      <trkpt lat="37.18693666666667" lon="-7.3764916666666664">
        <ele>49.00000000000003</ele>
        <time>2013-05-02T18:51:02.16</time>
      </trkpt>
      <trkpt lat="37.18697" lon="-7.376565">
        <ele>50.00000000000003</ele>
        <time>2013-05-02T18:51:03.16</time>
      </trkpt>
      <trkpt lat="37.186995" lon="-7.376628333333334">
        <ele>50.300000000000026</ele>
        <time>2013-05-02T18:51:04.15</time>
      </trkpt>
      <trkpt lat="37.187021666666666" lon="-7.376696666666667">
        <ele>50.700000000000024</ele>
        <time>2013-05-02T18:51:05.15</time>
      </trkpt>
      <trkpt lat="37.187045" lon="-7.376761666666667">
        <ele>50.700000000000024</ele>
        <time>2013-05-02T18:51:06.16</time>
      </trkpt>
      <trkpt lat="37.187068333333336" lon="-7.376828333333333">
        <ele>50.50000000000002</ele>
        <time>2013-05-02T18:51:07.16</time>
      </trkpt>
      <trkpt lat="37.18709333333334" lon="-7.376898333333333">
        <ele>50.30000000000002</ele>
        <time>2013-05-02T18:51:08.16</time>
      </trkpt>
      <trkpt lat="37.18712333333333" lon="-7.376965">
        <ele>50.70000000000002</ele>
        <time>2013-05-02T18:51:09.15</time>
      </trkpt>
      <trkpt lat="37.18714833333333" lon="-7.377031666666666">
        <ele>50.90000000000002</ele>
        <time>2013-05-02T18:51:10.15</time>
      </trkpt>
      <trkpt lat="37.187175" lon="-7.377095">
        <ele>51.10000000000002</ele>
        <time>2013-05-02T18:51:11.16</time>
      </trkpt>
      <trkpt lat="37.1872" lon="-7.37716">
        <ele>51.300000000000026</ele>
        <time>2013-05-02T18:51:12.15</time>
      </trkpt>
      <trkpt lat="37.187225" lon="-7.377233333333334">
        <ele>51.200000000000024</ele>
        <time>2013-05-02T18:51:13.16</time>
      </trkpt>
      <trkpt lat="37.18725166666667" lon="-7.377301666666667">
        <ele>50.800000000000026</ele>
        <time>2013-05-02T18:51:14.16</time>
      </trkpt>
      <trkpt lat="37.18727666666667" lon="-7.377371666666667">
        <ele>50.40000000000003</ele>
        <time>2013-05-02T18:51:15.15</time>
      </trkpt>
      <trkpt lat="37.1873" lon="-7.377441666666667">
        <ele>51.10000000000003</ele>
        <time>2013-05-02T18:51:16.16</time>
      </trkpt>
      <trkpt lat="37.18732333333333" lon="-7.377506666666667">
        <ele>51.00000000000003</ele>
        <time>2013-05-02T18:51:17.15</time>
      </trkpt>
      <trkpt lat="37.18735" lon="-7.377576666666666">
        <ele>51.00000000000003</ele>
        <time>2013-05-02T18:51:18.16</time>
      </trkpt>
      <trkpt lat="37.18737333333333" lon="-7.37764">
        <ele>50.800000000000026</ele>
        <time>2013-05-02T18:51:19.16</time>
      </trkpt>
      <trkpt lat="37.187401666666666" lon="-7.377705">
        <ele>51.300000000000026</ele>
        <time>2013-05-02T18:51:20.16</time>
      </trkpt>
      <trkpt lat="37.187425" lon="-7.37777">
        <ele>51.200000000000024</ele>
        <time>2013-05-02T18:51:21.16</time>
      </trkpt>
      <trkpt lat="37.18745" lon="-7.377833333333333">
        <ele>51.00000000000002</ele>
        <time>2013-05-02T18:51:22.16</time>
      </trkpt>
      <trkpt lat="37.18747333333334" lon="-7.3778966666666665">
        <ele>51.00000000000002</ele>
        <time>2013-05-02T18:51:23.16</time>
      </trkpt>
      <trkpt lat="37.18749833333333" lon="-7.377961666666667">
        <ele>51.30000000000002</ele>
        <time>2013-05-02T18:51:24.15</time>
      </trkpt>
      <trkpt lat="37.18752333333333" lon="-7.378023333333333">
        <ele>51.40000000000002</ele>
        <time>2013-05-02T18:51:25.15</time>
      </trkpt>
      <trkpt lat="37.18754833333333" lon="-7.3780866666666665">
        <ele>51.40000000000002</ele>
        <time>2013-05-02T18:51:26.15</time>
      </trkpt>
      <trkpt lat="37.187575" lon="-7.378155">
        <ele>51.40000000000002</ele>
        <time>2013-05-02T18:51:27.15</time>
      </trkpt>
      <trkpt lat="37.187601666666666" lon="-7.378215">
        <ele>51.20000000000002</ele>
        <time>2013-05-02T18:51:28.15</time>
      </trkpt>
      <trkpt lat="37.18763166666667" lon="-7.37828">
        <ele>50.90000000000002</ele>
        <time>2013-05-02T18:51:29.16</time>
      </trkpt>
      <trkpt lat="37.18765333333333" lon="-7.378338333333334">
        <ele>50.80000000000002</ele>
        <time>2013-05-02T18:51:30.16</time>
      </trkpt>
      <trkpt lat="37.187673333333336" lon="-7.378403333333333">
        <ele>51.20000000000002</ele>
        <time>2013-05-02T18:51:31.15</time>
      </trkpt>
      <trkpt lat="37.18770333333333" lon="-7.378466666666666">
        <ele>51.100000000000016</ele>
        <time>2013-05-02T18:51:32.15</time>
      </trkpt>
      <trkpt lat="37.187725" lon="-7.37853">
        <ele>51.30000000000002</ele>
        <time>2013-05-02T18:51:33.15</time>
      </trkpt>
      <trkpt lat="37.18775" lon="-7.378588333333333">
        <ele>51.00000000000002</ele>
        <time>2013-05-02T18:51:34.15</time>
      </trkpt>
      <trkpt lat="37.187778333333334" lon="-7.378655">
        <ele>50.90000000000002</ele>
        <time>2013-05-02T18:51:35.15</time>
      </trkpt>
      <trkpt lat="37.187803333333335" lon="-7.378721666666666">
        <ele>50.90000000000002</ele>
        <time>2013-05-02T18:51:36.15</time>
      </trkpt>
      <trkpt lat="37.187835" lon="-7.378785">
        <ele>50.70000000000002</ele>
        <time>2013-05-02T18:51:37.15</time>
      </trkpt>
      <trkpt lat="37.18785833333333" lon="-7.378848333333333">
        <ele>50.500000000000014</ele>
        <time>2013-05-02T18:51:38.16</time>
      </trkpt>
      <trkpt lat="37.18788166666667" lon="-7.378911666666666">
        <ele>50.500000000000014</ele>
        <time>2013-05-02T18:51:39.15</time>
      </trkpt>
      <trkpt lat="37.187905" lon="-7.3789766666666665">
        <ele>50.20000000000002</ele>
        <time>2013-05-02T18:51:40.15</time>
      </trkpt>
      <trkpt lat="37.187925" lon="-7.379043333333334">
        <ele>50.000000000000014</ele>
        <time>2013-05-02T18:51:41.16</time>
      </trkpt>
      <trkpt lat="37.18794833333333" lon="-7.379103333333333">
        <ele>50.000000000000014</ele>
        <time>2013-05-02T18:51:42.15</time>
      </trkpt>
      <trkpt lat="37.187976666666664" lon="-7.379161666666667">
        <ele>49.80000000000001</ele>
        <time>2013-05-02T18:51:43.16</time>
      </trkpt>
      <trkpt lat="37.18799333333333" lon="-7.379221666666667">
        <ele>50.10000000000001</ele>
        <time>2013-05-02T18:51:44.16</time>
      </trkpt>
      <trkpt lat="37.18801333333333" lon="-7.3792816666666665">
        <ele>50.20000000000001</ele>
        <time>2013-05-02T18:51:45.15</time>
      </trkpt>
      <trkpt lat="37.18803833333333" lon="-7.379343333333333">
        <ele>50.80000000000001</ele>
        <time>2013-05-02T18:51:46.16</time>
      </trkpt>
      <trkpt lat="37.18805833333333" lon="-7.379405">
        <ele>51.10000000000001</ele>
        <time>2013-05-02T18:51:47.15</time>
      </trkpt>
      <trkpt lat="37.18808" lon="-7.379461666666667">
        <ele>50.80000000000001</ele>
        <time>2013-05-02T18:51:48.16</time>
      </trkpt>
      <trkpt lat="37.18810833333333" lon="-7.379525">
        <ele>51.20000000000001</ele>
        <time>2013-05-02T18:51:49.16</time>
      </trkpt>
      <trkpt lat="37.18813166666666" lon="-7.379583333333334">
        <ele>52.00000000000001</ele>
        <time>2013-05-02T18:51:50.16</time>
      </trkpt>
      <trkpt lat="37.188156666666664" lon="-7.37964">
        <ele>51.900000000000006</ele>
        <time>2013-05-02T18:51:51.16</time>
      </trkpt>
      <trkpt lat="37.188183333333335" lon="-7.3797">
        <ele>51.7</ele>
        <time>2013-05-02T18:51:52.16</time>
      </trkpt>
      <trkpt lat="37.188203333333334" lon="-7.379758333333333">
        <ele>51.800000000000004</ele>
        <time>2013-05-02T18:51:53.16</time>
      </trkpt>
      <trkpt lat="37.188226666666665" lon="-7.379818333333334">
        <ele>51.900000000000006</ele>
        <time>2013-05-02T18:51:54.16</time>
      </trkpt>
      <trkpt lat="37.188255" lon="-7.379885">
        <ele>51.800000000000004</ele>
        <time>2013-05-02T18:51:55.16</time>
      </trkpt>
      <trkpt lat="37.188278333333336" lon="-7.379928333333333">
        <ele>51.6</ele>
        <time>2013-05-02T18:51:56.16</time>
      </trkpt>
      <trkpt lat="37.188295" lon="-7.379973333333333">
        <ele>51.6</ele>
        <time>2013-05-02T18:51:57.16</time>
      </trkpt>
      <trkpt lat="37.18831" lon="-7.380043333333333">
        <ele>51.800000000000004</ele>
        <time>2013-05-02T18:51:58.16</time>
      </trkpt>
      <trkpt lat="37.18832666666667" lon="-7.3801033333333335">
        <ele>51.800000000000004</ele>
        <time>2013-05-02T18:51:59.16</time>
      </trkpt>
      <trkpt lat="37.18835" lon="-7.380163333333333">
        <ele>51.800000000000004</ele>
        <time>2013-05-02T18:52:00.14</time>
      </trkpt>
      <trkpt lat="37.18837166666667" lon="-7.38023">
        <ele>52.00000000000001</ele>
        <time>2013-05-02T18:52:01.16</time>
      </trkpt>
      <trkpt lat="37.1884" lon="-7.380293333333333">
        <ele>52.00000000000001</ele>
        <time>2013-05-02T18:52:02.16</time>
      </trkpt>
      <trkpt lat="37.188415" lon="-7.380333333333334">
        <ele>52.20000000000001</ele>
        <time>2013-05-02T18:52:03.16</time>
      </trkpt>
      <trkpt lat="37.18844333333333" lon="-7.380398333333333">
        <ele>52.30000000000001</ele>
        <time>2013-05-02T18:52:04.16</time>
      </trkpt>
      <trkpt lat="37.18847" lon="-7.380448333333334">
        <ele>52.500000000000014</ele>
        <time>2013-05-02T18:52:05.16</time>
      </trkpt>
      <trkpt lat="37.18848833333333" lon="-7.380505">
        <ele>52.100000000000016</ele>
        <time>2013-05-02T18:52:06.16</time>
      </trkpt>
      <trkpt lat="37.188516666666665" lon="-7.380558333333333">
        <ele>52.30000000000002</ele>
        <time>2013-05-02T18:52:07.16</time>
      </trkpt>
      <trkpt lat="37.188535" lon="-7.380615">
        <ele>52.00000000000002</ele>
        <time>2013-05-02T18:52:08.15</time>
      </trkpt>
      <trkpt lat="37.18854666666667" lon="-7.380671666666666">
        <ele>51.60000000000002</ele>
        <time>2013-05-02T18:52:09.16</time>
      </trkpt>
      <trkpt lat="37.18857833333333" lon="-7.380745">
        <ele>51.60000000000002</ele>
        <time>2013-05-02T18:52:10.17</time>
      </trkpt>
      <trkpt lat="37.18860166666666" lon="-7.380801666666667">
        <ele>51.60000000000002</ele>
        <time>2013-05-02T18:52:11.16</time>
      </trkpt>
      <trkpt lat="37.18863" lon="-7.380856666666666">
        <ele>52.00000000000002</ele>
        <time>2013-05-02T18:52:12.16</time>
      </trkpt>
      <trkpt lat="37.18865" lon="-7.380915">
        <ele>52.60000000000002</ele>
        <time>2013-05-02T18:52:13.16</time>
      </trkpt>
      <trkpt lat="37.188665" lon="-7.380975">
        <ele>52.60000000000002</ele>
        <time>2013-05-02T18:52:14.16</time>
      </trkpt>
      <trkpt lat="37.18868333333333" lon="-7.381026666666667">
        <ele>52.700000000000024</ele>
        <time>2013-05-02T18:52:15.16</time>
      </trkpt>
      <trkpt lat="37.188716666666664" lon="-7.381083333333334">
        <ele>52.700000000000024</ele>
        <time>2013-05-02T18:52:16.16</time>
      </trkpt>
      <trkpt lat="37.188745" lon="-7.381141666666666">
        <ele>52.90000000000003</ele>
        <time>2013-05-02T18:52:17.16</time>
      </trkpt>
      <trkpt lat="37.188775" lon="-7.3812066666666665">
        <ele>52.700000000000024</ele>
        <time>2013-05-02T18:52:18.16</time>
      </trkpt>
      <trkpt lat="37.18879333333334" lon="-7.381268333333334">
        <ele>52.800000000000026</ele>
        <time>2013-05-02T18:52:19.16</time>
      </trkpt>
      <trkpt lat="37.188813333333336" lon="-7.381328333333333">
        <ele>52.800000000000026</ele>
        <time>2013-05-02T18:52:20.16</time>
      </trkpt>
      <trkpt lat="37.188835" lon="-7.381385">
        <ele>52.00000000000003</ele>
        <time>2013-05-02T18:52:21.16</time>
      </trkpt>
      <trkpt lat="37.18886666666667" lon="-7.381456666666667">
        <ele>52.70000000000003</ele>
        <time>2013-05-02T18:52:22.16</time>
      </trkpt>
      <trkpt lat="37.188895" lon="-7.38152">
        <ele>52.60000000000003</ele>
        <time>2013-05-02T18:52:23.16</time>
      </trkpt>
      <trkpt lat="37.188923333333335" lon="-7.38158">
        <ele>52.70000000000003</ele>
        <time>2013-05-02T18:52:24.16</time>
      </trkpt>
      <trkpt lat="37.18893833333333" lon="-7.381635">
        <ele>52.60000000000003</ele>
        <time>2013-05-02T18:52:25.16</time>
      </trkpt>
      <trkpt lat="37.188963333333334" lon="-7.381701666666666">
        <ele>52.30000000000003</ele>
        <time>2013-05-02T18:52:26.16</time>
      </trkpt>
      <trkpt lat="37.188993333333336" lon="-7.381761666666667">
        <ele>52.20000000000003</ele>
        <time>2013-05-02T18:52:27.19</time>
      </trkpt>
      <trkpt lat="37.189013333333335" lon="-7.38182">
        <ele>52.50000000000003</ele>
        <time>2013-05-02T18:52:28.22</time>
      </trkpt>
      <trkpt lat="37.18903666666667" lon="-7.381888333333333">
        <ele>52.50000000000003</ele>
        <time>2013-05-02T18:52:29.15</time>
      </trkpt>
      <trkpt lat="37.189053333333334" lon="-7.381951666666667">
        <ele>51.90000000000003</ele>
        <time>2013-05-02T18:52:30.16</time>
      </trkpt>
      <trkpt lat="37.189076666666665" lon="-7.382013333333333">
        <ele>51.800000000000026</ele>
        <time>2013-05-02T18:52:31.16</time>
      </trkpt>
      <trkpt lat="37.1891" lon="-7.382081666666667">
        <ele>52.50000000000003</ele>
        <time>2013-05-02T18:52:32.16</time>
      </trkpt>
      <trkpt lat="37.189123333333335" lon="-7.382146666666666">
        <ele>52.10000000000003</ele>
        <time>2013-05-02T18:52:33.16</time>
      </trkpt>
      <trkpt lat="37.189148333333335" lon="-7.382216666666666">
        <ele>52.40000000000003</ele>
        <time>2013-05-02T18:52:34.16</time>
      </trkpt>
      <trkpt lat="37.189175" lon="-7.382275">
        <ele>52.10000000000003</ele>
        <time>2013-05-02T18:52:35.18</time>
      </trkpt>
      <trkpt lat="37.1892" lon="-7.382345">
        <ele>52.50000000000003</ele>
        <time>2013-05-02T18:52:36.17</time>
      </trkpt>
      <trkpt lat="37.189238333333336" lon="-7.38242">
        <ele>52.50000000000003</ele>
        <time>2013-05-02T18:52:37.16</time>
      </trkpt>
      <trkpt lat="37.189258333333335" lon="-7.382475">
        <ele>51.60000000000003</ele>
        <time>2013-05-02T18:52:38.16</time>
      </trkpt>
      <trkpt lat="37.189283333333336" lon="-7.38254">
        <ele>51.70000000000003</ele>
        <time>2013-05-02T18:52:39.16</time>
      </trkpt>
      <trkpt lat="37.189301666666665" lon="-7.382601666666667">
        <ele>51.60000000000003</ele>
        <time>2013-05-02T18:52:40.16</time>
      </trkpt>
      <trkpt lat="37.189328333333336" lon="-7.38267">
        <ele>51.80000000000003</ele>
        <time>2013-05-02T18:52:41.15</time>
      </trkpt>
      <trkpt lat="37.189348333333335" lon="-7.38273">
        <ele>52.000000000000036</ele>
        <time>2013-05-02T18:52:42.15</time>
      </trkpt>
      <trkpt lat="37.189368333333334" lon="-7.382788333333333">
        <ele>52.000000000000036</ele>
        <time>2013-05-02T18:52:43.16</time>
      </trkpt>
      <trkpt lat="37.189391666666666" lon="-7.382858333333333">
        <ele>51.80000000000003</ele>
        <time>2013-05-02T18:52:44.15</time>
      </trkpt>
      <trkpt lat="37.189405" lon="-7.382915">
        <ele>51.900000000000034</ele>
        <time>2013-05-02T18:52:45.16</time>
      </trkpt>
      <trkpt lat="37.18942333333333" lon="-7.382978333333333">
        <ele>51.900000000000034</ele>
        <time>2013-05-02T18:52:46.15</time>
      </trkpt>
      <trkpt lat="37.18944166666667" lon="-7.383046666666667">
        <ele>51.70000000000003</ele>
        <time>2013-05-02T18:52:47.16</time>
      </trkpt>
      <trkpt lat="37.189456666666665" lon="-7.38309">
        <ele>51.30000000000003</ele>
        <time>2013-05-02T18:52:48.16</time>
      </trkpt>
      <trkpt lat="37.189465" lon="-7.3831533333333335">
        <ele>51.20000000000003</ele>
        <time>2013-05-02T18:52:49.16</time>
      </trkpt>
      <trkpt lat="37.18949166666667" lon="-7.383208333333333">
        <ele>51.20000000000003</ele>
        <time>2013-05-02T18:52:50.15</time>
      </trkpt>
      <trkpt lat="37.18952" lon="-7.38327">
        <ele>51.20000000000003</ele>
        <time>2013-05-02T18:52:51.16</time>
      </trkpt>
      <trkpt lat="37.189521666666664" lon="-7.38333">
        <ele>51.20000000000003</ele>
        <time>2013-05-02T18:52:52.15</time>
      </trkpt>
      <trkpt lat="37.18954" lon="-7.38338">
        <ele>51.30000000000003</ele>
        <time>2013-05-02T18:52:53.17</time>
      </trkpt>
      <trkpt lat="37.189568333333334" lon="-7.383436666666666">
        <ele>51.10000000000003</ele>
        <time>2013-05-02T18:52:54.15</time>
      </trkpt>
      <trkpt lat="37.189591666666665" lon="-7.38348">
        <ele>50.70000000000003</ele>
        <time>2013-05-02T18:52:55.16</time>
      </trkpt>
      <trkpt lat="37.189593333333335" lon="-7.383525">
        <ele>51.00000000000003</ele>
        <time>2013-05-02T18:52:56.16</time>
      </trkpt>
      <trkpt lat="37.18962" lon="-7.383591666666667">
        <ele>51.800000000000026</ele>
        <time>2013-05-02T18:52:57.16</time>
      </trkpt>
      <trkpt lat="37.18964166666667" lon="-7.3836466666666665">
        <ele>51.60000000000002</ele>
        <time>2013-05-02T18:52:58.15</time>
      </trkpt>
      <trkpt lat="37.189663333333336" lon="-7.383693333333333">
        <ele>52.200000000000024</ele>
        <time>2013-05-02T18:52:59.16</time>
      </trkpt>
      <trkpt lat="37.1897" lon="-7.383711666666667">
        <ele>53.00000000000002</ele>
        <time>2013-05-02T18:53:00.14</time>
      </trkpt>
      <trkpt lat="37.189751666666666" lon="-7.383726666666667">
        <ele>53.200000000000024</ele>
        <time>2013-05-02T18:53:01.15</time>
      </trkpt>
      <trkpt lat="37.189796666666666" lon="-7.383756666666667">
        <ele>53.50000000000002</ele>
        <time>2013-05-02T18:53:02.16</time>
      </trkpt>
      <trkpt lat="37.189838333333334" lon="-7.383758333333334">
        <ele>54.50000000000002</ele>
        <time>2013-05-02T18:53:03.21</time>
      </trkpt>
      <trkpt lat="37.18989" lon="-7.383805">
        <ele>54.40000000000002</ele>
        <time>2013-05-02T18:53:04.15</time>
      </trkpt>
      <trkpt lat="37.18992333333333" lon="-7.38384">
        <ele>54.30000000000002</ele>
        <time>2013-05-02T18:53:05.16</time>
      </trkpt>
      <trkpt lat="37.189953333333335" lon="-7.383893333333333">
        <ele>54.20000000000002</ele>
        <time>2013-05-02T18:53:06.16</time>
      </trkpt>
      <trkpt lat="37.189995" lon="-7.383966666666667">
        <ele>53.20000000000002</ele>
        <time>2013-05-02T18:53:07.16</time>
      </trkpt>
      <trkpt lat="37.190015" lon="-7.384003333333333">
        <ele>52.20000000000002</ele>
        <time>2013-05-02T18:53:08.16</time>
      </trkpt>
      <trkpt lat="37.19002" lon="-7.384056666666667">
        <ele>52.000000000000014</ele>
        <time>2013-05-02T18:53:09.15</time>
      </trkpt>
      <trkpt lat="37.19004" lon="-7.384156666666667">
        <ele>50.90000000000001</ele>
        <time>2013-05-02T18:53:10.15</time>
      </trkpt>
      <trkpt lat="37.19005166666667" lon="-7.384228333333334">
        <ele>50.600000000000016</ele>
        <time>2013-05-02T18:53:11.16</time>
      </trkpt>
      <trkpt lat="37.190063333333335" lon="-7.38427">
        <ele>51.40000000000001</ele>
        <time>2013-05-02T18:53:12.15</time>
      </trkpt>
      <trkpt lat="37.190083333333334" lon="-7.384328333333333">
        <ele>51.90000000000001</ele>
        <time>2013-05-02T18:53:13.16</time>
      </trkpt>
      <trkpt lat="37.19012166666667" lon="-7.384393333333334">
        <ele>52.000000000000014</ele>
        <time>2013-05-02T18:53:14.16</time>
      </trkpt>
      <trkpt lat="37.19014166666667" lon="-7.384458333333333">
        <ele>51.600000000000016</ele>
        <time>2013-05-02T18:53:15.13</time>
      </trkpt>
      <trkpt lat="37.19017" lon="-7.384511666666667">
        <ele>52.000000000000014</ele>
        <time>2013-05-02T18:53:16.15</time>
      </trkpt>
      <trkpt lat="37.19019" lon="-7.38457">
        <ele>52.70000000000002</ele>
        <time>2013-05-02T18:53:17.15</time>
      </trkpt>
      <trkpt lat="37.19020666666667" lon="-7.384628333333334">
        <ele>52.40000000000002</ele>
        <time>2013-05-02T18:53:18.15</time>
      </trkpt>
      <trkpt lat="37.190235" lon="-7.384691666666667">
        <ele>52.30000000000002</ele>
        <time>2013-05-02T18:53:19.16</time>
      </trkpt>
      <trkpt lat="37.190236666666664" lon="-7.3847483333333335">
        <ele>52.90000000000002</ele>
        <time>2013-05-02T18:53:20.16</time>
      </trkpt>
      <trkpt lat="37.190265" lon="-7.384823333333333">
        <ele>52.90000000000002</ele>
        <time>2013-05-02T18:53:21.16</time>
      </trkpt>
      <trkpt lat="37.19029166666667" lon="-7.384881666666667">
        <ele>53.50000000000002</ele>
        <time>2013-05-02T18:53:22.16</time>
      </trkpt>
      <trkpt lat="37.19031833333333" lon="-7.3849583333333335">
        <ele>54.30000000000002</ele>
        <time>2013-05-02T18:53:23.16</time>
      </trkpt>
      <trkpt lat="37.190326666666664" lon="-7.385005">
        <ele>54.100000000000016</ele>
        <time>2013-05-02T18:53:24.15</time>
      </trkpt>
      <trkpt lat="37.190351666666665" lon="-7.385058333333333">
        <ele>54.90000000000001</ele>
        <time>2013-05-02T18:53:25.16</time>
      </trkpt>
      <trkpt lat="37.190376666666666" lon="-7.385116666666667">
        <ele>55.100000000000016</ele>
        <time>2013-05-02T18:53:26.16</time>
      </trkpt>
      <trkpt lat="37.190396666666665" lon="-7.385178333333333">
        <ele>55.20000000000002</ele>
        <time>2013-05-02T18:53:27.16</time>
      </trkpt>
      <trkpt lat="37.19043" lon="-7.38525">
        <ele>55.80000000000002</ele>
        <time>2013-05-02T18:53:28.16</time>
      </trkpt>
      <trkpt lat="37.190455" lon="-7.385308333333334">
        <ele>55.50000000000002</ele>
        <time>2013-05-02T18:53:29.16</time>
      </trkpt>
      <trkpt lat="37.19047666666667" lon="-7.385371666666667">
        <ele>55.80000000000002</ele>
        <time>2013-05-02T18:53:30.16</time>
      </trkpt>
      <trkpt lat="37.19050333333333" lon="-7.385438333333333">
        <ele>55.600000000000016</ele>
        <time>2013-05-02T18:53:31.16</time>
      </trkpt>
      <trkpt lat="37.19052833333333" lon="-7.385508333333333">
        <ele>55.70000000000002</ele>
        <time>2013-05-02T18:53:32.15</time>
      </trkpt>
      <trkpt lat="37.190556666666666" lon="-7.3855683333333335">
        <ele>55.70000000000002</ele>
        <time>2013-05-02T18:53:33.16</time>
      </trkpt>
      <trkpt lat="37.19058833333333" lon="-7.385633333333334">
        <ele>55.500000000000014</ele>
        <time>2013-05-02T18:53:34.16</time>
      </trkpt>
      <trkpt lat="37.19061" lon="-7.385725">
        <ele>55.600000000000016</ele>
        <time>2013-05-02T18:53:35.16</time>
      </trkpt>
      <trkpt lat="37.190643333333334" lon="-7.385798333333334">
        <ele>55.600000000000016</ele>
        <time>2013-05-02T18:53:36.15</time>
      </trkpt>
      <trkpt lat="37.190666666666665" lon="-7.38586">
        <ele>55.500000000000014</ele>
        <time>2013-05-02T18:53:37.16</time>
      </trkpt>
      <trkpt lat="37.19070166666667" lon="-7.38593">
        <ele>55.600000000000016</ele>
        <time>2013-05-02T18:53:38.16</time>
      </trkpt>
      <trkpt lat="37.190731666666665" lon="-7.386003333333333">
        <ele>55.40000000000001</ele>
        <time>2013-05-02T18:53:39.16</time>
      </trkpt>
      <trkpt lat="37.19075" lon="-7.386063333333333">
        <ele>55.40000000000001</ele>
        <time>2013-05-02T18:53:40.16</time>
      </trkpt>
      <trkpt lat="37.19078" lon="-7.386128333333334">
        <ele>55.000000000000014</ele>
        <time>2013-05-02T18:53:41.16</time>
      </trkpt>
      <trkpt lat="37.19079833333333" lon="-7.386188333333333">
        <ele>55.000000000000014</ele>
        <time>2013-05-02T18:53:42.16</time>
      </trkpt>
      <trkpt lat="37.190835" lon="-7.38623">
        <ele>55.20000000000002</ele>
        <time>2013-05-02T18:53:43.16</time>
      </trkpt>
      <trkpt lat="37.19086166666666" lon="-7.386315">
        <ele>54.90000000000002</ele>
        <time>2013-05-02T18:53:44.16</time>
      </trkpt>
      <trkpt lat="37.190885" lon="-7.386381666666667">
        <ele>55.40000000000002</ele>
        <time>2013-05-02T18:53:45.16</time>
      </trkpt>
      <trkpt lat="37.190913333333334" lon="-7.386445">
        <ele>55.40000000000002</ele>
        <time>2013-05-02T18:53:46.15</time>
      </trkpt>
      <trkpt lat="37.190935" lon="-7.386495">
        <ele>55.00000000000002</ele>
        <time>2013-05-02T18:53:47.15</time>
      </trkpt>
      <trkpt lat="37.19095333333333" lon="-7.386566666666667">
        <ele>55.10000000000002</ele>
        <time>2013-05-02T18:53:48.16</time>
      </trkpt>
      <trkpt lat="37.19098833333334" lon="-7.386635">
        <ele>54.60000000000002</ele>
        <time>2013-05-02T18:53:49.16</time>
      </trkpt>
      <trkpt lat="37.191015" lon="-7.386713333333334">
        <ele>54.50000000000002</ele>
        <time>2013-05-02T18:53:50.15</time>
      </trkpt>
      <trkpt lat="37.191035" lon="-7.386791666666666">
        <ele>54.30000000000002</ele>
        <time>2013-05-02T18:53:51.15</time>
      </trkpt>
      <trkpt lat="37.19105833333333" lon="-7.38685">
        <ele>54.70000000000002</ele>
        <time>2013-05-02T18:53:52.15</time>
      </trkpt>
      <trkpt lat="37.19108166666667" lon="-7.38692">
        <ele>55.100000000000016</ele>
        <time>2013-05-02T18:53:53.16</time>
      </trkpt>
      <trkpt lat="37.19108666666666" lon="-7.386996666666667">
        <ele>54.90000000000001</ele>
        <time>2013-05-02T18:53:54.16</time>
      </trkpt>
      <trkpt lat="37.19111" lon="-7.387051666666666">
        <ele>55.000000000000014</ele>
        <time>2013-05-02T18:53:55.16</time>
      </trkpt>
      <trkpt lat="37.19112666666667" lon="-7.38711">
        <ele>55.100000000000016</ele>
        <time>2013-05-02T18:53:56.15</time>
      </trkpt>
      <trkpt lat="37.191161666666666" lon="-7.387178333333333">
        <ele>56.000000000000014</ele>
        <time>2013-05-02T18:53:57.16</time>
      </trkpt>
      <trkpt lat="37.19118666666667" lon="-7.3872366666666665">
        <ele>56.500000000000014</ele>
        <time>2013-05-02T18:53:58.16</time>
      </trkpt>
      <trkpt lat="37.191215" lon="-7.387288333333333">
        <ele>56.90000000000001</ele>
        <time>2013-05-02T18:53:59.16</time>
      </trkpt>
      <trkpt lat="37.19123666666667" lon="-7.387345">
        <ele>57.100000000000016</ele>
        <time>2013-05-02T18:54:00.13</time>
      </trkpt>
      <trkpt lat="37.19123833333333" lon="-7.387395">
        <ele>57.20000000000002</ele>
        <time>2013-05-02T18:54:01.15</time>
      </trkpt>
      <trkpt lat="37.191266666666664" lon="-7.387466666666667">
        <ele>57.40000000000002</ele>
        <time>2013-05-02T18:54:02.16</time>
      </trkpt>
      <trkpt lat="37.1913" lon="-7.38753">
        <ele>57.70000000000002</ele>
        <time>2013-05-02T18:54:03.16</time>
      </trkpt>
      <trkpt lat="37.191318333333335" lon="-7.3875866666666665">
        <ele>57.500000000000014</ele>
        <time>2013-05-02T18:54:04.16</time>
      </trkpt>
      <trkpt lat="37.191338333333334" lon="-7.38765">
        <ele>57.500000000000014</ele>
        <time>2013-05-02T18:54:05.16</time>
      </trkpt>
      <trkpt lat="37.191361666666666" lon="-7.387721666666667">
        <ele>57.500000000000014</ele>
        <time>2013-05-02T18:54:06.16</time>
      </trkpt>
      <trkpt lat="37.19139" lon="-7.387785">
        <ele>58.000000000000014</ele>
        <time>2013-05-02T18:54:07.16</time>
      </trkpt>
      <trkpt lat="37.19141166666667" lon="-7.387848333333333">
        <ele>58.600000000000016</ele>
        <time>2013-05-02T18:54:08.15</time>
      </trkpt>
      <trkpt lat="37.191433333333336" lon="-7.3879133333333336">
        <ele>58.70000000000002</ele>
        <time>2013-05-02T18:54:09.16</time>
      </trkpt>
      <trkpt lat="37.19145833333334" lon="-7.387978333333334">
        <ele>58.80000000000002</ele>
        <time>2013-05-02T18:54:10.16</time>
      </trkpt>
      <trkpt lat="37.191496666666666" lon="-7.388038333333333">
        <ele>59.20000000000002</ele>
        <time>2013-05-02T18:54:11.16</time>
      </trkpt>
      <trkpt lat="37.19152" lon="-7.388093333333333">
        <ele>59.40000000000002</ele>
        <time>2013-05-02T18:54:12.16</time>
      </trkpt>
      <trkpt lat="37.19155166666667" lon="-7.388161666666667">
        <ele>59.50000000000002</ele>
        <time>2013-05-02T18:54:13.16</time>
      </trkpt>
      <trkpt lat="37.19159" lon="-7.388225">
        <ele>59.80000000000002</ele>
        <time>2013-05-02T18:54:14.16</time>
      </trkpt>
      <trkpt lat="37.19161" lon="-7.388286666666667">
        <ele>60.100000000000016</ele>
        <time>2013-05-02T18:54:15.16</time>
      </trkpt>
      <trkpt lat="37.19163" lon="-7.38835">
        <ele>60.70000000000002</ele>
        <time>2013-05-02T18:54:16.16</time>
      </trkpt>
      <trkpt lat="37.19166666666667" lon="-7.388411666666666">
        <ele>60.70000000000002</ele>
        <time>2013-05-02T18:54:17.16</time>
      </trkpt>
      <trkpt lat="37.191696666666665" lon="-7.388485">
        <ele>60.500000000000014</ele>
        <time>2013-05-02T18:54:18.16</time>
      </trkpt>
      <trkpt lat="37.191725" lon="-7.388555">
        <ele>60.80000000000001</ele>
        <time>2013-05-02T18:54:19.16</time>
      </trkpt>
      <trkpt lat="37.19175" lon="-7.38862">
        <ele>61.000000000000014</ele>
        <time>2013-05-02T18:54:20.16</time>
      </trkpt>
      <trkpt lat="37.191761666666665" lon="-7.388675">
        <ele>61.500000000000014</ele>
        <time>2013-05-02T18:54:21.16</time>
      </trkpt>
      <trkpt lat="37.19179166666667" lon="-7.388751666666667">
        <ele>61.600000000000016</ele>
        <time>2013-05-02T18:54:22.16</time>
      </trkpt>
      <trkpt lat="37.191813333333336" lon="-7.38882">
        <ele>61.600000000000016</ele>
        <time>2013-05-02T18:54:23.15</time>
      </trkpt>
      <trkpt lat="37.19183666666667" lon="-7.388888333333333">
        <ele>61.600000000000016</ele>
        <time>2013-05-02T18:54:24.15</time>
      </trkpt>
      <trkpt lat="37.19186166666667" lon="-7.388953333333333">
        <ele>62.000000000000014</ele>
        <time>2013-05-02T18:54:25.16</time>
      </trkpt>
      <trkpt lat="37.19188833333333" lon="-7.389013333333334">
        <ele>62.100000000000016</ele>
        <time>2013-05-02T18:54:26.15</time>
      </trkpt>
      <trkpt lat="37.191923333333335" lon="-7.389071666666666">
        <ele>62.20000000000002</ele>
        <time>2013-05-02T18:54:27.16</time>
      </trkpt>
      <trkpt lat="37.19193833333333" lon="-7.389145">
        <ele>62.20000000000002</ele>
        <time>2013-05-02T18:54:28.16</time>
      </trkpt>
      <trkpt lat="37.191961666666664" lon="-7.38921">
        <ele>62.30000000000002</ele>
        <time>2013-05-02T18:54:29.16</time>
      </trkpt>
      <trkpt lat="37.191995" lon="-7.389283333333333">
        <ele>62.70000000000002</ele>
        <time>2013-05-02T18:54:30.15</time>
      </trkpt>
      <trkpt lat="37.19200333333333" lon="-7.389358333333333">
        <ele>62.90000000000002</ele>
        <time>2013-05-02T18:54:31.21</time>
      </trkpt>
      <trkpt lat="37.19202833333333" lon="-7.389433333333334">
        <ele>62.90000000000002</ele>
        <time>2013-05-02T18:54:32.17</time>
      </trkpt>
      <trkpt lat="37.192055" lon="-7.389495">
        <ele>63.20000000000002</ele>
        <time>2013-05-02T18:54:33.15</time>
      </trkpt>
      <trkpt lat="37.19209" lon="-7.3895583333333335">
        <ele>63.30000000000002</ele>
        <time>2013-05-02T18:54:34.15</time>
      </trkpt>
      <trkpt lat="37.19213166666667" lon="-7.389623333333334">
        <ele>63.100000000000016</ele>
        <time>2013-05-02T18:54:35.16</time>
      </trkpt>
      <trkpt lat="37.192155" lon="-7.389688333333333">
        <ele>62.80000000000002</ele>
        <time>2013-05-02T18:54:36.15</time>
      </trkpt>
      <trkpt lat="37.19216333333333" lon="-7.38974">
        <ele>62.50000000000002</ele>
        <time>2013-05-02T18:54:37.14</time>
      </trkpt>
      <trkpt lat="37.19219833333333" lon="-7.389801666666667">
        <ele>62.10000000000002</ele>
        <time>2013-05-02T18:54:38.16</time>
      </trkpt>
      <trkpt lat="37.192233333333334" lon="-7.3898866666666665">
        <ele>62.300000000000026</ele>
        <time>2013-05-02T18:54:39.16</time>
      </trkpt>
      <trkpt lat="37.192256666666665" lon="-7.38995">
        <ele>62.00000000000003</ele>
        <time>2013-05-02T18:54:40.16</time>
      </trkpt>
      <trkpt lat="37.19227333333333" lon="-7.39001">
        <ele>61.60000000000003</ele>
        <time>2013-05-02T18:54:41.16</time>
      </trkpt>
      <trkpt lat="37.19229333333333" lon="-7.3900733333333335">
        <ele>61.80000000000003</ele>
        <time>2013-05-02T18:54:42.15</time>
      </trkpt>
      <trkpt lat="37.19233333333333" lon="-7.390145">
        <ele>62.000000000000036</ele>
        <time>2013-05-02T18:54:43.16</time>
      </trkpt>
      <trkpt lat="37.192371666666666" lon="-7.39021">
        <ele>61.80000000000003</ele>
        <time>2013-05-02T18:54:44.16</time>
      </trkpt>
      <trkpt lat="37.192393333333335" lon="-7.390278333333334">
        <ele>61.70000000000003</ele>
        <time>2013-05-02T18:54:45.15</time>
      </trkpt>
      <trkpt lat="37.19241" lon="-7.390338333333333">
        <ele>61.60000000000003</ele>
        <time>2013-05-02T18:54:46.15</time>
      </trkpt>
      <trkpt lat="37.192433333333334" lon="-7.390411666666667">
        <ele>61.70000000000003</ele>
        <time>2013-05-02T18:54:47.17</time>
      </trkpt>
      <trkpt lat="37.192456666666665" lon="-7.390475">
        <ele>61.60000000000003</ele>
        <time>2013-05-02T18:54:48.16</time>
      </trkpt>
      <trkpt lat="37.192475" lon="-7.39053">
        <ele>62.00000000000003</ele>
        <time>2013-05-02T18:54:49.15</time>
      </trkpt>
      <trkpt lat="37.192501666666665" lon="-7.390585">
        <ele>62.00000000000003</ele>
        <time>2013-05-02T18:54:50.15</time>
      </trkpt>
      <trkpt lat="37.192521666666664" lon="-7.390646666666667">
        <ele>62.00000000000003</ele>
        <time>2013-05-02T18:54:51.15</time>
      </trkpt>
      <trkpt lat="37.19255166666667" lon="-7.390703333333334">
        <ele>62.20000000000003</ele>
        <time>2013-05-02T18:54:52.16</time>
      </trkpt>
      <trkpt lat="37.192575" lon="-7.3907533333333335">
        <ele>62.400000000000034</ele>
        <time>2013-05-02T18:54:53.16</time>
      </trkpt>
      <trkpt lat="37.19260666666667" lon="-7.390816666666667">
        <ele>62.20000000000003</ele>
        <time>2013-05-02T18:54:54.15</time>
      </trkpt>
      <trkpt lat="37.19263" lon="-7.390878333333333">
        <ele>61.900000000000034</ele>
        <time>2013-05-02T18:54:55.16</time>
      </trkpt>
      <trkpt lat="37.192645" lon="-7.390926666666667">
        <ele>62.000000000000036</ele>
        <time>2013-05-02T18:54:56.15</time>
      </trkpt>
      <trkpt lat="37.19266666666667" lon="-7.3909883333333335">
        <ele>61.60000000000004</ele>
        <time>2013-05-02T18:54:57.16</time>
      </trkpt>
      <trkpt lat="37.192683333333335" lon="-7.391061666666666">
        <ele>61.900000000000034</ele>
        <time>2013-05-02T18:54:58.15</time>
      </trkpt>
      <trkpt lat="37.19271333333333" lon="-7.39113">
        <ele>61.70000000000003</ele>
        <time>2013-05-02T18:54:59.16</time>
      </trkpt>
      <trkpt lat="37.19274" lon="-7.391183333333333">
        <ele>61.60000000000003</ele>
        <time>2013-05-02T18:55:00.13</time>
      </trkpt>
      <trkpt lat="37.19276833333333" lon="-7.391235">
        <ele>61.40000000000003</ele>
        <time>2013-05-02T18:55:01.15</time>
      </trkpt>
      <trkpt lat="37.19276333333333" lon="-7.391301666666667">
        <ele>61.700000000000024</ele>
        <time>2013-05-02T18:55:02.16</time>
      </trkpt>
      <trkpt lat="37.19278166666667" lon="-7.39136">
        <ele>61.700000000000024</ele>
        <time>2013-05-02T18:55:03.16</time>
      </trkpt>
      <trkpt lat="37.192785" lon="-7.3914">
        <ele>62.300000000000026</ele>
        <time>2013-05-02T18:55:04.16</time>
      </trkpt>
      <trkpt lat="37.19281" lon="-7.391455">
        <ele>62.10000000000002</ele>
        <time>2013-05-02T18:55:05.15</time>
      </trkpt>
      <trkpt lat="37.192838333333334" lon="-7.391501666666667">
        <ele>62.90000000000002</ele>
        <time>2013-05-02T18:55:06.15</time>
      </trkpt>
      <trkpt lat="37.192875" lon="-7.391563333333333">
        <ele>62.50000000000002</ele>
        <time>2013-05-02T18:55:07.16</time>
      </trkpt>
      <trkpt lat="37.19289166666667" lon="-7.3915983333333335">
        <ele>62.60000000000002</ele>
        <time>2013-05-02T18:55:08.16</time>
      </trkpt>
      <trkpt lat="37.192901666666664" lon="-7.391648333333333">
        <ele>62.300000000000026</ele>
        <time>2013-05-02T18:55:09.15</time>
      </trkpt>
      <trkpt lat="37.192928333333334" lon="-7.391713333333334">
        <ele>62.60000000000002</ele>
        <time>2013-05-02T18:55:10.16</time>
      </trkpt>
      <trkpt lat="37.19295833333334" lon="-7.391785">
        <ele>62.50000000000002</ele>
        <time>2013-05-02T18:55:11.15</time>
      </trkpt>
      <trkpt lat="37.19298666666667" lon="-7.391843333333333">
        <ele>62.80000000000002</ele>
        <time>2013-05-02T18:55:12.15</time>
      </trkpt>
      <trkpt lat="37.193005" lon="-7.39191">
        <ele>62.70000000000002</ele>
        <time>2013-05-02T18:55:13.16</time>
      </trkpt>
      <trkpt lat="37.193038333333334" lon="-7.39198">
        <ele>63.100000000000016</ele>
        <time>2013-05-02T18:55:14.16</time>
      </trkpt>
      <trkpt lat="37.19306666666667" lon="-7.392035">
        <ele>63.40000000000001</ele>
        <time>2013-05-02T18:55:15.16</time>
      </trkpt>
      <trkpt lat="37.19309666666667" lon="-7.392101666666667">
        <ele>63.80000000000001</ele>
        <time>2013-05-02T18:55:16.16</time>
      </trkpt>
      <trkpt lat="37.19312333333333" lon="-7.392165">
        <ele>63.80000000000001</ele>
        <time>2013-05-02T18:55:17.15</time>
      </trkpt>
      <trkpt lat="37.19316666666667" lon="-7.3922316666666665">
        <ele>63.70000000000001</ele>
        <time>2013-05-02T18:55:18.15</time>
      </trkpt>
      <trkpt lat="37.193191666666664" lon="-7.392295">
        <ele>63.70000000000001</ele>
        <time>2013-05-02T18:55:19.16</time>
      </trkpt>
      <trkpt lat="37.193185" lon="-7.3923266666666665">
        <ele>64.50000000000001</ele>
        <time>2013-05-02T18:55:20.16</time>
      </trkpt>
      <trkpt lat="37.193195" lon="-7.392378333333333">
        <ele>64.70000000000002</ele>
        <time>2013-05-02T18:55:21.16</time>
      </trkpt>
      <trkpt lat="37.193218333333334" lon="-7.392431666666667">
        <ele>64.30000000000001</ele>
        <time>2013-05-02T18:55:22.15</time>
      </trkpt>
      <trkpt lat="37.193243333333335" lon="-7.392475">
        <ele>65.10000000000001</ele>
        <time>2013-05-02T18:55:23.15</time>
      </trkpt>
      <trkpt lat="37.19326" lon="-7.392533333333334">
        <ele>63.900000000000006</ele>
        <time>2013-05-02T18:55:24.15</time>
      </trkpt>
      <trkpt lat="37.19328333333333" lon="-7.392595">
        <ele>63.300000000000004</ele>
        <time>2013-05-02T18:55:25.16</time>
      </trkpt>
      <trkpt lat="37.19330166666666" lon="-7.392655">
        <ele>63.1</ele>
        <time>2013-05-02T18:55:26.16</time>
      </trkpt>
      <trkpt lat="37.19333" lon="-7.392721666666667">
        <ele>62.6</ele>
        <time>2013-05-02T18:55:27.16</time>
      </trkpt>
      <trkpt lat="37.19334166666667" lon="-7.3927933333333335">
        <ele>62.6</ele>
        <time>2013-05-02T18:55:28.16</time>
      </trkpt>
      <trkpt lat="37.19338166666667" lon="-7.39286">
        <ele>62.6</ele>
        <time>2013-05-02T18:55:29.16</time>
      </trkpt>
      <trkpt lat="37.193398333333334" lon="-7.392915">
        <ele>63</ele>
        <time>2013-05-02T18:55:30.15</time>
      </trkpt>
      <trkpt lat="37.193435" lon="-7.392976666666667">
        <ele>62.9</ele>
        <time>2013-05-02T18:55:31.16</time>
      </trkpt>
      <trkpt lat="37.193463333333334" lon="-7.3930283333333335">
        <ele>63.5</ele>
        <time>2013-05-02T18:55:32.15</time>
      </trkpt>
      <trkpt lat="37.193493333333336" lon="-7.3931016666666665">
        <ele>64.1</ele>
        <time>2013-05-02T18:55:33.15</time>
      </trkpt>
      <trkpt lat="37.193513333333335" lon="-7.393153333333333">
        <ele>63.8</ele>
        <time>2013-05-02T18:55:34.16</time>
      </trkpt>
      <trkpt lat="37.19352333333333" lon="-7.393196666666666">
        <ele>63.699999999999996</ele>
        <time>2013-05-02T18:55:35.16</time>
      </trkpt>
      <trkpt lat="37.193551666666664" lon="-7.39325">
        <ele>63.699999999999996</ele>
        <time>2013-05-02T18:55:36.16</time>
      </trkpt>
      <trkpt lat="37.19357333333333" lon="-7.393326666666667">
        <ele>63.199999999999996</ele>
        <time>2013-05-02T18:55:37.15</time>
      </trkpt>
      <trkpt lat="37.19360833333333" lon="-7.393401666666667">
        <ele>62.99999999999999</ele>
        <time>2013-05-02T18:55:38.15</time>
      </trkpt>
      <trkpt lat="37.19363666666667" lon="-7.393471666666667">
        <ele>62.79999999999999</ele>
        <time>2013-05-02T18:55:39.15</time>
      </trkpt>
      <trkpt lat="37.19365666666667" lon="-7.393531666666667">
        <ele>62.89999999999999</ele>
        <time>2013-05-02T18:55:40.15</time>
      </trkpt>
      <trkpt lat="37.19368" lon="-7.393601666666667">
        <ele>62.69999999999999</ele>
        <time>2013-05-02T18:55:41.15</time>
      </trkpt>
      <trkpt lat="37.19371" lon="-7.393658333333334">
        <ele>63.19999999999999</ele>
        <time>2013-05-02T18:55:42.16</time>
      </trkpt>
      <trkpt lat="37.193736666666666" lon="-7.393716666666666">
        <ele>63.499999999999986</ele>
        <time>2013-05-02T18:55:43.14</time>
      </trkpt>
      <trkpt lat="37.193758333333335" lon="-7.393776666666667">
        <ele>63.79999999999998</ele>
        <time>2013-05-02T18:55:44.15</time>
      </trkpt>
      <trkpt lat="37.193775" lon="-7.39384">
        <ele>63.499999999999986</ele>
        <time>2013-05-02T18:55:45.16</time>
      </trkpt>
      <trkpt lat="37.1938" lon="-7.393905">
        <ele>63.499999999999986</ele>
        <time>2013-05-02T18:55:46.16</time>
      </trkpt>
      <trkpt lat="37.193826666666666" lon="-7.39397">
        <ele>63.79999999999998</ele>
        <time>2013-05-02T18:55:47.18</time>
      </trkpt>
      <trkpt lat="37.193841666666664" lon="-7.394036666666667">
        <ele>63.59999999999998</ele>
        <time>2013-05-02T18:55:48.16</time>
      </trkpt>
      <trkpt lat="37.193873333333336" lon="-7.394111666666666">
        <ele>62.69999999999998</ele>
        <time>2013-05-02T18:55:49.16</time>
      </trkpt>
      <trkpt lat="37.19389833333334" lon="-7.39421">
        <ele>60.59999999999998</ele>
        <time>2013-05-02T18:55:50.14</time>
      </trkpt>
      <trkpt lat="37.193933333333334" lon="-7.394291666666667">
        <ele>58.99999999999998</ele>
        <time>2013-05-02T18:55:51.19</time>
      </trkpt>
      <trkpt lat="37.19394666666667" lon="-7.39438">
        <ele>55.69999999999998</ele>
        <time>2013-05-02T18:55:52.16</time>
      </trkpt>
      <trkpt lat="37.19399166666667" lon="-7.394453333333334">
        <ele>52.399999999999984</ele>
        <time>2013-05-02T18:55:53.16</time>
      </trkpt>
      <trkpt lat="37.19401833333333" lon="-7.394523333333333">
        <ele>50.59999999999999</ele>
        <time>2013-05-02T18:55:54.16</time>
      </trkpt>
      <trkpt lat="37.19405666666667" lon="-7.394593333333333">
        <ele>49.399999999999984</ele>
        <time>2013-05-02T18:55:55.16</time>
      </trkpt>
      <trkpt lat="37.194086666666664" lon="-7.39467">
        <ele>48.59999999999999</ele>
        <time>2013-05-02T18:55:56.15</time>
      </trkpt>
      <trkpt lat="37.194118333333336" lon="-7.394738333333334">
        <ele>48.999999999999986</ele>
        <time>2013-05-02T18:55:57.15</time>
      </trkpt>
      <trkpt lat="37.19415166666667" lon="-7.394815">
        <ele>49.399999999999984</ele>
        <time>2013-05-02T18:55:58.16</time>
      </trkpt>
      <trkpt lat="37.19417833333333" lon="-7.394876666666667">
        <ele>49.29999999999998</ele>
        <time>2013-05-02T18:55:59.15</time>
      </trkpt>
      <trkpt lat="37.194206666666666" lon="-7.394946666666667">
        <ele>49.399999999999984</ele>
        <time>2013-05-02T18:56:00.13</time>
      </trkpt>
      <trkpt lat="37.19423666666667" lon="-7.395018333333334">
        <ele>49.499999999999986</ele>
        <time>2013-05-02T18:56:01.15</time>
      </trkpt>
      <trkpt lat="37.19427" lon="-7.395091666666667">
        <ele>49.399999999999984</ele>
        <time>2013-05-02T18:56:02.16</time>
      </trkpt>
      <trkpt lat="37.194305" lon="-7.395155">
        <ele>50.09999999999999</ele>
        <time>2013-05-02T18:56:03.18</time>
      </trkpt>
      <trkpt lat="37.19432333333334" lon="-7.395218333333333">
        <ele>49.69999999999999</ele>
        <time>2013-05-02T18:56:04.22</time>
      </trkpt>
      <trkpt lat="37.19436" lon="-7.39526">
        <ele>49.79999999999999</ele>
        <time>2013-05-02T18:56:05.16</time>
      </trkpt>
      <trkpt lat="37.194403333333334" lon="-7.3953">
        <ele>49.59999999999999</ele>
        <time>2013-05-02T18:56:06.15</time>
      </trkpt>
      <trkpt lat="37.194445" lon="-7.39535">
        <ele>50.399999999999984</ele>
        <time>2013-05-02T18:56:07.16</time>
      </trkpt>
      <trkpt lat="37.19448166666667" lon="-7.395415">
        <ele>50.499999999999986</ele>
        <time>2013-05-02T18:56:08.16</time>
      </trkpt>
      <trkpt lat="37.19448666666667" lon="-7.395478333333333">
        <ele>49.09999999999999</ele>
        <time>2013-05-02T18:56:09.16</time>
      </trkpt>
      <trkpt lat="37.194505" lon="-7.395556666666667">
        <ele>48.09999999999999</ele>
        <time>2013-05-02T18:56:10.16</time>
      </trkpt>
      <trkpt lat="37.194505" lon="-7.395626666666667">
        <ele>47.499999999999986</ele>
        <time>2013-05-02T18:56:11.16</time>
      </trkpt>
      <trkpt lat="37.19450666666667" lon="-7.395698333333334">
        <ele>47.399999999999984</ele>
        <time>2013-05-02T18:56:12.15</time>
      </trkpt>
      <trkpt lat="37.194523333333336" lon="-7.395768333333334">
        <ele>48.19999999999998</ele>
        <time>2013-05-02T18:56:13.16</time>
      </trkpt>
      <trkpt lat="37.19454833333333" lon="-7.39583">
        <ele>48.49999999999998</ele>
        <time>2013-05-02T18:56:14.16</time>
      </trkpt>
      <trkpt lat="37.194575" lon="-7.395895">
        <ele>48.49999999999998</ele>
        <time>2013-05-02T18:56:15.16</time>
      </trkpt>
      <trkpt lat="37.19461" lon="-7.3959616666666665">
        <ele>48.49999999999998</ele>
        <time>2013-05-02T18:56:16.15</time>
      </trkpt>
      <trkpt lat="37.19463666666667" lon="-7.396021666666667">
        <ele>48.09999999999998</ele>
        <time>2013-05-02T18:56:17.16</time>
      </trkpt>
      <trkpt lat="37.19466833333333" lon="-7.396085">
        <ele>47.79999999999998</ele>
        <time>2013-05-02T18:56:18.15</time>
      </trkpt>
      <trkpt lat="37.19468833333333" lon="-7.3961483333333335">
        <ele>49.59999999999998</ele>
        <time>2013-05-02T18:56:19.18</time>
      </trkpt>
      <trkpt lat="37.194715" lon="-7.396208333333333">
        <ele>50.29999999999998</ele>
        <time>2013-05-02T18:56:20.17</time>
      </trkpt>
      <trkpt lat="37.194736666666664" lon="-7.396256666666667">
        <ele>50.19999999999998</ele>
        <time>2013-05-02T18:56:21.15</time>
      </trkpt>
      <trkpt lat="37.19476" lon="-7.396315">
        <ele>50.49999999999998</ele>
        <time>2013-05-02T18:56:22.15</time>
      </trkpt>
      <trkpt lat="37.194788333333335" lon="-7.396373333333333">
        <ele>50.59999999999998</ele>
        <time>2013-05-02T18:56:23.15</time>
      </trkpt>
      <trkpt lat="37.19481833333333" lon="-7.396428333333334">
        <ele>50.69999999999998</ele>
        <time>2013-05-02T18:56:24.22</time>
      </trkpt>
      <trkpt lat="37.194851666666665" lon="-7.396485">
        <ele>50.49999999999998</ele>
        <time>2013-05-02T18:56:25.15</time>
      </trkpt>
      <trkpt lat="37.194865" lon="-7.39654">
        <ele>50.39999999999998</ele>
        <time>2013-05-02T18:56:26.16</time>
      </trkpt>
      <trkpt lat="37.194895" lon="-7.396613333333334">
        <ele>50.49999999999998</ele>
        <time>2013-05-02T18:56:27.15</time>
      </trkpt>
      <trkpt lat="37.194916666666664" lon="-7.396671666666666">
        <ele>51.799999999999976</ele>
        <time>2013-05-02T18:56:28.16</time>
      </trkpt>
      <trkpt lat="37.194935" lon="-7.396733333333334">
        <ele>52.09999999999997</ele>
        <time>2013-05-02T18:56:29.16</time>
      </trkpt>
      <trkpt lat="37.194955" lon="-7.396795">
        <ele>52.59999999999997</ele>
        <time>2013-05-02T18:56:30.16</time>
      </trkpt>
      <trkpt lat="37.194975" lon="-7.396846666666667">
        <ele>53.199999999999974</ele>
        <time>2013-05-02T18:56:31.16</time>
      </trkpt>
      <trkpt lat="37.19499666666667" lon="-7.396891666666667">
        <ele>53.99999999999997</ele>
        <time>2013-05-02T18:56:32.15</time>
      </trkpt>
      <trkpt lat="37.195031666666665" lon="-7.39696">
        <ele>54.29999999999997</ele>
        <time>2013-05-02T18:56:33.15</time>
      </trkpt>
      <trkpt lat="37.19506166666667" lon="-7.397028333333333">
        <ele>54.29999999999997</ele>
        <time>2013-05-02T18:56:34.15</time>
      </trkpt>
      <trkpt lat="37.1951" lon="-7.397115">
        <ele>53.49999999999997</ele>
        <time>2013-05-02T18:56:35.18</time>
      </trkpt>
      <trkpt lat="37.19512" lon="-7.397178333333334">
        <ele>53.29999999999997</ele>
        <time>2013-05-02T18:56:36.17</time>
      </trkpt>
      <trkpt lat="37.19515166666667" lon="-7.397246666666667">
        <ele>53.099999999999966</ele>
        <time>2013-05-02T18:56:37.15</time>
      </trkpt>
      <trkpt lat="37.19517333333334" lon="-7.397311666666667">
        <ele>53.099999999999966</ele>
        <time>2013-05-02T18:56:38.15</time>
      </trkpt>
      <trkpt lat="37.19519" lon="-7.397365">
        <ele>52.79999999999997</ele>
        <time>2013-05-02T18:56:39.15</time>
      </trkpt>
      <trkpt lat="37.195213333333335" lon="-7.397428333333333">
        <ele>52.79999999999997</ele>
        <time>2013-05-02T18:56:40.16</time>
      </trkpt>
      <trkpt lat="37.195245" lon="-7.397493333333333">
        <ele>52.79999999999997</ele>
        <time>2013-05-02T18:56:41.13</time>
      </trkpt>
      <trkpt lat="37.19526833333333" lon="-7.397568333333333">
        <ele>52.69999999999997</ele>
        <time>2013-05-02T18:56:42.15</time>
      </trkpt>
      <trkpt lat="37.19529333333333" lon="-7.39765">
        <ele>51.79999999999997</ele>
        <time>2013-05-02T18:56:43.16</time>
      </trkpt>
      <trkpt lat="37.19531" lon="-7.397706666666667">
        <ele>51.99999999999997</ele>
        <time>2013-05-02T18:56:44.16</time>
      </trkpt>
      <trkpt lat="37.19534" lon="-7.397778333333333">
        <ele>51.79999999999997</ele>
        <time>2013-05-02T18:56:45.16</time>
      </trkpt>
      <trkpt lat="37.19536333333333" lon="-7.397846666666666">
        <ele>51.79999999999997</ele>
        <time>2013-05-02T18:56:46.16</time>
      </trkpt>
      <trkpt lat="37.195388333333334" lon="-7.397906666666667">
        <ele>51.89999999999997</ele>
        <time>2013-05-02T18:56:47.16</time>
      </trkpt>
      <trkpt lat="37.195413333333335" lon="-7.397966666666667">
        <ele>52.09999999999997</ele>
        <time>2013-05-02T18:56:48.15</time>
      </trkpt>
      <trkpt lat="37.195438333333335" lon="-7.398038333333333">
        <ele>52.39999999999997</ele>
        <time>2013-05-02T18:56:49.17</time>
      </trkpt>
      <trkpt lat="37.195463333333336" lon="-7.398093333333334">
        <ele>52.59999999999997</ele>
        <time>2013-05-02T18:56:50.17</time>
      </trkpt>
      <trkpt lat="37.19548666666667" lon="-7.398155">
        <ele>52.59999999999997</ele>
        <time>2013-05-02T18:56:51.16</time>
      </trkpt>
      <trkpt lat="37.195515" lon="-7.398223333333333">
        <ele>52.99999999999997</ele>
        <time>2013-05-02T18:56:52.15</time>
      </trkpt>
      <trkpt lat="37.19554333333333" lon="-7.398301666666667">
        <ele>52.99999999999997</ele>
        <time>2013-05-02T18:56:53.16</time>
      </trkpt>
      <trkpt lat="37.195566666666664" lon="-7.398368333333333">
        <ele>52.199999999999974</ele>
        <time>2013-05-02T18:56:54.15</time>
      </trkpt>
      <trkpt lat="37.195591666666665" lon="-7.3984266666666665">
        <ele>52.59999999999997</ele>
        <time>2013-05-02T18:56:55.16</time>
      </trkpt>
      <trkpt lat="37.19560833333333" lon="-7.398486666666667">
        <ele>52.49999999999997</ele>
        <time>2013-05-02T18:56:56.15</time>
      </trkpt>
      <trkpt lat="37.195635" lon="-7.39855">
        <ele>53.199999999999974</ele>
        <time>2013-05-02T18:56:57.15</time>
      </trkpt>
      <trkpt lat="37.195658333333334" lon="-7.398616666666666">
        <ele>53.199999999999974</ele>
        <time>2013-05-02T18:56:58.15</time>
      </trkpt>
      <trkpt lat="37.195681666666665" lon="-7.398685">
        <ele>53.39999999999998</ele>
        <time>2013-05-02T18:56:59.16</time>
      </trkpt>
      <trkpt lat="37.195706666666666" lon="-7.398741666666667">
        <ele>53.799999999999976</ele>
        <time>2013-05-02T18:57:00.14</time>
      </trkpt>
      <trkpt lat="37.195735" lon="-7.398815">
        <ele>54.199999999999974</ele>
        <time>2013-05-02T18:57:01.16</time>
      </trkpt>
      <trkpt lat="37.19576" lon="-7.398876666666666">
        <ele>54.09999999999997</ele>
        <time>2013-05-02T18:57:02.15</time>
      </trkpt>
      <trkpt lat="37.19578666666666" lon="-7.3989416666666665">
        <ele>54.09999999999997</ele>
        <time>2013-05-02T18:57:03.15</time>
      </trkpt>
      <trkpt lat="37.195791666666665" lon="-7.398995">
        <ele>54.49999999999997</ele>
        <time>2013-05-02T18:57:04.15</time>
      </trkpt>
      <trkpt lat="37.195818333333335" lon="-7.399048333333333">
        <ele>54.49999999999997</ele>
        <time>2013-05-02T18:57:05.17</time>
      </trkpt>
      <trkpt lat="37.195835" lon="-7.399115">
        <ele>54.59999999999997</ele>
        <time>2013-05-02T18:57:06.17</time>
      </trkpt>
      <trkpt lat="37.195863333333335" lon="-7.39917">
        <ele>54.59999999999997</ele>
        <time>2013-05-02T18:57:07.16</time>
      </trkpt>
      <trkpt lat="37.19588" lon="-7.399225">
        <ele>54.39999999999997</ele>
        <time>2013-05-02T18:57:08.16</time>
      </trkpt>
      <trkpt lat="37.1959" lon="-7.399288333333334">
        <ele>54.49999999999997</ele>
        <time>2013-05-02T18:57:09.16</time>
      </trkpt>
      <trkpt lat="37.195915" lon="-7.399348333333333">
        <ele>54.199999999999974</ele>
        <time>2013-05-02T18:57:10.16</time>
      </trkpt>
      <trkpt lat="37.19594166666667" lon="-7.399416666666666">
        <ele>53.799999999999976</ele>
        <time>2013-05-02T18:57:11.16</time>
      </trkpt>
      <trkpt lat="37.195973333333335" lon="-7.399471666666667">
        <ele>53.39999999999998</ele>
        <time>2013-05-02T18:57:12.13</time>
      </trkpt>
      <trkpt lat="37.19600666666667" lon="-7.399538333333333">
        <ele>53.199999999999974</ele>
        <time>2013-05-02T18:57:13.14</time>
      </trkpt>
      <trkpt lat="37.19603166666667" lon="-7.399611666666667">
        <ele>53.39999999999998</ele>
        <time>2013-05-02T18:57:14.22</time>
      </trkpt>
      <trkpt lat="37.19605833333333" lon="-7.39966">
        <ele>53.799999999999976</ele>
        <time>2013-05-02T18:57:15.16</time>
      </trkpt>
      <trkpt lat="37.19609166666667" lon="-7.3997">
        <ele>55.99999999999998</ele>
        <time>2013-05-02T18:57:16.16</time>
      </trkpt>
      <trkpt lat="37.196128333333334" lon="-7.399761666666667">
        <ele>56.39999999999998</ele>
        <time>2013-05-02T18:57:17.16</time>
      </trkpt>
      <trkpt lat="37.196165" lon="-7.399823333333333">
        <ele>55.699999999999974</ele>
        <time>2013-05-02T18:57:18.16</time>
      </trkpt>
      <trkpt lat="37.19619" lon="-7.399895">
        <ele>55.89999999999998</ele>
        <time>2013-05-02T18:57:19.16</time>
      </trkpt>
      <trkpt lat="37.19622666666667" lon="-7.39993">
        <ele>56.59999999999998</ele>
        <time>2013-05-02T18:57:20.16</time>
      </trkpt>
      <trkpt lat="37.19626" lon="-7.39998">
        <ele>56.49999999999998</ele>
        <time>2013-05-02T18:57:21.16</time>
      </trkpt>
      <trkpt lat="37.196306666666665" lon="-7.400008333333333">
        <ele>56.59999999999998</ele>
        <time>2013-05-02T18:57:22.16</time>
      </trkpt>
      <trkpt lat="37.196351666666665" lon="-7.400036666666667">
        <ele>56.89999999999998</ele>
        <time>2013-05-02T18:57:23.16</time>
      </trkpt>
      <trkpt lat="37.19639333333333" lon="-7.400085">
        <ele>57.299999999999976</ele>
        <time>2013-05-02T18:57:24.16</time>
      </trkpt>
      <trkpt lat="37.19643833333333" lon="-7.400156666666667">
        <ele>55.49999999999998</ele>
        <time>2013-05-02T18:57:25.16</time>
      </trkpt>
      <trkpt lat="37.196443333333335" lon="-7.400218333333333">
        <ele>54.89999999999998</ele>
        <time>2013-05-02T18:57:26.16</time>
      </trkpt>
      <trkpt lat="37.19645833333333" lon="-7.400271666666667">
        <ele>53.799999999999976</ele>
        <time>2013-05-02T18:57:27.15</time>
      </trkpt>
      <trkpt lat="37.19646" lon="-7.400333333333333">
        <ele>54.09999999999997</ele>
        <time>2013-05-02T18:57:28.16</time>
      </trkpt>
      <trkpt lat="37.19647166666667" lon="-7.4004">
        <ele>53.199999999999974</ele>
        <time>2013-05-02T18:57:29.16</time>
      </trkpt>
      <trkpt lat="37.196493333333336" lon="-7.400471666666666">
        <ele>51.99999999999997</ele>
        <time>2013-05-02T18:57:30.16</time>
      </trkpt>
      <trkpt lat="37.196538333333336" lon="-7.400518333333333">
        <ele>52.59999999999997</ele>
        <time>2013-05-02T18:57:31.16</time>
      </trkpt>
      <trkpt lat="37.196575" lon="-7.400566666666666">
        <ele>52.199999999999974</ele>
        <time>2013-05-02T18:57:32.16</time>
      </trkpt>
      <trkpt lat="37.19661" lon="-7.40061">
        <ele>52.49999999999997</ele>
        <time>2013-05-02T18:57:33.16</time>
      </trkpt>
      <trkpt lat="37.196646666666666" lon="-7.400651666666667">
        <ele>52.49999999999997</ele>
        <time>2013-05-02T18:57:34.16</time>
      </trkpt>
      <trkpt lat="37.196685" lon="-7.400693333333333">
        <ele>52.699999999999974</ele>
        <time>2013-05-02T18:57:35.16</time>
      </trkpt>
      <trkpt lat="37.19672166666667" lon="-7.4007266666666665">
        <ele>52.89999999999998</ele>
        <time>2013-05-02T18:57:36.16</time>
      </trkpt>
      <trkpt lat="37.19676666666667" lon="-7.400761666666667">
        <ele>53.49999999999998</ele>
        <time>2013-05-02T18:57:37.16</time>
      </trkpt>
      <trkpt lat="37.196815" lon="-7.400793333333334">
        <ele>54.09999999999998</ele>
        <time>2013-05-02T18:57:38.16</time>
      </trkpt>
      <trkpt lat="37.196866666666665" lon="-7.400836666666667">
        <ele>53.79999999999998</ele>
        <time>2013-05-02T18:57:39.16</time>
      </trkpt>
      <trkpt lat="37.19691666666667" lon="-7.400871666666666">
        <ele>53.79999999999998</ele>
        <time>2013-05-02T18:57:40.16</time>
      </trkpt>
      <trkpt lat="37.19697333333333" lon="-7.40091">
        <ele>53.29999999999998</ele>
        <time>2013-05-02T18:57:41.16</time>
      </trkpt>
      <trkpt lat="37.197023333333334" lon="-7.400938333333333">
        <ele>53.09999999999998</ele>
        <time>2013-05-02T18:57:42.15</time>
      </trkpt>
      <trkpt lat="37.19708166666667" lon="-7.400966666666666">
        <ele>53.69999999999998</ele>
        <time>2013-05-02T18:57:43.16</time>
      </trkpt>
      <trkpt lat="37.19713" lon="-7.400991666666667">
        <ele>53.79999999999998</ele>
        <time>2013-05-02T18:57:44.17</time>
      </trkpt>
      <trkpt lat="37.19718" lon="-7.401015">
        <ele>53.899999999999984</ele>
        <time>2013-05-02T18:57:45.21</time>
      </trkpt>
      <trkpt lat="37.19723166666667" lon="-7.401035">
        <ele>54.09999999999999</ele>
        <time>2013-05-02T18:57:46.16</time>
      </trkpt>
      <trkpt lat="37.19728666666666" lon="-7.401051666666667">
        <ele>54.09999999999999</ele>
        <time>2013-05-02T18:57:47.16</time>
      </trkpt>
      <trkpt lat="37.19733333333333" lon="-7.401075">
        <ele>54.19999999999999</ele>
        <time>2013-05-02T18:57:48.16</time>
      </trkpt>
      <trkpt lat="37.197388333333336" lon="-7.401095">
        <ele>54.19999999999999</ele>
        <time>2013-05-02T18:57:49.16</time>
      </trkpt>
      <trkpt lat="37.19744" lon="-7.401113333333333">
        <ele>54.29999999999999</ele>
        <time>2013-05-02T18:57:50.16</time>
      </trkpt>
      <trkpt lat="37.19748666666667" lon="-7.401118333333334">
        <ele>53.99999999999999</ele>
        <time>2013-05-02T18:57:51.15</time>
      </trkpt>
      <trkpt lat="37.197543333333336" lon="-7.401138333333333">
        <ele>54.099999999999994</ele>
        <time>2013-05-02T18:57:52.15</time>
      </trkpt>
      <trkpt lat="37.197581666666665" lon="-7.401121666666667">
        <ele>54.3</ele>
        <time>2013-05-02T18:57:53.16</time>
      </trkpt>
      <trkpt lat="37.19763833333333" lon="-7.401135">
        <ele>54.3</ele>
        <time>2013-05-02T18:57:54.15</time>
      </trkpt>
      <trkpt lat="37.197698333333335" lon="-7.401156666666667">
        <ele>54.5</ele>
        <time>2013-05-02T18:57:55.15</time>
      </trkpt>
      <trkpt lat="37.19775" lon="-7.401156666666667">
        <ele>54.3</ele>
        <time>2013-05-02T18:57:56.16</time>
      </trkpt>
      <trkpt lat="37.19779833333333" lon="-7.401163333333334">
        <ele>54.3</ele>
        <time>2013-05-02T18:57:57.15</time>
      </trkpt>
      <trkpt lat="37.197853333333335" lon="-7.401175">
        <ele>54.3</ele>
        <time>2013-05-02T18:57:58.15</time>
      </trkpt>
      <trkpt lat="37.19790666666667" lon="-7.401175">
        <ele>54.4</ele>
        <time>2013-05-02T18:57:59.17</time>
      </trkpt>
      <trkpt lat="37.197961666666664" lon="-7.401168333333334">
        <ele>54.4</ele>
        <time>2013-05-02T18:58:00.16</time>
      </trkpt>
      <trkpt lat="37.19799833333333" lon="-7.40117">
        <ele>54.9</ele>
        <time>2013-05-02T18:58:01.15</time>
      </trkpt>
      <trkpt lat="37.198051666666665" lon="-7.401166666666667">
        <ele>55</ele>
        <time>2013-05-02T18:58:02.15</time>
      </trkpt>
      <trkpt lat="37.19809166666667" lon="-7.401143333333334">
        <ele>54.8</ele>
        <time>2013-05-02T18:58:03.15</time>
      </trkpt>
      <trkpt lat="37.198148333333336" lon="-7.401133333333333">
        <ele>54.5</ele>
        <time>2013-05-02T18:58:04.15</time>
      </trkpt>
      <trkpt lat="37.198205" lon="-7.401141666666667">
        <ele>54.5</ele>
        <time>2013-05-02T18:58:05.16</time>
      </trkpt>
      <trkpt lat="37.198255" lon="-7.401138333333333">
        <ele>54.4</ele>
        <time>2013-05-02T18:58:06.16</time>
      </trkpt>
      <trkpt lat="37.19831666666666" lon="-7.401135">
        <ele>54.3</ele>
        <time>2013-05-02T18:58:07.15</time>
      </trkpt>
      <trkpt lat="37.198366666666665" lon="-7.401125">
        <ele>54.3</ele>
        <time>2013-05-02T18:58:08.15</time>
      </trkpt>
      <trkpt lat="37.19843" lon="-7.401131666666667">
        <ele>53.3</ele>
        <time>2013-05-02T18:58:09.15</time>
      </trkpt>
      <trkpt lat="37.19847166666667" lon="-7.401115">
        <ele>52.9</ele>
        <time>2013-05-02T18:58:10.15</time>
      </trkpt>
      <trkpt lat="37.19851666666667" lon="-7.401096666666667">
        <ele>53</ele>
        <time>2013-05-02T18:58:11.16</time>
      </trkpt>
      <trkpt lat="37.19855833333333" lon="-7.401061666666667">
        <ele>53.2</ele>
        <time>2013-05-02T18:58:12.15</time>
      </trkpt>
      <trkpt lat="37.198593333333335" lon="-7.401005">
        <ele>53</ele>
        <time>2013-05-02T18:58:13.16</time>
      </trkpt>
      <trkpt lat="37.198636666666665" lon="-7.400968333333333">
        <ele>52.4</ele>
        <time>2013-05-02T18:58:14.16</time>
      </trkpt>
      <trkpt lat="37.19867333333333" lon="-7.400915">
        <ele>52.699999999999996</ele>
        <time>2013-05-02T18:58:15.16</time>
      </trkpt>
      <trkpt lat="37.198723333333334" lon="-7.400873333333333">
        <ele>52.99999999999999</ele>
        <time>2013-05-02T18:58:16.16</time>
      </trkpt>
      <trkpt lat="37.19876166666667" lon="-7.400838333333334">
        <ele>52.099999999999994</ele>
        <time>2013-05-02T18:58:17.16</time>
      </trkpt>
      <trkpt lat="37.198811666666664" lon="-7.400821666666666">
        <ele>52.199999999999996</ele>
        <time>2013-05-02T18:58:18.15</time>
      </trkpt>
      <trkpt lat="37.198856666666664" lon="-7.400811666666667">
        <ele>52.199999999999996</ele>
        <time>2013-05-02T18:58:19.15</time>
      </trkpt>
      <trkpt lat="37.198908333333335" lon="-7.400821666666666">
        <ele>51.99999999999999</ele>
        <time>2013-05-02T18:58:20.15</time>
      </trkpt>
      <trkpt lat="37.19896166666667" lon="-7.400845">
        <ele>51.49999999999999</ele>
        <time>2013-05-02T18:58:21.15</time>
      </trkpt>
      <trkpt lat="37.199005" lon="-7.400898333333333">
        <ele>51.99999999999999</ele>
        <time>2013-05-02T18:58:22.15</time>
      </trkpt>
      <trkpt lat="37.199036666666665" lon="-7.400931666666667">
        <ele>52.49999999999999</ele>
        <time>2013-05-02T18:58:23.15</time>
      </trkpt>
      <trkpt lat="37.19906666666667" lon="-7.40096">
        <ele>53.599999999999994</ele>
        <time>2013-05-02T18:58:24.15</time>
      </trkpt>
      <trkpt lat="37.19911" lon="-7.4010066666666665">
        <ele>54.3</ele>
        <time>2013-05-02T18:58:25.15</time>
      </trkpt>
      <trkpt lat="37.199153333333335" lon="-7.4010533333333335">
        <ele>54.4</ele>
        <time>2013-05-02T18:58:26.15</time>
      </trkpt>
      <trkpt lat="37.19919" lon="-7.4010766666666665">
        <ele>55.4</ele>
        <time>2013-05-02T18:58:27.15</time>
      </trkpt>
      <trkpt lat="37.199235" lon="-7.401096666666667">
        <ele>55.6</ele>
        <time>2013-05-02T18:58:28.15</time>
      </trkpt>
      <trkpt lat="37.199285" lon="-7.401103333333333">
        <ele>55.6</ele>
        <time>2013-05-02T18:58:29.16</time>
      </trkpt>
      <trkpt lat="37.199333333333335" lon="-7.401095">
        <ele>55.6</ele>
        <time>2013-05-02T18:58:30.15</time>
      </trkpt>
      <trkpt lat="37.19936833333333" lon="-7.40109">
        <ele>55.5</ele>
        <time>2013-05-02T18:58:31.17</time>
      </trkpt>
      <trkpt lat="37.19942" lon="-7.401073333333334">
        <ele>55.8</ele>
        <time>2013-05-02T18:58:32.21</time>
      </trkpt>
      <trkpt lat="37.199466666666666" lon="-7.4010533333333335">
        <ele>55.4</ele>
        <time>2013-05-02T18:58:33.15</time>
      </trkpt>
      <trkpt lat="37.199511666666666" lon="-7.401048333333334">
        <ele>55.3</ele>
        <time>2013-05-02T18:58:34.15</time>
      </trkpt>
      <trkpt lat="37.19956166666667" lon="-7.401035">
        <ele>55.3</ele>
        <time>2013-05-02T18:58:35.15</time>
      </trkpt>
      <trkpt lat="37.19961" lon="-7.401015">
        <ele>55.599999999999994</ele>
        <time>2013-05-02T18:58:36.16</time>
      </trkpt>
      <trkpt lat="37.19967166666667" lon="-7.401013333333333">
        <ele>55.599999999999994</ele>
        <time>2013-05-02T18:58:37.16</time>
      </trkpt>
      <trkpt lat="37.19971666666667" lon="-7.4010066666666665">
        <ele>55.599999999999994</ele>
        <time>2013-05-02T18:58:38.16</time>
      </trkpt>
      <trkpt lat="37.19976833333333" lon="-7.400993333333333">
        <ele>55.599999999999994</ele>
        <time>2013-05-02T18:58:39.15</time>
      </trkpt>
      <trkpt lat="37.199828333333336" lon="-7.401016666666667">
        <ele>55.699999999999996</ele>
        <time>2013-05-02T18:58:40.16</time>
      </trkpt>
      <trkpt lat="37.19988" lon="-7.401003333333334">
        <ele>55.9</ele>
        <time>2013-05-02T18:58:41.15</time>
      </trkpt>
      <trkpt lat="37.19994" lon="-7.400988333333333">
        <ele>56.199999999999996</ele>
        <time>2013-05-02T18:58:42.15</time>
      </trkpt>
      <trkpt lat="37.20001666666667" lon="-7.401005">
        <ele>56.49999999999999</ele>
        <time>2013-05-02T18:58:43.16</time>
      </trkpt>
      <trkpt lat="37.200071666666666" lon="-7.400996666666667">
        <ele>56.29999999999999</ele>
        <time>2013-05-02T18:58:44.16</time>
      </trkpt>
      <trkpt lat="37.20012666666667" lon="-7.400986666666666">
        <ele>56.19999999999999</ele>
        <time>2013-05-02T18:58:45.16</time>
      </trkpt>
      <trkpt lat="37.20019333333333" lon="-7.400973333333333">
        <ele>56.69999999999999</ele>
        <time>2013-05-02T18:58:46.15</time>
      </trkpt>
      <trkpt lat="37.200253333333336" lon="-7.400973333333333">
        <ele>56.999999999999986</ele>
        <time>2013-05-02T18:58:47.19</time>
      </trkpt>
      <trkpt lat="37.200318333333335" lon="-7.400961666666666">
        <ele>57.29999999999998</ele>
        <time>2013-05-02T18:58:48.18</time>
      </trkpt>
      <trkpt lat="37.20037166666667" lon="-7.40095">
        <ele>57.399999999999984</ele>
        <time>2013-05-02T18:58:49.16</time>
      </trkpt>
      <trkpt lat="37.200435" lon="-7.4009583333333335">
        <ele>57.09999999999999</ele>
        <time>2013-05-02T18:58:50.16</time>
      </trkpt>
      <trkpt lat="37.20048833333333" lon="-7.400956666666667">
        <ele>57.09999999999999</ele>
        <time>2013-05-02T18:58:51.16</time>
      </trkpt>
      <trkpt lat="37.200543333333336" lon="-7.40095">
        <ele>57.19999999999999</ele>
        <time>2013-05-02T18:58:52.16</time>
      </trkpt>
      <trkpt lat="37.200605" lon="-7.40095">
        <ele>57.69999999999999</ele>
        <time>2013-05-02T18:58:53.15</time>
      </trkpt>
      <trkpt lat="37.20066666666666" lon="-7.400953333333334">
        <ele>57.69999999999999</ele>
        <time>2013-05-02T18:58:54.16</time>
      </trkpt>
      <trkpt lat="37.200735" lon="-7.400948333333333">
        <ele>57.69999999999999</ele>
        <time>2013-05-02T18:58:55.16</time>
      </trkpt>
      <trkpt lat="37.200788333333335" lon="-7.400943333333333">
        <ele>57.499999999999986</ele>
        <time>2013-05-02T18:58:56.16</time>
      </trkpt>
      <trkpt lat="37.20085666666667" lon="-7.400941666666666">
        <ele>57.79999999999998</ele>
        <time>2013-05-02T18:58:57.16</time>
      </trkpt>
      <trkpt lat="37.200941666666665" lon="-7.400931666666667">
        <ele>57.999999999999986</ele>
        <time>2013-05-02T18:58:58.16</time>
      </trkpt>
      <trkpt lat="37.20101" lon="-7.40092">
        <ele>57.999999999999986</ele>
        <time>2013-05-02T18:58:59.18</time>
      </trkpt>
      <trkpt lat="37.201085" lon="-7.400915">
        <ele>58.29999999999998</ele>
        <time>2013-05-02T18:59:00.14</time>
      </trkpt>
      <trkpt lat="37.201148333333336" lon="-7.4009">
        <ele>58.19999999999998</ele>
        <time>2013-05-02T18:59:01.16</time>
      </trkpt>
      <trkpt lat="37.20121" lon="-7.400886666666667">
        <ele>57.899999999999984</ele>
        <time>2013-05-02T18:59:02.16</time>
      </trkpt>
      <trkpt lat="37.201275" lon="-7.400925">
        <ele>57.999999999999986</ele>
        <time>2013-05-02T18:59:03.16</time>
      </trkpt>
      <trkpt lat="37.20133166666667" lon="-7.400945">
        <ele>58.19999999999999</ele>
        <time>2013-05-02T18:59:04.16</time>
      </trkpt>
      <trkpt lat="37.201395" lon="-7.400956666666667">
        <ele>58.09999999999999</ele>
        <time>2013-05-02T18:59:05.15</time>
      </trkpt>
      <trkpt lat="37.201463333333336" lon="-7.400973333333333">
        <ele>57.999999999999986</ele>
        <time>2013-05-02T18:59:06.15</time>
      </trkpt>
      <trkpt lat="37.20154333333333" lon="-7.400998333333333">
        <ele>57.999999999999986</ele>
        <time>2013-05-02T18:59:07.16</time>
      </trkpt>
      <trkpt lat="37.201613333333334" lon="-7.401035">
        <ele>58.09999999999999</ele>
        <time>2013-05-02T18:59:08.16</time>
      </trkpt>
      <trkpt lat="37.20167166666667" lon="-7.401078333333333">
        <ele>57.999999999999986</ele>
        <time>2013-05-02T18:59:09.16</time>
      </trkpt>
      <trkpt lat="37.20173333333334" lon="-7.401113333333333">
        <ele>58.499999999999986</ele>
        <time>2013-05-02T18:59:10.15</time>
      </trkpt>
      <trkpt lat="37.2018" lon="-7.401148333333333">
        <ele>59.399999999999984</ele>
        <time>2013-05-02T18:59:11.16</time>
      </trkpt>
      <trkpt lat="37.20187166666667" lon="-7.4011716666666665">
        <ele>59.499999999999986</ele>
        <time>2013-05-02T18:59:12.16</time>
      </trkpt>
      <trkpt lat="37.20194" lon="-7.401205">
        <ele>58.59999999999999</ele>
        <time>2013-05-02T18:59:13.20</time>
      </trkpt>
      <trkpt lat="37.20202166666667" lon="-7.401251666666667">
        <ele>57.79999999999999</ele>
        <time>2013-05-02T18:59:14.17</time>
      </trkpt>
      <trkpt lat="37.20207666666666" lon="-7.401281666666667">
        <ele>57.49999999999999</ele>
        <time>2013-05-02T18:59:15.16</time>
      </trkpt>
      <trkpt lat="37.20212333333333" lon="-7.401305">
        <ele>57.79999999999999</ele>
        <time>2013-05-02T18:59:16.16</time>
      </trkpt>
      <trkpt lat="37.20216333333333" lon="-7.401315">
        <ele>58.19999999999999</ele>
        <time>2013-05-02T18:59:17.16</time>
      </trkpt>
      <trkpt lat="37.202198333333335" lon="-7.401343333333333">
        <ele>58.19999999999999</ele>
        <time>2013-05-02T18:59:18.16</time>
      </trkpt>
      <trkpt lat="37.202245" lon="-7.401371666666667">
        <ele>57.69999999999999</ele>
        <time>2013-05-02T18:59:19.16</time>
      </trkpt>
      <trkpt lat="37.20227333333333" lon="-7.40139">
        <ele>57.59999999999999</ele>
        <time>2013-05-02T18:59:20.16</time>
      </trkpt>
      <trkpt lat="37.20230166666666" lon="-7.401411666666666">
        <ele>56.69999999999999</ele>
        <time>2013-05-02T18:59:21.16</time>
      </trkpt>
      <trkpt lat="37.20230166666666" lon="-7.4014">
        <ele>54.39999999999999</ele>
        <time>2013-05-02T18:59:22.16</time>
      </trkpt>
      <trkpt lat="37.20233" lon="-7.401415">
        <ele>51.69999999999999</ele>
        <time>2013-05-02T18:59:23.16</time>
      </trkpt>
      <trkpt lat="37.20233833333333" lon="-7.401398333333334">
        <ele>51.19999999999999</ele>
        <time>2013-05-02T18:59:24.16</time>
      </trkpt>
      <trkpt lat="37.20234" lon="-7.401378333333334">
        <ele>50.89999999999999</ele>
        <time>2013-05-02T18:59:25.15</time>
      </trkpt>
      <trkpt lat="37.20234" lon="-7.401363333333333">
        <ele>50.69999999999999</ele>
        <time>2013-05-02T18:59:26.16</time>
      </trkpt>
      <trkpt lat="37.202331666666666" lon="-7.401371666666667">
        <ele>50.39999999999999</ele>
        <time>2013-05-02T18:59:27.16</time>
      </trkpt>
      <trkpt lat="37.20240166666667" lon="-7.401328333333334">
        <ele>50.4</ele>
        <time>2013-05-02T18:59:31.16</time>
      </trkpt>
      <trkpt lat="37.20245333333333" lon="-7.401286666666667">
        <ele>51.699999999999996</ele>
        <time>2013-05-02T18:59:32.16</time>
      </trkpt>
      <trkpt lat="37.2025" lon="-7.401285">
        <ele>52.099999999999994</ele>
        <time>2013-05-02T18:59:33.16</time>
      </trkpt>
      <trkpt lat="37.202553333333334" lon="-7.40131">
        <ele>51.699999999999996</ele>
        <time>2013-05-02T18:59:34.16</time>
      </trkpt>
      <trkpt lat="37.202605" lon="-7.401326666666667">
        <ele>51.9</ele>
        <time>2013-05-02T18:59:35.16</time>
      </trkpt>
      <trkpt lat="37.202663333333334" lon="-7.401338333333333">
        <ele>52.1</ele>
        <time>2013-05-02T18:59:36.16</time>
      </trkpt>
      <trkpt lat="37.20269833333333" lon="-7.401355">
        <ele>52.800000000000004</ele>
        <time>2013-05-02T18:59:37.16</time>
      </trkpt>
      <trkpt lat="37.20274833333333" lon="-7.401378333333334">
        <ele>52.800000000000004</ele>
        <time>2013-05-02T18:59:38.16</time>
      </trkpt>
      <trkpt lat="37.20278166666667" lon="-7.401388333333333">
        <ele>53.2</ele>
        <time>2013-05-02T18:59:39.16</time>
      </trkpt>
      <trkpt lat="37.202835" lon="-7.401386666666666">
        <ele>52.1</ele>
        <time>2013-05-02T18:59:40.16</time>
      </trkpt>
      <trkpt lat="37.20289" lon="-7.401385">
        <ele>51.2</ele>
        <time>2013-05-02T18:59:41.16</time>
      </trkpt>
      <trkpt lat="37.202935" lon="-7.4013583333333335">
        <ele>51.400000000000006</ele>
        <time>2013-05-02T18:59:42.16</time>
      </trkpt>
      <trkpt lat="37.20297166666667" lon="-7.4013116666666665">
        <ele>51.400000000000006</ele>
        <time>2013-05-02T18:59:43.16</time>
      </trkpt>
      <trkpt lat="37.203003333333335" lon="-7.401248333333333">
        <ele>51.50000000000001</ele>
        <time>2013-05-02T18:59:44.16</time>
      </trkpt>
      <trkpt lat="37.20303833333333" lon="-7.401186666666667">
        <ele>51.20000000000001</ele>
        <time>2013-05-02T18:59:45.17</time>
      </trkpt>
      <trkpt lat="37.203086666666664" lon="-7.40113">
        <ele>50.60000000000001</ele>
        <time>2013-05-02T18:59:46.17</time>
      </trkpt>
      <trkpt lat="37.20312833333333" lon="-7.401048333333334">
        <ele>50.60000000000001</ele>
        <time>2013-05-02T18:59:47.16</time>
      </trkpt>
      <trkpt lat="37.20316166666667" lon="-7.400975">
        <ele>50.50000000000001</ele>
        <time>2013-05-02T18:59:48.16</time>
      </trkpt>
      <trkpt lat="37.20321166666667" lon="-7.400903333333333">
        <ele>50.00000000000001</ele>
        <time>2013-05-02T18:59:49.16</time>
      </trkpt>
      <trkpt lat="37.20325" lon="-7.400836666666667">
        <ele>50.00000000000001</ele>
        <time>2013-05-02T18:59:50.16</time>
      </trkpt>
      <trkpt lat="37.20327666666667" lon="-7.400775">
        <ele>49.900000000000006</ele>
        <time>2013-05-02T18:59:51.15</time>
      </trkpt>
      <trkpt lat="37.20329666666667" lon="-7.400716666666667">
        <ele>49.50000000000001</ele>
        <time>2013-05-02T18:59:52.16</time>
      </trkpt>
      <trkpt lat="37.20332333333333" lon="-7.400638333333333">
        <ele>50.10000000000001</ele>
        <time>2013-05-02T18:59:53.16</time>
      </trkpt>
      <trkpt lat="37.20335333333333" lon="-7.400573333333333">
        <ele>50.80000000000001</ele>
        <time>2013-05-02T18:59:54.16</time>
      </trkpt>
      <trkpt lat="37.203385" lon="-7.400538333333333">
        <ele>50.60000000000001</ele>
        <time>2013-05-02T18:59:55.16</time>
      </trkpt>
      <trkpt lat="37.20341666666667" lon="-7.400473333333333">
        <ele>50.50000000000001</ele>
        <time>2013-05-02T18:59:56.16</time>
      </trkpt>
      <trkpt lat="37.20343833333333" lon="-7.400411666666667">
        <ele>50.00000000000001</ele>
        <time>2013-05-02T18:59:57.16</time>
      </trkpt>
      <trkpt lat="37.203466666666664" lon="-7.400336666666667">
        <ele>50.10000000000001</ele>
        <time>2013-05-02T18:59:58.16</time>
      </trkpt>
      <trkpt lat="37.203485" lon="-7.400261666666666">
        <ele>49.60000000000001</ele>
        <time>2013-05-02T18:59:59.16</time>
      </trkpt>
      <trkpt lat="37.203515" lon="-7.400191666666666">
        <ele>49.70000000000001</ele>
        <time>2013-05-02T19:00:00.14</time>
      </trkpt>
      <trkpt lat="37.20353166666666" lon="-7.400103333333333">
        <ele>49.90000000000001</ele>
        <time>2013-05-02T19:00:01.17</time>
      </trkpt>
      <trkpt lat="37.20354" lon="-7.400011666666667">
        <ele>50.20000000000001</ele>
        <time>2013-05-02T19:00:02.17</time>
      </trkpt>
      <trkpt lat="37.20358" lon="-7.399933333333333">
        <ele>50.40000000000001</ele>
        <time>2013-05-02T19:00:03.16</time>
      </trkpt>
      <trkpt lat="37.203601666666664" lon="-7.399851666666667">
        <ele>50.600000000000016</ele>
        <time>2013-05-02T19:00:04.16</time>
      </trkpt>
      <trkpt lat="37.20361833333333" lon="-7.399781666666667">
        <ele>50.70000000000002</ele>
        <time>2013-05-02T19:00:05.16</time>
      </trkpt>
      <trkpt lat="37.203648333333334" lon="-7.399711666666667">
        <ele>50.80000000000002</ele>
        <time>2013-05-02T19:00:06.16</time>
      </trkpt>
      <trkpt lat="37.20372166666667" lon="-7.399698333333333">
        <ele>48.600000000000016</ele>
        <time>2013-05-02T19:00:07.16</time>
      </trkpt>
      <trkpt lat="37.203755" lon="-7.3996466666666665">
        <ele>48.30000000000002</ele>
        <time>2013-05-02T19:00:08.16</time>
      </trkpt>
      <trkpt lat="37.203786666666666" lon="-7.39958">
        <ele>47.90000000000002</ele>
        <time>2013-05-02T19:00:09.16</time>
      </trkpt>
      <trkpt lat="37.203825" lon="-7.399511666666666">
        <ele>46.90000000000002</ele>
        <time>2013-05-02T19:00:10.17</time>
      </trkpt>
      <trkpt lat="37.203858333333336" lon="-7.399455">
        <ele>46.70000000000002</ele>
        <time>2013-05-02T19:00:11.16</time>
      </trkpt>
      <trkpt lat="37.20389333333333" lon="-7.399391666666666">
        <ele>46.40000000000002</ele>
        <time>2013-05-02T19:00:12.16</time>
      </trkpt>
      <trkpt lat="37.20393" lon="-7.399318333333333">
        <ele>46.70000000000002</ele>
        <time>2013-05-02T19:00:13.16</time>
      </trkpt>
      <trkpt lat="37.20397666666667" lon="-7.3992466666666665">
        <ele>46.70000000000002</ele>
        <time>2013-05-02T19:00:14.16</time>
      </trkpt>
      <trkpt lat="37.20401833333333" lon="-7.399183333333333">
        <ele>46.40000000000002</ele>
        <time>2013-05-02T19:00:15.16</time>
      </trkpt>
      <trkpt lat="37.20404833333333" lon="-7.399111666666666">
        <ele>46.60000000000002</ele>
        <time>2013-05-02T19:00:16.16</time>
      </trkpt>
      <trkpt lat="37.204076666666666" lon="-7.399031666666667">
        <ele>46.200000000000024</ele>
        <time>2013-05-02T19:00:17.17</time>
      </trkpt>
      <trkpt lat="37.20411" lon="-7.398956666666667">
        <ele>46.200000000000024</ele>
        <time>2013-05-02T19:00:18.17</time>
      </trkpt>
      <trkpt lat="37.20415833333333" lon="-7.3988716666666665">
        <ele>46.00000000000002</ele>
        <time>2013-05-02T19:00:19.15</time>
      </trkpt>
      <trkpt lat="37.204195" lon="-7.398796666666667">
        <ele>46.40000000000002</ele>
        <time>2013-05-02T19:00:20.16</time>
      </trkpt>
      <trkpt lat="37.20423" lon="-7.398721666666667">
        <ele>46.70000000000002</ele>
        <time>2013-05-02T19:00:21.16</time>
      </trkpt>
      <trkpt lat="37.204265" lon="-7.39864">
        <ele>46.70000000000002</ele>
        <time>2013-05-02T19:00:22.16</time>
      </trkpt>
      <trkpt lat="37.20431333333333" lon="-7.398556666666667">
        <ele>47.20000000000002</ele>
        <time>2013-05-02T19:00:23.16</time>
      </trkpt>
      <trkpt lat="37.204341666666664" lon="-7.398471666666667">
        <ele>47.40000000000002</ele>
        <time>2013-05-02T19:00:24.16</time>
      </trkpt>
      <trkpt lat="37.204373333333336" lon="-7.39839">
        <ele>45.90000000000002</ele>
        <time>2013-05-02T19:00:25.16</time>
      </trkpt>
      <trkpt lat="37.204406666666664" lon="-7.398305">
        <ele>46.10000000000002</ele>
        <time>2013-05-02T19:00:26.19</time>
      </trkpt>
      <trkpt lat="37.204436666666666" lon="-7.398221666666666">
        <ele>45.40000000000002</ele>
        <time>2013-05-02T19:00:27.16</time>
      </trkpt>
      <trkpt lat="37.204476666666665" lon="-7.3981433333333335">
        <ele>45.80000000000002</ele>
        <time>2013-05-02T19:00:28.16</time>
      </trkpt>
      <trkpt lat="37.20451666666666" lon="-7.39807">
        <ele>46.30000000000002</ele>
        <time>2013-05-02T19:00:29.16</time>
      </trkpt>
      <trkpt lat="37.20455166666667" lon="-7.3980033333333335">
        <ele>46.100000000000016</ele>
        <time>2013-05-02T19:00:30.16</time>
      </trkpt>
      <trkpt lat="37.204586666666664" lon="-7.397928333333334">
        <ele>45.90000000000001</ele>
        <time>2013-05-02T19:00:31.16</time>
      </trkpt>
      <trkpt lat="37.204618333333336" lon="-7.397858333333334">
        <ele>45.600000000000016</ele>
        <time>2013-05-02T19:00:32.21</time>
      </trkpt>
      <trkpt lat="37.20465" lon="-7.39779">
        <ele>45.500000000000014</ele>
        <time>2013-05-02T19:00:33.16</time>
      </trkpt>
      <trkpt lat="37.20469" lon="-7.397728333333333">
        <ele>45.30000000000001</ele>
        <time>2013-05-02T19:00:34.18</time>
      </trkpt>
      <trkpt lat="37.204748333333335" lon="-7.39767">
        <ele>45.20000000000001</ele>
        <time>2013-05-02T19:00:35.16</time>
      </trkpt>
      <trkpt lat="37.204785" lon="-7.397615">
        <ele>43.90000000000001</ele>
        <time>2013-05-02T19:00:36.16</time>
      </trkpt>
      <trkpt lat="37.204835" lon="-7.397561666666666">
        <ele>43.30000000000001</ele>
        <time>2013-05-02T19:00:37.16</time>
      </trkpt>
      <trkpt lat="37.204895" lon="-7.397513333333333">
        <ele>42.90000000000001</ele>
        <time>2013-05-02T19:00:38.23</time>
      </trkpt>
      <trkpt lat="37.204953333333336" lon="-7.397471666666666">
        <ele>43.000000000000014</ele>
        <time>2013-05-02T19:00:39.20</time>
      </trkpt>
      <trkpt lat="37.20501333333333" lon="-7.397433333333334">
        <ele>43.000000000000014</ele>
        <time>2013-05-02T19:00:40.18</time>
      </trkpt>
      <trkpt lat="37.20507666666666" lon="-7.397391666666667">
        <ele>42.90000000000001</ele>
        <time>2013-05-02T19:00:41.16</time>
      </trkpt>
      <trkpt lat="37.20514166666667" lon="-7.3973683333333335">
        <ele>43.40000000000001</ele>
        <time>2013-05-02T19:00:42.16</time>
      </trkpt>
      <trkpt lat="37.205195" lon="-7.39736">
        <ele>43.40000000000001</ele>
        <time>2013-05-02T19:00:43.17</time>
      </trkpt>
      <trkpt lat="37.205263333333335" lon="-7.397341666666667">
        <ele>43.600000000000016</ele>
        <time>2013-05-02T19:00:44.20</time>
      </trkpt>
      <trkpt lat="37.205330000000004" lon="-7.39733">
        <ele>43.40000000000001</ele>
        <time>2013-05-02T19:00:45.17</time>
      </trkpt>
      <trkpt lat="37.20540166666667" lon="-7.397331666666667">
        <ele>43.90000000000001</ele>
        <time>2013-05-02T19:00:46.16</time>
      </trkpt>
      <trkpt lat="37.20547333333333" lon="-7.397353333333333">
        <ele>44.20000000000001</ele>
        <time>2013-05-02T19:00:47.19</time>
      </trkpt>
      <trkpt lat="37.20554833333333" lon="-7.3973466666666665">
        <ele>44.00000000000001</ele>
        <time>2013-05-02T19:00:48.16</time>
      </trkpt>
      <trkpt lat="37.20562" lon="-7.397338333333333">
        <ele>43.900000000000006</ele>
        <time>2013-05-02T19:00:49.21</time>
      </trkpt>
      <trkpt lat="37.20569" lon="-7.397328333333333">
        <ele>44.300000000000004</ele>
        <time>2013-05-02T19:00:50.16</time>
      </trkpt>
      <trkpt lat="37.205765" lon="-7.3973233333333335">
        <ele>44.900000000000006</ele>
        <time>2013-05-02T19:00:51.16</time>
      </trkpt>
      <trkpt lat="37.20583333333333" lon="-7.397321666666667">
        <ele>45.00000000000001</ele>
        <time>2013-05-02T19:00:52.17</time>
      </trkpt>
      <trkpt lat="37.205905" lon="-7.397316666666667">
        <ele>45.10000000000001</ele>
        <time>2013-05-02T19:00:53.17</time>
      </trkpt>
      <trkpt lat="37.20596666666667" lon="-7.397316666666667">
        <ele>45.20000000000001</ele>
        <time>2013-05-02T19:00:54.17</time>
      </trkpt>
      <trkpt lat="37.20603666666667" lon="-7.397308333333333">
        <ele>45.30000000000001</ele>
        <time>2013-05-02T19:00:55.19</time>
      </trkpt>
      <trkpt lat="37.20611" lon="-7.3972983333333335">
        <ele>45.500000000000014</ele>
        <time>2013-05-02T19:00:56.17</time>
      </trkpt>
      <trkpt lat="37.206181666666666" lon="-7.397285">
        <ele>46.000000000000014</ele>
        <time>2013-05-02T19:00:57.23</time>
      </trkpt>
      <trkpt lat="37.206246666666665" lon="-7.3972766666666665">
        <ele>46.30000000000001</ele>
        <time>2013-05-02T19:00:58.19</time>
      </trkpt>
      <trkpt lat="37.206311666666664" lon="-7.397256666666666">
        <ele>46.500000000000014</ele>
        <time>2013-05-02T19:00:59.15</time>
      </trkpt>
      <trkpt lat="37.20639333333333" lon="-7.397261666666667">
        <ele>46.70000000000002</ele>
        <time>2013-05-02T19:01:00.15</time>
      </trkpt>
      <trkpt lat="37.20646166666667" lon="-7.39725">
        <ele>46.80000000000002</ele>
        <time>2013-05-02T19:01:01.17</time>
      </trkpt>
      <trkpt lat="37.206536666666665" lon="-7.397238333333333">
        <ele>46.70000000000002</ele>
        <time>2013-05-02T19:01:02.17</time>
      </trkpt>
      <trkpt lat="37.20661166666667" lon="-7.3972283333333335">
        <ele>46.500000000000014</ele>
        <time>2013-05-02T19:01:03.16</time>
      </trkpt>
      <trkpt lat="37.206695" lon="-7.3972283333333335">
        <ele>46.40000000000001</ele>
        <time>2013-05-02T19:01:04.16</time>
      </trkpt>
      <trkpt lat="37.20676666666667" lon="-7.397235">
        <ele>46.100000000000016</ele>
        <time>2013-05-02T19:01:05.17</time>
      </trkpt>
      <trkpt lat="37.20683833333333" lon="-7.397226666666667">
        <ele>46.30000000000002</ele>
        <time>2013-05-02T19:01:06.17</time>
      </trkpt>
      <trkpt lat="37.20691166666667" lon="-7.397215">
        <ele>46.00000000000002</ele>
        <time>2013-05-02T19:01:07.21</time>
      </trkpt>
      <trkpt lat="37.20697" lon="-7.397213333333333">
        <ele>46.40000000000002</ele>
        <time>2013-05-02T19:01:08.17</time>
      </trkpt>
      <trkpt lat="37.207031666666666" lon="-7.397193333333333">
        <ele>46.30000000000002</ele>
        <time>2013-05-02T19:01:09.17</time>
      </trkpt>
      <trkpt lat="37.207096666666665" lon="-7.397191666666667">
        <ele>46.40000000000002</ele>
        <time>2013-05-02T19:01:10.17</time>
      </trkpt>
      <trkpt lat="37.207166666666666" lon="-7.397193333333333">
        <ele>46.40000000000002</ele>
        <time>2013-05-02T19:01:11.17</time>
      </trkpt>
      <trkpt lat="37.20724333333333" lon="-7.397193333333333">
        <ele>46.40000000000002</ele>
        <time>2013-05-02T19:01:12.21</time>
      </trkpt>
      <trkpt lat="37.20731833333333" lon="-7.397191666666667">
        <ele>46.60000000000002</ele>
        <time>2013-05-02T19:01:13.17</time>
      </trkpt>
      <trkpt lat="37.20739666666667" lon="-7.397195">
        <ele>46.700000000000024</ele>
        <time>2013-05-02T19:01:14.21</time>
      </trkpt>
      <trkpt lat="37.20746333333334" lon="-7.397185">
        <ele>47.10000000000002</ele>
        <time>2013-05-02T19:01:15.17</time>
      </trkpt>
      <trkpt lat="37.207528333333336" lon="-7.397188333333333">
        <ele>47.10000000000002</ele>
        <time>2013-05-02T19:01:16.17</time>
      </trkpt>
      <trkpt lat="37.207591666666666" lon="-7.397203333333334">
        <ele>47.10000000000002</ele>
        <time>2013-05-02T19:01:17.17</time>
      </trkpt>
      <trkpt lat="37.207656666666665" lon="-7.397295">
        <ele>45.700000000000024</ele>
        <time>2013-05-02T19:01:18.17</time>
      </trkpt>
      <trkpt lat="37.207721666666664" lon="-7.397355">
        <ele>47.10000000000002</ele>
        <time>2013-05-02T19:01:19.17</time>
      </trkpt>
      <trkpt lat="37.20775833333333" lon="-7.39744">
        <ele>48.00000000000002</ele>
        <time>2013-05-02T19:01:20.19</time>
      </trkpt>
      <trkpt lat="37.207771666666666" lon="-7.397525">
        <ele>47.700000000000024</ele>
        <time>2013-05-02T19:01:21.17</time>
      </trkpt>
      <trkpt lat="37.20777" lon="-7.397613333333333">
        <ele>48.60000000000002</ele>
        <time>2013-05-02T19:01:22.17</time>
      </trkpt>
      <trkpt lat="37.20775666666667" lon="-7.397708333333333">
        <ele>48.300000000000026</ele>
        <time>2013-05-02T19:01:23.17</time>
      </trkpt>
      <trkpt lat="37.20774" lon="-7.397805">
        <ele>48.700000000000024</ele>
        <time>2013-05-02T19:01:24.18</time>
      </trkpt>
      <trkpt lat="37.20771833333333" lon="-7.3979">
        <ele>48.700000000000024</ele>
        <time>2013-05-02T19:01:25.22</time>
      </trkpt>
      <trkpt lat="37.207701666666665" lon="-7.398">
        <ele>49.300000000000026</ele>
        <time>2013-05-02T19:01:26.17</time>
      </trkpt>
      <trkpt lat="37.207678333333334" lon="-7.398088333333333">
        <ele>50.00000000000003</ele>
        <time>2013-05-02T19:01:27.20</time>
      </trkpt>
      <trkpt lat="37.20766833333333" lon="-7.39818">
        <ele>49.90000000000003</ele>
        <time>2013-05-02T19:01:28.22</time>
      </trkpt>
      <trkpt lat="37.207645" lon="-7.39827">
        <ele>50.300000000000026</ele>
        <time>2013-05-02T19:01:29.17</time>
      </trkpt>
      <trkpt lat="37.207631666666664" lon="-7.398348333333334">
        <ele>50.10000000000002</ele>
        <time>2013-05-02T19:01:30.17</time>
      </trkpt>
      <trkpt lat="37.207613333333335" lon="-7.39844">
        <ele>50.50000000000002</ele>
        <time>2013-05-02T19:01:31.15</time>
      </trkpt>
      <trkpt lat="37.207595" lon="-7.398508333333333">
        <ele>50.40000000000002</ele>
        <time>2013-05-02T19:01:32.16</time>
      </trkpt>
      <trkpt lat="37.20757" lon="-7.398581666666667">
        <ele>50.50000000000002</ele>
        <time>2013-05-02T19:01:33.17</time>
      </trkpt>
      <trkpt lat="37.207548333333335" lon="-7.39867">
        <ele>50.50000000000002</ele>
        <time>2013-05-02T19:01:34.18</time>
      </trkpt>
      <trkpt lat="37.20753" lon="-7.398738333333333">
        <ele>50.30000000000002</ele>
        <time>2013-05-02T19:01:35.17</time>
      </trkpt>
      <trkpt lat="37.20753" lon="-7.3988016666666665">
        <ele>50.30000000000002</ele>
        <time>2013-05-02T19:01:36.17</time>
      </trkpt>
      <trkpt lat="37.207521666666665" lon="-7.3988716666666665">
        <ele>50.600000000000016</ele>
        <time>2013-05-02T19:01:37.15</time>
      </trkpt>
      <trkpt lat="37.20751166666667" lon="-7.39895">
        <ele>50.600000000000016</ele>
        <time>2013-05-02T19:01:38.15</time>
      </trkpt>
      <trkpt lat="37.207498333333334" lon="-7.399016666666666">
        <ele>51.20000000000002</ele>
        <time>2013-05-02T19:01:39.17</time>
      </trkpt>
      <trkpt lat="37.20748" lon="-7.399048333333333">
        <ele>51.20000000000002</ele>
        <time>2013-05-02T19:01:40.17</time>
      </trkpt>
      <trkpt lat="37.207465" lon="-7.399135">
        <ele>51.70000000000002</ele>
        <time>2013-05-02T19:01:41.15</time>
      </trkpt>
      <trkpt lat="37.207458333333335" lon="-7.3992">
        <ele>51.90000000000002</ele>
        <time>2013-05-02T19:01:42.17</time>
      </trkpt>
      <trkpt lat="37.20745333333333" lon="-7.399285">
        <ele>52.50000000000002</ele>
        <time>2013-05-02T19:01:43.19</time>
      </trkpt>
      <trkpt lat="37.20744166666667" lon="-7.399348333333333">
        <ele>52.80000000000002</ele>
        <time>2013-05-02T19:01:44.20</time>
      </trkpt>
      <trkpt lat="37.207456666666666" lon="-7.399491666666667">
        <ele>52.30000000000002</ele>
        <time>2013-05-02T19:01:45.17</time>
      </trkpt>
      <trkpt lat="37.20746166666667" lon="-7.399558333333333">
        <ele>52.50000000000002</ele>
        <time>2013-05-02T19:01:46.17</time>
      </trkpt>
      <trkpt lat="37.20746" lon="-7.399655">
        <ele>52.200000000000024</ele>
        <time>2013-05-02T19:01:47.17</time>
      </trkpt>
      <trkpt lat="37.20746833333333" lon="-7.399731666666667">
        <ele>52.40000000000003</ele>
        <time>2013-05-02T19:01:48.17</time>
      </trkpt>
      <trkpt lat="37.20747166666666" lon="-7.3998083333333335">
        <ele>52.10000000000003</ele>
        <time>2013-05-02T19:01:49.17</time>
      </trkpt>
      <trkpt lat="37.207481666666666" lon="-7.399883333333333">
        <ele>51.60000000000003</ele>
        <time>2013-05-02T19:01:50.17</time>
      </trkpt>
      <trkpt lat="37.207495" lon="-7.3999516666666665">
        <ele>52.80000000000003</ele>
        <time>2013-05-02T19:01:51.17</time>
      </trkpt>
      <trkpt lat="37.20751333333333" lon="-7.4000216666666665">
        <ele>53.000000000000036</ele>
        <time>2013-05-02T19:01:52.17</time>
      </trkpt>
      <trkpt lat="37.207528333333336" lon="-7.400088333333334">
        <ele>52.900000000000034</ele>
        <time>2013-05-02T19:01:53.17</time>
      </trkpt>
      <trkpt lat="37.207545" lon="-7.40015">
        <ele>52.60000000000004</ele>
        <time>2013-05-02T19:01:54.17</time>
      </trkpt>
      <trkpt lat="37.20757" lon="-7.400215">
        <ele>52.60000000000004</ele>
        <time>2013-05-02T19:01:55.17</time>
      </trkpt>
      <trkpt lat="37.207593333333335" lon="-7.400273333333334">
        <ele>52.60000000000004</ele>
        <time>2013-05-02T19:01:56.15</time>
      </trkpt>
      <trkpt lat="37.207618333333336" lon="-7.400338333333333">
        <ele>52.70000000000004</ele>
        <time>2013-05-02T19:01:57.17</time>
      </trkpt>
      <trkpt lat="37.207638333333335" lon="-7.400398333333333">
        <ele>52.60000000000004</ele>
        <time>2013-05-02T19:01:58.15</time>
      </trkpt>
      <trkpt lat="37.20767166666667" lon="-7.400465">
        <ele>51.80000000000004</ele>
        <time>2013-05-02T19:01:59.22</time>
      </trkpt>
      <trkpt lat="37.20769333333333" lon="-7.400523333333333">
        <ele>51.50000000000004</ele>
        <time>2013-05-02T19:02:00.17</time>
      </trkpt>
      <trkpt lat="37.207725" lon="-7.400581666666667">
        <ele>51.200000000000045</ele>
        <time>2013-05-02T19:02:01.17</time>
      </trkpt>
      <trkpt lat="37.207748333333335" lon="-7.400641666666667">
        <ele>51.100000000000044</ele>
        <time>2013-05-02T19:02:02.17</time>
      </trkpt>
      <trkpt lat="37.207775" lon="-7.400705">
        <ele>50.700000000000045</ele>
        <time>2013-05-02T19:02:03.17</time>
      </trkpt>
      <trkpt lat="37.2078" lon="-7.400768333333334">
        <ele>51.00000000000004</ele>
        <time>2013-05-02T19:02:04.17</time>
      </trkpt>
      <trkpt lat="37.207831666666664" lon="-7.400828333333333">
        <ele>51.40000000000004</ele>
        <time>2013-05-02T19:02:05.17</time>
      </trkpt>
      <trkpt lat="37.207863333333336" lon="-7.400898333333333">
        <ele>51.100000000000044</ele>
        <time>2013-05-02T19:02:06.17</time>
      </trkpt>
      <trkpt lat="37.20789333333333" lon="-7.400963333333333">
        <ele>51.00000000000004</ele>
        <time>2013-05-02T19:02:07.17</time>
      </trkpt>
      <trkpt lat="37.207925" lon="-7.401026666666667">
        <ele>50.90000000000004</ele>
        <time>2013-05-02T19:02:08.17</time>
      </trkpt>
      <trkpt lat="37.20795833333333" lon="-7.401091666666667">
        <ele>50.90000000000004</ele>
        <time>2013-05-02T19:02:09.17</time>
      </trkpt>
      <trkpt lat="37.20798833333333" lon="-7.401158333333333">
        <ele>51.00000000000004</ele>
        <time>2013-05-02T19:02:10.17</time>
      </trkpt>
      <trkpt lat="37.208016666666666" lon="-7.401226666666667">
        <ele>50.50000000000004</ele>
        <time>2013-05-02T19:02:11.17</time>
      </trkpt>
      <trkpt lat="37.20805166666667" lon="-7.401295">
        <ele>50.40000000000004</ele>
        <time>2013-05-02T19:02:12.15</time>
      </trkpt>
      <trkpt lat="37.208085" lon="-7.40136">
        <ele>50.40000000000004</ele>
        <time>2013-05-02T19:02:13.17</time>
      </trkpt>
      <trkpt lat="37.20811666666667" lon="-7.401425">
        <ele>50.600000000000044</ele>
        <time>2013-05-02T19:02:14.17</time>
      </trkpt>
      <trkpt lat="37.20815" lon="-7.401491666666667">
        <ele>50.30000000000005</ele>
        <time>2013-05-02T19:02:15.19</time>
      </trkpt>
      <trkpt lat="37.208185" lon="-7.401555">
        <ele>50.30000000000005</ele>
        <time>2013-05-02T19:02:16.23</time>
      </trkpt>
      <trkpt lat="37.208215" lon="-7.401618333333333">
        <ele>50.00000000000005</ele>
        <time>2013-05-02T19:02:17.17</time>
      </trkpt>
      <trkpt lat="37.20824833333333" lon="-7.401685">
        <ele>50.00000000000005</ele>
        <time>2013-05-02T19:02:18.15</time>
      </trkpt>
      <trkpt lat="37.208281666666664" lon="-7.401746666666667">
        <ele>50.30000000000005</ele>
        <time>2013-05-02T19:02:19.17</time>
      </trkpt>
      <trkpt lat="37.20832" lon="-7.4018033333333335">
        <ele>49.90000000000005</ele>
        <time>2013-05-02T19:02:20.17</time>
      </trkpt>
      <trkpt lat="37.20836" lon="-7.401861666666667">
        <ele>49.80000000000005</ele>
        <time>2013-05-02T19:02:21.17</time>
      </trkpt>
      <trkpt lat="37.20841166666666" lon="-7.401913333333333">
        <ele>49.80000000000005</ele>
        <time>2013-05-02T19:02:22.15</time>
      </trkpt>
      <trkpt lat="37.20845833333333" lon="-7.401956666666667">
        <ele>49.700000000000045</ele>
        <time>2013-05-02T19:02:23.17</time>
      </trkpt>
      <trkpt lat="37.208511666666666" lon="-7.402">
        <ele>49.600000000000044</ele>
        <time>2013-05-02T19:02:24.18</time>
      </trkpt>
      <trkpt lat="37.208558333333336" lon="-7.402051666666667">
        <ele>49.700000000000045</ele>
        <time>2013-05-02T19:02:25.17</time>
      </trkpt>
      <trkpt lat="37.20860666666667" lon="-7.402095">
        <ele>49.700000000000045</ele>
        <time>2013-05-02T19:02:26.17</time>
      </trkpt>
      <trkpt lat="37.208665" lon="-7.402138333333333">
        <ele>49.700000000000045</ele>
        <time>2013-05-02T19:02:27.17</time>
      </trkpt>
      <trkpt lat="37.208726666666664" lon="-7.402166666666667">
        <ele>49.600000000000044</ele>
        <time>2013-05-02T19:02:28.17</time>
      </trkpt>
      <trkpt lat="37.20879" lon="-7.402193333333333">
        <ele>49.40000000000004</ele>
        <time>2013-05-02T19:02:29.17</time>
      </trkpt>
      <trkpt lat="37.20885333333333" lon="-7.402208333333333">
        <ele>49.50000000000004</ele>
        <time>2013-05-02T19:02:30.17</time>
      </trkpt>
      <trkpt lat="37.208913333333335" lon="-7.40223">
        <ele>49.600000000000044</ele>
        <time>2013-05-02T19:02:31.20</time>
      </trkpt>
      <trkpt lat="37.20896833333333" lon="-7.402233333333333">
        <ele>49.600000000000044</ele>
        <time>2013-05-02T19:02:32.20</time>
      </trkpt>
      <trkpt lat="37.209025" lon="-7.402241666666667">
        <ele>49.600000000000044</ele>
        <time>2013-05-02T19:02:33.17</time>
      </trkpt>
      <trkpt lat="37.20909" lon="-7.402256666666666">
        <ele>49.700000000000045</ele>
        <time>2013-05-02T19:02:34.17</time>
      </trkpt>
      <trkpt lat="37.20915333333333" lon="-7.40227">
        <ele>49.600000000000044</ele>
        <time>2013-05-02T19:02:35.17</time>
      </trkpt>
      <trkpt lat="37.20921166666667" lon="-7.402286666666667">
        <ele>49.600000000000044</ele>
        <time>2013-05-02T19:02:36.17</time>
      </trkpt>
      <trkpt lat="37.20928833333333" lon="-7.402301666666666">
        <ele>49.90000000000004</ele>
        <time>2013-05-02T19:02:37.17</time>
      </trkpt>
      <trkpt lat="37.209358333333334" lon="-7.402301666666666">
        <ele>49.90000000000004</ele>
        <time>2013-05-02T19:02:38.16</time>
      </trkpt>
      <trkpt lat="37.20943333333334" lon="-7.402308333333333">
        <ele>50.100000000000044</ele>
        <time>2013-05-02T19:02:39.17</time>
      </trkpt>
      <trkpt lat="37.20950666666667" lon="-7.402315">
        <ele>50.50000000000004</ele>
        <time>2013-05-02T19:02:40.17</time>
      </trkpt>
      <trkpt lat="37.209588333333336" lon="-7.402316666666667">
        <ele>50.50000000000004</ele>
        <time>2013-05-02T19:02:41.17</time>
      </trkpt>
      <trkpt lat="37.20966" lon="-7.402315">
        <ele>50.40000000000004</ele>
        <time>2013-05-02T19:02:42.17</time>
      </trkpt>
      <trkpt lat="37.209735" lon="-7.402331666666667">
        <ele>50.50000000000004</ele>
        <time>2013-05-02T19:02:43.17</time>
      </trkpt>
      <trkpt lat="37.209805" lon="-7.4023183333333336">
        <ele>50.600000000000044</ele>
        <time>2013-05-02T19:02:44.17</time>
      </trkpt>
      <trkpt lat="37.20988" lon="-7.402308333333333">
        <ele>50.90000000000004</ele>
        <time>2013-05-02T19:02:45.17</time>
      </trkpt>
      <trkpt lat="37.20994" lon="-7.402303333333333">
        <ele>50.80000000000004</ele>
        <time>2013-05-02T19:02:46.17</time>
      </trkpt>
      <trkpt lat="37.20999833333333" lon="-7.402313333333334">
        <ele>50.80000000000004</ele>
        <time>2013-05-02T19:02:47.19</time>
      </trkpt>
      <trkpt lat="37.21005666666667" lon="-7.40229">
        <ele>51.20000000000004</ele>
        <time>2013-05-02T19:02:48.19</time>
      </trkpt>
      <trkpt lat="37.210121666666666" lon="-7.402286666666667">
        <ele>51.20000000000004</ele>
        <time>2013-05-02T19:02:49.17</time>
      </trkpt>
      <trkpt lat="37.210186666666665" lon="-7.4022733333333335">
        <ele>51.30000000000004</ele>
        <time>2013-05-02T19:02:50.16</time>
      </trkpt>
      <trkpt lat="37.21027333333333" lon="-7.402266666666667">
        <ele>51.10000000000004</ele>
        <time>2013-05-02T19:02:51.15</time>
      </trkpt>
      <trkpt lat="37.21033666666667" lon="-7.402246666666667">
        <ele>51.20000000000004</ele>
        <time>2013-05-02T19:02:52.16</time>
      </trkpt>
      <trkpt lat="37.21042666666666" lon="-7.40225">
        <ele>50.90000000000004</ele>
        <time>2013-05-02T19:02:53.15</time>
      </trkpt>
      <trkpt lat="37.210501666666666" lon="-7.402256666666666">
        <ele>50.80000000000004</ele>
        <time>2013-05-02T19:02:54.15</time>
      </trkpt>
      <trkpt lat="37.210568333333335" lon="-7.402245">
        <ele>50.50000000000004</ele>
        <time>2013-05-02T19:02:55.15</time>
      </trkpt>
      <trkpt lat="37.21064333333333" lon="-7.402233333333333">
        <ele>50.700000000000045</ele>
        <time>2013-05-02T19:02:56.15</time>
      </trkpt>
      <trkpt lat="37.21071666666667" lon="-7.402215">
        <ele>50.700000000000045</ele>
        <time>2013-05-02T19:02:57.15</time>
      </trkpt>
      <trkpt lat="37.210785" lon="-7.402198333333334">
        <ele>50.700000000000045</ele>
        <time>2013-05-02T19:02:58.15</time>
      </trkpt>
      <trkpt lat="37.21084833333333" lon="-7.40216">
        <ele>51.100000000000044</ele>
        <time>2013-05-02T19:02:59.16</time>
      </trkpt>
      <trkpt lat="37.210923333333334" lon="-7.402148333333334">
        <ele>51.00000000000004</ele>
        <time>2013-05-02T19:03:00.13</time>
      </trkpt>
      <trkpt lat="37.21099666666667" lon="-7.402111666666666">
        <ele>52.00000000000004</ele>
        <time>2013-05-02T19:03:01.15</time>
      </trkpt>
      <trkpt lat="37.211061666666666" lon="-7.40208">
        <ele>52.00000000000004</ele>
        <time>2013-05-02T19:03:02.15</time>
      </trkpt>
      <trkpt lat="37.21111166666667" lon="-7.402048333333333">
        <ele>51.80000000000004</ele>
        <time>2013-05-02T19:03:03.24</time>
      </trkpt>
      <trkpt lat="37.21119" lon="-7.402026666666667">
        <ele>52.00000000000004</ele>
        <time>2013-05-02T19:03:04.20</time>
      </trkpt>
      <trkpt lat="37.211265" lon="-7.402003333333333">
        <ele>52.00000000000004</ele>
        <time>2013-05-02T19:03:05.15</time>
      </trkpt>
      <trkpt lat="37.211333333333336" lon="-7.401965">
        <ele>51.80000000000004</ele>
        <time>2013-05-02T19:03:06.16</time>
      </trkpt>
      <trkpt lat="37.21141166666666" lon="-7.401935">
        <ele>51.60000000000004</ele>
        <time>2013-05-02T19:03:07.15</time>
      </trkpt>
      <trkpt lat="37.21147666666667" lon="-7.401888333333333">
        <ele>51.30000000000004</ele>
        <time>2013-05-02T19:03:08.16</time>
      </trkpt>
      <trkpt lat="37.21155666666667" lon="-7.4018516666666665">
        <ele>51.40000000000004</ele>
        <time>2013-05-02T19:03:09.15</time>
      </trkpt>
      <trkpt lat="37.211643333333335" lon="-7.40183">
        <ele>51.100000000000044</ele>
        <time>2013-05-02T19:03:10.15</time>
      </trkpt>
      <trkpt lat="37.21171833333333" lon="-7.401801666666667">
        <ele>51.50000000000004</ele>
        <time>2013-05-02T19:03:11.15</time>
      </trkpt>
      <trkpt lat="37.21178" lon="-7.401768333333333">
        <ele>51.30000000000004</ele>
        <time>2013-05-02T19:03:12.16</time>
      </trkpt>
      <trkpt lat="37.211848333333336" lon="-7.40173">
        <ele>51.80000000000004</ele>
        <time>2013-05-02T19:03:13.15</time>
      </trkpt>
      <trkpt lat="37.21191833333334" lon="-7.40168">
        <ele>51.80000000000004</ele>
        <time>2013-05-02T19:03:14.15</time>
      </trkpt>
      <trkpt lat="37.21197333333333" lon="-7.401633333333334">
        <ele>52.50000000000004</ele>
        <time>2013-05-02T19:03:15.15</time>
      </trkpt>
      <trkpt lat="37.212043333333334" lon="-7.401596666666666">
        <ele>55.50000000000004</ele>
        <time>2013-05-02T19:03:16.16</time>
      </trkpt>
      <trkpt lat="37.21211" lon="-7.401565">
        <ele>56.100000000000044</ele>
        <time>2013-05-02T19:03:17.19</time>
      </trkpt>
      <trkpt lat="37.212176666666664" lon="-7.401563333333334">
        <ele>56.50000000000004</ele>
        <time>2013-05-02T19:03:18.19</time>
      </trkpt>
      <trkpt lat="37.21225333333334" lon="-7.401626666666667">
        <ele>56.30000000000004</ele>
        <time>2013-05-02T19:03:19.21</time>
      </trkpt>
      <trkpt lat="37.212291666666665" lon="-7.401696666666667">
        <ele>56.20000000000004</ele>
        <time>2013-05-02T19:03:20.25</time>
      </trkpt>
      <trkpt lat="37.212318333333336" lon="-7.401793333333333">
        <ele>54.80000000000004</ele>
        <time>2013-05-02T19:03:21.16</time>
      </trkpt>
      <trkpt lat="37.21235" lon="-7.401868333333334">
        <ele>54.90000000000004</ele>
        <time>2013-05-02T19:03:22.18</time>
      </trkpt>
      <trkpt lat="37.21236833333333" lon="-7.401945">
        <ele>54.80000000000004</ele>
        <time>2013-05-02T19:03:23.17</time>
      </trkpt>
      <trkpt lat="37.212395" lon="-7.402023333333333">
        <ele>54.90000000000004</ele>
        <time>2013-05-02T19:03:24.20</time>
      </trkpt>
      <trkpt lat="37.212428333333335" lon="-7.4020866666666665">
        <ele>54.90000000000004</ele>
        <time>2013-05-02T19:03:25.16</time>
      </trkpt>
      <trkpt lat="37.212475" lon="-7.402141666666667">
        <ele>55.600000000000044</ele>
        <time>2013-05-02T19:03:26.16</time>
      </trkpt>
      <trkpt lat="37.21250666666667" lon="-7.402171666666667">
        <ele>56.200000000000045</ele>
        <time>2013-05-02T19:03:27.16</time>
      </trkpt>
      <trkpt lat="37.21256833333333" lon="-7.402166666666667">
        <ele>56.80000000000005</ele>
        <time>2013-05-02T19:03:28.17</time>
      </trkpt>
      <trkpt lat="37.21265" lon="-7.402151666666667">
        <ele>56.700000000000045</ele>
        <time>2013-05-02T19:03:29.17</time>
      </trkpt>
      <trkpt lat="37.21271333333333" lon="-7.4021316666666666">
        <ele>57.40000000000005</ele>
        <time>2013-05-02T19:03:30.17</time>
      </trkpt>
      <trkpt lat="37.21276833333334" lon="-7.4020866666666665">
        <ele>57.90000000000005</ele>
        <time>2013-05-02T19:03:31.16</time>
      </trkpt>
      <trkpt lat="37.21283833333333" lon="-7.402051666666667">
        <ele>57.80000000000005</ele>
        <time>2013-05-02T19:03:32.16</time>
      </trkpt>
      <trkpt lat="37.212915" lon="-7.4020133333333336">
        <ele>57.200000000000045</ele>
        <time>2013-05-02T19:03:33.17</time>
      </trkpt>
      <trkpt lat="37.212983333333334" lon="-7.401971666666666">
        <ele>57.700000000000045</ele>
        <time>2013-05-02T19:03:34.17</time>
      </trkpt>
      <trkpt lat="37.21304166666667" lon="-7.401941666666667">
        <ele>57.90000000000005</ele>
        <time>2013-05-02T19:03:35.28</time>
      </trkpt>
      <trkpt lat="37.213098333333335" lon="-7.401876666666666">
        <ele>57.700000000000045</ele>
        <time>2013-05-02T19:03:36.23</time>
      </trkpt>
      <trkpt lat="37.213175" lon="-7.40186">
        <ele>57.00000000000004</ele>
        <time>2013-05-02T19:03:37.16</time>
      </trkpt>
      <trkpt lat="37.213226666666664" lon="-7.401823333333334">
        <ele>56.00000000000004</ele>
        <time>2013-05-02T19:03:38.16</time>
      </trkpt>
      <trkpt lat="37.213301666666666" lon="-7.401825">
        <ele>55.30000000000004</ele>
        <time>2013-05-02T19:03:39.16</time>
      </trkpt>
      <trkpt lat="37.213365" lon="-7.401805">
        <ele>55.20000000000004</ele>
        <time>2013-05-02T19:03:40.18</time>
      </trkpt>
      <trkpt lat="37.21342333333333" lon="-7.401778333333334">
        <ele>54.70000000000004</ele>
        <time>2013-05-02T19:03:41.16</time>
      </trkpt>
      <trkpt lat="37.21346166666667" lon="-7.401743333333333">
        <ele>53.000000000000036</ele>
        <time>2013-05-02T19:03:42.17</time>
      </trkpt>
      <trkpt lat="37.21350833333333" lon="-7.401715">
        <ele>53.000000000000036</ele>
        <time>2013-05-02T19:03:43.16</time>
      </trkpt>
      <trkpt lat="37.21356166666666" lon="-7.401688333333333">
        <ele>52.30000000000003</ele>
        <time>2013-05-02T19:03:44.16</time>
      </trkpt>
      <trkpt lat="37.213611666666665" lon="-7.401666666666666">
        <ele>51.70000000000003</ele>
        <time>2013-05-02T19:03:45.17</time>
      </trkpt>
      <trkpt lat="37.21366166666667" lon="-7.401643333333333">
        <ele>51.20000000000003</ele>
        <time>2013-05-02T19:03:46.17</time>
      </trkpt>
      <trkpt lat="37.21371333333333" lon="-7.401611666666667">
        <ele>51.20000000000003</ele>
        <time>2013-05-02T19:03:47.17</time>
      </trkpt>
      <trkpt lat="37.21376333333333" lon="-7.401576666666666">
        <ele>51.30000000000003</ele>
        <time>2013-05-02T19:03:48.16</time>
      </trkpt>
      <trkpt lat="37.21381" lon="-7.401531666666667">
        <ele>51.30000000000003</ele>
        <time>2013-05-02T19:03:49.16</time>
      </trkpt>
      <trkpt lat="37.21385166666666" lon="-7.40148">
        <ele>51.400000000000034</ele>
        <time>2013-05-02T19:03:50.16</time>
      </trkpt>
      <trkpt lat="37.213878333333334" lon="-7.401408333333333">
        <ele>51.10000000000004</ele>
        <time>2013-05-02T19:03:51.21</time>
      </trkpt>
      <trkpt lat="37.21386666666667" lon="-7.401343333333333">
        <ele>50.70000000000004</ele>
        <time>2013-05-02T19:03:52.23</time>
      </trkpt>
      <trkpt lat="37.213863333333336" lon="-7.40127">
        <ele>50.500000000000036</ele>
        <time>2013-05-02T19:03:53.17</time>
      </trkpt>
      <trkpt lat="37.21386666666667" lon="-7.401201666666666">
        <ele>50.20000000000004</ele>
        <time>2013-05-02T19:03:54.17</time>
      </trkpt>
      <trkpt lat="37.213883333333335" lon="-7.401121666666667">
        <ele>50.500000000000036</ele>
        <time>2013-05-02T19:03:55.17</time>
      </trkpt>
      <trkpt lat="37.213903333333334" lon="-7.40104">
        <ele>51.000000000000036</ele>
        <time>2013-05-02T19:03:56.17</time>
      </trkpt>
      <trkpt lat="37.213923333333334" lon="-7.400965">
        <ele>50.80000000000003</ele>
        <time>2013-05-02T19:03:57.17</time>
      </trkpt>
      <trkpt lat="37.21394333333333" lon="-7.400916666666666">
        <ele>50.900000000000034</ele>
        <time>2013-05-02T19:03:58.16</time>
      </trkpt>
      <trkpt lat="37.21398166666667" lon="-7.4008416666666665">
        <ele>50.500000000000036</ele>
        <time>2013-05-02T19:03:59.17</time>
      </trkpt>
      <trkpt lat="37.21400333333333" lon="-7.400775">
        <ele>50.80000000000003</ele>
        <time>2013-05-02T19:04:00.24</time>
      </trkpt>
      <trkpt lat="37.21402666666667" lon="-7.400716666666667">
        <ele>50.70000000000003</ele>
        <time>2013-05-02T19:04:01.16</time>
      </trkpt>
      <trkpt lat="37.214056666666664" lon="-7.400658333333333">
        <ele>50.70000000000003</ele>
        <time>2013-05-02T19:04:02.25</time>
      </trkpt>
      <trkpt lat="37.21409166666667" lon="-7.400595">
        <ele>50.50000000000003</ele>
        <time>2013-05-02T19:04:03.16</time>
      </trkpt>
      <trkpt lat="37.214126666666665" lon="-7.400541666666666">
        <ele>50.60000000000003</ele>
        <time>2013-05-02T19:04:04.16</time>
      </trkpt>
      <trkpt lat="37.21416" lon="-7.400446666666666">
        <ele>50.50000000000003</ele>
        <time>2013-05-02T19:04:05.16</time>
      </trkpt>
      <trkpt lat="37.2142" lon="-7.400386666666667">
        <ele>50.50000000000003</ele>
        <time>2013-05-02T19:04:06.15</time>
      </trkpt>
      <trkpt lat="37.21422166666667" lon="-7.400316666666667">
        <ele>50.60000000000003</ele>
        <time>2013-05-02T19:04:07.21</time>
      </trkpt>
      <trkpt lat="37.21425" lon="-7.400235">
        <ele>50.10000000000003</ele>
        <time>2013-05-02T19:04:08.21</time>
      </trkpt>
      <trkpt lat="37.21424" lon="-7.400158333333334">
        <ele>49.30000000000003</ele>
        <time>2013-05-02T19:04:09.15</time>
      </trkpt>
      <trkpt lat="37.21424" lon="-7.400076666666667">
        <ele>49.400000000000034</ele>
        <time>2013-05-02T19:04:10.16</time>
      </trkpt>
      <trkpt lat="37.21424833333333" lon="-7.399993333333334">
        <ele>48.900000000000034</ele>
        <time>2013-05-02T19:04:11.16</time>
      </trkpt>
      <trkpt lat="37.214241666666666" lon="-7.399908333333333">
        <ele>49.10000000000004</ele>
        <time>2013-05-02T19:04:12.16</time>
      </trkpt>
      <trkpt lat="37.21425166666667" lon="-7.399828333333334">
        <ele>48.60000000000004</ele>
        <time>2013-05-02T19:04:13.16</time>
      </trkpt>
      <trkpt lat="37.214243333333336" lon="-7.39975">
        <ele>48.10000000000004</ele>
        <time>2013-05-02T19:04:14.16</time>
      </trkpt>
      <trkpt lat="37.214245" lon="-7.39967">
        <ele>48.70000000000004</ele>
        <time>2013-05-02T19:04:15.16</time>
      </trkpt>
      <trkpt lat="37.21425" lon="-7.399588333333333">
        <ele>48.60000000000004</ele>
        <time>2013-05-02T19:04:16.16</time>
      </trkpt>
      <trkpt lat="37.21425333333333" lon="-7.3995066666666665">
        <ele>48.400000000000034</ele>
        <time>2013-05-02T19:04:17.16</time>
      </trkpt>
      <trkpt lat="37.214255" lon="-7.399421666666667">
        <ele>48.000000000000036</ele>
        <time>2013-05-02T19:04:18.16</time>
      </trkpt>
      <trkpt lat="37.214261666666665" lon="-7.3993416666666665">
        <ele>48.20000000000004</ele>
        <time>2013-05-02T19:04:19.16</time>
      </trkpt>
      <trkpt lat="37.21426666666667" lon="-7.399258333333333">
        <ele>48.000000000000036</ele>
        <time>2013-05-02T19:04:20.16</time>
      </trkpt>
      <trkpt lat="37.21427166666667" lon="-7.399181666666666">
        <ele>47.60000000000004</ele>
        <time>2013-05-02T19:04:21.15</time>
      </trkpt>
      <trkpt lat="37.21427333333333" lon="-7.399103333333334">
        <ele>47.400000000000034</ele>
        <time>2013-05-02T19:04:22.16</time>
      </trkpt>
      <trkpt lat="37.21428" lon="-7.399025">
        <ele>47.900000000000034</ele>
        <time>2013-05-02T19:04:23.23</time>
      </trkpt>
      <trkpt lat="37.21429166666667" lon="-7.398948333333333">
        <ele>48.000000000000036</ele>
        <time>2013-05-02T19:04:24.19</time>
      </trkpt>
      <trkpt lat="37.21429833333333" lon="-7.39887">
        <ele>48.400000000000034</ele>
        <time>2013-05-02T19:04:25.16</time>
      </trkpt>
      <trkpt lat="37.214301666666664" lon="-7.398795">
        <ele>48.60000000000004</ele>
        <time>2013-05-02T19:04:26.16</time>
      </trkpt>
      <trkpt lat="37.214308333333335" lon="-7.398723333333334">
        <ele>48.400000000000034</ele>
        <time>2013-05-02T19:04:27.15</time>
      </trkpt>
      <trkpt lat="37.21431666666667" lon="-7.398656666666667">
        <ele>48.10000000000004</ele>
        <time>2013-05-02T19:04:28.16</time>
      </trkpt>
      <trkpt lat="37.214326666666665" lon="-7.39859">
        <ele>48.10000000000004</ele>
        <time>2013-05-02T19:04:29.16</time>
      </trkpt>
      <trkpt lat="37.21434333333333" lon="-7.398533333333333">
        <ele>48.10000000000004</ele>
        <time>2013-05-02T19:04:30.16</time>
      </trkpt>
      <trkpt lat="37.21436166666667" lon="-7.398468333333334">
        <ele>48.10000000000004</ele>
        <time>2013-05-02T19:04:31.16</time>
      </trkpt>
      <trkpt lat="37.21438" lon="-7.398411666666667">
        <ele>47.60000000000004</ele>
        <time>2013-05-02T19:04:32.16</time>
      </trkpt>
      <trkpt lat="37.214396666666666" lon="-7.3983566666666665">
        <ele>47.30000000000004</ele>
        <time>2013-05-02T19:04:33.15</time>
      </trkpt>
      <trkpt lat="37.21442" lon="-7.398298333333333">
        <ele>47.60000000000004</ele>
        <time>2013-05-02T19:04:34.16</time>
      </trkpt>
      <trkpt lat="37.21444666666667" lon="-7.398235">
        <ele>47.60000000000004</ele>
        <time>2013-05-02T19:04:35.16</time>
      </trkpt>
      <trkpt lat="37.21446666666667" lon="-7.398176666666667">
        <ele>47.70000000000004</ele>
        <time>2013-05-02T19:04:36.16</time>
      </trkpt>
      <trkpt lat="37.21448" lon="-7.3981216666666665">
        <ele>47.90000000000004</ele>
        <time>2013-05-02T19:04:37.16</time>
      </trkpt>
      <trkpt lat="37.21450166666666" lon="-7.398055">
        <ele>47.600000000000044</ele>
        <time>2013-05-02T19:04:38.16</time>
      </trkpt>
      <trkpt lat="37.21452333333333" lon="-7.397996666666667">
        <ele>47.600000000000044</ele>
        <time>2013-05-02T19:04:39.17</time>
      </trkpt>
      <trkpt lat="37.21454333333333" lon="-7.397925">
        <ele>47.30000000000005</ele>
        <time>2013-05-02T19:04:40.17</time>
      </trkpt>
      <trkpt lat="37.214565" lon="-7.397868333333333">
        <ele>47.40000000000005</ele>
        <time>2013-05-02T19:04:41.16</time>
      </trkpt>
      <trkpt lat="37.21459" lon="-7.397803333333333">
        <ele>47.200000000000045</ele>
        <time>2013-05-02T19:04:42.16</time>
      </trkpt>
      <trkpt lat="37.214616666666664" lon="-7.397735">
        <ele>46.90000000000005</ele>
        <time>2013-05-02T19:04:43.16</time>
      </trkpt>
      <trkpt lat="37.21463833333333" lon="-7.397671666666667">
        <ele>46.90000000000005</ele>
        <time>2013-05-02T19:04:44.16</time>
      </trkpt>
      <trkpt lat="37.21465666666667" lon="-7.39761">
        <ele>46.90000000000005</ele>
        <time>2013-05-02T19:04:45.15</time>
      </trkpt>
      <trkpt lat="37.21468" lon="-7.397541666666666">
        <ele>46.90000000000005</ele>
        <time>2013-05-02T19:04:46.16</time>
      </trkpt>
      <trkpt lat="37.21471833333333" lon="-7.397485">
        <ele>45.40000000000005</ele>
        <time>2013-05-02T19:04:47.15</time>
      </trkpt>
      <trkpt lat="37.21474166666667" lon="-7.3974166666666665">
        <ele>45.200000000000045</ele>
        <time>2013-05-02T19:04:48.15</time>
      </trkpt>
      <trkpt lat="37.21477" lon="-7.39735">
        <ele>45.00000000000004</ele>
        <time>2013-05-02T19:04:49.16</time>
      </trkpt>
      <trkpt lat="37.214795" lon="-7.397278333333333">
        <ele>45.100000000000044</ele>
        <time>2013-05-02T19:04:50.15</time>
      </trkpt>
      <trkpt lat="37.214825" lon="-7.397213333333333">
        <ele>45.30000000000005</ele>
        <time>2013-05-02T19:04:51.16</time>
      </trkpt>
      <trkpt lat="37.21485333333333" lon="-7.3971366666666665">
        <ele>45.200000000000045</ele>
        <time>2013-05-02T19:04:52.16</time>
      </trkpt>
      <trkpt lat="37.214885" lon="-7.397061666666667">
        <ele>45.100000000000044</ele>
        <time>2013-05-02T19:04:53.16</time>
      </trkpt>
      <trkpt lat="37.21491" lon="-7.396991666666667">
        <ele>45.30000000000005</ele>
        <time>2013-05-02T19:04:54.16</time>
      </trkpt>
      <trkpt lat="37.21494666666667" lon="-7.396911666666667">
        <ele>45.40000000000005</ele>
        <time>2013-05-02T19:04:55.19</time>
      </trkpt>
      <trkpt lat="37.214978333333335" lon="-7.39683">
        <ele>45.60000000000005</ele>
        <time>2013-05-02T19:04:56.19</time>
      </trkpt>
      <trkpt lat="37.21500666666667" lon="-7.3967583333333335">
        <ele>45.20000000000005</ele>
        <time>2013-05-02T19:04:57.15</time>
      </trkpt>
      <trkpt lat="37.21503666666667" lon="-7.396683333333334">
        <ele>45.400000000000055</ele>
        <time>2013-05-02T19:04:58.16</time>
      </trkpt>
      <trkpt lat="37.21506333333333" lon="-7.396608333333333">
        <ele>45.50000000000006</ele>
        <time>2013-05-02T19:04:59.16</time>
      </trkpt>
      <trkpt lat="37.215085" lon="-7.396528333333333">
        <ele>45.20000000000006</ele>
        <time>2013-05-02T19:05:00.15</time>
      </trkpt>
      <trkpt lat="37.21511" lon="-7.3964533333333335">
        <ele>45.50000000000006</ele>
        <time>2013-05-02T19:05:01.15</time>
      </trkpt>
      <trkpt lat="37.21514" lon="-7.396376666666667">
        <ele>45.10000000000006</ele>
        <time>2013-05-02T19:05:02.16</time>
      </trkpt>
      <trkpt lat="37.21516833333333" lon="-7.396303333333333">
        <ele>46.70000000000006</ele>
        <time>2013-05-02T19:05:03.16</time>
      </trkpt>
      <trkpt lat="37.215196666666664" lon="-7.396225">
        <ele>46.90000000000006</ele>
        <time>2013-05-02T19:05:04.16</time>
      </trkpt>
      <trkpt lat="37.21523666666667" lon="-7.39615">
        <ele>47.500000000000064</ele>
        <time>2013-05-02T19:05:05.16</time>
      </trkpt>
      <trkpt lat="37.215268333333334" lon="-7.396073333333334">
        <ele>47.30000000000006</ele>
        <time>2013-05-02T19:05:06.16</time>
      </trkpt>
      <trkpt lat="37.21529666666667" lon="-7.395993333333333">
        <ele>47.40000000000006</ele>
        <time>2013-05-02T19:05:07.16</time>
      </trkpt>
      <trkpt lat="37.215325" lon="-7.395918333333333">
        <ele>46.600000000000065</ele>
        <time>2013-05-02T19:05:08.16</time>
      </trkpt>
      <trkpt lat="37.21535" lon="-7.3958433333333335">
        <ele>47.000000000000064</ele>
        <time>2013-05-02T19:05:09.16</time>
      </trkpt>
      <trkpt lat="37.215381666666666" lon="-7.395771666666667">
        <ele>46.90000000000006</ele>
        <time>2013-05-02T19:05:10.16</time>
      </trkpt>
      <trkpt lat="37.21541333333333" lon="-7.39569">
        <ele>46.90000000000006</ele>
        <time>2013-05-02T19:05:11.19</time>
      </trkpt>
      <trkpt lat="37.21543666666667" lon="-7.395608333333334">
        <ele>46.30000000000006</ele>
        <time>2013-05-02T19:05:12.20</time>
      </trkpt>
      <trkpt lat="37.21547" lon="-7.395518333333333">
        <ele>46.60000000000006</ele>
        <time>2013-05-02T19:05:13.15</time>
      </trkpt>
      <trkpt lat="37.21548833333333" lon="-7.39544">
        <ele>46.60000000000006</ele>
        <time>2013-05-02T19:05:14.16</time>
      </trkpt>
      <trkpt lat="37.21552333333333" lon="-7.39536">
        <ele>46.70000000000006</ele>
        <time>2013-05-02T19:05:15.16</time>
      </trkpt>
      <trkpt lat="37.21555" lon="-7.3952816666666665">
        <ele>46.80000000000006</ele>
        <time>2013-05-02T19:05:16.16</time>
      </trkpt>
      <trkpt lat="37.215581666666665" lon="-7.395195">
        <ele>46.70000000000006</ele>
        <time>2013-05-02T19:05:17.16</time>
      </trkpt>
      <trkpt lat="37.21561666666667" lon="-7.395113333333334">
        <ele>46.80000000000006</ele>
        <time>2013-05-02T19:05:18.16</time>
      </trkpt>
      <trkpt lat="37.215646666666665" lon="-7.395038333333333">
        <ele>46.60000000000006</ele>
        <time>2013-05-02T19:05:19.16</time>
      </trkpt>
      <trkpt lat="37.215673333333335" lon="-7.39496">
        <ele>46.70000000000006</ele>
        <time>2013-05-02T19:05:20.16</time>
      </trkpt>
      <trkpt lat="37.21571" lon="-7.3948833333333335">
        <ele>47.40000000000006</ele>
        <time>2013-05-02T19:05:21.16</time>
      </trkpt>
      <trkpt lat="37.21574" lon="-7.394803333333333">
        <ele>47.90000000000006</ele>
        <time>2013-05-02T19:05:22.16</time>
      </trkpt>
      <trkpt lat="37.21577166666667" lon="-7.39472">
        <ele>47.100000000000065</ele>
        <time>2013-05-02T19:05:23.16</time>
      </trkpt>
      <trkpt lat="37.215805" lon="-7.39465">
        <ele>47.20000000000007</ele>
        <time>2013-05-02T19:05:24.16</time>
      </trkpt>
      <trkpt lat="37.215833333333336" lon="-7.394565">
        <ele>47.40000000000007</ele>
        <time>2013-05-02T19:05:25.16</time>
      </trkpt>
      <trkpt lat="37.215865" lon="-7.394473333333333">
        <ele>49.10000000000007</ele>
        <time>2013-05-02T19:05:26.16</time>
      </trkpt>
      <trkpt lat="37.215896666666666" lon="-7.394393333333333">
        <ele>49.700000000000074</ele>
        <time>2013-05-02T19:05:27.19</time>
      </trkpt>
      <trkpt lat="37.21593" lon="-7.39432">
        <ele>50.300000000000075</ele>
        <time>2013-05-02T19:05:28.24</time>
      </trkpt>
      <trkpt lat="37.215965" lon="-7.394245">
        <ele>51.10000000000007</ele>
        <time>2013-05-02T19:05:29.16</time>
      </trkpt>
      <trkpt lat="37.216008333333335" lon="-7.394166666666667">
        <ele>51.40000000000007</ele>
        <time>2013-05-02T19:05:30.16</time>
      </trkpt>
      <trkpt lat="37.21605" lon="-7.3941">
        <ele>51.40000000000007</ele>
        <time>2013-05-02T19:05:31.16</time>
      </trkpt>
      <trkpt lat="37.21610833333333" lon="-7.394031666666667">
        <ele>51.20000000000007</ele>
        <time>2013-05-02T19:05:32.16</time>
      </trkpt>
      <trkpt lat="37.216161666666665" lon="-7.39399">
        <ele>51.500000000000064</ele>
        <time>2013-05-02T19:05:33.16</time>
      </trkpt>
      <trkpt lat="37.21622166666667" lon="-7.393976666666667">
        <ele>51.40000000000006</ele>
        <time>2013-05-02T19:05:34.15</time>
      </trkpt>
      <trkpt lat="37.216265" lon="-7.394005">
        <ele>51.20000000000006</ele>
        <time>2013-05-02T19:05:35.15</time>
      </trkpt>
      <trkpt lat="37.21634" lon="-7.394116666666666">
        <ele>48.60000000000006</ele>
        <time>2013-05-02T19:05:36.16</time>
      </trkpt>
      <trkpt lat="37.21640166666667" lon="-7.394171666666667">
        <ele>48.10000000000006</ele>
        <time>2013-05-02T19:05:37.16</time>
      </trkpt>
      <trkpt lat="37.21646666666667" lon="-7.394216666666667">
        <ele>47.70000000000006</ele>
        <time>2013-05-02T19:05:38.16</time>
      </trkpt>
      <trkpt lat="37.21653833333333" lon="-7.394253333333333">
        <ele>47.70000000000006</ele>
        <time>2013-05-02T19:05:39.16</time>
      </trkpt>
      <trkpt lat="37.21661666666667" lon="-7.394278333333333">
        <ele>47.90000000000006</ele>
        <time>2013-05-02T19:05:40.18</time>
      </trkpt>
      <trkpt lat="37.21668666666667" lon="-7.394308333333333">
        <ele>47.80000000000006</ele>
        <time>2013-05-02T19:05:41.16</time>
      </trkpt>
      <trkpt lat="37.21673666666667" lon="-7.394345">
        <ele>48.000000000000064</ele>
        <time>2013-05-02T19:05:42.16</time>
      </trkpt>
      <trkpt lat="37.216813333333334" lon="-7.394355">
        <ele>48.30000000000006</ele>
        <time>2013-05-02T19:05:43.16</time>
      </trkpt>
      <trkpt lat="37.216876666666664" lon="-7.39437">
        <ele>48.70000000000006</ele>
        <time>2013-05-02T19:05:44.15</time>
      </trkpt>
      <trkpt lat="37.21694333333333" lon="-7.394396666666666">
        <ele>48.80000000000006</ele>
        <time>2013-05-02T19:05:45.16</time>
      </trkpt>
      <trkpt lat="37.217015" lon="-7.394431666666667">
        <ele>48.60000000000006</ele>
        <time>2013-05-02T19:05:46.16</time>
      </trkpt>
      <trkpt lat="37.21707833333333" lon="-7.394456666666667">
        <ele>48.30000000000006</ele>
        <time>2013-05-02T19:05:47.16</time>
      </trkpt>
      <trkpt lat="37.21713833333333" lon="-7.394475">
        <ele>48.30000000000006</ele>
        <time>2013-05-02T19:05:48.16</time>
      </trkpt>
      <trkpt lat="37.217198333333336" lon="-7.3945">
        <ele>49.40000000000006</ele>
        <time>2013-05-02T19:05:49.16</time>
      </trkpt>
      <trkpt lat="37.217256666666664" lon="-7.394526666666667">
        <ele>50.100000000000065</ele>
        <time>2013-05-02T19:05:50.16</time>
      </trkpt>
      <trkpt lat="37.21731" lon="-7.39456">
        <ele>47.500000000000064</ele>
        <time>2013-05-02T19:05:51.16</time>
      </trkpt>
      <trkpt lat="37.217371666666665" lon="-7.394583333333333">
        <ele>46.90000000000006</ele>
        <time>2013-05-02T19:05:52.16</time>
      </trkpt>
      <trkpt lat="37.217425" lon="-7.394606666666666">
        <ele>46.600000000000065</ele>
        <time>2013-05-02T19:05:53.16</time>
      </trkpt>
      <trkpt lat="37.217483333333334" lon="-7.394628333333333">
        <ele>46.40000000000006</ele>
        <time>2013-05-02T19:05:54.16</time>
      </trkpt>
      <trkpt lat="37.21753" lon="-7.394638333333333">
        <ele>45.70000000000006</ele>
        <time>2013-05-02T19:05:55.16</time>
      </trkpt>
      <trkpt lat="37.21758666666667" lon="-7.39466">
        <ele>45.70000000000006</ele>
        <time>2013-05-02T19:05:56.15</time>
      </trkpt>
      <trkpt lat="37.21764" lon="-7.39468">
        <ele>45.60000000000006</ele>
        <time>2013-05-02T19:05:57.16</time>
      </trkpt>
      <trkpt lat="37.217686666666665" lon="-7.394693333333334">
        <ele>45.70000000000006</ele>
        <time>2013-05-02T19:05:58.16</time>
      </trkpt>
      <trkpt lat="37.21773833333334" lon="-7.394703333333333">
        <ele>48.10000000000006</ele>
        <time>2013-05-02T19:05:59.16</time>
      </trkpt>
      <trkpt lat="37.21779333333333" lon="-7.394716666666667">
        <ele>48.60000000000006</ele>
        <time>2013-05-02T19:06:00.14</time>
      </trkpt>
      <trkpt lat="37.21784" lon="-7.394735">
        <ele>48.900000000000055</ele>
        <time>2013-05-02T19:06:01.15</time>
      </trkpt>
      <trkpt lat="37.217886666666665" lon="-7.394746666666666">
        <ele>49.10000000000006</ele>
        <time>2013-05-02T19:06:02.15</time>
      </trkpt>
      <trkpt lat="37.21792833333333" lon="-7.3947666666666665">
        <ele>48.400000000000055</ele>
        <time>2013-05-02T19:06:03.15</time>
      </trkpt>
      <trkpt lat="37.21796833333333" lon="-7.394783333333334">
        <ele>48.300000000000054</ele>
        <time>2013-05-02T19:06:04.16</time>
      </trkpt>
      <trkpt lat="37.21800833333333" lon="-7.394803333333333">
        <ele>48.800000000000054</ele>
        <time>2013-05-02T19:06:05.15</time>
      </trkpt>
      <trkpt lat="37.218046666666666" lon="-7.394823333333333">
        <ele>49.400000000000055</ele>
        <time>2013-05-02T19:06:06.16</time>
      </trkpt>
      <trkpt lat="37.21808166666667" lon="-7.394843333333333">
        <ele>49.300000000000054</ele>
        <time>2013-05-02T19:06:07.16</time>
      </trkpt>
      <trkpt lat="37.21811" lon="-7.394868333333333">
        <ele>49.50000000000006</ele>
        <time>2013-05-02T19:06:08.15</time>
      </trkpt>
      <trkpt lat="37.218135" lon="-7.394886666666666">
        <ele>48.900000000000055</ele>
        <time>2013-05-02T19:06:09.15</time>
      </trkpt>
      <trkpt lat="37.21817" lon="-7.394896666666667">
        <ele>48.800000000000054</ele>
        <time>2013-05-02T19:06:10.15</time>
      </trkpt>
      <trkpt lat="37.21819166666667" lon="-7.394918333333333">
        <ele>48.60000000000005</ele>
        <time>2013-05-02T19:06:11.15</time>
      </trkpt>
      <trkpt lat="37.218226666666666" lon="-7.394921666666667">
        <ele>49.40000000000005</ele>
        <time>2013-05-02T19:06:12.15</time>
      </trkpt>
      <trkpt lat="37.21826166666666" lon="-7.394925">
        <ele>50.00000000000005</ele>
        <time>2013-05-02T19:06:13.15</time>
      </trkpt>
      <trkpt lat="37.218286666666664" lon="-7.394941666666667">
        <ele>51.30000000000005</ele>
        <time>2013-05-02T19:06:14.16</time>
      </trkpt>
      <trkpt lat="37.218311666666665" lon="-7.39496">
        <ele>51.50000000000005</ele>
        <time>2013-05-02T19:06:15.17</time>
      </trkpt>
      <trkpt lat="37.21834" lon="-7.394965">
        <ele>54.20000000000005</ele>
        <time>2013-05-02T19:06:16.17</time>
      </trkpt>
      <trkpt lat="37.21837" lon="-7.394973333333334">
        <ele>54.50000000000005</ele>
        <time>2013-05-02T19:06:17.15</time>
      </trkpt>
      <trkpt lat="37.218405" lon="-7.394988333333333">
        <ele>54.90000000000005</ele>
        <time>2013-05-02T19:06:18.15</time>
      </trkpt>
      <trkpt lat="37.21843333333333" lon="-7.395011666666667">
        <ele>55.00000000000005</ele>
        <time>2013-05-02T19:06:19.21</time>
      </trkpt>
      <trkpt lat="37.21846166666667" lon="-7.395036666666667">
        <ele>55.00000000000005</ele>
        <time>2013-05-02T19:06:20.16</time>
      </trkpt>
      <trkpt lat="37.21848" lon="-7.395065">
        <ele>54.90000000000005</ele>
        <time>2013-05-02T19:06:21.15</time>
      </trkpt>
      <trkpt lat="37.21850166666667" lon="-7.395081666666667">
        <ele>60.30000000000005</ele>
        <time>2013-05-02T19:06:22.15</time>
      </trkpt>
      <trkpt lat="37.21854" lon="-7.3951">
        <ele>60.40000000000005</ele>
        <time>2013-05-02T19:06:23.15</time>
      </trkpt>
      <trkpt lat="37.218583333333335" lon="-7.39513">
        <ele>60.50000000000005</ele>
        <time>2013-05-02T19:06:24.15</time>
      </trkpt>
      <trkpt lat="37.21861333333333" lon="-7.395148333333333">
        <ele>61.00000000000005</ele>
        <time>2013-05-02T19:06:25.15</time>
      </trkpt>
      <trkpt lat="37.218645" lon="-7.395181666666667">
        <ele>61.10000000000005</ele>
        <time>2013-05-02T19:06:26.15</time>
      </trkpt>
      <trkpt lat="37.218673333333335" lon="-7.395215">
        <ele>60.800000000000054</ele>
        <time>2013-05-02T19:06:27.15</time>
      </trkpt>
      <trkpt lat="37.218695" lon="-7.395246666666667">
        <ele>61.10000000000005</ele>
        <time>2013-05-02T19:06:28.15</time>
      </trkpt>
      <trkpt lat="37.21873166666666" lon="-7.39527">
        <ele>61.800000000000054</ele>
        <time>2013-05-02T19:06:29.15</time>
      </trkpt>
      <trkpt lat="37.21876" lon="-7.395295">
        <ele>62.00000000000006</ele>
        <time>2013-05-02T19:06:30.15</time>
      </trkpt>
      <trkpt lat="37.218795" lon="-7.39532">
        <ele>62.70000000000006</ele>
        <time>2013-05-02T19:06:31.16</time>
      </trkpt>
      <trkpt lat="37.21882166666666" lon="-7.395348333333334">
        <ele>63.10000000000006</ele>
        <time>2013-05-02T19:06:32.16</time>
      </trkpt>
      <trkpt lat="37.21884333333333" lon="-7.395375">
        <ele>63.00000000000006</ele>
        <time>2013-05-02T19:06:33.15</time>
      </trkpt>
      <trkpt lat="37.218865" lon="-7.395401666666666">
        <ele>62.800000000000054</ele>
        <time>2013-05-02T19:06:34.15</time>
      </trkpt>
      <trkpt lat="37.21888833333333" lon="-7.395428333333333">
        <ele>62.800000000000054</ele>
        <time>2013-05-02T19:06:35.15</time>
      </trkpt>
      <trkpt lat="37.21890833333333" lon="-7.395451666666666">
        <ele>62.50000000000006</ele>
        <time>2013-05-02T19:06:36.15</time>
      </trkpt>
      <trkpt lat="37.21892833333333" lon="-7.395483333333333">
        <ele>62.900000000000055</ele>
        <time>2013-05-02T19:06:37.15</time>
      </trkpt>
      <trkpt lat="37.21895" lon="-7.395508333333333">
        <ele>63.50000000000006</ele>
        <time>2013-05-02T19:06:38.21</time>
      </trkpt>
      <trkpt lat="37.21897" lon="-7.395535">
        <ele>63.400000000000055</ele>
        <time>2013-05-02T19:06:39.15</time>
      </trkpt>
      <trkpt lat="37.21899666666667" lon="-7.395556666666667">
        <ele>63.800000000000054</ele>
        <time>2013-05-02T19:06:40.15</time>
      </trkpt>
      <trkpt lat="37.219015" lon="-7.395581666666667">
        <ele>64.10000000000005</ele>
        <time>2013-05-02T19:06:41.16</time>
      </trkpt>
      <trkpt lat="37.21903833333333" lon="-7.395605">
        <ele>64.60000000000005</ele>
        <time>2013-05-02T19:06:42.15</time>
      </trkpt>
      <trkpt lat="37.219051666666665" lon="-7.395636666666666">
        <ele>64.60000000000005</ele>
        <time>2013-05-02T19:06:43.16</time>
      </trkpt>
      <trkpt lat="37.21906166666667" lon="-7.395671666666667">
        <ele>64.10000000000005</ele>
        <time>2013-05-02T19:06:44.17</time>
      </trkpt>
      <trkpt lat="37.21906666666667" lon="-7.395706666666666">
        <ele>64.20000000000005</ele>
        <time>2013-05-02T19:06:45.16</time>
      </trkpt>
      <trkpt lat="37.219071666666665" lon="-7.395743333333333">
        <ele>63.90000000000005</ele>
        <time>2013-05-02T19:06:46.15</time>
      </trkpt>
      <trkpt lat="37.219078333333336" lon="-7.395778333333333">
        <ele>64.10000000000005</ele>
        <time>2013-05-02T19:06:47.16</time>
      </trkpt>
      <trkpt lat="37.219075" lon="-7.395811666666667">
        <ele>65.60000000000005</ele>
        <time>2013-05-02T19:06:48.16</time>
      </trkpt>
      <trkpt lat="37.21908166666667" lon="-7.3958466666666665">
        <ele>66.20000000000005</ele>
        <time>2013-05-02T19:06:49.15</time>
      </trkpt>
      <trkpt lat="37.21908" lon="-7.395871666666666">
        <ele>67.90000000000005</ele>
        <time>2013-05-02T19:06:50.15</time>
      </trkpt>
      <trkpt lat="37.21908333333333" lon="-7.395896666666666">
        <ele>69.20000000000005</ele>
        <time>2013-05-02T19:06:51.15</time>
      </trkpt>
      <trkpt lat="37.219065" lon="-7.395933333333334">
        <ele>68.60000000000005</ele>
        <time>2013-05-02T19:06:52.15</time>
      </trkpt>
      <trkpt lat="37.219053333333335" lon="-7.39597">
        <ele>68.40000000000005</ele>
        <time>2013-05-02T19:06:53.15</time>
      </trkpt>
      <trkpt lat="37.21904333333333" lon="-7.396">
        <ele>68.30000000000005</ele>
        <time>2013-05-02T19:06:54.15</time>
      </trkpt>
      <trkpt lat="37.21904" lon="-7.396036666666666">
        <ele>68.90000000000005</ele>
        <time>2013-05-02T19:06:55.15</time>
      </trkpt>
      <trkpt lat="37.219035" lon="-7.396066666666667">
        <ele>69.20000000000005</ele>
        <time>2013-05-02T19:06:56.15</time>
      </trkpt>
      <trkpt lat="37.21903" lon="-7.396093333333333">
        <ele>69.80000000000004</ele>
        <time>2013-05-02T19:06:57.16</time>
      </trkpt>
      <trkpt lat="37.21905" lon="-7.396115">
        <ele>70.70000000000005</ele>
        <time>2013-05-02T19:06:58.16</time>
      </trkpt>
      <trkpt lat="37.21906166666667" lon="-7.396143333333334">
        <ele>70.80000000000004</ele>
        <time>2013-05-02T19:06:59.15</time>
      </trkpt>
      <trkpt lat="37.21906833333333" lon="-7.396171666666667">
        <ele>70.70000000000005</ele>
        <time>2013-05-02T19:07:00.13</time>
      </trkpt>
      <trkpt lat="37.219076666666666" lon="-7.396198333333333">
        <ele>70.70000000000005</ele>
        <time>2013-05-02T19:07:01.15</time>
      </trkpt>
      <trkpt lat="37.219085" lon="-7.396226666666666">
        <ele>70.80000000000004</ele>
        <time>2013-05-02T19:07:02.15</time>
      </trkpt>
      <trkpt lat="37.21909" lon="-7.39625">
        <ele>70.40000000000003</ele>
        <time>2013-05-02T19:07:03.15</time>
      </trkpt>
      <trkpt lat="37.21909333333333" lon="-7.396281666666667">
        <ele>70.40000000000003</ele>
        <time>2013-05-02T19:07:04.16</time>
      </trkpt>
      <trkpt lat="37.21910833333333" lon="-7.396305">
        <ele>70.30000000000004</ele>
        <time>2013-05-02T19:07:05.15</time>
      </trkpt>
      <trkpt lat="37.21911333333333" lon="-7.396335">
        <ele>70.30000000000004</ele>
        <time>2013-05-02T19:07:06.16</time>
      </trkpt>
      <trkpt lat="37.21912" lon="-7.3963833333333335">
        <ele>70.00000000000004</ele>
        <time>2013-05-02T19:07:07.15</time>
      </trkpt>
      <trkpt lat="37.219123333333336" lon="-7.396413333333333">
        <ele>70.20000000000005</ele>
        <time>2013-05-02T19:07:08.17</time>
      </trkpt>
      <trkpt lat="37.21913166666667" lon="-7.3964533333333335">
        <ele>70.40000000000005</ele>
        <time>2013-05-02T19:07:09.15</time>
      </trkpt>
      <trkpt lat="37.219141666666665" lon="-7.3964783333333335">
        <ele>70.80000000000005</ele>
        <time>2013-05-02T19:07:10.15</time>
      </trkpt>
      <trkpt lat="37.21915333333333" lon="-7.396523333333334">
        <ele>70.90000000000005</ele>
        <time>2013-05-02T19:07:11.15</time>
      </trkpt>
      <trkpt lat="37.21917" lon="-7.39656">
        <ele>70.90000000000005</ele>
        <time>2013-05-02T19:07:12.15</time>
      </trkpt>
      <trkpt lat="37.21918" lon="-7.3965966666666665">
        <ele>70.40000000000005</ele>
        <time>2013-05-02T19:07:13.16</time>
      </trkpt>
      <trkpt lat="37.21919666666667" lon="-7.396633333333333">
        <ele>70.00000000000004</ele>
        <time>2013-05-02T19:07:14.16</time>
      </trkpt>
      <trkpt lat="37.21921" lon="-7.39667">
        <ele>70.20000000000005</ele>
        <time>2013-05-02T19:07:15.16</time>
      </trkpt>
      <trkpt lat="37.21921833333333" lon="-7.3967">
        <ele>70.10000000000005</ele>
        <time>2013-05-02T19:07:16.16</time>
      </trkpt>
      <trkpt lat="37.21923666666667" lon="-7.39674">
        <ele>69.30000000000005</ele>
        <time>2013-05-02T19:07:17.16</time>
      </trkpt>
      <trkpt lat="37.219255" lon="-7.39677">
        <ele>69.00000000000006</ele>
        <time>2013-05-02T19:07:18.16</time>
      </trkpt>
      <trkpt lat="37.219271666666664" lon="-7.396798333333333">
        <ele>69.10000000000005</ele>
        <time>2013-05-02T19:07:19.17</time>
      </trkpt>
      <trkpt lat="37.21928166666667" lon="-7.396828333333334">
        <ele>69.10000000000005</ele>
        <time>2013-05-02T19:07:20.17</time>
      </trkpt>
      <trkpt lat="37.219296666666665" lon="-7.396858333333333">
        <ele>69.20000000000005</ele>
        <time>2013-05-02T19:07:21.15</time>
      </trkpt>
      <trkpt lat="37.219305" lon="-7.396888333333333">
        <ele>69.10000000000005</ele>
        <time>2013-05-02T19:07:22.15</time>
      </trkpt>
      <trkpt lat="37.21930166666667" lon="-7.39691">
        <ele>69.30000000000005</ele>
        <time>2013-05-02T19:07:23.15</time>
      </trkpt>
      <trkpt lat="37.219325" lon="-7.396941666666667">
        <ele>69.40000000000005</ele>
        <time>2013-05-02T19:07:24.15</time>
      </trkpt>
      <trkpt lat="37.21933" lon="-7.396973333333333">
        <ele>68.80000000000005</ele>
        <time>2013-05-02T19:07:25.15</time>
      </trkpt>
      <trkpt lat="37.21934" lon="-7.397005">
        <ele>69.40000000000005</ele>
        <time>2013-05-02T19:07:26.16</time>
      </trkpt>
      <trkpt lat="37.219343333333335" lon="-7.39704">
        <ele>69.30000000000005</ele>
        <time>2013-05-02T19:07:27.15</time>
      </trkpt>
      <trkpt lat="37.21934666666667" lon="-7.397065">
        <ele>69.30000000000005</ele>
        <time>2013-05-02T19:07:28.16</time>
      </trkpt>
      <trkpt lat="37.219368333333335" lon="-7.397098333333333">
        <ele>70.30000000000005</ele>
        <time>2013-05-02T19:07:29.15</time>
      </trkpt>
      <trkpt lat="37.21937333333333" lon="-7.397126666666667">
        <ele>71.10000000000005</ele>
        <time>2013-05-02T19:07:30.15</time>
      </trkpt>
      <trkpt lat="37.219388333333335" lon="-7.397143333333333">
        <ele>71.30000000000005</ele>
        <time>2013-05-02T19:07:31.15</time>
      </trkpt>
      <trkpt lat="37.21939833333333" lon="-7.397166666666666">
        <ele>71.70000000000006</ele>
        <time>2013-05-02T19:07:32.15</time>
      </trkpt>
      <trkpt lat="37.21941" lon="-7.397195">
        <ele>72.10000000000007</ele>
        <time>2013-05-02T19:07:33.16</time>
      </trkpt>
      <trkpt lat="37.219425" lon="-7.397225">
        <ele>71.20000000000006</ele>
        <time>2013-05-02T19:07:34.16</time>
      </trkpt>
      <trkpt lat="37.219438333333336" lon="-7.397251666666667">
        <ele>70.90000000000006</ele>
        <time>2013-05-02T19:07:35.15</time>
      </trkpt>
      <trkpt lat="37.219455" lon="-7.397273333333334">
        <ele>71.50000000000006</ele>
        <time>2013-05-02T19:07:36.16</time>
      </trkpt>
      <trkpt lat="37.219475" lon="-7.3973">
        <ele>71.40000000000006</ele>
        <time>2013-05-02T19:07:37.15</time>
      </trkpt>
      <trkpt lat="37.21949" lon="-7.397321666666667">
        <ele>71.90000000000006</ele>
        <time>2013-05-02T19:07:38.16</time>
      </trkpt>
      <trkpt lat="37.21951" lon="-7.397358333333333">
        <ele>72.00000000000006</ele>
        <time>2013-05-02T19:07:39.16</time>
      </trkpt>
      <trkpt lat="37.219525" lon="-7.397388333333334">
        <ele>71.30000000000005</ele>
        <time>2013-05-02T19:07:40.15</time>
      </trkpt>
      <trkpt lat="37.219545" lon="-7.39742">
        <ele>71.10000000000005</ele>
        <time>2013-05-02T19:07:41.16</time>
      </trkpt>
      <trkpt lat="37.21956333333333" lon="-7.397455">
        <ele>71.00000000000006</ele>
        <time>2013-05-02T19:07:42.15</time>
      </trkpt>
      <trkpt lat="37.21958166666667" lon="-7.397485">
        <ele>71.20000000000006</ele>
        <time>2013-05-02T19:07:43.15</time>
      </trkpt>
      <trkpt lat="37.2196" lon="-7.3975116666666665">
        <ele>71.30000000000005</ele>
        <time>2013-05-02T19:07:44.18</time>
      </trkpt>
      <trkpt lat="37.21961666666667" lon="-7.397538333333333">
        <ele>71.50000000000006</ele>
        <time>2013-05-02T19:07:45.21</time>
      </trkpt>
      <trkpt lat="37.21963" lon="-7.397565">
        <ele>70.80000000000005</ele>
        <time>2013-05-02T19:07:46.16</time>
      </trkpt>
      <trkpt lat="37.21965" lon="-7.39759">
        <ele>70.70000000000006</ele>
        <time>2013-05-02T19:07:47.16</time>
      </trkpt>
      <trkpt lat="37.21966666666667" lon="-7.397611666666666">
        <ele>70.70000000000006</ele>
        <time>2013-05-02T19:07:48.16</time>
      </trkpt>
      <trkpt lat="37.219683333333336" lon="-7.397638333333333">
        <ele>71.20000000000006</ele>
        <time>2013-05-02T19:07:49.16</time>
      </trkpt>
      <trkpt lat="37.21969333333333" lon="-7.397666666666667">
        <ele>69.50000000000006</ele>
        <time>2013-05-02T19:07:50.16</time>
      </trkpt>
      <trkpt lat="37.219703333333335" lon="-7.397696666666667">
        <ele>68.20000000000006</ele>
        <time>2013-05-02T19:07:51.16</time>
      </trkpt>
      <trkpt lat="37.219725" lon="-7.397723333333333">
        <ele>68.40000000000006</ele>
        <time>2013-05-02T19:07:52.16</time>
      </trkpt>
      <trkpt lat="37.219743333333334" lon="-7.39775">
        <ele>68.00000000000006</ele>
        <time>2013-05-02T19:07:53.15</time>
      </trkpt>
      <trkpt lat="37.21976166666666" lon="-7.39778">
        <ele>68.50000000000006</ele>
        <time>2013-05-02T19:07:54.15</time>
      </trkpt>
      <trkpt lat="37.21978166666667" lon="-7.397808333333334">
        <ele>68.30000000000005</ele>
        <time>2013-05-02T19:07:55.15</time>
      </trkpt>
      <trkpt lat="37.21979833333334" lon="-7.397836666666667">
        <ele>68.20000000000006</ele>
        <time>2013-05-02T19:07:56.15</time>
      </trkpt>
      <trkpt lat="37.21982" lon="-7.397861666666667">
        <ele>67.90000000000006</ele>
        <time>2013-05-02T19:07:57.15</time>
      </trkpt>
      <trkpt lat="37.21984333333333" lon="-7.397885">
        <ele>67.70000000000006</ele>
        <time>2013-05-02T19:07:58.16</time>
      </trkpt>
      <trkpt lat="37.219863333333336" lon="-7.397916666666666">
        <ele>67.70000000000006</ele>
        <time>2013-05-02T19:07:59.15</time>
      </trkpt>
      <trkpt lat="37.219883333333335" lon="-7.397941666666667">
        <ele>68.40000000000006</ele>
        <time>2013-05-02T19:08:00.13</time>
      </trkpt>
      <trkpt lat="37.219903333333335" lon="-7.397971666666667">
        <ele>68.30000000000007</ele>
        <time>2013-05-02T19:08:01.15</time>
      </trkpt>
      <trkpt lat="37.219923333333334" lon="-7.397998333333334">
        <ele>68.20000000000007</ele>
        <time>2013-05-02T19:08:02.15</time>
      </trkpt>
      <trkpt lat="37.21993666666667" lon="-7.39803">
        <ele>68.30000000000007</ele>
        <time>2013-05-02T19:08:03.15</time>
      </trkpt>
      <trkpt lat="37.21991666666667" lon="-7.398066666666667">
        <ele>69.50000000000007</ele>
        <time>2013-05-02T19:08:04.15</time>
      </trkpt>
      <trkpt lat="37.21991166666667" lon="-7.3980966666666665">
        <ele>69.90000000000008</ele>
        <time>2013-05-02T19:08:05.15</time>
      </trkpt>
      <trkpt lat="37.219883333333335" lon="-7.398111666666667">
        <ele>69.90000000000008</ele>
        <time>2013-05-02T19:08:06.16</time>
      </trkpt>
      <trkpt lat="37.21986666666667" lon="-7.398135">
        <ele>69.80000000000008</ele>
        <time>2013-05-02T19:08:07.16</time>
      </trkpt>
      <trkpt lat="37.21984666666667" lon="-7.398161666666667">
        <ele>70.10000000000008</ele>
        <time>2013-05-02T19:08:08.16</time>
      </trkpt>
      <trkpt lat="37.21983" lon="-7.398183333333333">
        <ele>70.40000000000008</ele>
        <time>2013-05-02T19:08:09.15</time>
      </trkpt>
      <trkpt lat="37.219813333333335" lon="-7.398205">
        <ele>70.70000000000007</ele>
        <time>2013-05-02T19:08:10.15</time>
      </trkpt>
      <trkpt lat="37.21979666666667" lon="-7.398223333333333">
        <ele>70.50000000000007</ele>
        <time>2013-05-02T19:08:11.15</time>
      </trkpt>
      <trkpt lat="37.21978" lon="-7.398246666666667">
        <ele>70.70000000000007</ele>
        <time>2013-05-02T19:08:12.15</time>
      </trkpt>
      <trkpt lat="37.21976" lon="-7.398268333333333">
        <ele>70.70000000000007</ele>
        <time>2013-05-02T19:08:13.15</time>
      </trkpt>
      <trkpt lat="37.219741666666664" lon="-7.3982866666666665">
        <ele>70.80000000000007</ele>
        <time>2013-05-02T19:08:14.15</time>
      </trkpt>
      <trkpt lat="37.219728333333336" lon="-7.398305">
        <ele>71.10000000000007</ele>
        <time>2013-05-02T19:08:15.15</time>
      </trkpt>
      <trkpt lat="37.21971166666667" lon="-7.398325">
        <ele>71.00000000000007</ele>
        <time>2013-05-02T19:08:16.15</time>
      </trkpt>
      <trkpt lat="37.21970666666667" lon="-7.39834">
        <ele>71.10000000000007</ele>
        <time>2013-05-02T19:08:17.15</time>
      </trkpt>
      <trkpt lat="37.219695" lon="-7.39836">
        <ele>71.30000000000007</ele>
        <time>2013-05-02T19:08:18.15</time>
      </trkpt>
      <trkpt lat="37.219678333333334" lon="-7.3983783333333335">
        <ele>71.50000000000007</ele>
        <time>2013-05-02T19:08:19.16</time>
      </trkpt>
      <trkpt lat="37.21966166666667" lon="-7.398398333333334">
        <ele>71.80000000000007</ele>
        <time>2013-05-02T19:08:20.15</time>
      </trkpt>
      <trkpt lat="37.21964166666667" lon="-7.398425">
        <ele>72.00000000000007</ele>
        <time>2013-05-02T19:08:21.15</time>
      </trkpt>
      <trkpt lat="37.219635" lon="-7.3984483333333335">
        <ele>72.10000000000007</ele>
        <time>2013-05-02T19:08:22.15</time>
      </trkpt>
      <trkpt lat="37.219613333333335" lon="-7.398458333333333">
        <ele>72.10000000000007</ele>
        <time>2013-05-02T19:08:23.17</time>
      </trkpt>
      <trkpt lat="37.21960166666667" lon="-7.3984733333333335">
        <ele>72.40000000000006</ele>
        <time>2013-05-02T19:08:24.17</time>
      </trkpt>
      <trkpt lat="37.21958166666667" lon="-7.398493333333334">
        <ele>72.70000000000006</ele>
        <time>2013-05-02T19:08:25.15</time>
      </trkpt>
      <trkpt lat="37.219566666666665" lon="-7.398506666666667">
        <ele>72.60000000000007</ele>
        <time>2013-05-02T19:08:26.15</time>
      </trkpt>
      <trkpt lat="37.21953833333333" lon="-7.39852">
        <ele>73.10000000000007</ele>
        <time>2013-05-02T19:08:27.15</time>
      </trkpt>
      <trkpt lat="37.219516666666664" lon="-7.3985433333333335">
        <ele>73.00000000000007</ele>
        <time>2013-05-02T19:08:28.16</time>
      </trkpt>
      <trkpt lat="37.21948833333333" lon="-7.398556666666667">
        <ele>73.70000000000007</ele>
        <time>2013-05-02T19:08:29.15</time>
      </trkpt>
      <trkpt lat="37.21947" lon="-7.398568333333333">
        <ele>74.00000000000007</ele>
        <time>2013-05-02T19:08:30.16</time>
      </trkpt>
      <trkpt lat="37.219451666666664" lon="-7.398575">
        <ele>74.00000000000007</ele>
        <time>2013-05-02T19:08:31.15</time>
      </trkpt>
      <trkpt lat="37.21942833333333" lon="-7.3985666666666665">
        <ele>75.20000000000007</ele>
        <time>2013-05-02T19:08:32.16</time>
      </trkpt>
      <trkpt lat="37.2194" lon="-7.398571666666666">
        <ele>76.20000000000007</ele>
        <time>2013-05-02T19:08:33.15</time>
      </trkpt>
      <trkpt lat="37.21935166666667" lon="-7.39859">
        <ele>76.20000000000007</ele>
        <time>2013-05-02T19:08:34.16</time>
      </trkpt>
      <trkpt lat="37.219335" lon="-7.398611666666667">
        <ele>76.10000000000008</ele>
        <time>2013-05-02T19:08:35.16</time>
      </trkpt>
      <trkpt lat="37.21930666666667" lon="-7.39863">
        <ele>77.80000000000008</ele>
        <time>2013-05-02T19:08:36.15</time>
      </trkpt>
      <trkpt lat="37.21928166666667" lon="-7.39865">
        <ele>78.10000000000008</ele>
        <time>2013-05-02T19:08:37.15</time>
      </trkpt>
      <trkpt lat="37.219256666666666" lon="-7.398663333333333">
        <ele>78.30000000000008</ele>
        <time>2013-05-02T19:08:38.16</time>
      </trkpt>
      <trkpt lat="37.219225" lon="-7.398686666666666">
        <ele>78.90000000000008</ele>
        <time>2013-05-02T19:08:39.18</time>
      </trkpt>
      <trkpt lat="37.219186666666666" lon="-7.3987">
        <ele>78.50000000000007</ele>
        <time>2013-05-02T19:08:40.18</time>
      </trkpt>
      <trkpt lat="37.21915166666667" lon="-7.39872">
        <ele>79.20000000000007</ele>
        <time>2013-05-02T19:08:41.16</time>
      </trkpt>
      <trkpt lat="37.219118333333334" lon="-7.39874">
        <ele>79.40000000000008</ele>
        <time>2013-05-02T19:08:42.16</time>
      </trkpt>
      <trkpt lat="37.21908666666667" lon="-7.398756666666666">
        <ele>79.60000000000008</ele>
        <time>2013-05-02T19:08:43.16</time>
      </trkpt>
      <trkpt lat="37.21904833333333" lon="-7.398776666666667">
        <ele>80.10000000000008</ele>
        <time>2013-05-02T19:08:44.17</time>
      </trkpt>
      <trkpt lat="37.219008333333335" lon="-7.398793333333334">
        <ele>80.10000000000008</ele>
        <time>2013-05-02T19:08:45.16</time>
      </trkpt>
      <trkpt lat="37.21897166666667" lon="-7.39881">
        <ele>80.30000000000008</ele>
        <time>2013-05-02T19:08:46.16</time>
      </trkpt>
      <trkpt lat="37.21891" lon="-7.398826666666666">
        <ele>80.30000000000008</ele>
        <time>2013-05-02T19:08:47.16</time>
      </trkpt>
      <trkpt lat="37.218846666666664" lon="-7.39886">
        <ele>80.20000000000009</ele>
        <time>2013-05-02T19:08:48.17</time>
      </trkpt>
      <trkpt lat="37.218795" lon="-7.398868333333334">
        <ele>84.1000000000001</ele>
        <time>2013-05-02T19:08:49.16</time>
      </trkpt>
      <trkpt lat="37.218755" lon="-7.3989183333333335">
        <ele>84.3000000000001</ele>
        <time>2013-05-02T19:08:50.16</time>
      </trkpt>
      <trkpt lat="37.21874833333333" lon="-7.39896">
        <ele>86.8000000000001</ele>
        <time>2013-05-02T19:08:51.16</time>
      </trkpt>
      <trkpt lat="37.21874666666667" lon="-7.39901">
        <ele>88.3000000000001</ele>
        <time>2013-05-02T19:08:52.17</time>
      </trkpt>
      <trkpt lat="37.218775" lon="-7.399085">
        <ele>85.0000000000001</ele>
        <time>2013-05-02T19:08:53.18</time>
      </trkpt>
      <trkpt lat="37.218795" lon="-7.399111666666666">
        <ele>85.8000000000001</ele>
        <time>2013-05-02T19:08:54.15</time>
      </trkpt>
      <trkpt lat="37.218806666666666" lon="-7.39913">
        <ele>86.1000000000001</ele>
        <time>2013-05-02T19:08:55.15</time>
      </trkpt>
      <trkpt lat="37.21879333333333" lon="-7.399078333333334">
        <ele>85.5</ele>
        <time>2013-05-02T19:09:02.15</time>
      </trkpt>
      <trkpt lat="37.2188" lon="-7.399061666666666">
        <ele>85.3</ele>
        <time>2013-05-02T19:10:10.57</time>
      </trkpt>
      <trkpt lat="37.218806666666666" lon="-7.399043333333333">
        <ele>84.5</ele>
        <time>2013-05-02T19:10:11.36</time>
      </trkpt>
      <trkpt lat="37.218806666666666" lon="-7.399043333333333">
        <ele>84.5</ele>
        <time>2013-05-02T19:10:12.36</time>
      </trkpt>
    </trkseg>
  </trk>
</gpx>